<?xml version="1.0" encoding="UTF-8" standalone="no" ?>
<gpx xmlns="http://www.topografix.com/GPX/1/1" xmlns:xsi="http://www.w3.org/2001/XMLSchema-instance" xsi:schemaLocation="http://www.topografix.com/GPX/1/1 http://www.topografix.com/GPX/1/1/gpx.xsd" version="1.1" creator="VisuGPX - https://www.visugpx.com">
  <metadata>
    <name>Pornichet 04/02/2021</name>
    <desc><![CDATA[Sortie VTT du jeudi 04 février 2021]]></desc>
  </metadata>
  <trk>
    <name><![CDATA[Pornichet Cyclisme]]></name>
    <trkseg>
      <trkpt lat="47.26129" lon="-2.32645">
        <ele>8.1999998092651</ele>
        <time>2021-02-04T08:23:11.000Z</time>
      </trkpt>
      <trkpt lat="47.26149" lon="-2.32644">
        <ele>8.1999998092651</ele>
        <time>2021-02-04T08:23:15.000Z</time>
      </trkpt>
      <trkpt lat="47.26154" lon="-2.32645">
        <ele>8</ele>
        <time>2021-02-04T08:23:16.000Z</time>
      </trkpt>
      <trkpt lat="47.26164" lon="-2.32648">
        <ele>8</ele>
        <time>2021-02-04T08:23:18.000Z</time>
      </trkpt>
      <trkpt lat="47.26204" lon="-2.32666">
        <ele>8</ele>
        <time>2021-02-04T08:23:25.000Z</time>
      </trkpt>
      <trkpt lat="47.2621" lon="-2.32671">
        <ele>8</ele>
        <time>2021-02-04T08:23:26.000Z</time>
      </trkpt>
      <trkpt lat="47.26233" lon="-2.32692">
        <ele>8</ele>
        <time>2021-02-04T08:23:30.000Z</time>
      </trkpt>
      <trkpt lat="47.26268" lon="-2.32733">
        <ele>8</ele>
        <time>2021-02-04T08:23:37.000Z</time>
      </trkpt>
      <trkpt lat="47.26305" lon="-2.32789">
        <ele>8</ele>
        <time>2021-02-04T08:23:45.000Z</time>
      </trkpt>
      <trkpt lat="47.26322" lon="-2.32831">
        <ele>7.5999999046326</ele>
        <time>2021-02-04T08:23:50.000Z</time>
      </trkpt>
      <trkpt lat="47.26324" lon="-2.3284">
        <ele>7.1999998092651</ele>
        <time>2021-02-04T08:23:51.000Z</time>
      </trkpt>
      <trkpt lat="47.26326" lon="-2.32848">
        <ele>6.8000001907349</ele>
        <time>2021-02-04T08:23:52.000Z</time>
      </trkpt>
      <trkpt lat="47.26326" lon="-2.32857">
        <ele>6.4000000953674</ele>
        <time>2021-02-04T08:23:53.000Z</time>
      </trkpt>
      <trkpt lat="47.26327" lon="-2.32864">
        <ele>6</ele>
        <time>2021-02-04T08:23:54.000Z</time>
      </trkpt>
      <trkpt lat="47.26329" lon="-2.32869">
        <ele>6</ele>
        <time>2021-02-04T08:23:55.000Z</time>
      </trkpt>
      <trkpt lat="47.2634" lon="-2.32874">
        <ele>6</ele>
        <time>2021-02-04T08:23:58.000Z</time>
      </trkpt>
      <trkpt lat="47.26344" lon="-2.32879">
        <ele>6</ele>
        <time>2021-02-04T08:23:59.000Z</time>
      </trkpt>
      <trkpt lat="47.26353" lon="-2.32893">
        <ele>6</ele>
        <time>2021-02-04T08:24:01.000Z</time>
      </trkpt>
      <trkpt lat="47.26361" lon="-2.32916">
        <ele>6</ele>
        <time>2021-02-04T08:24:04.000Z</time>
      </trkpt>
      <trkpt lat="47.26349" lon="-2.32927">
        <ele>6</ele>
        <time>2021-02-04T08:24:06.000Z</time>
      </trkpt>
      <trkpt lat="47.26351" lon="-2.32968">
        <ele>6</ele>
        <time>2021-02-04T08:24:12.000Z</time>
      </trkpt>
      <trkpt lat="47.26355" lon="-2.32974">
        <ele>6</ele>
        <time>2021-02-04T08:24:13.000Z</time>
      </trkpt>
      <trkpt lat="47.26372" lon="-2.33006">
        <ele>6</ele>
        <time>2021-02-04T08:24:18.000Z</time>
      </trkpt>
      <trkpt lat="47.26372" lon="-2.33013">
        <ele>6</ele>
        <time>2021-02-04T08:24:19.000Z</time>
      </trkpt>
      <trkpt lat="47.26372" lon="-2.33054">
        <ele>6</ele>
        <time>2021-02-04T08:24:24.000Z</time>
      </trkpt>
      <trkpt lat="47.26373" lon="-2.33071">
        <ele>6</ele>
        <time>2021-02-04T08:24:26.000Z</time>
      </trkpt>
      <trkpt lat="47.26376" lon="-2.33104">
        <ele>6</ele>
        <time>2021-02-04T08:24:30.000Z</time>
      </trkpt>
      <trkpt lat="47.26378" lon="-2.33162">
        <ele>6</ele>
        <time>2021-02-04T08:24:37.000Z</time>
      </trkpt>
      <trkpt lat="47.26382" lon="-2.33236">
        <ele>6</ele>
        <time>2021-02-04T08:24:46.000Z</time>
      </trkpt>
      <trkpt lat="47.26385" lon="-2.33252">
        <ele>6</ele>
        <time>2021-02-04T08:24:48.000Z</time>
      </trkpt>
      <trkpt lat="47.26392" lon="-2.33263">
        <ele>6</ele>
        <time>2021-02-04T08:24:50.000Z</time>
      </trkpt>
      <trkpt lat="47.26412" lon="-2.33269">
        <ele>6</ele>
        <time>2021-02-04T08:24:54.000Z</time>
      </trkpt>
      <trkpt lat="47.26418" lon="-2.33269">
        <ele>6</ele>
        <time>2021-02-04T08:24:55.000Z</time>
      </trkpt>
      <trkpt lat="47.26453" lon="-2.33273">
        <ele>6</ele>
        <time>2021-02-04T08:25:01.000Z</time>
      </trkpt>
      <trkpt lat="47.26469" lon="-2.33278">
        <ele>6</ele>
        <time>2021-02-04T08:25:04.000Z</time>
      </trkpt>
      <trkpt lat="47.26485" lon="-2.33279">
        <ele>6</ele>
        <time>2021-02-04T08:25:07.000Z</time>
      </trkpt>
      <trkpt lat="47.26505" lon="-2.33283">
        <ele>6</ele>
        <time>2021-02-04T08:25:12.000Z</time>
      </trkpt>
      <trkpt lat="47.26517" lon="-2.33291">
        <ele>6</ele>
        <time>2021-02-04T08:25:15.000Z</time>
      </trkpt>
      <trkpt lat="47.26525" lon="-2.33291">
        <ele>6</ele>
        <time>2021-02-04T08:25:17.000Z</time>
      </trkpt>
      <trkpt lat="47.26535" lon="-2.33292">
        <ele>6</ele>
        <time>2021-02-04T08:25:21.000Z</time>
      </trkpt>
      <trkpt lat="47.26542" lon="-2.33299">
        <ele>6</ele>
        <time>2021-02-04T08:25:24.000Z</time>
      </trkpt>
      <trkpt lat="47.26544" lon="-2.33297">
        <ele>6</ele>
        <time>2021-02-04T08:25:25.000Z</time>
      </trkpt>
      <trkpt lat="47.26553" lon="-2.33285">
        <ele>6</ele>
        <time>2021-02-04T08:25:28.000Z</time>
      </trkpt>
      <trkpt lat="47.26557" lon="-2.33281">
        <ele>6</ele>
        <time>2021-02-04T08:25:29.000Z</time>
      </trkpt>
      <trkpt lat="47.26586" lon="-2.3325">
        <ele>6</ele>
        <time>2021-02-04T08:25:36.000Z</time>
      </trkpt>
      <trkpt lat="47.26617" lon="-2.3322">
        <ele>6</ele>
        <time>2021-02-04T08:25:43.000Z</time>
      </trkpt>
      <trkpt lat="47.26647" lon="-2.33188">
        <ele>6</ele>
        <time>2021-02-04T08:25:50.000Z</time>
      </trkpt>
      <trkpt lat="47.26682" lon="-2.33153">
        <ele>6</ele>
        <time>2021-02-04T08:25:58.000Z</time>
      </trkpt>
      <trkpt lat="47.26704" lon="-2.33131">
        <ele>6</ele>
        <time>2021-02-04T08:26:03.000Z</time>
      </trkpt>
      <trkpt lat="47.2673" lon="-2.33105">
        <ele>6</ele>
        <time>2021-02-04T08:26:09.000Z</time>
      </trkpt>
      <trkpt lat="47.26733" lon="-2.33101">
        <ele>6</ele>
        <time>2021-02-04T08:26:10.000Z</time>
      </trkpt>
      <trkpt lat="47.26747" lon="-2.33087">
        <ele>6</ele>
        <time>2021-02-04T08:26:14.000Z</time>
      </trkpt>
      <trkpt lat="47.26755" lon="-2.33087">
        <ele>6</ele>
        <time>2021-02-04T08:26:16.000Z</time>
      </trkpt>
      <trkpt lat="47.26758" lon="-2.33091">
        <ele>6</ele>
        <time>2021-02-04T08:26:17.000Z</time>
      </trkpt>
      <trkpt lat="47.26766" lon="-2.3311">
        <ele>6</ele>
        <time>2021-02-04T08:26:20.000Z</time>
      </trkpt>
      <trkpt lat="47.26766" lon="-2.33149">
        <ele>6</ele>
        <time>2021-02-04T08:26:25.000Z</time>
      </trkpt>
      <trkpt lat="47.26759" lon="-2.33172">
        <ele>6</ele>
        <time>2021-02-04T08:26:28.000Z</time>
      </trkpt>
      <trkpt lat="47.26755" lon="-2.33187">
        <ele>6</ele>
        <time>2021-02-04T08:26:30.000Z</time>
      </trkpt>
      <trkpt lat="47.26739" lon="-2.33245">
        <ele>6</ele>
        <time>2021-02-04T08:26:38.000Z</time>
      </trkpt>
      <trkpt lat="47.26734" lon="-2.3327">
        <ele>6</ele>
        <time>2021-02-04T08:26:41.000Z</time>
      </trkpt>
      <trkpt lat="47.26733" lon="-2.33285">
        <ele>6</ele>
        <time>2021-02-04T08:26:43.000Z</time>
      </trkpt>
      <trkpt lat="47.26741" lon="-2.33317">
        <ele>6</ele>
        <time>2021-02-04T08:26:47.000Z</time>
      </trkpt>
      <trkpt lat="47.26742" lon="-2.33325">
        <ele>6</ele>
        <time>2021-02-04T08:26:48.000Z</time>
      </trkpt>
      <trkpt lat="47.26755" lon="-2.3339">
        <ele>6</ele>
        <time>2021-02-04T08:26:56.000Z</time>
      </trkpt>
      <trkpt lat="47.26759" lon="-2.33431">
        <ele>6</ele>
        <time>2021-02-04T08:27:01.000Z</time>
      </trkpt>
      <trkpt lat="47.2676" lon="-2.33439">
        <ele>6</ele>
        <time>2021-02-04T08:27:02.000Z</time>
      </trkpt>
      <trkpt lat="47.2677" lon="-2.33502">
        <ele>6</ele>
        <time>2021-02-04T08:27:10.000Z</time>
      </trkpt>
      <trkpt lat="47.26778" lon="-2.3356">
        <ele>6</ele>
        <time>2021-02-04T08:27:18.000Z</time>
      </trkpt>
      <trkpt lat="47.2678" lon="-2.33566">
        <ele>6</ele>
        <time>2021-02-04T08:27:19.000Z</time>
      </trkpt>
      <trkpt lat="47.26787" lon="-2.33569">
        <ele>6</ele>
        <time>2021-02-04T08:27:21.000Z</time>
      </trkpt>
      <trkpt lat="47.26796" lon="-2.33565">
        <ele>6</ele>
        <time>2021-02-04T08:27:23.000Z</time>
      </trkpt>
      <trkpt lat="47.26804" lon="-2.33561">
        <ele>6</ele>
        <time>2021-02-04T08:27:25.000Z</time>
      </trkpt>
      <trkpt lat="47.26835" lon="-2.33547">
        <ele>6</ele>
        <time>2021-02-04T08:27:31.000Z</time>
      </trkpt>
      <trkpt lat="47.26876" lon="-2.33534">
        <ele>6</ele>
        <time>2021-02-04T08:27:39.000Z</time>
      </trkpt>
      <trkpt lat="47.26881" lon="-2.33534">
        <ele>6</ele>
        <time>2021-02-04T08:27:40.000Z</time>
      </trkpt>
      <trkpt lat="47.26894" lon="-2.33543">
        <ele>6</ele>
        <time>2021-02-04T08:27:43.000Z</time>
      </trkpt>
      <trkpt lat="47.26905" lon="-2.33558">
        <ele>6.4000000953674</ele>
        <time>2021-02-04T08:27:46.000Z</time>
      </trkpt>
      <trkpt lat="47.26908" lon="-2.33565">
        <ele>6.8000001907349</ele>
        <time>2021-02-04T08:27:47.000Z</time>
      </trkpt>
      <trkpt lat="47.26911" lon="-2.33572">
        <ele>7.4000000953674</ele>
        <time>2021-02-04T08:27:48.000Z</time>
      </trkpt>
      <trkpt lat="47.26913" lon="-2.33578">
        <ele>7.8000001907349</ele>
        <time>2021-02-04T08:27:49.000Z</time>
      </trkpt>
      <trkpt lat="47.26915" lon="-2.33585">
        <ele>8.1999998092651</ele>
        <time>2021-02-04T08:27:50.000Z</time>
      </trkpt>
      <trkpt lat="47.26926" lon="-2.33617">
        <ele>8.1999998092651</ele>
        <time>2021-02-04T08:27:55.000Z</time>
      </trkpt>
      <trkpt lat="47.26928" lon="-2.33624">
        <ele>8.1999998092651</ele>
        <time>2021-02-04T08:27:56.000Z</time>
      </trkpt>
      <trkpt lat="47.26931" lon="-2.33638">
        <ele>8.6000003814697</ele>
        <time>2021-02-04T08:27:58.000Z</time>
      </trkpt>
      <trkpt lat="47.26932" lon="-2.33644">
        <ele>9</ele>
        <time>2021-02-04T08:27:59.000Z</time>
      </trkpt>
      <trkpt lat="47.26933" lon="-2.33652">
        <ele>9.3999996185303</ele>
        <time>2021-02-04T08:28:00.000Z</time>
      </trkpt>
      <trkpt lat="47.26934" lon="-2.33659">
        <ele>9.8000001907349</ele>
        <time>2021-02-04T08:28:01.000Z</time>
      </trkpt>
      <trkpt lat="47.26936" lon="-2.33666">
        <ele>10.199999809265</ele>
        <time>2021-02-04T08:28:02.000Z</time>
      </trkpt>
      <trkpt lat="47.26937" lon="-2.33674">
        <ele>10.199999809265</ele>
        <time>2021-02-04T08:28:03.000Z</time>
      </trkpt>
      <trkpt lat="47.26942" lon="-2.33708">
        <ele>10.199999809265</ele>
        <time>2021-02-04T08:28:08.000Z</time>
      </trkpt>
      <trkpt lat="47.26941" lon="-2.33722">
        <ele>10.199999809265</ele>
        <time>2021-02-04T08:28:10.000Z</time>
      </trkpt>
      <trkpt lat="47.26937" lon="-2.33738">
        <ele>10.199999809265</ele>
        <time>2021-02-04T08:28:12.000Z</time>
      </trkpt>
      <trkpt lat="47.26933" lon="-2.33761">
        <ele>10.199999809265</ele>
        <time>2021-02-04T08:28:15.000Z</time>
      </trkpt>
      <trkpt lat="47.26931" lon="-2.33778">
        <ele>10.199999809265</ele>
        <time>2021-02-04T08:28:17.000Z</time>
      </trkpt>
      <trkpt lat="47.26934" lon="-2.33803">
        <ele>10.199999809265</ele>
        <time>2021-02-04T08:28:20.000Z</time>
      </trkpt>
      <trkpt lat="47.26944" lon="-2.33818">
        <ele>10.199999809265</ele>
        <time>2021-02-04T08:28:23.000Z</time>
      </trkpt>
      <trkpt lat="47.26966" lon="-2.33834">
        <ele>10.199999809265</ele>
        <time>2021-02-04T08:28:28.000Z</time>
      </trkpt>
      <trkpt lat="47.26975" lon="-2.33839">
        <ele>10.199999809265</ele>
        <time>2021-02-04T08:28:30.000Z</time>
      </trkpt>
      <trkpt lat="47.26979" lon="-2.33841">
        <ele>10.800000190735</ele>
        <time>2021-02-04T08:28:31.000Z</time>
      </trkpt>
      <trkpt lat="47.26984" lon="-2.33843">
        <ele>11.199999809265</ele>
        <time>2021-02-04T08:28:32.000Z</time>
      </trkpt>
      <trkpt lat="47.26988" lon="-2.33845">
        <ele>11.60000038147</ele>
        <time>2021-02-04T08:28:33.000Z</time>
      </trkpt>
      <trkpt lat="47.26991" lon="-2.33848">
        <ele>12</ele>
        <time>2021-02-04T08:28:34.000Z</time>
      </trkpt>
      <trkpt lat="47.26995" lon="-2.3385">
        <ele>12.39999961853</ele>
        <time>2021-02-04T08:28:35.000Z</time>
      </trkpt>
      <trkpt lat="47.27006" lon="-2.33857">
        <ele>12.800000190735</ele>
        <time>2021-02-04T08:28:38.000Z</time>
      </trkpt>
      <trkpt lat="47.2701" lon="-2.33859">
        <ele>13.199999809265</ele>
        <time>2021-02-04T08:28:39.000Z</time>
      </trkpt>
      <trkpt lat="47.27014" lon="-2.33862">
        <ele>13.60000038147</ele>
        <time>2021-02-04T08:28:40.000Z</time>
      </trkpt>
      <trkpt lat="47.27017" lon="-2.33864">
        <ele>14.199999809265</ele>
        <time>2021-02-04T08:28:41.000Z</time>
      </trkpt>
      <trkpt lat="47.27021" lon="-2.33866">
        <ele>14.60000038147</ele>
        <time>2021-02-04T08:28:42.000Z</time>
      </trkpt>
      <trkpt lat="47.27024" lon="-2.33868">
        <ele>14.60000038147</ele>
        <time>2021-02-04T08:28:43.000Z</time>
      </trkpt>
      <trkpt lat="47.27037" lon="-2.33879">
        <ele>15</ele>
        <time>2021-02-04T08:28:47.000Z</time>
      </trkpt>
      <trkpt lat="47.27041" lon="-2.33883">
        <ele>15.39999961853</ele>
        <time>2021-02-04T08:28:48.000Z</time>
      </trkpt>
      <trkpt lat="47.27045" lon="-2.33887">
        <ele>15.800000190735</ele>
        <time>2021-02-04T08:28:49.000Z</time>
      </trkpt>
      <trkpt lat="47.27049" lon="-2.3389">
        <ele>16.200000762939</ele>
        <time>2021-02-04T08:28:50.000Z</time>
      </trkpt>
      <trkpt lat="47.27054" lon="-2.33894">
        <ele>16.60000038147</ele>
        <time>2021-02-04T08:28:51.000Z</time>
      </trkpt>
      <trkpt lat="47.27072" lon="-2.33911">
        <ele>16.60000038147</ele>
        <time>2021-02-04T08:28:56.000Z</time>
      </trkpt>
      <trkpt lat="47.27084" lon="-2.33923">
        <ele>17</ele>
        <time>2021-02-04T08:29:00.000Z</time>
      </trkpt>
      <trkpt lat="47.27087" lon="-2.33926">
        <ele>17.60000038147</ele>
        <time>2021-02-04T08:29:01.000Z</time>
      </trkpt>
      <trkpt lat="47.2709" lon="-2.33929">
        <ele>18</ele>
        <time>2021-02-04T08:29:02.000Z</time>
      </trkpt>
      <trkpt lat="47.27093" lon="-2.33932">
        <ele>18.39999961853</ele>
        <time>2021-02-04T08:29:03.000Z</time>
      </trkpt>
      <trkpt lat="47.27096" lon="-2.33935">
        <ele>18.799999237061</ele>
        <time>2021-02-04T08:29:04.000Z</time>
      </trkpt>
      <trkpt lat="47.27106" lon="-2.33947">
        <ele>19.200000762939</ele>
        <time>2021-02-04T08:29:08.000Z</time>
      </trkpt>
      <trkpt lat="47.27109" lon="-2.3395">
        <ele>19.799999237061</ele>
        <time>2021-02-04T08:29:09.000Z</time>
      </trkpt>
      <trkpt lat="47.27112" lon="-2.33952">
        <ele>20.200000762939</ele>
        <time>2021-02-04T08:29:10.000Z</time>
      </trkpt>
      <trkpt lat="47.27115" lon="-2.33955">
        <ele>21</ele>
        <time>2021-02-04T08:29:11.000Z</time>
      </trkpt>
      <trkpt lat="47.27133" lon="-2.33973">
        <ele>21</ele>
        <time>2021-02-04T08:29:17.000Z</time>
      </trkpt>
      <trkpt lat="47.27145" lon="-2.33984">
        <ele>21.39999961853</ele>
        <time>2021-02-04T08:29:20.000Z</time>
      </trkpt>
      <trkpt lat="47.27148" lon="-2.33987">
        <ele>21.799999237061</ele>
        <time>2021-02-04T08:29:21.000Z</time>
      </trkpt>
      <trkpt lat="47.27152" lon="-2.33991">
        <ele>22.200000762939</ele>
        <time>2021-02-04T08:29:22.000Z</time>
      </trkpt>
      <trkpt lat="47.27156" lon="-2.33995">
        <ele>22.60000038147</ele>
        <time>2021-02-04T08:29:23.000Z</time>
      </trkpt>
      <trkpt lat="47.2716" lon="-2.33999">
        <ele>23</ele>
        <time>2021-02-04T08:29:24.000Z</time>
      </trkpt>
      <trkpt lat="47.27184" lon="-2.34024">
        <ele>23</ele>
        <time>2021-02-04T08:29:30.000Z</time>
      </trkpt>
      <trkpt lat="47.27187" lon="-2.34028">
        <ele>23</ele>
        <time>2021-02-04T08:29:31.000Z</time>
      </trkpt>
      <trkpt lat="47.27215" lon="-2.34052">
        <ele>23</ele>
        <time>2021-02-04T08:29:38.000Z</time>
      </trkpt>
      <trkpt lat="47.27233" lon="-2.34054">
        <ele>23.39999961853</ele>
        <time>2021-02-04T08:29:42.000Z</time>
      </trkpt>
      <trkpt lat="47.27238" lon="-2.34053">
        <ele>23.799999237061</ele>
        <time>2021-02-04T08:29:43.000Z</time>
      </trkpt>
      <trkpt lat="47.27243" lon="-2.34052">
        <ele>24.200000762939</ele>
        <time>2021-02-04T08:29:44.000Z</time>
      </trkpt>
      <trkpt lat="47.27248" lon="-2.34052">
        <ele>24.60000038147</ele>
        <time>2021-02-04T08:29:45.000Z</time>
      </trkpt>
      <trkpt lat="47.27253" lon="-2.34052">
        <ele>25</ele>
        <time>2021-02-04T08:29:46.000Z</time>
      </trkpt>
      <trkpt lat="47.27262" lon="-2.34057">
        <ele>25</ele>
        <time>2021-02-04T08:29:48.000Z</time>
      </trkpt>
      <trkpt lat="47.27283" lon="-2.34074">
        <ele>25</ele>
        <time>2021-02-04T08:29:53.000Z</time>
      </trkpt>
      <trkpt lat="47.27286" lon="-2.3408">
        <ele>25</ele>
        <time>2021-02-04T08:29:54.000Z</time>
      </trkpt>
      <trkpt lat="47.27293" lon="-2.34108">
        <ele>25</ele>
        <time>2021-02-04T08:29:58.000Z</time>
      </trkpt>
      <trkpt lat="47.27298" lon="-2.34122">
        <ele>25</ele>
        <time>2021-02-04T08:30:00.000Z</time>
      </trkpt>
      <trkpt lat="47.27306" lon="-2.34138">
        <ele>25</ele>
        <time>2021-02-04T08:30:03.000Z</time>
      </trkpt>
      <trkpt lat="47.27314" lon="-2.34148">
        <ele>25</ele>
        <time>2021-02-04T08:30:05.000Z</time>
      </trkpt>
      <trkpt lat="47.27332" lon="-2.34158">
        <ele>25</ele>
        <time>2021-02-04T08:30:08.000Z</time>
      </trkpt>
      <trkpt lat="47.27345" lon="-2.34164">
        <ele>25</ele>
        <time>2021-02-04T08:30:10.000Z</time>
      </trkpt>
      <trkpt lat="47.27369" lon="-2.34175">
        <ele>25</ele>
        <time>2021-02-04T08:30:14.000Z</time>
      </trkpt>
      <trkpt lat="47.27394" lon="-2.34195">
        <ele>25</ele>
        <time>2021-02-04T08:30:19.000Z</time>
      </trkpt>
      <trkpt lat="47.27397" lon="-2.34201">
        <ele>25</ele>
        <time>2021-02-04T08:30:20.000Z</time>
      </trkpt>
      <trkpt lat="47.27404" lon="-2.34216">
        <ele>25</ele>
        <time>2021-02-04T08:30:23.000Z</time>
      </trkpt>
      <trkpt lat="47.27406" lon="-2.34229">
        <ele>25</ele>
        <time>2021-02-04T08:30:25.000Z</time>
      </trkpt>
      <trkpt lat="47.27409" lon="-2.34238">
        <ele>25</ele>
        <time>2021-02-04T08:30:28.000Z</time>
      </trkpt>
      <trkpt lat="47.27411" lon="-2.34242">
        <ele>25</ele>
        <time>2021-02-04T08:30:29.000Z</time>
      </trkpt>
      <trkpt lat="47.2742" lon="-2.34261">
        <ele>25</ele>
        <time>2021-02-04T08:30:33.000Z</time>
      </trkpt>
      <trkpt lat="47.27427" lon="-2.3429">
        <ele>25</ele>
        <time>2021-02-04T08:30:38.000Z</time>
      </trkpt>
      <trkpt lat="47.27428" lon="-2.34296">
        <ele>25</ele>
        <time>2021-02-04T08:30:39.000Z</time>
      </trkpt>
      <trkpt lat="47.27428" lon="-2.34303">
        <ele>25</ele>
        <time>2021-02-04T08:30:40.000Z</time>
      </trkpt>
      <trkpt lat="47.27427" lon="-2.34335">
        <ele>25</ele>
        <time>2021-02-04T08:30:44.000Z</time>
      </trkpt>
      <trkpt lat="47.27427" lon="-2.34406">
        <ele>25</ele>
        <time>2021-02-04T08:30:53.000Z</time>
      </trkpt>
      <trkpt lat="47.27428" lon="-2.34454">
        <ele>25.39999961853</ele>
        <time>2021-02-04T08:30:59.000Z</time>
      </trkpt>
      <trkpt lat="47.27428" lon="-2.34462">
        <ele>26</ele>
        <time>2021-02-04T08:31:00.000Z</time>
      </trkpt>
      <trkpt lat="47.27427" lon="-2.3447">
        <ele>26.39999961853</ele>
        <time>2021-02-04T08:31:01.000Z</time>
      </trkpt>
      <trkpt lat="47.27427" lon="-2.34478">
        <ele>26.799999237061</ele>
        <time>2021-02-04T08:31:02.000Z</time>
      </trkpt>
      <trkpt lat="47.27428" lon="-2.34486">
        <ele>27.200000762939</ele>
        <time>2021-02-04T08:31:03.000Z</time>
      </trkpt>
      <trkpt lat="47.27431" lon="-2.34509">
        <ele>27.200000762939</ele>
        <time>2021-02-04T08:31:06.000Z</time>
      </trkpt>
      <trkpt lat="47.27432" lon="-2.34516">
        <ele>27.200000762939</ele>
        <time>2021-02-04T08:31:07.000Z</time>
      </trkpt>
      <trkpt lat="47.27444" lon="-2.34575">
        <ele>27.200000762939</ele>
        <time>2021-02-04T08:31:15.000Z</time>
      </trkpt>
      <trkpt lat="47.27454" lon="-2.34633">
        <ele>27.200000762939</ele>
        <time>2021-02-04T08:31:22.000Z</time>
      </trkpt>
      <trkpt lat="47.2746" lon="-2.34691">
        <ele>27.200000762939</ele>
        <time>2021-02-04T08:31:29.000Z</time>
      </trkpt>
      <trkpt lat="47.27467" lon="-2.34693">
        <ele>27.200000762939</ele>
        <time>2021-02-04T08:31:31.000Z</time>
      </trkpt>
      <trkpt lat="47.27482" lon="-2.34685">
        <ele>27.200000762939</ele>
        <time>2021-02-04T08:31:34.000Z</time>
      </trkpt>
      <trkpt lat="47.27488" lon="-2.34682">
        <ele>27.200000762939</ele>
        <time>2021-02-04T08:31:35.000Z</time>
      </trkpt>
      <trkpt lat="47.27503" lon="-2.34679">
        <ele>27.200000762939</ele>
        <time>2021-02-04T08:31:38.000Z</time>
      </trkpt>
      <trkpt lat="47.27513" lon="-2.3468">
        <ele>27.200000762939</ele>
        <time>2021-02-04T08:31:40.000Z</time>
      </trkpt>
      <trkpt lat="47.27543" lon="-2.34674">
        <ele>27.200000762939</ele>
        <time>2021-02-04T08:31:45.000Z</time>
      </trkpt>
      <trkpt lat="47.27578" lon="-2.34655">
        <ele>27.200000762939</ele>
        <time>2021-02-04T08:31:51.000Z</time>
      </trkpt>
      <trkpt lat="47.27601" lon="-2.34635">
        <ele>27.200000762939</ele>
        <time>2021-02-04T08:31:55.000Z</time>
      </trkpt>
      <trkpt lat="47.27611" lon="-2.34624">
        <ele>27.200000762939</ele>
        <time>2021-02-04T08:31:57.000Z</time>
      </trkpt>
      <trkpt lat="47.27652" lon="-2.34582">
        <ele>27.200000762939</ele>
        <time>2021-02-04T08:32:05.000Z</time>
      </trkpt>
      <trkpt lat="47.27676" lon="-2.34563">
        <ele>27.200000762939</ele>
        <time>2021-02-04T08:32:11.000Z</time>
      </trkpt>
      <trkpt lat="47.27681" lon="-2.34569">
        <ele>27.200000762939</ele>
        <time>2021-02-04T08:32:15.000Z</time>
      </trkpt>
      <trkpt lat="47.27686" lon="-2.34582">
        <ele>27.200000762939</ele>
        <time>2021-02-04T08:32:19.000Z</time>
      </trkpt>
      <trkpt lat="47.27688" lon="-2.34585">
        <ele>27.200000762939</ele>
        <time>2021-02-04T08:32:20.000Z</time>
      </trkpt>
      <trkpt lat="47.27691" lon="-2.34598">
        <ele>27.200000762939</ele>
        <time>2021-02-04T08:32:22.000Z</time>
      </trkpt>
      <trkpt lat="47.27693" lon="-2.34613">
        <ele>27.200000762939</ele>
        <time>2021-02-04T08:32:24.000Z</time>
      </trkpt>
      <trkpt lat="47.27694" lon="-2.34621">
        <ele>27.200000762939</ele>
        <time>2021-02-04T08:32:25.000Z</time>
      </trkpt>
      <trkpt lat="47.27694" lon="-2.34636">
        <ele>27.200000762939</ele>
        <time>2021-02-04T08:32:27.000Z</time>
      </trkpt>
      <trkpt lat="47.27696" lon="-2.34651">
        <ele>27.200000762939</ele>
        <time>2021-02-04T08:32:29.000Z</time>
      </trkpt>
      <trkpt lat="47.27699" lon="-2.34672">
        <ele>27.200000762939</ele>
        <time>2021-02-04T08:32:33.000Z</time>
      </trkpt>
      <trkpt lat="47.27704" lon="-2.34706">
        <ele>27.200000762939</ele>
        <time>2021-02-04T08:32:39.000Z</time>
      </trkpt>
      <trkpt lat="47.27717" lon="-2.34746">
        <ele>27.200000762939</ele>
        <time>2021-02-04T08:32:44.000Z</time>
      </trkpt>
      <trkpt lat="47.27721" lon="-2.34754">
        <ele>27.200000762939</ele>
        <time>2021-02-04T08:32:45.000Z</time>
      </trkpt>
      <trkpt lat="47.27733" lon="-2.34783">
        <ele>27.200000762939</ele>
        <time>2021-02-04T08:32:49.000Z</time>
      </trkpt>
      <trkpt lat="47.27737" lon="-2.3479">
        <ele>27.200000762939</ele>
        <time>2021-02-04T08:32:50.000Z</time>
      </trkpt>
      <trkpt lat="47.27755" lon="-2.34823">
        <ele>26.799999237061</ele>
        <time>2021-02-04T08:32:55.000Z</time>
      </trkpt>
      <trkpt lat="47.27759" lon="-2.3483">
        <ele>26.39999961853</ele>
        <time>2021-02-04T08:32:56.000Z</time>
      </trkpt>
      <trkpt lat="47.27763" lon="-2.34836">
        <ele>26</ele>
        <time>2021-02-04T08:32:57.000Z</time>
      </trkpt>
      <trkpt lat="47.27767" lon="-2.34843">
        <ele>25.60000038147</ele>
        <time>2021-02-04T08:32:58.000Z</time>
      </trkpt>
      <trkpt lat="47.27771" lon="-2.34851">
        <ele>25.200000762939</ele>
        <time>2021-02-04T08:32:59.000Z</time>
      </trkpt>
      <trkpt lat="47.27785" lon="-2.34872">
        <ele>24.60000038147</ele>
        <time>2021-02-04T08:33:03.000Z</time>
      </trkpt>
      <trkpt lat="47.27788" lon="-2.34876">
        <ele>24.200000762939</ele>
        <time>2021-02-04T08:33:04.000Z</time>
      </trkpt>
      <trkpt lat="47.27791" lon="-2.34879">
        <ele>23.799999237061</ele>
        <time>2021-02-04T08:33:05.000Z</time>
      </trkpt>
      <trkpt lat="47.27794" lon="-2.34881">
        <ele>23.39999961853</ele>
        <time>2021-02-04T08:33:06.000Z</time>
      </trkpt>
      <trkpt lat="47.27798" lon="-2.34884">
        <ele>23</ele>
        <time>2021-02-04T08:33:07.000Z</time>
      </trkpt>
      <trkpt lat="47.27806" lon="-2.34889">
        <ele>23</ele>
        <time>2021-02-04T08:33:09.000Z</time>
      </trkpt>
      <trkpt lat="47.27824" lon="-2.34906">
        <ele>23</ele>
        <time>2021-02-04T08:33:13.000Z</time>
      </trkpt>
      <trkpt lat="47.27848" lon="-2.34933">
        <ele>23</ele>
        <time>2021-02-04T08:33:19.000Z</time>
      </trkpt>
      <trkpt lat="47.27866" lon="-2.34953">
        <ele>23</ele>
        <time>2021-02-04T08:33:23.000Z</time>
      </trkpt>
      <trkpt lat="47.27874" lon="-2.34966">
        <ele>23</ele>
        <time>2021-02-04T08:33:25.000Z</time>
      </trkpt>
      <trkpt lat="47.27891" lon="-2.35007">
        <ele>23</ele>
        <time>2021-02-04T08:33:30.000Z</time>
      </trkpt>
      <trkpt lat="47.27906" lon="-2.35061">
        <ele>23</ele>
        <time>2021-02-04T08:33:36.000Z</time>
      </trkpt>
      <trkpt lat="47.27908" lon="-2.35082">
        <ele>23</ele>
        <time>2021-02-04T08:33:38.000Z</time>
      </trkpt>
      <trkpt lat="47.27908" lon="-2.35104">
        <ele>23</ele>
        <time>2021-02-04T08:33:40.000Z</time>
      </trkpt>
      <trkpt lat="47.27911" lon="-2.35175">
        <ele>23</ele>
        <time>2021-02-04T08:33:46.000Z</time>
      </trkpt>
      <trkpt lat="47.27918" lon="-2.35246">
        <ele>22.60000038147</ele>
        <time>2021-02-04T08:33:52.000Z</time>
      </trkpt>
      <trkpt lat="47.2792" lon="-2.35256">
        <ele>22</ele>
        <time>2021-02-04T08:33:53.000Z</time>
      </trkpt>
      <trkpt lat="47.27921" lon="-2.35266">
        <ele>21.60000038147</ele>
        <time>2021-02-04T08:33:54.000Z</time>
      </trkpt>
      <trkpt lat="47.27922" lon="-2.35276">
        <ele>21.200000762939</ele>
        <time>2021-02-04T08:33:55.000Z</time>
      </trkpt>
      <trkpt lat="47.27924" lon="-2.35286">
        <ele>20.799999237061</ele>
        <time>2021-02-04T08:33:56.000Z</time>
      </trkpt>
      <trkpt lat="47.27927" lon="-2.35303">
        <ele>20.799999237061</ele>
        <time>2021-02-04T08:33:58.000Z</time>
      </trkpt>
      <trkpt lat="47.27932" lon="-2.35325">
        <ele>20.799999237061</ele>
        <time>2021-02-04T08:34:01.000Z</time>
      </trkpt>
      <trkpt lat="47.2793" lon="-2.35333">
        <ele>20.799999237061</ele>
        <time>2021-02-04T08:34:02.000Z</time>
      </trkpt>
      <trkpt lat="47.27924" lon="-2.35361">
        <ele>20.799999237061</ele>
        <time>2021-02-04T08:34:06.000Z</time>
      </trkpt>
      <trkpt lat="47.27929" lon="-2.35395">
        <ele>20.799999237061</ele>
        <time>2021-02-04T08:34:10.000Z</time>
      </trkpt>
      <trkpt lat="47.27938" lon="-2.35426">
        <ele>20.799999237061</ele>
        <time>2021-02-04T08:34:14.000Z</time>
      </trkpt>
      <trkpt lat="47.27942" lon="-2.35432">
        <ele>20.799999237061</ele>
        <time>2021-02-04T08:34:15.000Z</time>
      </trkpt>
      <trkpt lat="47.27955" lon="-2.35458">
        <ele>20.799999237061</ele>
        <time>2021-02-04T08:34:19.000Z</time>
      </trkpt>
      <trkpt lat="47.27958" lon="-2.35464">
        <ele>20.799999237061</ele>
        <time>2021-02-04T08:34:20.000Z</time>
      </trkpt>
      <trkpt lat="47.27961" lon="-2.3547">
        <ele>20.39999961853</ele>
        <time>2021-02-04T08:34:21.000Z</time>
      </trkpt>
      <trkpt lat="47.27964" lon="-2.35474">
        <ele>20</ele>
        <time>2021-02-04T08:34:22.000Z</time>
      </trkpt>
      <trkpt lat="47.27968" lon="-2.3548">
        <ele>19.60000038147</ele>
        <time>2021-02-04T08:34:23.000Z</time>
      </trkpt>
      <trkpt lat="47.27973" lon="-2.35486">
        <ele>19</ele>
        <time>2021-02-04T08:34:24.000Z</time>
      </trkpt>
      <trkpt lat="47.27977" lon="-2.35493">
        <ele>18.60000038147</ele>
        <time>2021-02-04T08:34:25.000Z</time>
      </trkpt>
      <trkpt lat="47.27993" lon="-2.35518">
        <ele>18.60000038147</ele>
        <time>2021-02-04T08:34:29.000Z</time>
      </trkpt>
      <trkpt lat="47.28004" lon="-2.35542">
        <ele>18.60000038147</ele>
        <time>2021-02-04T08:34:33.000Z</time>
      </trkpt>
      <trkpt lat="47.28006" lon="-2.35547">
        <ele>18.60000038147</ele>
        <time>2021-02-04T08:34:34.000Z</time>
      </trkpt>
      <trkpt lat="47.28008" lon="-2.3555">
        <ele>18.60000038147</ele>
        <time>2021-02-04T08:34:37.000Z</time>
      </trkpt>
      <trkpt lat="47.28012" lon="-2.3555">
        <ele>18.60000038147</ele>
        <time>2021-02-04T08:34:39.000Z</time>
      </trkpt>
      <trkpt lat="47.28016" lon="-2.35551">
        <ele>19</ele>
        <time>2021-02-04T08:34:41.000Z</time>
      </trkpt>
      <trkpt lat="47.28018" lon="-2.35551">
        <ele>19.39999961853</ele>
        <time>2021-02-04T08:34:42.000Z</time>
      </trkpt>
      <trkpt lat="47.28023" lon="-2.35549">
        <ele>19.799999237061</ele>
        <time>2021-02-04T08:34:43.000Z</time>
      </trkpt>
      <trkpt lat="47.28028" lon="-2.35548">
        <ele>20.200000762939</ele>
        <time>2021-02-04T08:34:44.000Z</time>
      </trkpt>
      <trkpt lat="47.28033" lon="-2.35547">
        <ele>20.60000038147</ele>
        <time>2021-02-04T08:34:45.000Z</time>
      </trkpt>
      <trkpt lat="47.28052" lon="-2.35549">
        <ele>20.60000038147</ele>
        <time>2021-02-04T08:34:49.000Z</time>
      </trkpt>
      <trkpt lat="47.28058" lon="-2.35557">
        <ele>20.60000038147</ele>
        <time>2021-02-04T08:34:52.000Z</time>
      </trkpt>
      <trkpt lat="47.28063" lon="-2.35569">
        <ele>20.60000038147</ele>
        <time>2021-02-04T08:34:56.000Z</time>
      </trkpt>
      <trkpt lat="47.28065" lon="-2.35572">
        <ele>20.60000038147</ele>
        <time>2021-02-04T08:34:57.000Z</time>
      </trkpt>
      <trkpt lat="47.2807" lon="-2.35576">
        <ele>20.60000038147</ele>
        <time>2021-02-04T08:34:59.000Z</time>
      </trkpt>
      <trkpt lat="47.28075" lon="-2.35581">
        <ele>20.60000038147</ele>
        <time>2021-02-04T08:35:01.000Z</time>
      </trkpt>
      <trkpt lat="47.28081" lon="-2.35587">
        <ele>21</ele>
        <time>2021-02-04T08:35:03.000Z</time>
      </trkpt>
      <trkpt lat="47.28084" lon="-2.3559">
        <ele>21.39999961853</ele>
        <time>2021-02-04T08:35:04.000Z</time>
      </trkpt>
      <trkpt lat="47.28087" lon="-2.35593">
        <ele>21.799999237061</ele>
        <time>2021-02-04T08:35:05.000Z</time>
      </trkpt>
      <trkpt lat="47.28088" lon="-2.35597">
        <ele>22.200000762939</ele>
        <time>2021-02-04T08:35:06.000Z</time>
      </trkpt>
      <trkpt lat="47.2809" lon="-2.356">
        <ele>22.60000038147</ele>
        <time>2021-02-04T08:35:07.000Z</time>
      </trkpt>
      <trkpt lat="47.28092" lon="-2.3561">
        <ele>22.60000038147</ele>
        <time>2021-02-04T08:35:12.000Z</time>
      </trkpt>
      <trkpt lat="47.28092" lon="-2.35611">
        <ele>22.60000038147</ele>
        <time>2021-02-04T08:35:14.000Z</time>
      </trkpt>
      <trkpt lat="47.28087" lon="-2.35617">
        <ele>22.60000038147</ele>
        <time>2021-02-04T08:40:41.000Z</time>
      </trkpt>
      <trkpt lat="47.28086" lon="-2.35616">
        <ele>22.60000038147</ele>
        <time>2021-02-04T08:40:42.000Z</time>
      </trkpt>
      <trkpt lat="47.28076" lon="-2.35607">
        <ele>22.60000038147</ele>
        <time>2021-02-04T08:40:47.000Z</time>
      </trkpt>
      <trkpt lat="47.28072" lon="-2.35613">
        <ele>22.60000038147</ele>
        <time>2021-02-04T08:40:50.000Z</time>
      </trkpt>
      <trkpt lat="47.28073" lon="-2.35624">
        <ele>22.60000038147</ele>
        <time>2021-02-04T08:40:53.000Z</time>
      </trkpt>
      <trkpt lat="47.28076" lon="-2.35631">
        <ele>22.60000038147</ele>
        <time>2021-02-04T08:40:55.000Z</time>
      </trkpt>
      <trkpt lat="47.28079" lon="-2.35645">
        <ele>22.60000038147</ele>
        <time>2021-02-04T08:41:00.000Z</time>
      </trkpt>
      <trkpt lat="47.28081" lon="-2.35653">
        <ele>23.200000762939</ele>
        <time>2021-02-04T08:41:03.000Z</time>
      </trkpt>
      <trkpt lat="47.28082" lon="-2.35657">
        <ele>23.60000038147</ele>
        <time>2021-02-04T08:41:04.000Z</time>
      </trkpt>
      <trkpt lat="47.28082" lon="-2.3566">
        <ele>24</ele>
        <time>2021-02-04T08:41:05.000Z</time>
      </trkpt>
      <trkpt lat="47.28083" lon="-2.35663">
        <ele>25</ele>
        <time>2021-02-04T08:41:06.000Z</time>
      </trkpt>
      <trkpt lat="47.28087" lon="-2.35683">
        <ele>25</ele>
        <time>2021-02-04T08:41:12.000Z</time>
      </trkpt>
      <trkpt lat="47.28088" lon="-2.35686">
        <ele>25.39999961853</ele>
        <time>2021-02-04T08:41:13.000Z</time>
      </trkpt>
      <trkpt lat="47.28088" lon="-2.35689">
        <ele>25.799999237061</ele>
        <time>2021-02-04T08:41:14.000Z</time>
      </trkpt>
      <trkpt lat="47.28089" lon="-2.35691">
        <ele>26.200000762939</ele>
        <time>2021-02-04T08:41:15.000Z</time>
      </trkpt>
      <trkpt lat="47.2809" lon="-2.35694">
        <ele>26.60000038147</ele>
        <time>2021-02-04T08:41:16.000Z</time>
      </trkpt>
      <trkpt lat="47.2809" lon="-2.35696">
        <ele>27</ele>
        <time>2021-02-04T08:41:17.000Z</time>
      </trkpt>
      <trkpt lat="47.28091" lon="-2.35701">
        <ele>27</ele>
        <time>2021-02-04T08:41:19.000Z</time>
      </trkpt>
      <trkpt lat="47.28092" lon="-2.35718">
        <ele>27</ele>
        <time>2021-02-04T08:41:26.000Z</time>
      </trkpt>
      <trkpt lat="47.28088" lon="-2.35741">
        <ele>27</ele>
        <time>2021-02-04T08:41:31.000Z</time>
      </trkpt>
      <trkpt lat="47.28087" lon="-2.35754">
        <ele>27</ele>
        <time>2021-02-04T08:41:33.000Z</time>
      </trkpt>
      <trkpt lat="47.28085" lon="-2.35772">
        <ele>27</ele>
        <time>2021-02-04T08:41:36.000Z</time>
      </trkpt>
      <trkpt lat="47.2808" lon="-2.35792">
        <ele>27</ele>
        <time>2021-02-04T08:41:41.000Z</time>
      </trkpt>
      <trkpt lat="47.2808" lon="-2.35797">
        <ele>26.60000038147</ele>
        <time>2021-02-04T08:41:42.000Z</time>
      </trkpt>
      <trkpt lat="47.28081" lon="-2.35803">
        <ele>26.200000762939</ele>
        <time>2021-02-04T08:41:43.000Z</time>
      </trkpt>
      <trkpt lat="47.28082" lon="-2.35808">
        <ele>25.799999237061</ele>
        <time>2021-02-04T08:41:44.000Z</time>
      </trkpt>
      <trkpt lat="47.28083" lon="-2.35813">
        <ele>25.39999961853</ele>
        <time>2021-02-04T08:41:45.000Z</time>
      </trkpt>
      <trkpt lat="47.28084" lon="-2.35816">
        <ele>25</ele>
        <time>2021-02-04T08:41:46.000Z</time>
      </trkpt>
      <trkpt lat="47.28085" lon="-2.3583">
        <ele>25</ele>
        <time>2021-02-04T08:41:51.000Z</time>
      </trkpt>
      <trkpt lat="47.28089" lon="-2.35838">
        <ele>25</ele>
        <time>2021-02-04T08:41:55.000Z</time>
      </trkpt>
      <trkpt lat="47.28092" lon="-2.35843">
        <ele>25</ele>
        <time>2021-02-04T08:41:58.000Z</time>
      </trkpt>
      <trkpt lat="47.28103" lon="-2.35856">
        <ele>25</ele>
        <time>2021-02-04T08:42:03.000Z</time>
      </trkpt>
      <trkpt lat="47.28112" lon="-2.3587">
        <ele>25</ele>
        <time>2021-02-04T08:42:07.000Z</time>
      </trkpt>
      <trkpt lat="47.28121" lon="-2.35884">
        <ele>25</ele>
        <time>2021-02-04T08:42:12.000Z</time>
      </trkpt>
      <trkpt lat="47.28132" lon="-2.35898">
        <ele>25</ele>
        <time>2021-02-04T08:42:19.000Z</time>
      </trkpt>
      <trkpt lat="47.28137" lon="-2.35903">
        <ele>25</ele>
        <time>2021-02-04T08:42:23.000Z</time>
      </trkpt>
      <trkpt lat="47.2814" lon="-2.35905">
        <ele>25</ele>
        <time>2021-02-04T08:42:25.000Z</time>
      </trkpt>
      <trkpt lat="47.28145" lon="-2.35915">
        <ele>25</ele>
        <time>2021-02-04T08:42:32.000Z</time>
      </trkpt>
      <trkpt lat="47.28149" lon="-2.35911">
        <ele>25</ele>
        <time>2021-02-04T08:42:37.000Z</time>
      </trkpt>
      <trkpt lat="47.28148" lon="-2.35899">
        <ele>25</ele>
        <time>2021-02-04T08:42:43.000Z</time>
      </trkpt>
      <trkpt lat="47.28148" lon="-2.35897">
        <ele>25</ele>
        <time>2021-02-04T08:42:44.000Z</time>
      </trkpt>
      <trkpt lat="47.28152" lon="-2.35895">
        <ele>25</ele>
        <time>2021-02-04T08:42:49.000Z</time>
      </trkpt>
      <trkpt lat="47.28154" lon="-2.35898">
        <ele>25</ele>
        <time>2021-02-04T08:42:51.000Z</time>
      </trkpt>
      <trkpt lat="47.28161" lon="-2.35902">
        <ele>25</ele>
        <time>2021-02-04T08:42:54.000Z</time>
      </trkpt>
      <trkpt lat="47.28164" lon="-2.35905">
        <ele>24.60000038147</ele>
        <time>2021-02-04T08:42:56.000Z</time>
      </trkpt>
      <trkpt lat="47.28166" lon="-2.35906">
        <ele>24</ele>
        <time>2021-02-04T08:42:57.000Z</time>
      </trkpt>
      <trkpt lat="47.28168" lon="-2.35908">
        <ele>23.60000038147</ele>
        <time>2021-02-04T08:42:58.000Z</time>
      </trkpt>
      <trkpt lat="47.2817" lon="-2.35908">
        <ele>23.200000762939</ele>
        <time>2021-02-04T08:42:59.000Z</time>
      </trkpt>
      <trkpt lat="47.28171" lon="-2.35908">
        <ele>22.799999237061</ele>
        <time>2021-02-04T08:43:00.000Z</time>
      </trkpt>
      <trkpt lat="47.28172" lon="-2.35907">
        <ele>22.799999237061</ele>
        <time>2021-02-04T08:43:01.000Z</time>
      </trkpt>
      <trkpt lat="47.28174" lon="-2.359">
        <ele>22.799999237061</ele>
        <time>2021-02-04T08:43:04.000Z</time>
      </trkpt>
      <trkpt lat="47.28175" lon="-2.35895">
        <ele>22.799999237061</ele>
        <time>2021-02-04T08:43:06.000Z</time>
      </trkpt>
      <trkpt lat="47.28176" lon="-2.35887">
        <ele>22.799999237061</ele>
        <time>2021-02-04T08:43:09.000Z</time>
      </trkpt>
      <trkpt lat="47.28179" lon="-2.35879">
        <ele>22.799999237061</ele>
        <time>2021-02-04T08:43:11.000Z</time>
      </trkpt>
      <trkpt lat="47.28184" lon="-2.35877">
        <ele>22.799999237061</ele>
        <time>2021-02-04T08:43:14.000Z</time>
      </trkpt>
      <trkpt lat="47.28189" lon="-2.35885">
        <ele>22.799999237061</ele>
        <time>2021-02-04T08:43:18.000Z</time>
      </trkpt>
      <trkpt lat="47.2819" lon="-2.35888">
        <ele>23.200000762939</ele>
        <time>2021-02-04T08:43:19.000Z</time>
      </trkpt>
      <trkpt lat="47.28192" lon="-2.35891">
        <ele>23.799999237061</ele>
        <time>2021-02-04T08:43:20.000Z</time>
      </trkpt>
      <trkpt lat="47.28193" lon="-2.35895">
        <ele>24.200000762939</ele>
        <time>2021-02-04T08:43:21.000Z</time>
      </trkpt>
      <trkpt lat="47.28194" lon="-2.35899">
        <ele>24.60000038147</ele>
        <time>2021-02-04T08:43:22.000Z</time>
      </trkpt>
      <trkpt lat="47.28195" lon="-2.35904">
        <ele>25</ele>
        <time>2021-02-04T08:43:23.000Z</time>
      </trkpt>
      <trkpt lat="47.28194" lon="-2.35913">
        <ele>25</ele>
        <time>2021-02-04T08:43:25.000Z</time>
      </trkpt>
      <trkpt lat="47.28189" lon="-2.35936">
        <ele>25</ele>
        <time>2021-02-04T08:43:30.000Z</time>
      </trkpt>
      <trkpt lat="47.28187" lon="-2.35939">
        <ele>24.60000038147</ele>
        <time>2021-02-04T08:43:31.000Z</time>
      </trkpt>
      <trkpt lat="47.28185" lon="-2.35941">
        <ele>24.200000762939</ele>
        <time>2021-02-04T08:43:32.000Z</time>
      </trkpt>
      <trkpt lat="47.28183" lon="-2.35944">
        <ele>23.799999237061</ele>
        <time>2021-02-04T08:43:33.000Z</time>
      </trkpt>
      <trkpt lat="47.28182" lon="-2.35946">
        <ele>23.39999961853</ele>
        <time>2021-02-04T08:43:34.000Z</time>
      </trkpt>
      <trkpt lat="47.28182" lon="-2.35949">
        <ele>23</ele>
        <time>2021-02-04T08:43:35.000Z</time>
      </trkpt>
      <trkpt lat="47.28187" lon="-2.35971">
        <ele>23</ele>
        <time>2021-02-04T08:43:39.000Z</time>
      </trkpt>
      <trkpt lat="47.28192" lon="-2.35988">
        <ele>23</ele>
        <time>2021-02-04T08:43:42.000Z</time>
      </trkpt>
      <trkpt lat="47.28194" lon="-2.35995">
        <ele>22.60000038147</ele>
        <time>2021-02-04T08:43:43.000Z</time>
      </trkpt>
      <trkpt lat="47.28197" lon="-2.36001">
        <ele>22</ele>
        <time>2021-02-04T08:43:44.000Z</time>
      </trkpt>
      <trkpt lat="47.282" lon="-2.36006">
        <ele>21.60000038147</ele>
        <time>2021-02-04T08:43:45.000Z</time>
      </trkpt>
      <trkpt lat="47.28204" lon="-2.36013">
        <ele>21.200000762939</ele>
        <time>2021-02-04T08:43:46.000Z</time>
      </trkpt>
      <trkpt lat="47.28206" lon="-2.36016">
        <ele>20.799999237061</ele>
        <time>2021-02-04T08:43:47.000Z</time>
      </trkpt>
      <trkpt lat="47.28209" lon="-2.36021">
        <ele>20.799999237061</ele>
        <time>2021-02-04T08:43:49.000Z</time>
      </trkpt>
      <trkpt lat="47.28216" lon="-2.36024">
        <ele>20.799999237061</ele>
        <time>2021-02-04T08:43:52.000Z</time>
      </trkpt>
      <trkpt lat="47.28227" lon="-2.3602">
        <ele>20.799999237061</ele>
        <time>2021-02-04T08:43:56.000Z</time>
      </trkpt>
      <trkpt lat="47.28231" lon="-2.36019">
        <ele>20.799999237061</ele>
        <time>2021-02-04T08:43:57.000Z</time>
      </trkpt>
      <trkpt lat="47.28251" lon="-2.36015">
        <ele>20.799999237061</ele>
        <time>2021-02-04T08:44:02.000Z</time>
      </trkpt>
      <trkpt lat="47.28253" lon="-2.36013">
        <ele>20.799999237061</ele>
        <time>2021-02-04T08:44:03.000Z</time>
      </trkpt>
      <trkpt lat="47.28258" lon="-2.36007">
        <ele>20.799999237061</ele>
        <time>2021-02-04T08:44:05.000Z</time>
      </trkpt>
      <trkpt lat="47.28262" lon="-2.36005">
        <ele>21.200000762939</ele>
        <time>2021-02-04T08:44:06.000Z</time>
      </trkpt>
      <trkpt lat="47.28265" lon="-2.36002">
        <ele>21.60000038147</ele>
        <time>2021-02-04T08:44:07.000Z</time>
      </trkpt>
      <trkpt lat="47.28269" lon="-2.36">
        <ele>22.200000762939</ele>
        <time>2021-02-04T08:44:08.000Z</time>
      </trkpt>
      <trkpt lat="47.28272" lon="-2.35997">
        <ele>22.60000038147</ele>
        <time>2021-02-04T08:44:09.000Z</time>
      </trkpt>
      <trkpt lat="47.28275" lon="-2.35994">
        <ele>23</ele>
        <time>2021-02-04T08:44:10.000Z</time>
      </trkpt>
      <trkpt lat="47.28277" lon="-2.35991">
        <ele>23</ele>
        <time>2021-02-04T08:44:11.000Z</time>
      </trkpt>
      <trkpt lat="47.28283" lon="-2.35973">
        <ele>23</ele>
        <time>2021-02-04T08:44:16.000Z</time>
      </trkpt>
      <trkpt lat="47.28281" lon="-2.35956">
        <ele>23</ele>
        <time>2021-02-04T08:44:22.000Z</time>
      </trkpt>
      <trkpt lat="47.28279" lon="-2.3595">
        <ele>23.39999961853</ele>
        <time>2021-02-04T08:44:24.000Z</time>
      </trkpt>
      <trkpt lat="47.28278" lon="-2.35947">
        <ele>24</ele>
        <time>2021-02-04T08:44:25.000Z</time>
      </trkpt>
      <trkpt lat="47.28276" lon="-2.35944">
        <ele>24.39999961853</ele>
        <time>2021-02-04T08:44:26.000Z</time>
      </trkpt>
      <trkpt lat="47.28274" lon="-2.35941">
        <ele>24.799999237061</ele>
        <time>2021-02-04T08:44:27.000Z</time>
      </trkpt>
      <trkpt lat="47.28273" lon="-2.35937">
        <ele>25.200000762939</ele>
        <time>2021-02-04T08:44:28.000Z</time>
      </trkpt>
      <trkpt lat="47.28269" lon="-2.35934">
        <ele>25.200000762939</ele>
        <time>2021-02-04T08:44:29.000Z</time>
      </trkpt>
      <trkpt lat="47.28259" lon="-2.35915">
        <ele>25.200000762939</ele>
        <time>2021-02-04T08:44:36.000Z</time>
      </trkpt>
      <trkpt lat="47.28259" lon="-2.35906">
        <ele>25.200000762939</ele>
        <time>2021-02-04T08:44:39.000Z</time>
      </trkpt>
      <trkpt lat="47.28261" lon="-2.35897">
        <ele>25.200000762939</ele>
        <time>2021-02-04T08:44:43.000Z</time>
      </trkpt>
      <trkpt lat="47.2827" lon="-2.35883">
        <ele>25.200000762939</ele>
        <time>2021-02-04T08:44:49.000Z</time>
      </trkpt>
      <trkpt lat="47.28283" lon="-2.35872">
        <ele>25.200000762939</ele>
        <time>2021-02-04T08:44:55.000Z</time>
      </trkpt>
      <trkpt lat="47.28282" lon="-2.35865">
        <ele>25.200000762939</ele>
        <time>2021-02-04T08:44:59.000Z</time>
      </trkpt>
      <trkpt lat="47.28272" lon="-2.35857">
        <ele>25.200000762939</ele>
        <time>2021-02-04T08:45:03.000Z</time>
      </trkpt>
      <trkpt lat="47.28266" lon="-2.35841">
        <ele>25.200000762939</ele>
        <time>2021-02-04T08:45:08.000Z</time>
      </trkpt>
      <trkpt lat="47.28263" lon="-2.35811">
        <ele>25.200000762939</ele>
        <time>2021-02-04T08:45:14.000Z</time>
      </trkpt>
      <trkpt lat="47.28261" lon="-2.35793">
        <ele>25.200000762939</ele>
        <time>2021-02-04T08:45:19.000Z</time>
      </trkpt>
      <trkpt lat="47.28256" lon="-2.35779">
        <ele>25.200000762939</ele>
        <time>2021-02-04T08:45:24.000Z</time>
      </trkpt>
      <trkpt lat="47.28255" lon="-2.35779">
        <ele>25.200000762939</ele>
        <time>2021-02-04T08:45:25.000Z</time>
      </trkpt>
      <trkpt lat="47.28247" lon="-2.35777">
        <ele>25.200000762939</ele>
        <time>2021-02-04T08:45:29.000Z</time>
      </trkpt>
      <trkpt lat="47.28245" lon="-2.35775">
        <ele>25.60000038147</ele>
        <time>2021-02-04T08:45:30.000Z</time>
      </trkpt>
      <trkpt lat="47.28243" lon="-2.35774">
        <ele>26</ele>
        <time>2021-02-04T08:45:31.000Z</time>
      </trkpt>
      <trkpt lat="47.2824" lon="-2.35773">
        <ele>26.39999961853</ele>
        <time>2021-02-04T08:45:32.000Z</time>
      </trkpt>
      <trkpt lat="47.28238" lon="-2.35772">
        <ele>26.799999237061</ele>
        <time>2021-02-04T08:45:33.000Z</time>
      </trkpt>
      <trkpt lat="47.28236" lon="-2.3577">
        <ele>27.200000762939</ele>
        <time>2021-02-04T08:45:34.000Z</time>
      </trkpt>
      <trkpt lat="47.28232" lon="-2.35767">
        <ele>27.200000762939</ele>
        <time>2021-02-04T08:45:36.000Z</time>
      </trkpt>
      <trkpt lat="47.2822" lon="-2.35755">
        <ele>27.200000762939</ele>
        <time>2021-02-04T08:45:42.000Z</time>
      </trkpt>
      <trkpt lat="47.28214" lon="-2.35746">
        <ele>27.200000762939</ele>
        <time>2021-02-04T08:45:48.000Z</time>
      </trkpt>
      <trkpt lat="47.28202" lon="-2.35725">
        <ele>26.799999237061</ele>
        <time>2021-02-04T08:45:53.000Z</time>
      </trkpt>
      <trkpt lat="47.282" lon="-2.35721">
        <ele>26.39999961853</ele>
        <time>2021-02-04T08:45:54.000Z</time>
      </trkpt>
      <trkpt lat="47.28199" lon="-2.35717">
        <ele>26</ele>
        <time>2021-02-04T08:45:55.000Z</time>
      </trkpt>
      <trkpt lat="47.28198" lon="-2.35712">
        <ele>25.39999961853</ele>
        <time>2021-02-04T08:45:56.000Z</time>
      </trkpt>
      <trkpt lat="47.28198" lon="-2.35708">
        <ele>25</ele>
        <time>2021-02-04T08:45:57.000Z</time>
      </trkpt>
      <trkpt lat="47.28198" lon="-2.35704">
        <ele>25</ele>
        <time>2021-02-04T08:45:58.000Z</time>
      </trkpt>
      <trkpt lat="47.28197" lon="-2.35681">
        <ele>25</ele>
        <time>2021-02-04T08:46:04.000Z</time>
      </trkpt>
      <trkpt lat="47.28198" lon="-2.35679">
        <ele>25</ele>
        <time>2021-02-04T08:46:05.000Z</time>
      </trkpt>
      <trkpt lat="47.28203" lon="-2.35676">
        <ele>25</ele>
        <time>2021-02-04T08:46:08.000Z</time>
      </trkpt>
      <trkpt lat="47.28215" lon="-2.3568">
        <ele>25</ele>
        <time>2021-02-04T08:46:13.000Z</time>
      </trkpt>
      <trkpt lat="47.28218" lon="-2.35682">
        <ele>25</ele>
        <time>2021-02-04T08:46:14.000Z</time>
      </trkpt>
      <trkpt lat="47.28231" lon="-2.3569">
        <ele>25</ele>
        <time>2021-02-04T08:46:19.000Z</time>
      </trkpt>
      <trkpt lat="47.2825" lon="-2.35693">
        <ele>25</ele>
        <time>2021-02-04T08:46:25.000Z</time>
      </trkpt>
      <trkpt lat="47.28252" lon="-2.35691">
        <ele>25</ele>
        <time>2021-02-04T08:46:26.000Z</time>
      </trkpt>
      <trkpt lat="47.28256" lon="-2.35683">
        <ele>25</ele>
        <time>2021-02-04T08:46:29.000Z</time>
      </trkpt>
      <trkpt lat="47.2825" lon="-2.35668">
        <ele>25</ele>
        <time>2021-02-04T08:46:34.000Z</time>
      </trkpt>
      <trkpt lat="47.28235" lon="-2.35649">
        <ele>25</ele>
        <time>2021-02-04T08:46:40.000Z</time>
      </trkpt>
      <trkpt lat="47.28226" lon="-2.35641">
        <ele>25</ele>
        <time>2021-02-04T08:46:42.000Z</time>
      </trkpt>
      <trkpt lat="47.28212" lon="-2.35629">
        <ele>25</ele>
        <time>2021-02-04T08:46:45.000Z</time>
      </trkpt>
      <trkpt lat="47.28194" lon="-2.35613">
        <ele>25</ele>
        <time>2021-02-04T08:46:49.000Z</time>
      </trkpt>
      <trkpt lat="47.28186" lon="-2.35603">
        <ele>25</ele>
        <time>2021-02-04T08:46:51.000Z</time>
      </trkpt>
      <trkpt lat="47.28173" lon="-2.35588">
        <ele>25</ele>
        <time>2021-02-04T08:46:54.000Z</time>
      </trkpt>
      <trkpt lat="47.28158" lon="-2.35577">
        <ele>25</ele>
        <time>2021-02-04T08:46:57.000Z</time>
      </trkpt>
      <trkpt lat="47.28142" lon="-2.35563">
        <ele>25</ele>
        <time>2021-02-04T08:47:01.000Z</time>
      </trkpt>
      <trkpt lat="47.2814" lon="-2.35557">
        <ele>25</ele>
        <time>2021-02-04T08:47:02.000Z</time>
      </trkpt>
      <trkpt lat="47.28143" lon="-2.35536">
        <ele>25</ele>
        <time>2021-02-04T08:47:05.000Z</time>
      </trkpt>
      <trkpt lat="47.28145" lon="-2.3553">
        <ele>25</ele>
        <time>2021-02-04T08:47:06.000Z</time>
      </trkpt>
      <trkpt lat="47.2816" lon="-2.35503">
        <ele>25</ele>
        <time>2021-02-04T08:47:10.000Z</time>
      </trkpt>
      <trkpt lat="47.28176" lon="-2.35478">
        <ele>25</ele>
        <time>2021-02-04T08:47:14.000Z</time>
      </trkpt>
      <trkpt lat="47.28184" lon="-2.35465">
        <ele>25</ele>
        <time>2021-02-04T08:47:16.000Z</time>
      </trkpt>
      <trkpt lat="47.28189" lon="-2.35459">
        <ele>25</ele>
        <time>2021-02-04T08:47:17.000Z</time>
      </trkpt>
      <trkpt lat="47.28208" lon="-2.35435">
        <ele>25</ele>
        <time>2021-02-04T08:47:21.000Z</time>
      </trkpt>
      <trkpt lat="47.28213" lon="-2.3543">
        <ele>24.60000038147</ele>
        <time>2021-02-04T08:47:22.000Z</time>
      </trkpt>
      <trkpt lat="47.28218" lon="-2.35425">
        <ele>24.200000762939</ele>
        <time>2021-02-04T08:47:23.000Z</time>
      </trkpt>
      <trkpt lat="47.28223" lon="-2.3542">
        <ele>23.799999237061</ele>
        <time>2021-02-04T08:47:24.000Z</time>
      </trkpt>
      <trkpt lat="47.28228" lon="-2.35414">
        <ele>23.200000762939</ele>
        <time>2021-02-04T08:47:25.000Z</time>
      </trkpt>
      <trkpt lat="47.28232" lon="-2.35408">
        <ele>22.799999237061</ele>
        <time>2021-02-04T08:47:26.000Z</time>
      </trkpt>
      <trkpt lat="47.28246" lon="-2.3539">
        <ele>22.799999237061</ele>
        <time>2021-02-04T08:47:29.000Z</time>
      </trkpt>
      <trkpt lat="47.2825" lon="-2.35383">
        <ele>22.799999237061</ele>
        <time>2021-02-04T08:47:30.000Z</time>
      </trkpt>
      <trkpt lat="47.28255" lon="-2.35359">
        <ele>22.799999237061</ele>
        <time>2021-02-04T08:47:33.000Z</time>
      </trkpt>
      <trkpt lat="47.28255" lon="-2.35342">
        <ele>22.799999237061</ele>
        <time>2021-02-04T08:47:35.000Z</time>
      </trkpt>
      <trkpt lat="47.28253" lon="-2.35318">
        <ele>22.799999237061</ele>
        <time>2021-02-04T08:47:38.000Z</time>
      </trkpt>
      <trkpt lat="47.28243" lon="-2.35275">
        <ele>22.799999237061</ele>
        <time>2021-02-04T08:47:44.000Z</time>
      </trkpt>
      <trkpt lat="47.28239" lon="-2.35256">
        <ele>22.799999237061</ele>
        <time>2021-02-04T08:47:47.000Z</time>
      </trkpt>
      <trkpt lat="47.2824" lon="-2.3525">
        <ele>22.799999237061</ele>
        <time>2021-02-04T08:47:48.000Z</time>
      </trkpt>
      <trkpt lat="47.28245" lon="-2.35242">
        <ele>23.200000762939</ele>
        <time>2021-02-04T08:47:50.000Z</time>
      </trkpt>
      <trkpt lat="47.28249" lon="-2.35238">
        <ele>23.799999237061</ele>
        <time>2021-02-04T08:47:51.000Z</time>
      </trkpt>
      <trkpt lat="47.28254" lon="-2.35236">
        <ele>24.200000762939</ele>
        <time>2021-02-04T08:47:52.000Z</time>
      </trkpt>
      <trkpt lat="47.28258" lon="-2.35234">
        <ele>24.60000038147</ele>
        <time>2021-02-04T08:47:53.000Z</time>
      </trkpt>
      <trkpt lat="47.28263" lon="-2.35232">
        <ele>25</ele>
        <time>2021-02-04T08:47:54.000Z</time>
      </trkpt>
      <trkpt lat="47.28273" lon="-2.35225">
        <ele>25</ele>
        <time>2021-02-04T08:47:56.000Z</time>
      </trkpt>
      <trkpt lat="47.28307" lon="-2.35198">
        <ele>25</ele>
        <time>2021-02-04T08:48:03.000Z</time>
      </trkpt>
      <trkpt lat="47.28322" lon="-2.35186">
        <ele>25</ele>
        <time>2021-02-04T08:48:06.000Z</time>
      </trkpt>
      <trkpt lat="47.28336" lon="-2.35172">
        <ele>25</ele>
        <time>2021-02-04T08:48:09.000Z</time>
      </trkpt>
      <trkpt lat="47.28361" lon="-2.35148">
        <ele>25</ele>
        <time>2021-02-04T08:48:15.000Z</time>
      </trkpt>
      <trkpt lat="47.28364" lon="-2.3513">
        <ele>25</ele>
        <time>2021-02-04T08:48:18.000Z</time>
      </trkpt>
      <trkpt lat="47.28356" lon="-2.35112">
        <ele>25</ele>
        <time>2021-02-04T08:48:21.000Z</time>
      </trkpt>
      <trkpt lat="47.28352" lon="-2.35106">
        <ele>25</ele>
        <time>2021-02-04T08:48:22.000Z</time>
      </trkpt>
      <trkpt lat="47.28348" lon="-2.351">
        <ele>25</ele>
        <time>2021-02-04T08:48:23.000Z</time>
      </trkpt>
      <trkpt lat="47.28329" lon="-2.35084">
        <ele>25</ele>
        <time>2021-02-04T08:48:27.000Z</time>
      </trkpt>
      <trkpt lat="47.28323" lon="-2.35082">
        <ele>25</ele>
        <time>2021-02-04T08:48:28.000Z</time>
      </trkpt>
      <trkpt lat="47.28317" lon="-2.35081">
        <ele>25.39999961853</ele>
        <time>2021-02-04T08:48:29.000Z</time>
      </trkpt>
      <trkpt lat="47.28311" lon="-2.3508">
        <ele>25.799999237061</ele>
        <time>2021-02-04T08:48:30.000Z</time>
      </trkpt>
      <trkpt lat="47.28305" lon="-2.35079">
        <ele>26.60000038147</ele>
        <time>2021-02-04T08:48:31.000Z</time>
      </trkpt>
      <trkpt lat="47.28299" lon="-2.35077">
        <ele>27</ele>
        <time>2021-02-04T08:48:32.000Z</time>
      </trkpt>
      <trkpt lat="47.28293" lon="-2.35074">
        <ele>27</ele>
        <time>2021-02-04T08:48:33.000Z</time>
      </trkpt>
      <trkpt lat="47.28282" lon="-2.35068">
        <ele>27</ele>
        <time>2021-02-04T08:48:35.000Z</time>
      </trkpt>
      <trkpt lat="47.28272" lon="-2.35058">
        <ele>27</ele>
        <time>2021-02-04T08:48:37.000Z</time>
      </trkpt>
      <trkpt lat="47.28263" lon="-2.35047">
        <ele>27</ele>
        <time>2021-02-04T08:48:39.000Z</time>
      </trkpt>
      <trkpt lat="47.28244" lon="-2.3502">
        <ele>27</ele>
        <time>2021-02-04T08:48:43.000Z</time>
      </trkpt>
      <trkpt lat="47.28219" lon="-2.34974">
        <ele>27</ele>
        <time>2021-02-04T08:48:49.000Z</time>
      </trkpt>
      <trkpt lat="47.28201" lon="-2.34923">
        <ele>27</ele>
        <time>2021-02-04T08:48:55.000Z</time>
      </trkpt>
      <trkpt lat="47.28195" lon="-2.34886">
        <ele>27</ele>
        <time>2021-02-04T08:48:59.000Z</time>
      </trkpt>
      <trkpt lat="47.28181" lon="-2.34832">
        <ele>27</ele>
        <time>2021-02-04T08:49:05.000Z</time>
      </trkpt>
      <trkpt lat="47.2818" lon="-2.34822">
        <ele>27</ele>
        <time>2021-02-04T08:49:06.000Z</time>
      </trkpt>
      <trkpt lat="47.28181" lon="-2.34804">
        <ele>27</ele>
        <time>2021-02-04T08:49:08.000Z</time>
      </trkpt>
      <trkpt lat="47.28186" lon="-2.34776">
        <ele>27</ele>
        <time>2021-02-04T08:49:11.000Z</time>
      </trkpt>
      <trkpt lat="47.28191" lon="-2.34759">
        <ele>27</ele>
        <time>2021-02-04T08:49:13.000Z</time>
      </trkpt>
      <trkpt lat="47.28198" lon="-2.34744">
        <ele>27</ele>
        <time>2021-02-04T08:49:15.000Z</time>
      </trkpt>
      <trkpt lat="47.28202" lon="-2.34737">
        <ele>27</ele>
        <time>2021-02-04T08:49:16.000Z</time>
      </trkpt>
      <trkpt lat="47.28233" lon="-2.3469">
        <ele>27</ele>
        <time>2021-02-04T08:49:23.000Z</time>
      </trkpt>
      <trkpt lat="47.28267" lon="-2.34638">
        <ele>27</ele>
        <time>2021-02-04T08:49:31.000Z</time>
      </trkpt>
      <trkpt lat="47.28298" lon="-2.34592">
        <ele>27</ele>
        <time>2021-02-04T08:49:38.000Z</time>
      </trkpt>
      <trkpt lat="47.28315" lon="-2.34566">
        <ele>27.39999961853</ele>
        <time>2021-02-04T08:49:42.000Z</time>
      </trkpt>
      <trkpt lat="47.2832" lon="-2.3456">
        <ele>27.799999237061</ele>
        <time>2021-02-04T08:49:43.000Z</time>
      </trkpt>
      <trkpt lat="47.28324" lon="-2.34554">
        <ele>28.200000762939</ele>
        <time>2021-02-04T08:49:44.000Z</time>
      </trkpt>
      <trkpt lat="47.28328" lon="-2.34547">
        <ele>29.200000762939</ele>
        <time>2021-02-04T08:49:45.000Z</time>
      </trkpt>
      <trkpt lat="47.28337" lon="-2.34535">
        <ele>29.200000762939</ele>
        <time>2021-02-04T08:49:47.000Z</time>
      </trkpt>
      <trkpt lat="47.28373" lon="-2.34486">
        <ele>29.200000762939</ele>
        <time>2021-02-04T08:49:55.000Z</time>
      </trkpt>
      <trkpt lat="47.28405" lon="-2.34458">
        <ele>29.200000762939</ele>
        <time>2021-02-04T08:50:01.000Z</time>
      </trkpt>
      <trkpt lat="47.28448" lon="-2.34436">
        <ele>29.200000762939</ele>
        <time>2021-02-04T08:50:08.000Z</time>
      </trkpt>
      <trkpt lat="47.2846" lon="-2.34434">
        <ele>29.200000762939</ele>
        <time>2021-02-04T08:50:10.000Z</time>
      </trkpt>
      <trkpt lat="47.28479" lon="-2.34434">
        <ele>29.200000762939</ele>
        <time>2021-02-04T08:50:13.000Z</time>
      </trkpt>
      <trkpt lat="47.28485" lon="-2.34434">
        <ele>29.200000762939</ele>
        <time>2021-02-04T08:50:14.000Z</time>
      </trkpt>
      <trkpt lat="47.28505" lon="-2.34427">
        <ele>29.200000762939</ele>
        <time>2021-02-04T08:50:18.000Z</time>
      </trkpt>
      <trkpt lat="47.28525" lon="-2.34421">
        <ele>29.200000762939</ele>
        <time>2021-02-04T08:50:23.000Z</time>
      </trkpt>
      <trkpt lat="47.28557" lon="-2.34407">
        <ele>29.200000762939</ele>
        <time>2021-02-04T08:50:30.000Z</time>
      </trkpt>
      <trkpt lat="47.28583" lon="-2.34385">
        <ele>29.200000762939</ele>
        <time>2021-02-04T08:50:36.000Z</time>
      </trkpt>
      <trkpt lat="47.28587" lon="-2.3438">
        <ele>29.200000762939</ele>
        <time>2021-02-04T08:50:37.000Z</time>
      </trkpt>
      <trkpt lat="47.28596" lon="-2.34362">
        <ele>29.200000762939</ele>
        <time>2021-02-04T08:50:40.000Z</time>
      </trkpt>
      <trkpt lat="47.28612" lon="-2.34315">
        <ele>29.200000762939</ele>
        <time>2021-02-04T08:50:47.000Z</time>
      </trkpt>
      <trkpt lat="47.28623" lon="-2.34273">
        <ele>29.200000762939</ele>
        <time>2021-02-04T08:50:54.000Z</time>
      </trkpt>
      <trkpt lat="47.28624" lon="-2.34264">
        <ele>29.200000762939</ele>
        <time>2021-02-04T08:50:58.000Z</time>
      </trkpt>
      <trkpt lat="47.28626" lon="-2.34252">
        <ele>29.200000762939</ele>
        <time>2021-02-04T08:51:05.000Z</time>
      </trkpt>
      <trkpt lat="47.28631" lon="-2.34238">
        <ele>29.200000762939</ele>
        <time>2021-02-04T08:51:09.000Z</time>
      </trkpt>
      <trkpt lat="47.28635" lon="-2.34228">
        <ele>29.200000762939</ele>
        <time>2021-02-04T08:51:11.000Z</time>
      </trkpt>
      <trkpt lat="47.28637" lon="-2.34215">
        <ele>29.200000762939</ele>
        <time>2021-02-04T08:51:13.000Z</time>
      </trkpt>
      <trkpt lat="47.28639" lon="-2.34157">
        <ele>29.200000762939</ele>
        <time>2021-02-04T08:51:21.000Z</time>
      </trkpt>
      <trkpt lat="47.28636" lon="-2.34136">
        <ele>29.200000762939</ele>
        <time>2021-02-04T08:51:24.000Z</time>
      </trkpt>
      <trkpt lat="47.28632" lon="-2.34126">
        <ele>29.200000762939</ele>
        <time>2021-02-04T08:51:26.000Z</time>
      </trkpt>
      <trkpt lat="47.28631" lon="-2.34122">
        <ele>29.200000762939</ele>
        <time>2021-02-04T08:51:29.000Z</time>
      </trkpt>
      <trkpt lat="47.28631" lon="-2.34119">
        <ele>29.200000762939</ele>
        <time>2021-02-04T08:51:46.000Z</time>
      </trkpt>
      <trkpt lat="47.2863" lon="-2.34113">
        <ele>29.200000762939</ele>
        <time>2021-02-04T08:51:48.000Z</time>
      </trkpt>
      <trkpt lat="47.28627" lon="-2.3409">
        <ele>29.200000762939</ele>
        <time>2021-02-04T08:51:53.000Z</time>
      </trkpt>
      <trkpt lat="47.28619" lon="-2.34055">
        <ele>29.200000762939</ele>
        <time>2021-02-04T08:51:58.000Z</time>
      </trkpt>
      <trkpt lat="47.28605" lon="-2.33983">
        <ele>29.200000762939</ele>
        <time>2021-02-04T08:52:07.000Z</time>
      </trkpt>
      <trkpt lat="47.28592" lon="-2.33914">
        <ele>29.200000762939</ele>
        <time>2021-02-04T08:52:16.000Z</time>
      </trkpt>
      <trkpt lat="47.28585" lon="-2.3387">
        <ele>29.200000762939</ele>
        <time>2021-02-04T08:52:22.000Z</time>
      </trkpt>
      <trkpt lat="47.28573" lon="-2.33807">
        <ele>29.200000762939</ele>
        <time>2021-02-04T08:52:31.000Z</time>
      </trkpt>
      <trkpt lat="47.28574" lon="-2.33776">
        <ele>29.200000762939</ele>
        <time>2021-02-04T08:52:35.000Z</time>
      </trkpt>
      <trkpt lat="47.28576" lon="-2.33769">
        <ele>29.200000762939</ele>
        <time>2021-02-04T08:52:36.000Z</time>
      </trkpt>
      <trkpt lat="47.28584" lon="-2.33749">
        <ele>29.200000762939</ele>
        <time>2021-02-04T08:52:39.000Z</time>
      </trkpt>
      <trkpt lat="47.28586" lon="-2.33743">
        <ele>29.200000762939</ele>
        <time>2021-02-04T08:52:40.000Z</time>
      </trkpt>
      <trkpt lat="47.28586" lon="-2.33738">
        <ele>29.200000762939</ele>
        <time>2021-02-04T08:52:41.000Z</time>
      </trkpt>
      <trkpt lat="47.28577" lon="-2.33731">
        <ele>29.200000762939</ele>
        <time>2021-02-04T08:52:44.000Z</time>
      </trkpt>
      <trkpt lat="47.28564" lon="-2.33729">
        <ele>29.200000762939</ele>
        <time>2021-02-04T08:52:47.000Z</time>
      </trkpt>
      <trkpt lat="47.28551" lon="-2.33728">
        <ele>29.200000762939</ele>
        <time>2021-02-04T08:52:50.000Z</time>
      </trkpt>
      <trkpt lat="47.28515" lon="-2.33731">
        <ele>29.200000762939</ele>
        <time>2021-02-04T08:52:57.000Z</time>
      </trkpt>
      <trkpt lat="47.2851" lon="-2.33733">
        <ele>29.200000762939</ele>
        <time>2021-02-04T08:52:58.000Z</time>
      </trkpt>
      <trkpt lat="47.28497" lon="-2.33745">
        <ele>29.200000762939</ele>
        <time>2021-02-04T08:53:01.000Z</time>
      </trkpt>
      <trkpt lat="47.28493" lon="-2.3375">
        <ele>29.200000762939</ele>
        <time>2021-02-04T08:53:02.000Z</time>
      </trkpt>
      <trkpt lat="47.28485" lon="-2.33759">
        <ele>28.200000762939</ele>
        <time>2021-02-04T08:53:04.000Z</time>
      </trkpt>
      <trkpt lat="47.28481" lon="-2.33764">
        <ele>27.799999237061</ele>
        <time>2021-02-04T08:53:05.000Z</time>
      </trkpt>
      <trkpt lat="47.28477" lon="-2.33769">
        <ele>27.39999961853</ele>
        <time>2021-02-04T08:53:06.000Z</time>
      </trkpt>
      <trkpt lat="47.28473" lon="-2.33774">
        <ele>27</ele>
        <time>2021-02-04T08:53:07.000Z</time>
      </trkpt>
      <trkpt lat="47.28465" lon="-2.33784">
        <ele>27</ele>
        <time>2021-02-04T08:53:09.000Z</time>
      </trkpt>
      <trkpt lat="47.28428" lon="-2.33826">
        <ele>27</ele>
        <time>2021-02-04T08:53:18.000Z</time>
      </trkpt>
      <trkpt lat="47.28394" lon="-2.33859">
        <ele>27</ele>
        <time>2021-02-04T08:53:25.000Z</time>
      </trkpt>
      <trkpt lat="47.28363" lon="-2.33886">
        <ele>26.39999961853</ele>
        <time>2021-02-04T08:53:31.000Z</time>
      </trkpt>
      <trkpt lat="47.28359" lon="-2.33891">
        <ele>26</ele>
        <time>2021-02-04T08:53:32.000Z</time>
      </trkpt>
      <trkpt lat="47.28354" lon="-2.33895">
        <ele>25.60000038147</ele>
        <time>2021-02-04T08:53:33.000Z</time>
      </trkpt>
      <trkpt lat="47.28349" lon="-2.339">
        <ele>25.200000762939</ele>
        <time>2021-02-04T08:53:34.000Z</time>
      </trkpt>
      <trkpt lat="47.28344" lon="-2.33905">
        <ele>24.799999237061</ele>
        <time>2021-02-04T08:53:35.000Z</time>
      </trkpt>
      <trkpt lat="47.2832" lon="-2.33926">
        <ele>24.799999237061</ele>
        <time>2021-02-04T08:53:40.000Z</time>
      </trkpt>
      <trkpt lat="47.28305" lon="-2.33934">
        <ele>24.200000762939</ele>
        <time>2021-02-04T08:53:44.000Z</time>
      </trkpt>
      <trkpt lat="47.28303" lon="-2.33931">
        <ele>23.799999237061</ele>
        <time>2021-02-04T08:53:45.000Z</time>
      </trkpt>
      <trkpt lat="47.283" lon="-2.33926">
        <ele>23.39999961853</ele>
        <time>2021-02-04T08:53:46.000Z</time>
      </trkpt>
      <trkpt lat="47.28298" lon="-2.33921">
        <ele>22.799999237061</ele>
        <time>2021-02-04T08:53:47.000Z</time>
      </trkpt>
      <trkpt lat="47.28295" lon="-2.33915">
        <ele>22.39999961853</ele>
        <time>2021-02-04T08:53:48.000Z</time>
      </trkpt>
      <trkpt lat="47.28285" lon="-2.33891">
        <ele>22.39999961853</ele>
        <time>2021-02-04T08:53:51.000Z</time>
      </trkpt>
      <trkpt lat="47.28265" lon="-2.33839">
        <ele>22.39999961853</ele>
        <time>2021-02-04T08:53:58.000Z</time>
      </trkpt>
      <trkpt lat="47.28255" lon="-2.33819">
        <ele>22.39999961853</ele>
        <time>2021-02-04T08:54:01.000Z</time>
      </trkpt>
      <trkpt lat="47.28245" lon="-2.33812">
        <ele>22.39999961853</ele>
        <time>2021-02-04T08:54:03.000Z</time>
      </trkpt>
      <trkpt lat="47.28227" lon="-2.33803">
        <ele>22.39999961853</ele>
        <time>2021-02-04T08:54:06.000Z</time>
      </trkpt>
      <trkpt lat="47.28216" lon="-2.338">
        <ele>22.39999961853</ele>
        <time>2021-02-04T08:54:08.000Z</time>
      </trkpt>
      <trkpt lat="47.28205" lon="-2.33795">
        <ele>22.39999961853</ele>
        <time>2021-02-04T08:54:10.000Z</time>
      </trkpt>
      <trkpt lat="47.2819" lon="-2.33782">
        <ele>22.39999961853</ele>
        <time>2021-02-04T08:54:13.000Z</time>
      </trkpt>
      <trkpt lat="47.28185" lon="-2.33777">
        <ele>22</ele>
        <time>2021-02-04T08:54:14.000Z</time>
      </trkpt>
      <trkpt lat="47.2818" lon="-2.33771">
        <ele>21.60000038147</ele>
        <time>2021-02-04T08:54:15.000Z</time>
      </trkpt>
      <trkpt lat="47.28176" lon="-2.33766">
        <ele>21.200000762939</ele>
        <time>2021-02-04T08:54:16.000Z</time>
      </trkpt>
      <trkpt lat="47.28171" lon="-2.3376">
        <ele>20.60000038147</ele>
        <time>2021-02-04T08:54:17.000Z</time>
      </trkpt>
      <trkpt lat="47.28166" lon="-2.33754">
        <ele>20.200000762939</ele>
        <time>2021-02-04T08:54:18.000Z</time>
      </trkpt>
      <trkpt lat="47.28157" lon="-2.33743">
        <ele>20.200000762939</ele>
        <time>2021-02-04T08:54:20.000Z</time>
      </trkpt>
      <trkpt lat="47.28152" lon="-2.33739">
        <ele>20.200000762939</ele>
        <time>2021-02-04T08:54:21.000Z</time>
      </trkpt>
      <trkpt lat="47.28137" lon="-2.33722">
        <ele>20.200000762939</ele>
        <time>2021-02-04T08:54:24.000Z</time>
      </trkpt>
      <trkpt lat="47.28133" lon="-2.33716">
        <ele>20.200000762939</ele>
        <time>2021-02-04T08:54:25.000Z</time>
      </trkpt>
      <trkpt lat="47.28121" lon="-2.33695">
        <ele>20.200000762939</ele>
        <time>2021-02-04T08:54:28.000Z</time>
      </trkpt>
      <trkpt lat="47.28111" lon="-2.33682">
        <ele>20.200000762939</ele>
        <time>2021-02-04T08:54:30.000Z</time>
      </trkpt>
      <trkpt lat="47.28099" lon="-2.33665">
        <ele>20.200000762939</ele>
        <time>2021-02-04T08:54:33.000Z</time>
      </trkpt>
      <trkpt lat="47.28095" lon="-2.33655">
        <ele>20.200000762939</ele>
        <time>2021-02-04T08:54:35.000Z</time>
      </trkpt>
      <trkpt lat="47.28088" lon="-2.33638">
        <ele>20.200000762939</ele>
        <time>2021-02-04T08:54:38.000Z</time>
      </trkpt>
      <trkpt lat="47.28087" lon="-2.33631">
        <ele>20.200000762939</ele>
        <time>2021-02-04T08:54:39.000Z</time>
      </trkpt>
      <trkpt lat="47.28084" lon="-2.33601">
        <ele>19.799999237061</ele>
        <time>2021-02-04T08:54:42.000Z</time>
      </trkpt>
      <trkpt lat="47.28083" lon="-2.3359">
        <ele>19</ele>
        <time>2021-02-04T08:54:43.000Z</time>
      </trkpt>
      <trkpt lat="47.28082" lon="-2.3358">
        <ele>18.60000038147</ele>
        <time>2021-02-04T08:54:44.000Z</time>
      </trkpt>
      <trkpt lat="47.2808" lon="-2.3357">
        <ele>18.200000762939</ele>
        <time>2021-02-04T08:54:45.000Z</time>
      </trkpt>
      <trkpt lat="47.28075" lon="-2.33535">
        <ele>18.200000762939</ele>
        <time>2021-02-04T08:54:49.000Z</time>
      </trkpt>
      <trkpt lat="47.28075" lon="-2.33519">
        <ele>18.200000762939</ele>
        <time>2021-02-04T08:54:51.000Z</time>
      </trkpt>
      <trkpt lat="47.28082" lon="-2.33507">
        <ele>18.200000762939</ele>
        <time>2021-02-04T08:54:53.000Z</time>
      </trkpt>
      <trkpt lat="47.28091" lon="-2.33494">
        <ele>18.200000762939</ele>
        <time>2021-02-04T08:54:55.000Z</time>
      </trkpt>
      <trkpt lat="47.281" lon="-2.33477">
        <ele>18.200000762939</ele>
        <time>2021-02-04T08:54:57.000Z</time>
      </trkpt>
      <trkpt lat="47.28131" lon="-2.33409">
        <ele>18.200000762939</ele>
        <time>2021-02-04T08:55:05.000Z</time>
      </trkpt>
      <trkpt lat="47.28146" lon="-2.33377">
        <ele>17.799999237061</ele>
        <time>2021-02-04T08:55:09.000Z</time>
      </trkpt>
      <trkpt lat="47.2815" lon="-2.33369">
        <ele>17.39999961853</ele>
        <time>2021-02-04T08:55:10.000Z</time>
      </trkpt>
      <trkpt lat="47.28154" lon="-2.33361">
        <ele>17</ele>
        <time>2021-02-04T08:55:11.000Z</time>
      </trkpt>
      <trkpt lat="47.28157" lon="-2.33353">
        <ele>16.60000038147</ele>
        <time>2021-02-04T08:55:12.000Z</time>
      </trkpt>
      <trkpt lat="47.28161" lon="-2.33345">
        <ele>16.200000762939</ele>
        <time>2021-02-04T08:55:13.000Z</time>
      </trkpt>
      <trkpt lat="47.28182" lon="-2.33291">
        <ele>16.200000762939</ele>
        <time>2021-02-04T08:55:19.000Z</time>
      </trkpt>
      <trkpt lat="47.28184" lon="-2.33281">
        <ele>16.200000762939</ele>
        <time>2021-02-04T08:55:20.000Z</time>
      </trkpt>
      <trkpt lat="47.28188" lon="-2.3325">
        <ele>16.200000762939</ele>
        <time>2021-02-04T08:55:23.000Z</time>
      </trkpt>
      <trkpt lat="47.28189" lon="-2.3324">
        <ele>15.60000038147</ele>
        <time>2021-02-04T08:55:24.000Z</time>
      </trkpt>
      <trkpt lat="47.2819" lon="-2.3323">
        <ele>15.199999809265</ele>
        <time>2021-02-04T08:55:25.000Z</time>
      </trkpt>
      <trkpt lat="47.28191" lon="-2.3322">
        <ele>14.800000190735</ele>
        <time>2021-02-04T08:55:26.000Z</time>
      </trkpt>
      <trkpt lat="47.28192" lon="-2.33211">
        <ele>14.39999961853</ele>
        <time>2021-02-04T08:55:27.000Z</time>
      </trkpt>
      <trkpt lat="47.28192" lon="-2.33201">
        <ele>14</ele>
        <time>2021-02-04T08:55:28.000Z</time>
      </trkpt>
      <trkpt lat="47.28193" lon="-2.33162">
        <ele>14</ele>
        <time>2021-02-04T08:55:32.000Z</time>
      </trkpt>
      <trkpt lat="47.28195" lon="-2.33106">
        <ele>14</ele>
        <time>2021-02-04T08:55:38.000Z</time>
      </trkpt>
      <trkpt lat="47.28196" lon="-2.33098">
        <ele>14</ele>
        <time>2021-02-04T08:55:39.000Z</time>
      </trkpt>
      <trkpt lat="47.28205" lon="-2.33075">
        <ele>14</ele>
        <time>2021-02-04T08:55:42.000Z</time>
      </trkpt>
      <trkpt lat="47.28228" lon="-2.33036">
        <ele>14</ele>
        <time>2021-02-04T08:55:48.000Z</time>
      </trkpt>
      <trkpt lat="47.28233" lon="-2.33031">
        <ele>14</ele>
        <time>2021-02-04T08:55:49.000Z</time>
      </trkpt>
      <trkpt lat="47.28265" lon="-2.33008">
        <ele>14</ele>
        <time>2021-02-04T08:55:55.000Z</time>
      </trkpt>
      <trkpt lat="47.28298" lon="-2.32984">
        <ele>14</ele>
        <time>2021-02-04T08:56:01.000Z</time>
      </trkpt>
      <trkpt lat="47.28328" lon="-2.3296">
        <ele>14</ele>
        <time>2021-02-04T08:56:07.000Z</time>
      </trkpt>
      <trkpt lat="47.28355" lon="-2.32931">
        <ele>14</ele>
        <time>2021-02-04T08:56:13.000Z</time>
      </trkpt>
      <trkpt lat="47.28365" lon="-2.329">
        <ele>14</ele>
        <time>2021-02-04T08:56:17.000Z</time>
      </trkpt>
      <trkpt lat="47.28364" lon="-2.32875">
        <ele>14</ele>
        <time>2021-02-04T08:56:20.000Z</time>
      </trkpt>
      <trkpt lat="47.28363" lon="-2.3286">
        <ele>14</ele>
        <time>2021-02-04T08:56:22.000Z</time>
      </trkpt>
      <trkpt lat="47.28364" lon="-2.32815">
        <ele>14</ele>
        <time>2021-02-04T08:56:28.000Z</time>
      </trkpt>
      <trkpt lat="47.28374" lon="-2.32761">
        <ele>14</ele>
        <time>2021-02-04T08:56:35.000Z</time>
      </trkpt>
      <trkpt lat="47.28391" lon="-2.3269">
        <ele>14</ele>
        <time>2021-02-04T08:56:44.000Z</time>
      </trkpt>
      <trkpt lat="47.28402" lon="-2.32639">
        <ele>14</ele>
        <time>2021-02-04T08:56:51.000Z</time>
      </trkpt>
      <trkpt lat="47.2841" lon="-2.32605">
        <ele>14</ele>
        <time>2021-02-04T08:56:56.000Z</time>
      </trkpt>
      <trkpt lat="47.28411" lon="-2.32598">
        <ele>14</ele>
        <time>2021-02-04T08:56:57.000Z</time>
      </trkpt>
      <trkpt lat="47.28406" lon="-2.32571">
        <ele>14.39999961853</ele>
        <time>2021-02-04T08:57:01.000Z</time>
      </trkpt>
      <trkpt lat="47.28404" lon="-2.32565">
        <ele>15</ele>
        <time>2021-02-04T08:57:02.000Z</time>
      </trkpt>
      <trkpt lat="47.28403" lon="-2.32559">
        <ele>15.39999961853</ele>
        <time>2021-02-04T08:57:03.000Z</time>
      </trkpt>
      <trkpt lat="47.28401" lon="-2.32552">
        <ele>15.800000190735</ele>
        <time>2021-02-04T08:57:04.000Z</time>
      </trkpt>
      <trkpt lat="47.28399" lon="-2.32547">
        <ele>16.200000762939</ele>
        <time>2021-02-04T08:57:05.000Z</time>
      </trkpt>
      <trkpt lat="47.28393" lon="-2.32523">
        <ele>16.200000762939</ele>
        <time>2021-02-04T08:57:09.000Z</time>
      </trkpt>
      <trkpt lat="47.28378" lon="-2.32464">
        <ele>16.200000762939</ele>
        <time>2021-02-04T08:57:18.000Z</time>
      </trkpt>
      <trkpt lat="47.28371" lon="-2.32429">
        <ele>16.200000762939</ele>
        <time>2021-02-04T08:57:24.000Z</time>
      </trkpt>
      <trkpt lat="47.28372" lon="-2.32423">
        <ele>16.200000762939</ele>
        <time>2021-02-04T08:57:25.000Z</time>
      </trkpt>
      <trkpt lat="47.28378" lon="-2.32416">
        <ele>16.200000762939</ele>
        <time>2021-02-04T08:57:27.000Z</time>
      </trkpt>
      <trkpt lat="47.28388" lon="-2.32411">
        <ele>16.200000762939</ele>
        <time>2021-02-04T08:57:29.000Z</time>
      </trkpt>
      <trkpt lat="47.284" lon="-2.32404">
        <ele>16.200000762939</ele>
        <time>2021-02-04T08:57:31.000Z</time>
      </trkpt>
      <trkpt lat="47.28432" lon="-2.32385">
        <ele>16.200000762939</ele>
        <time>2021-02-04T08:57:37.000Z</time>
      </trkpt>
      <trkpt lat="47.28466" lon="-2.32362">
        <ele>16.200000762939</ele>
        <time>2021-02-04T08:57:44.000Z</time>
      </trkpt>
      <trkpt lat="47.28491" lon="-2.32344">
        <ele>16.200000762939</ele>
        <time>2021-02-04T08:57:50.000Z</time>
      </trkpt>
      <trkpt lat="47.28529" lon="-2.32315">
        <ele>16.799999237061</ele>
        <time>2021-02-04T08:57:58.000Z</time>
      </trkpt>
      <trkpt lat="47.28534" lon="-2.32311">
        <ele>17.200000762939</ele>
        <time>2021-02-04T08:57:59.000Z</time>
      </trkpt>
      <trkpt lat="47.28538" lon="-2.32307">
        <ele>17.60000038147</ele>
        <time>2021-02-04T08:58:00.000Z</time>
      </trkpt>
      <trkpt lat="47.28543" lon="-2.32303">
        <ele>18.60000038147</ele>
        <time>2021-02-04T08:58:01.000Z</time>
      </trkpt>
      <trkpt lat="47.28562" lon="-2.32282">
        <ele>18.60000038147</ele>
        <time>2021-02-04T08:58:06.000Z</time>
      </trkpt>
      <trkpt lat="47.28592" lon="-2.32251">
        <ele>18.60000038147</ele>
        <time>2021-02-04T08:58:14.000Z</time>
      </trkpt>
      <trkpt lat="47.28608" lon="-2.32241">
        <ele>18.60000038147</ele>
        <time>2021-02-04T08:58:18.000Z</time>
      </trkpt>
      <trkpt lat="47.2863" lon="-2.32231">
        <ele>19</ele>
        <time>2021-02-04T08:58:22.000Z</time>
      </trkpt>
      <trkpt lat="47.28637" lon="-2.32228">
        <ele>19.39999961853</ele>
        <time>2021-02-04T08:58:23.000Z</time>
      </trkpt>
      <trkpt lat="47.28642" lon="-2.32223">
        <ele>19.799999237061</ele>
        <time>2021-02-04T08:58:24.000Z</time>
      </trkpt>
      <trkpt lat="47.28648" lon="-2.32218">
        <ele>20.39999961853</ele>
        <time>2021-02-04T08:58:25.000Z</time>
      </trkpt>
      <trkpt lat="47.28652" lon="-2.32213">
        <ele>20.799999237061</ele>
        <time>2021-02-04T08:58:26.000Z</time>
      </trkpt>
      <trkpt lat="47.28665" lon="-2.32197">
        <ele>20.799999237061</ele>
        <time>2021-02-04T08:58:29.000Z</time>
      </trkpt>
      <trkpt lat="47.28672" lon="-2.32185">
        <ele>20.799999237061</ele>
        <time>2021-02-04T08:58:31.000Z</time>
      </trkpt>
      <trkpt lat="47.28675" lon="-2.32179">
        <ele>21.200000762939</ele>
        <time>2021-02-04T08:58:32.000Z</time>
      </trkpt>
      <trkpt lat="47.28678" lon="-2.32172">
        <ele>21.60000038147</ele>
        <time>2021-02-04T08:58:33.000Z</time>
      </trkpt>
      <trkpt lat="47.28681" lon="-2.32166">
        <ele>22</ele>
        <time>2021-02-04T08:58:34.000Z</time>
      </trkpt>
      <trkpt lat="47.28683" lon="-2.32159">
        <ele>22.39999961853</ele>
        <time>2021-02-04T08:58:35.000Z</time>
      </trkpt>
      <trkpt lat="47.28686" lon="-2.32153">
        <ele>22.799999237061</ele>
        <time>2021-02-04T08:58:36.000Z</time>
      </trkpt>
      <trkpt lat="47.28688" lon="-2.32146">
        <ele>22.799999237061</ele>
        <time>2021-02-04T08:58:37.000Z</time>
      </trkpt>
      <trkpt lat="47.28692" lon="-2.32124">
        <ele>22.799999237061</ele>
        <time>2021-02-04T08:58:40.000Z</time>
      </trkpt>
      <trkpt lat="47.28692" lon="-2.32109">
        <ele>22.799999237061</ele>
        <time>2021-02-04T08:58:42.000Z</time>
      </trkpt>
      <trkpt lat="47.2869" lon="-2.32094">
        <ele>22.799999237061</ele>
        <time>2021-02-04T08:58:44.000Z</time>
      </trkpt>
      <trkpt lat="47.28689" lon="-2.32087">
        <ele>22.799999237061</ele>
        <time>2021-02-04T08:58:45.000Z</time>
      </trkpt>
      <trkpt lat="47.28688" lon="-2.32079">
        <ele>23.39999961853</ele>
        <time>2021-02-04T08:58:46.000Z</time>
      </trkpt>
      <trkpt lat="47.28686" lon="-2.32072">
        <ele>23.799999237061</ele>
        <time>2021-02-04T08:58:47.000Z</time>
      </trkpt>
      <trkpt lat="47.28684" lon="-2.32065">
        <ele>24.200000762939</ele>
        <time>2021-02-04T08:58:48.000Z</time>
      </trkpt>
      <trkpt lat="47.28683" lon="-2.32058">
        <ele>24.60000038147</ele>
        <time>2021-02-04T08:58:49.000Z</time>
      </trkpt>
      <trkpt lat="47.28681" lon="-2.3205">
        <ele>25</ele>
        <time>2021-02-04T08:58:50.000Z</time>
      </trkpt>
      <trkpt lat="47.28678" lon="-2.32035">
        <ele>25</ele>
        <time>2021-02-04T08:58:52.000Z</time>
      </trkpt>
      <trkpt lat="47.28668" lon="-2.31984">
        <ele>25</ele>
        <time>2021-02-04T08:58:59.000Z</time>
      </trkpt>
      <trkpt lat="47.28659" lon="-2.31927">
        <ele>25</ele>
        <time>2021-02-04T08:59:07.000Z</time>
      </trkpt>
      <trkpt lat="47.28651" lon="-2.31867">
        <ele>25</ele>
        <time>2021-02-04T08:59:15.000Z</time>
      </trkpt>
      <trkpt lat="47.28646" lon="-2.31813">
        <ele>25.39999961853</ele>
        <time>2021-02-04T08:59:22.000Z</time>
      </trkpt>
      <trkpt lat="47.28645" lon="-2.31805">
        <ele>25.799999237061</ele>
        <time>2021-02-04T08:59:23.000Z</time>
      </trkpt>
      <trkpt lat="47.28644" lon="-2.31798">
        <ele>26.200000762939</ele>
        <time>2021-02-04T08:59:24.000Z</time>
      </trkpt>
      <trkpt lat="47.28643" lon="-2.31791">
        <ele>26.60000038147</ele>
        <time>2021-02-04T08:59:25.000Z</time>
      </trkpt>
      <trkpt lat="47.28642" lon="-2.31783">
        <ele>27</ele>
        <time>2021-02-04T08:59:26.000Z</time>
      </trkpt>
      <trkpt lat="47.2864" lon="-2.31762">
        <ele>27</ele>
        <time>2021-02-04T08:59:29.000Z</time>
      </trkpt>
      <trkpt lat="47.28637" lon="-2.31742">
        <ele>27</ele>
        <time>2021-02-04T08:59:32.000Z</time>
      </trkpt>
      <trkpt lat="47.28627" lon="-2.31683">
        <ele>27</ele>
        <time>2021-02-04T08:59:40.000Z</time>
      </trkpt>
      <trkpt lat="47.28623" lon="-2.31627">
        <ele>27</ele>
        <time>2021-02-04T08:59:47.000Z</time>
      </trkpt>
      <trkpt lat="47.28625" lon="-2.31552">
        <ele>27</ele>
        <time>2021-02-04T08:59:56.000Z</time>
      </trkpt>
      <trkpt lat="47.28623" lon="-2.31497">
        <ele>27</ele>
        <time>2021-02-04T09:00:03.000Z</time>
      </trkpt>
      <trkpt lat="47.28623" lon="-2.31474">
        <ele>27</ele>
        <time>2021-02-04T09:00:07.000Z</time>
      </trkpt>
      <trkpt lat="47.28625" lon="-2.3147">
        <ele>27</ele>
        <time>2021-02-04T09:00:08.000Z</time>
      </trkpt>
      <trkpt lat="47.2864" lon="-2.3146">
        <ele>27</ele>
        <time>2021-02-04T09:00:12.000Z</time>
      </trkpt>
      <trkpt lat="47.28663" lon="-2.31453">
        <ele>27</ele>
        <time>2021-02-04T09:00:17.000Z</time>
      </trkpt>
      <trkpt lat="47.28667" lon="-2.31454">
        <ele>27</ele>
        <time>2021-02-04T09:00:18.000Z</time>
      </trkpt>
      <trkpt lat="47.28675" lon="-2.31474">
        <ele>27</ele>
        <time>2021-02-04T09:00:21.000Z</time>
      </trkpt>
      <trkpt lat="47.28688" lon="-2.31492">
        <ele>27</ele>
        <time>2021-02-04T09:00:24.000Z</time>
      </trkpt>
      <trkpt lat="47.28707" lon="-2.31491">
        <ele>27</ele>
        <time>2021-02-04T09:00:27.000Z</time>
      </trkpt>
      <trkpt lat="47.28719" lon="-2.31486">
        <ele>27</ele>
        <time>2021-02-04T09:00:29.000Z</time>
      </trkpt>
      <trkpt lat="47.28738" lon="-2.31476">
        <ele>27</ele>
        <time>2021-02-04T09:00:32.000Z</time>
      </trkpt>
      <trkpt lat="47.28775" lon="-2.31457">
        <ele>27</ele>
        <time>2021-02-04T09:00:38.000Z</time>
      </trkpt>
      <trkpt lat="47.28811" lon="-2.31431">
        <ele>27</ele>
        <time>2021-02-04T09:00:44.000Z</time>
      </trkpt>
      <trkpt lat="47.2883" lon="-2.31419">
        <ele>26.60000038147</ele>
        <time>2021-02-04T09:00:47.000Z</time>
      </trkpt>
      <trkpt lat="47.28836" lon="-2.31416">
        <ele>26.200000762939</ele>
        <time>2021-02-04T09:00:48.000Z</time>
      </trkpt>
      <trkpt lat="47.28842" lon="-2.31413">
        <ele>25.799999237061</ele>
        <time>2021-02-04T09:00:49.000Z</time>
      </trkpt>
      <trkpt lat="47.28849" lon="-2.31409">
        <ele>25.39999961853</ele>
        <time>2021-02-04T09:00:50.000Z</time>
      </trkpt>
      <trkpt lat="47.28855" lon="-2.31406">
        <ele>25</ele>
        <time>2021-02-04T09:00:51.000Z</time>
      </trkpt>
      <trkpt lat="47.28882" lon="-2.31394">
        <ele>25</ele>
        <time>2021-02-04T09:00:55.000Z</time>
      </trkpt>
      <trkpt lat="47.28895" lon="-2.31392">
        <ele>25</ele>
        <time>2021-02-04T09:00:57.000Z</time>
      </trkpt>
      <trkpt lat="47.28944" lon="-2.31387">
        <ele>25</ele>
        <time>2021-02-04T09:01:04.000Z</time>
      </trkpt>
      <trkpt lat="47.28951" lon="-2.31384">
        <ele>25</ele>
        <time>2021-02-04T09:01:05.000Z</time>
      </trkpt>
      <trkpt lat="47.28969" lon="-2.31371">
        <ele>25</ele>
        <time>2021-02-04T09:01:08.000Z</time>
      </trkpt>
      <trkpt lat="47.28974" lon="-2.31366">
        <ele>25</ele>
        <time>2021-02-04T09:01:09.000Z</time>
      </trkpt>
      <trkpt lat="47.28994" lon="-2.31337">
        <ele>25</ele>
        <time>2021-02-04T09:01:13.000Z</time>
      </trkpt>
      <trkpt lat="47.29018" lon="-2.31284">
        <ele>25</ele>
        <time>2021-02-04T09:01:19.000Z</time>
      </trkpt>
      <trkpt lat="47.2903" lon="-2.31256">
        <ele>24.60000038147</ele>
        <time>2021-02-04T09:01:22.000Z</time>
      </trkpt>
      <trkpt lat="47.29034" lon="-2.31248">
        <ele>24.200000762939</ele>
        <time>2021-02-04T09:01:23.000Z</time>
      </trkpt>
      <trkpt lat="47.29037" lon="-2.31238">
        <ele>23.799999237061</ele>
        <time>2021-02-04T09:01:24.000Z</time>
      </trkpt>
      <trkpt lat="47.29041" lon="-2.31229">
        <ele>23.200000762939</ele>
        <time>2021-02-04T09:01:25.000Z</time>
      </trkpt>
      <trkpt lat="47.29043" lon="-2.31219">
        <ele>22.799999237061</ele>
        <time>2021-02-04T09:01:26.000Z</time>
      </trkpt>
      <trkpt lat="47.29043" lon="-2.31188">
        <ele>22.799999237061</ele>
        <time>2021-02-04T09:01:29.000Z</time>
      </trkpt>
      <trkpt lat="47.29042" lon="-2.31178">
        <ele>22.799999237061</ele>
        <time>2021-02-04T09:01:30.000Z</time>
      </trkpt>
      <trkpt lat="47.29037" lon="-2.31139">
        <ele>22.799999237061</ele>
        <time>2021-02-04T09:01:34.000Z</time>
      </trkpt>
      <trkpt lat="47.29032" lon="-2.31053">
        <ele>22.799999237061</ele>
        <time>2021-02-04T09:01:42.000Z</time>
      </trkpt>
      <trkpt lat="47.29031" lon="-2.3103">
        <ele>22</ele>
        <time>2021-02-04T09:01:44.000Z</time>
      </trkpt>
      <trkpt lat="47.29032" lon="-2.31018">
        <ele>21.60000038147</ele>
        <time>2021-02-04T09:01:45.000Z</time>
      </trkpt>
      <trkpt lat="47.29032" lon="-2.31007">
        <ele>21.200000762939</ele>
        <time>2021-02-04T09:01:46.000Z</time>
      </trkpt>
      <trkpt lat="47.29032" lon="-2.30995">
        <ele>20.60000038147</ele>
        <time>2021-02-04T09:01:47.000Z</time>
      </trkpt>
      <trkpt lat="47.29032" lon="-2.30972">
        <ele>20.60000038147</ele>
        <time>2021-02-04T09:01:49.000Z</time>
      </trkpt>
      <trkpt lat="47.29031" lon="-2.30935">
        <ele>20.200000762939</ele>
        <time>2021-02-04T09:01:52.000Z</time>
      </trkpt>
      <trkpt lat="47.2903" lon="-2.30924">
        <ele>19.799999237061</ele>
        <time>2021-02-04T09:01:53.000Z</time>
      </trkpt>
      <trkpt lat="47.2903" lon="-2.30912">
        <ele>19.200000762939</ele>
        <time>2021-02-04T09:01:54.000Z</time>
      </trkpt>
      <trkpt lat="47.29029" lon="-2.30899">
        <ele>18.799999237061</ele>
        <time>2021-02-04T09:01:55.000Z</time>
      </trkpt>
      <trkpt lat="47.29029" lon="-2.30887">
        <ele>18.39999961853</ele>
        <time>2021-02-04T09:01:56.000Z</time>
      </trkpt>
      <trkpt lat="47.29027" lon="-2.30873">
        <ele>17.799999237061</ele>
        <time>2021-02-04T09:01:57.000Z</time>
      </trkpt>
      <trkpt lat="47.29026" lon="-2.30861">
        <ele>17.39999961853</ele>
        <time>2021-02-04T09:01:58.000Z</time>
      </trkpt>
      <trkpt lat="47.29024" lon="-2.30849">
        <ele>16.799999237061</ele>
        <time>2021-02-04T09:01:59.000Z</time>
      </trkpt>
      <trkpt lat="47.29022" lon="-2.30837">
        <ele>16.200000762939</ele>
        <time>2021-02-04T09:02:00.000Z</time>
      </trkpt>
      <trkpt lat="47.29021" lon="-2.30825">
        <ele>15.800000190735</ele>
        <time>2021-02-04T09:02:01.000Z</time>
      </trkpt>
      <trkpt lat="47.2902" lon="-2.30813">
        <ele>15.39999961853</ele>
        <time>2021-02-04T09:02:02.000Z</time>
      </trkpt>
      <trkpt lat="47.29018" lon="-2.30801">
        <ele>15</ele>
        <time>2021-02-04T09:02:03.000Z</time>
      </trkpt>
      <trkpt lat="47.29016" lon="-2.30789">
        <ele>14.60000038147</ele>
        <time>2021-02-04T09:02:04.000Z</time>
      </trkpt>
      <trkpt lat="47.29013" lon="-2.30777">
        <ele>14.199999809265</ele>
        <time>2021-02-04T09:02:05.000Z</time>
      </trkpt>
      <trkpt lat="47.29007" lon="-2.30754">
        <ele>14.199999809265</ele>
        <time>2021-02-04T09:02:07.000Z</time>
      </trkpt>
      <trkpt lat="47.29006" lon="-2.30742">
        <ele>14.199999809265</ele>
        <time>2021-02-04T09:02:08.000Z</time>
      </trkpt>
      <trkpt lat="47.29004" lon="-2.30718">
        <ele>13.800000190735</ele>
        <time>2021-02-04T09:02:10.000Z</time>
      </trkpt>
      <trkpt lat="47.29004" lon="-2.30706">
        <ele>13.199999809265</ele>
        <time>2021-02-04T09:02:11.000Z</time>
      </trkpt>
      <trkpt lat="47.29005" lon="-2.30695">
        <ele>12.800000190735</ele>
        <time>2021-02-04T09:02:12.000Z</time>
      </trkpt>
      <trkpt lat="47.29004" lon="-2.30684">
        <ele>12.39999961853</ele>
        <time>2021-02-04T09:02:13.000Z</time>
      </trkpt>
      <trkpt lat="47.29004" lon="-2.30673">
        <ele>12</ele>
        <time>2021-02-04T09:02:14.000Z</time>
      </trkpt>
      <trkpt lat="47.29004" lon="-2.30654">
        <ele>12</ele>
        <time>2021-02-04T09:02:16.000Z</time>
      </trkpt>
      <trkpt lat="47.29002" lon="-2.30627">
        <ele>12</ele>
        <time>2021-02-04T09:02:20.000Z</time>
      </trkpt>
      <trkpt lat="47.29005" lon="-2.30619">
        <ele>11.60000038147</ele>
        <time>2021-02-04T09:02:22.000Z</time>
      </trkpt>
      <trkpt lat="47.29007" lon="-2.30616">
        <ele>11</ele>
        <time>2021-02-04T09:02:23.000Z</time>
      </trkpt>
      <trkpt lat="47.2901" lon="-2.30613">
        <ele>10.60000038147</ele>
        <time>2021-02-04T09:02:24.000Z</time>
      </trkpt>
      <trkpt lat="47.29014" lon="-2.30611">
        <ele>10.199999809265</ele>
        <time>2021-02-04T09:02:25.000Z</time>
      </trkpt>
      <trkpt lat="47.29017" lon="-2.30608">
        <ele>9.8000001907349</ele>
        <time>2021-02-04T09:02:26.000Z</time>
      </trkpt>
      <trkpt lat="47.2903" lon="-2.306">
        <ele>9.8000001907349</ele>
        <time>2021-02-04T09:02:29.000Z</time>
      </trkpt>
      <trkpt lat="47.29071" lon="-2.30575">
        <ele>9.8000001907349</ele>
        <time>2021-02-04T09:02:38.000Z</time>
      </trkpt>
      <trkpt lat="47.29107" lon="-2.30552">
        <ele>9.8000001907349</ele>
        <time>2021-02-04T09:02:45.000Z</time>
      </trkpt>
      <trkpt lat="47.29145" lon="-2.30528">
        <ele>9.8000001907349</ele>
        <time>2021-02-04T09:02:52.000Z</time>
      </trkpt>
      <trkpt lat="47.29161" lon="-2.30515">
        <ele>9.8000001907349</ele>
        <time>2021-02-04T09:02:55.000Z</time>
      </trkpt>
      <trkpt lat="47.29169" lon="-2.30501">
        <ele>9.8000001907349</ele>
        <time>2021-02-04T09:02:57.000Z</time>
      </trkpt>
      <trkpt lat="47.29174" lon="-2.30485">
        <ele>9.8000001907349</ele>
        <time>2021-02-04T09:02:59.000Z</time>
      </trkpt>
      <trkpt lat="47.29181" lon="-2.30468">
        <ele>9.8000001907349</ele>
        <time>2021-02-04T09:03:01.000Z</time>
      </trkpt>
      <trkpt lat="47.29209" lon="-2.3041">
        <ele>9.8000001907349</ele>
        <time>2021-02-04T09:03:08.000Z</time>
      </trkpt>
      <trkpt lat="47.29228" lon="-2.30369">
        <ele>9.3999996185303</ele>
        <time>2021-02-04T09:03:13.000Z</time>
      </trkpt>
      <trkpt lat="47.29233" lon="-2.30361">
        <ele>9</ele>
        <time>2021-02-04T09:03:14.000Z</time>
      </trkpt>
      <trkpt lat="47.29237" lon="-2.30353">
        <ele>8.3999996185303</ele>
        <time>2021-02-04T09:03:15.000Z</time>
      </trkpt>
      <trkpt lat="47.29241" lon="-2.30344">
        <ele>8</ele>
        <time>2021-02-04T09:03:16.000Z</time>
      </trkpt>
      <trkpt lat="47.29245" lon="-2.30336">
        <ele>7.5999999046326</ele>
        <time>2021-02-04T09:03:17.000Z</time>
      </trkpt>
      <trkpt lat="47.29277" lon="-2.30269">
        <ele>7.5999999046326</ele>
        <time>2021-02-04T09:03:25.000Z</time>
      </trkpt>
      <trkpt lat="47.29299" lon="-2.3022">
        <ele>7.5999999046326</ele>
        <time>2021-02-04T09:03:31.000Z</time>
      </trkpt>
      <trkpt lat="47.29313" lon="-2.30177">
        <ele>7.5999999046326</ele>
        <time>2021-02-04T09:03:37.000Z</time>
      </trkpt>
      <trkpt lat="47.2932" lon="-2.30153">
        <ele>7.1999998092651</ele>
        <time>2021-02-04T09:03:42.000Z</time>
      </trkpt>
      <trkpt lat="47.29322" lon="-2.30149">
        <ele>6.8000001907349</ele>
        <time>2021-02-04T09:03:43.000Z</time>
      </trkpt>
      <trkpt lat="47.29323" lon="-2.30145">
        <ele>6.4000000953674</ele>
        <time>2021-02-04T09:03:44.000Z</time>
      </trkpt>
      <trkpt lat="47.29323" lon="-2.30142">
        <ele>6</ele>
        <time>2021-02-04T09:03:45.000Z</time>
      </trkpt>
      <trkpt lat="47.29325" lon="-2.30138">
        <ele>5.5999999046326</ele>
        <time>2021-02-04T09:03:46.000Z</time>
      </trkpt>
      <trkpt lat="47.29328" lon="-2.30132">
        <ele>5.5999999046326</ele>
        <time>2021-02-04T09:03:48.000Z</time>
      </trkpt>
      <trkpt lat="47.29338" lon="-2.30103">
        <ele>5.5999999046326</ele>
        <time>2021-02-04T09:03:54.000Z</time>
      </trkpt>
      <trkpt lat="47.29342" lon="-2.30072">
        <ele>5.5999999046326</ele>
        <time>2021-02-04T09:03:59.000Z</time>
      </trkpt>
      <trkpt lat="47.29343" lon="-2.3006">
        <ele>5.5999999046326</ele>
        <time>2021-02-04T09:04:01.000Z</time>
      </trkpt>
      <trkpt lat="47.29346" lon="-2.30023">
        <ele>5.5999999046326</ele>
        <time>2021-02-04T09:04:08.000Z</time>
      </trkpt>
      <trkpt lat="47.29348" lon="-2.30004">
        <ele>5.5999999046326</ele>
        <time>2021-02-04T09:04:15.000Z</time>
      </trkpt>
      <trkpt lat="47.29354" lon="-2.30005">
        <ele>5.5999999046326</ele>
        <time>2021-02-04T09:04:18.000Z</time>
      </trkpt>
      <trkpt lat="47.29366" lon="-2.3001">
        <ele>5.5999999046326</ele>
        <time>2021-02-04T09:04:21.000Z</time>
      </trkpt>
      <trkpt lat="47.29371" lon="-2.30012">
        <ele>5.5999999046326</ele>
        <time>2021-02-04T09:04:22.000Z</time>
      </trkpt>
      <trkpt lat="47.29375" lon="-2.30014">
        <ele>5.5999999046326</ele>
        <time>2021-02-04T09:04:23.000Z</time>
      </trkpt>
      <trkpt lat="47.29391" lon="-2.30021">
        <ele>5.5999999046326</ele>
        <time>2021-02-04T09:04:26.000Z</time>
      </trkpt>
      <trkpt lat="47.29396" lon="-2.30022">
        <ele>5.5999999046326</ele>
        <time>2021-02-04T09:04:27.000Z</time>
      </trkpt>
      <trkpt lat="47.29417" lon="-2.30028">
        <ele>5.5999999046326</ele>
        <time>2021-02-04T09:04:31.000Z</time>
      </trkpt>
      <trkpt lat="47.29429" lon="-2.30029">
        <ele>5.5999999046326</ele>
        <time>2021-02-04T09:04:33.000Z</time>
      </trkpt>
      <trkpt lat="47.29467" lon="-2.30028">
        <ele>5.5999999046326</ele>
        <time>2021-02-04T09:04:40.000Z</time>
      </trkpt>
      <trkpt lat="47.29503" lon="-2.30026">
        <ele>5.5999999046326</ele>
        <time>2021-02-04T09:04:47.000Z</time>
      </trkpt>
      <trkpt lat="47.29512" lon="-2.30025">
        <ele>5.5999999046326</ele>
        <time>2021-02-04T09:04:49.000Z</time>
      </trkpt>
      <trkpt lat="47.29522" lon="-2.30028">
        <ele>5.5999999046326</ele>
        <time>2021-02-04T09:04:51.000Z</time>
      </trkpt>
      <trkpt lat="47.29545" lon="-2.30026">
        <ele>5.5999999046326</ele>
        <time>2021-02-04T09:04:55.000Z</time>
      </trkpt>
      <trkpt lat="47.2955" lon="-2.30024">
        <ele>5.5999999046326</ele>
        <time>2021-02-04T09:04:56.000Z</time>
      </trkpt>
      <trkpt lat="47.29583" lon="-2.30011">
        <ele>5.5999999046326</ele>
        <time>2021-02-04T09:05:02.000Z</time>
      </trkpt>
      <trkpt lat="47.29621" lon="-2.3">
        <ele>5.5999999046326</ele>
        <time>2021-02-04T09:05:09.000Z</time>
      </trkpt>
      <trkpt lat="47.29638" lon="-2.2999">
        <ele>5.5999999046326</ele>
        <time>2021-02-04T09:05:13.000Z</time>
      </trkpt>
      <trkpt lat="47.29642" lon="-2.29987">
        <ele>5.5999999046326</ele>
        <time>2021-02-04T09:05:14.000Z</time>
      </trkpt>
      <trkpt lat="47.29653" lon="-2.29988">
        <ele>5.5999999046326</ele>
        <time>2021-02-04T09:05:17.000Z</time>
      </trkpt>
      <trkpt lat="47.29663" lon="-2.29997">
        <ele>5.5999999046326</ele>
        <time>2021-02-04T09:05:19.000Z</time>
      </trkpt>
      <trkpt lat="47.29675" lon="-2.30002">
        <ele>5.5999999046326</ele>
        <time>2021-02-04T09:05:21.000Z</time>
      </trkpt>
      <trkpt lat="47.29705" lon="-2.30001">
        <ele>5.5999999046326</ele>
        <time>2021-02-04T09:05:26.000Z</time>
      </trkpt>
      <trkpt lat="47.29728" lon="-2.29996">
        <ele>5.5999999046326</ele>
        <time>2021-02-04T09:05:31.000Z</time>
      </trkpt>
      <trkpt lat="47.29754" lon="-2.2998">
        <ele>5.5999999046326</ele>
        <time>2021-02-04T09:05:37.000Z</time>
      </trkpt>
      <trkpt lat="47.29784" lon="-2.29955">
        <ele>5.5999999046326</ele>
        <time>2021-02-04T09:05:44.000Z</time>
      </trkpt>
      <trkpt lat="47.29789" lon="-2.29953">
        <ele>5.5999999046326</ele>
        <time>2021-02-04T09:05:45.000Z</time>
      </trkpt>
      <trkpt lat="47.29806" lon="-2.29952">
        <ele>5.5999999046326</ele>
        <time>2021-02-04T09:05:48.000Z</time>
      </trkpt>
      <trkpt lat="47.29811" lon="-2.29953">
        <ele>5.5999999046326</ele>
        <time>2021-02-04T09:05:49.000Z</time>
      </trkpt>
      <trkpt lat="47.29845" lon="-2.29952">
        <ele>5.5999999046326</ele>
        <time>2021-02-04T09:05:55.000Z</time>
      </trkpt>
      <trkpt lat="47.29861" lon="-2.29947">
        <ele>5.1999998092651</ele>
        <time>2021-02-04T09:05:58.000Z</time>
      </trkpt>
      <trkpt lat="47.29866" lon="-2.29946">
        <ele>4.8000001907349</ele>
        <time>2021-02-04T09:05:59.000Z</time>
      </trkpt>
      <trkpt lat="47.29871" lon="-2.29945">
        <ele>4.4000000953674</ele>
        <time>2021-02-04T09:06:00.000Z</time>
      </trkpt>
      <trkpt lat="47.29876" lon="-2.29944">
        <ele>4</ele>
        <time>2021-02-04T09:06:01.000Z</time>
      </trkpt>
      <trkpt lat="47.29881" lon="-2.29943">
        <ele>3.5999999046326</ele>
        <time>2021-02-04T09:06:02.000Z</time>
      </trkpt>
      <trkpt lat="47.29901" lon="-2.29938">
        <ele>3.5999999046326</ele>
        <time>2021-02-04T09:06:06.000Z</time>
      </trkpt>
      <trkpt lat="47.29908" lon="-2.29921">
        <ele>3.5999999046326</ele>
        <time>2021-02-04T09:06:09.000Z</time>
      </trkpt>
      <trkpt lat="47.29907" lon="-2.29903">
        <ele>3.5999999046326</ele>
        <time>2021-02-04T09:06:12.000Z</time>
      </trkpt>
      <trkpt lat="47.29906" lon="-2.29891">
        <ele>3.5999999046326</ele>
        <time>2021-02-04T09:06:14.000Z</time>
      </trkpt>
      <trkpt lat="47.29902" lon="-2.29851">
        <ele>3.5999999046326</ele>
        <time>2021-02-04T09:06:21.000Z</time>
      </trkpt>
      <trkpt lat="47.29903" lon="-2.29846">
        <ele>3.5999999046326</ele>
        <time>2021-02-04T09:06:22.000Z</time>
      </trkpt>
      <trkpt lat="47.29909" lon="-2.29828">
        <ele>3.5999999046326</ele>
        <time>2021-02-04T09:06:26.000Z</time>
      </trkpt>
      <trkpt lat="47.29919" lon="-2.29821">
        <ele>3.5999999046326</ele>
        <time>2021-02-04T09:06:30.000Z</time>
      </trkpt>
      <trkpt lat="47.29938" lon="-2.29806">
        <ele>3.5999999046326</ele>
        <time>2021-02-04T09:06:37.000Z</time>
      </trkpt>
      <trkpt lat="47.2995" lon="-2.29788">
        <ele>3.5999999046326</ele>
        <time>2021-02-04T09:06:43.000Z</time>
      </trkpt>
      <trkpt lat="47.29951" lon="-2.29782">
        <ele>3.5999999046326</ele>
        <time>2021-02-04T09:06:46.000Z</time>
      </trkpt>
      <trkpt lat="47.29949" lon="-2.29779">
        <ele>3.5999999046326</ele>
        <time>2021-02-04T09:06:55.000Z</time>
      </trkpt>
      <trkpt lat="47.29943" lon="-2.29761">
        <ele>3.5999999046326</ele>
        <time>2021-02-04T09:07:00.000Z</time>
      </trkpt>
      <trkpt lat="47.29929" lon="-2.29716">
        <ele>3.5999999046326</ele>
        <time>2021-02-04T09:07:07.000Z</time>
      </trkpt>
      <trkpt lat="47.29925" lon="-2.29703">
        <ele>4</ele>
        <time>2021-02-04T09:07:09.000Z</time>
      </trkpt>
      <trkpt lat="47.29923" lon="-2.29697">
        <ele>4.4000000953674</ele>
        <time>2021-02-04T09:07:10.000Z</time>
      </trkpt>
      <trkpt lat="47.29921" lon="-2.29692">
        <ele>4.8000001907349</ele>
        <time>2021-02-04T09:07:11.000Z</time>
      </trkpt>
      <trkpt lat="47.29919" lon="-2.29687">
        <ele>5.1999998092651</ele>
        <time>2021-02-04T09:07:12.000Z</time>
      </trkpt>
      <trkpt lat="47.29918" lon="-2.29681">
        <ele>5.5999999046326</ele>
        <time>2021-02-04T09:07:13.000Z</time>
      </trkpt>
      <trkpt lat="47.29918" lon="-2.29676">
        <ele>5.5999999046326</ele>
        <time>2021-02-04T09:07:14.000Z</time>
      </trkpt>
      <trkpt lat="47.29911" lon="-2.29653">
        <ele>5.5999999046326</ele>
        <time>2021-02-04T09:07:18.000Z</time>
      </trkpt>
      <trkpt lat="47.29908" lon="-2.2965">
        <ele>5.5999999046326</ele>
        <time>2021-02-04T09:07:19.000Z</time>
      </trkpt>
      <trkpt lat="47.29896" lon="-2.29635">
        <ele>5.5999999046326</ele>
        <time>2021-02-04T09:07:22.000Z</time>
      </trkpt>
      <trkpt lat="47.29893" lon="-2.29628">
        <ele>5.5999999046326</ele>
        <time>2021-02-04T09:07:23.000Z</time>
      </trkpt>
      <trkpt lat="47.29873" lon="-2.29594">
        <ele>6.4000000953674</ele>
        <time>2021-02-04T09:07:29.000Z</time>
      </trkpt>
      <trkpt lat="47.29869" lon="-2.29587">
        <ele>7</ele>
        <time>2021-02-04T09:07:30.000Z</time>
      </trkpt>
      <trkpt lat="47.29866" lon="-2.29581">
        <ele>7.4000000953674</ele>
        <time>2021-02-04T09:07:31.000Z</time>
      </trkpt>
      <trkpt lat="47.29862" lon="-2.29576">
        <ele>7.8000001907349</ele>
        <time>2021-02-04T09:07:32.000Z</time>
      </trkpt>
      <trkpt lat="47.29844" lon="-2.29549">
        <ele>7.8000001907349</ele>
        <time>2021-02-04T09:07:37.000Z</time>
      </trkpt>
      <trkpt lat="47.29815" lon="-2.29507">
        <ele>7.8000001907349</ele>
        <time>2021-02-04T09:07:45.000Z</time>
      </trkpt>
      <trkpt lat="47.29808" lon="-2.29497">
        <ele>8.1999998092651</ele>
        <time>2021-02-04T09:07:47.000Z</time>
      </trkpt>
      <trkpt lat="47.29805" lon="-2.29492">
        <ele>8.6000003814697</ele>
        <time>2021-02-04T09:07:48.000Z</time>
      </trkpt>
      <trkpt lat="47.29801" lon="-2.29488">
        <ele>9</ele>
        <time>2021-02-04T09:07:49.000Z</time>
      </trkpt>
      <trkpt lat="47.29798" lon="-2.29483">
        <ele>9.3999996185303</ele>
        <time>2021-02-04T09:07:50.000Z</time>
      </trkpt>
      <trkpt lat="47.29795" lon="-2.29478">
        <ele>9.8000001907349</ele>
        <time>2021-02-04T09:07:51.000Z</time>
      </trkpt>
      <trkpt lat="47.29788" lon="-2.29468">
        <ele>9.8000001907349</ele>
        <time>2021-02-04T09:07:53.000Z</time>
      </trkpt>
      <trkpt lat="47.29759" lon="-2.29424">
        <ele>9.8000001907349</ele>
        <time>2021-02-04T09:08:01.000Z</time>
      </trkpt>
      <trkpt lat="47.29735" lon="-2.29384">
        <ele>9.8000001907349</ele>
        <time>2021-02-04T09:08:09.000Z</time>
      </trkpt>
      <trkpt lat="47.29726" lon="-2.2937">
        <ele>9.8000001907349</ele>
        <time>2021-02-04T09:08:14.000Z</time>
      </trkpt>
      <trkpt lat="47.29718" lon="-2.29358">
        <ele>9.8000001907349</ele>
        <time>2021-02-04T09:08:21.000Z</time>
      </trkpt>
      <trkpt lat="47.29708" lon="-2.29351">
        <ele>9.8000001907349</ele>
        <time>2021-02-04T09:08:26.000Z</time>
      </trkpt>
      <trkpt lat="47.29706" lon="-2.29349">
        <ele>9.8000001907349</ele>
        <time>2021-02-04T09:08:27.000Z</time>
      </trkpt>
      <trkpt lat="47.29705" lon="-2.29342">
        <ele>9.8000001907349</ele>
        <time>2021-02-04T09:08:29.000Z</time>
      </trkpt>
      <trkpt lat="47.29713" lon="-2.29325">
        <ele>9.8000001907349</ele>
        <time>2021-02-04T09:08:33.000Z</time>
      </trkpt>
      <trkpt lat="47.29716" lon="-2.2932">
        <ele>9.8000001907349</ele>
        <time>2021-02-04T09:08:34.000Z</time>
      </trkpt>
      <trkpt lat="47.29733" lon="-2.29286">
        <ele>9.8000001907349</ele>
        <time>2021-02-04T09:08:40.000Z</time>
      </trkpt>
      <trkpt lat="47.29739" lon="-2.29274">
        <ele>10.199999809265</ele>
        <time>2021-02-04T09:08:42.000Z</time>
      </trkpt>
      <trkpt lat="47.29743" lon="-2.29267">
        <ele>10.60000038147</ele>
        <time>2021-02-04T09:08:43.000Z</time>
      </trkpt>
      <trkpt lat="47.29746" lon="-2.29261">
        <ele>11</ele>
        <time>2021-02-04T09:08:44.000Z</time>
      </trkpt>
      <trkpt lat="47.29749" lon="-2.29253">
        <ele>11.39999961853</ele>
        <time>2021-02-04T09:08:45.000Z</time>
      </trkpt>
      <trkpt lat="47.29752" lon="-2.29246">
        <ele>11.800000190735</ele>
        <time>2021-02-04T09:08:46.000Z</time>
      </trkpt>
      <trkpt lat="47.29761" lon="-2.29223">
        <ele>11.800000190735</ele>
        <time>2021-02-04T09:08:49.000Z</time>
      </trkpt>
      <trkpt lat="47.29769" lon="-2.29199">
        <ele>11.800000190735</ele>
        <time>2021-02-04T09:08:52.000Z</time>
      </trkpt>
      <trkpt lat="47.29782" lon="-2.29155">
        <ele>11.800000190735</ele>
        <time>2021-02-04T09:08:57.000Z</time>
      </trkpt>
      <trkpt lat="47.298" lon="-2.29095">
        <ele>11.800000190735</ele>
        <time>2021-02-04T09:09:04.000Z</time>
      </trkpt>
      <trkpt lat="47.29803" lon="-2.29087">
        <ele>11.39999961853</ele>
        <time>2021-02-04T09:09:05.000Z</time>
      </trkpt>
      <trkpt lat="47.29806" lon="-2.29081">
        <ele>11</ele>
        <time>2021-02-04T09:09:06.000Z</time>
      </trkpt>
      <trkpt lat="47.2981" lon="-2.29075">
        <ele>10.60000038147</ele>
        <time>2021-02-04T09:09:07.000Z</time>
      </trkpt>
      <trkpt lat="47.29815" lon="-2.29072">
        <ele>10.199999809265</ele>
        <time>2021-02-04T09:09:08.000Z</time>
      </trkpt>
      <trkpt lat="47.29821" lon="-2.29071">
        <ele>9.8000001907349</ele>
        <time>2021-02-04T09:09:09.000Z</time>
      </trkpt>
      <trkpt lat="47.29832" lon="-2.29075">
        <ele>9.8000001907349</ele>
        <time>2021-02-04T09:09:11.000Z</time>
      </trkpt>
      <trkpt lat="47.29843" lon="-2.29082">
        <ele>9.8000001907349</ele>
        <time>2021-02-04T09:09:13.000Z</time>
      </trkpt>
      <trkpt lat="47.29859" lon="-2.29094">
        <ele>9.3999996185303</ele>
        <time>2021-02-04T09:09:16.000Z</time>
      </trkpt>
      <trkpt lat="47.29864" lon="-2.29098">
        <ele>9</ele>
        <time>2021-02-04T09:09:17.000Z</time>
      </trkpt>
      <trkpt lat="47.29869" lon="-2.29103">
        <ele>8.6000003814697</ele>
        <time>2021-02-04T09:09:18.000Z</time>
      </trkpt>
      <trkpt lat="47.29874" lon="-2.29107">
        <ele>8.1999998092651</ele>
        <time>2021-02-04T09:09:19.000Z</time>
      </trkpt>
      <trkpt lat="47.29879" lon="-2.29111">
        <ele>7.8000001907349</ele>
        <time>2021-02-04T09:09:20.000Z</time>
      </trkpt>
      <trkpt lat="47.29889" lon="-2.29119">
        <ele>7.8000001907349</ele>
        <time>2021-02-04T09:09:22.000Z</time>
      </trkpt>
      <trkpt lat="47.299" lon="-2.29126">
        <ele>7.8000001907349</ele>
        <time>2021-02-04T09:09:24.000Z</time>
      </trkpt>
      <trkpt lat="47.29912" lon="-2.29126">
        <ele>7.8000001907349</ele>
        <time>2021-02-04T09:09:26.000Z</time>
      </trkpt>
      <trkpt lat="47.29931" lon="-2.29116">
        <ele>7.8000001907349</ele>
        <time>2021-02-04T09:09:29.000Z</time>
      </trkpt>
      <trkpt lat="47.29965" lon="-2.29092">
        <ele>7.8000001907349</ele>
        <time>2021-02-04T09:09:35.000Z</time>
      </trkpt>
      <trkpt lat="47.29976" lon="-2.29087">
        <ele>7.4000000953674</ele>
        <time>2021-02-04T09:09:37.000Z</time>
      </trkpt>
      <trkpt lat="47.29982" lon="-2.29086">
        <ele>7</ele>
        <time>2021-02-04T09:09:38.000Z</time>
      </trkpt>
      <trkpt lat="47.29988" lon="-2.29086">
        <ele>6.5999999046326</ele>
        <time>2021-02-04T09:09:39.000Z</time>
      </trkpt>
      <trkpt lat="47.29994" lon="-2.29087">
        <ele>6.1999998092651</ele>
        <time>2021-02-04T09:09:40.000Z</time>
      </trkpt>
      <trkpt lat="47.29999" lon="-2.2909">
        <ele>5.8000001907349</ele>
        <time>2021-02-04T09:09:41.000Z</time>
      </trkpt>
      <trkpt lat="47.30005" lon="-2.29093">
        <ele>5.8000001907349</ele>
        <time>2021-02-04T09:09:42.000Z</time>
      </trkpt>
      <trkpt lat="47.3001" lon="-2.29097">
        <ele>5.8000001907349</ele>
        <time>2021-02-04T09:09:43.000Z</time>
      </trkpt>
      <trkpt lat="47.30025" lon="-2.29113">
        <ele>5.8000001907349</ele>
        <time>2021-02-04T09:09:46.000Z</time>
      </trkpt>
      <trkpt lat="47.30051" lon="-2.29129">
        <ele>5.8000001907349</ele>
        <time>2021-02-04T09:09:51.000Z</time>
      </trkpt>
      <trkpt lat="47.30069" lon="-2.29148">
        <ele>5.8000001907349</ele>
        <time>2021-02-04T09:09:55.000Z</time>
      </trkpt>
      <trkpt lat="47.30078" lon="-2.29161">
        <ele>5.8000001907349</ele>
        <time>2021-02-04T09:09:57.000Z</time>
      </trkpt>
      <trkpt lat="47.30096" lon="-2.29188">
        <ele>5.8000001907349</ele>
        <time>2021-02-04T09:10:01.000Z</time>
      </trkpt>
      <trkpt lat="47.30129" lon="-2.29233">
        <ele>5.8000001907349</ele>
        <time>2021-02-04T09:10:08.000Z</time>
      </trkpt>
      <trkpt lat="47.30137" lon="-2.29248">
        <ele>5.4000000953674</ele>
        <time>2021-02-04T09:10:10.000Z</time>
      </trkpt>
      <trkpt lat="47.30142" lon="-2.29255">
        <ele>4.8000001907349</ele>
        <time>2021-02-04T09:10:11.000Z</time>
      </trkpt>
      <trkpt lat="47.30146" lon="-2.29262">
        <ele>4.4000000953674</ele>
        <time>2021-02-04T09:10:12.000Z</time>
      </trkpt>
      <trkpt lat="47.3015" lon="-2.29269">
        <ele>4</ele>
        <time>2021-02-04T09:10:13.000Z</time>
      </trkpt>
      <trkpt lat="47.30155" lon="-2.29276">
        <ele>3.5999999046326</ele>
        <time>2021-02-04T09:10:14.000Z</time>
      </trkpt>
      <trkpt lat="47.30159" lon="-2.29283">
        <ele>3.5999999046326</ele>
        <time>2021-02-04T09:10:15.000Z</time>
      </trkpt>
      <trkpt lat="47.30189" lon="-2.29331">
        <ele>3.5999999046326</ele>
        <time>2021-02-04T09:10:22.000Z</time>
      </trkpt>
      <trkpt lat="47.302" lon="-2.29351">
        <ele>3.5999999046326</ele>
        <time>2021-02-04T09:10:25.000Z</time>
      </trkpt>
      <trkpt lat="47.3021" lon="-2.29362">
        <ele>3.5999999046326</ele>
        <time>2021-02-04T09:10:27.000Z</time>
      </trkpt>
      <trkpt lat="47.30227" lon="-2.29368">
        <ele>3.5999999046326</ele>
        <time>2021-02-04T09:10:30.000Z</time>
      </trkpt>
      <trkpt lat="47.30242" lon="-2.29367">
        <ele>3.5999999046326</ele>
        <time>2021-02-04T09:10:33.000Z</time>
      </trkpt>
      <trkpt lat="47.30246" lon="-2.29366">
        <ele>3.5999999046326</ele>
        <time>2021-02-04T09:10:34.000Z</time>
      </trkpt>
      <trkpt lat="47.30263" lon="-2.29355">
        <ele>3.5999999046326</ele>
        <time>2021-02-04T09:10:39.000Z</time>
      </trkpt>
      <trkpt lat="47.30285" lon="-2.29331">
        <ele>3.5999999046326</ele>
        <time>2021-02-04T09:10:46.000Z</time>
      </trkpt>
      <trkpt lat="47.30303" lon="-2.29313">
        <ele>3.5999999046326</ele>
        <time>2021-02-04T09:10:52.000Z</time>
      </trkpt>
      <trkpt lat="47.30318" lon="-2.293">
        <ele>3.5999999046326</ele>
        <time>2021-02-04T09:10:56.000Z</time>
      </trkpt>
      <trkpt lat="47.30328" lon="-2.29296">
        <ele>3.5999999046326</ele>
        <time>2021-02-04T09:10:58.000Z</time>
      </trkpt>
      <trkpt lat="47.30354" lon="-2.29291">
        <ele>3.5999999046326</ele>
        <time>2021-02-04T09:11:04.000Z</time>
      </trkpt>
      <trkpt lat="47.30386" lon="-2.29282">
        <ele>3.5999999046326</ele>
        <time>2021-02-04T09:11:11.000Z</time>
      </trkpt>
      <trkpt lat="47.3041" lon="-2.29262">
        <ele>3.5999999046326</ele>
        <time>2021-02-04T09:11:16.000Z</time>
      </trkpt>
      <trkpt lat="47.3043" lon="-2.29235">
        <ele>3.5999999046326</ele>
        <time>2021-02-04T09:11:21.000Z</time>
      </trkpt>
      <trkpt lat="47.30434" lon="-2.2923">
        <ele>3.5999999046326</ele>
        <time>2021-02-04T09:11:22.000Z</time>
      </trkpt>
      <trkpt lat="47.3046" lon="-2.29195">
        <ele>3.5999999046326</ele>
        <time>2021-02-04T09:11:29.000Z</time>
      </trkpt>
      <trkpt lat="47.30485" lon="-2.29159">
        <ele>3.5999999046326</ele>
        <time>2021-02-04T09:11:36.000Z</time>
      </trkpt>
      <trkpt lat="47.30501" lon="-2.2912">
        <ele>3.5999999046326</ele>
        <time>2021-02-04T09:11:42.000Z</time>
      </trkpt>
      <trkpt lat="47.30506" lon="-2.291">
        <ele>3.5999999046326</ele>
        <time>2021-02-04T09:11:45.000Z</time>
      </trkpt>
      <trkpt lat="47.30508" lon="-2.29086">
        <ele>3.5999999046326</ele>
        <time>2021-02-04T09:11:47.000Z</time>
      </trkpt>
      <trkpt lat="47.30509" lon="-2.2907">
        <ele>3.5999999046326</ele>
        <time>2021-02-04T09:11:49.000Z</time>
      </trkpt>
      <trkpt lat="47.30506" lon="-2.29047">
        <ele>3.5999999046326</ele>
        <time>2021-02-04T09:11:52.000Z</time>
      </trkpt>
      <trkpt lat="47.30497" lon="-2.29011">
        <ele>3.5999999046326</ele>
        <time>2021-02-04T09:11:58.000Z</time>
      </trkpt>
      <trkpt lat="47.30497" lon="-2.29005">
        <ele>3.5999999046326</ele>
        <time>2021-02-04T09:11:59.000Z</time>
      </trkpt>
      <trkpt lat="47.30499" lon="-2.28995">
        <ele>3.5999999046326</ele>
        <time>2021-02-04T09:12:01.000Z</time>
      </trkpt>
      <trkpt lat="47.30513" lon="-2.28976">
        <ele>3.5999999046326</ele>
        <time>2021-02-04T09:12:05.000Z</time>
      </trkpt>
      <trkpt lat="47.30517" lon="-2.28972">
        <ele>3.5999999046326</ele>
        <time>2021-02-04T09:12:06.000Z</time>
      </trkpt>
      <trkpt lat="47.30521" lon="-2.28969">
        <ele>3.5999999046326</ele>
        <time>2021-02-04T09:12:07.000Z</time>
      </trkpt>
      <trkpt lat="47.30533" lon="-2.28962">
        <ele>3.5999999046326</ele>
        <time>2021-02-04T09:12:10.000Z</time>
      </trkpt>
      <trkpt lat="47.30538" lon="-2.28959">
        <ele>3.5999999046326</ele>
        <time>2021-02-04T09:12:11.000Z</time>
      </trkpt>
      <trkpt lat="47.30555" lon="-2.28946">
        <ele>3.5999999046326</ele>
        <time>2021-02-04T09:12:16.000Z</time>
      </trkpt>
      <trkpt lat="47.30568" lon="-2.28933">
        <ele>3.5999999046326</ele>
        <time>2021-02-04T09:12:21.000Z</time>
      </trkpt>
      <trkpt lat="47.30584" lon="-2.28919">
        <ele>3.5999999046326</ele>
        <time>2021-02-04T09:12:25.000Z</time>
      </trkpt>
      <trkpt lat="47.30588" lon="-2.28916">
        <ele>3.5999999046326</ele>
        <time>2021-02-04T09:12:26.000Z</time>
      </trkpt>
      <trkpt lat="47.30613" lon="-2.28898">
        <ele>3.5999999046326</ele>
        <time>2021-02-04T09:12:32.000Z</time>
      </trkpt>
      <trkpt lat="47.30627" lon="-2.28889">
        <ele>3.5999999046326</ele>
        <time>2021-02-04T09:12:36.000Z</time>
      </trkpt>
      <trkpt lat="47.30633" lon="-2.28885">
        <ele>4.1999998092651</ele>
        <time>2021-02-04T09:12:38.000Z</time>
      </trkpt>
      <trkpt lat="47.30637" lon="-2.28883">
        <ele>4.5999999046326</ele>
        <time>2021-02-04T09:12:39.000Z</time>
      </trkpt>
      <trkpt lat="47.30641" lon="-2.28881">
        <ele>5</ele>
        <time>2021-02-04T09:12:40.000Z</time>
      </trkpt>
      <trkpt lat="47.30644" lon="-2.28879">
        <ele>5.4000000953674</ele>
        <time>2021-02-04T09:12:41.000Z</time>
      </trkpt>
      <trkpt lat="47.30647" lon="-2.28877">
        <ele>6</ele>
        <time>2021-02-04T09:12:42.000Z</time>
      </trkpt>
      <trkpt lat="47.30673" lon="-2.28861">
        <ele>6</ele>
        <time>2021-02-04T09:12:49.000Z</time>
      </trkpt>
      <trkpt lat="47.30704" lon="-2.28838">
        <ele>6</ele>
        <time>2021-02-04T09:12:58.000Z</time>
      </trkpt>
      <trkpt lat="47.30711" lon="-2.28834">
        <ele>6</ele>
        <time>2021-02-04T09:13:00.000Z</time>
      </trkpt>
      <trkpt lat="47.30728" lon="-2.28828">
        <ele>6</ele>
        <time>2021-02-04T09:13:04.000Z</time>
      </trkpt>
      <trkpt lat="47.30758" lon="-2.28822">
        <ele>6</ele>
        <time>2021-02-04T09:13:11.000Z</time>
      </trkpt>
      <trkpt lat="47.30794" lon="-2.28815">
        <ele>6</ele>
        <time>2021-02-04T09:13:18.000Z</time>
      </trkpt>
      <trkpt lat="47.30829" lon="-2.28815">
        <ele>6</ele>
        <time>2021-02-04T09:13:25.000Z</time>
      </trkpt>
      <trkpt lat="47.30867" lon="-2.2882">
        <ele>5.4000000953674</ele>
        <time>2021-02-04T09:13:32.000Z</time>
      </trkpt>
      <trkpt lat="47.30873" lon="-2.2882">
        <ele>4.5999999046326</ele>
        <time>2021-02-04T09:13:33.000Z</time>
      </trkpt>
      <trkpt lat="47.3088" lon="-2.2882">
        <ele>4.1999998092651</ele>
        <time>2021-02-04T09:13:34.000Z</time>
      </trkpt>
      <trkpt lat="47.30886" lon="-2.28819">
        <ele>3.7999999523163</ele>
        <time>2021-02-04T09:13:35.000Z</time>
      </trkpt>
      <trkpt lat="47.30918" lon="-2.28819">
        <ele>3.7999999523163</ele>
        <time>2021-02-04T09:13:40.000Z</time>
      </trkpt>
      <trkpt lat="47.30943" lon="-2.28822">
        <ele>3.7999999523163</ele>
        <time>2021-02-04T09:13:45.000Z</time>
      </trkpt>
      <trkpt lat="47.30958" lon="-2.28822">
        <ele>3.7999999523163</ele>
        <time>2021-02-04T09:13:50.000Z</time>
      </trkpt>
      <trkpt lat="47.30967" lon="-2.28819">
        <ele>4.1999998092651</ele>
        <time>2021-02-04T09:13:53.000Z</time>
      </trkpt>
      <trkpt lat="47.3097" lon="-2.28818">
        <ele>4.5999999046326</ele>
        <time>2021-02-04T09:13:54.000Z</time>
      </trkpt>
      <trkpt lat="47.30974" lon="-2.28817">
        <ele>5.1999998092651</ele>
        <time>2021-02-04T09:13:55.000Z</time>
      </trkpt>
      <trkpt lat="47.30977" lon="-2.28816">
        <ele>5.5999999046326</ele>
        <time>2021-02-04T09:13:56.000Z</time>
      </trkpt>
      <trkpt lat="47.30981" lon="-2.28815">
        <ele>6</ele>
        <time>2021-02-04T09:13:57.000Z</time>
      </trkpt>
      <trkpt lat="47.30997" lon="-2.28809">
        <ele>6.4000000953674</ele>
        <time>2021-02-04T09:14:02.000Z</time>
      </trkpt>
      <trkpt lat="47.31" lon="-2.28808">
        <ele>6.8000001907349</ele>
        <time>2021-02-04T09:14:03.000Z</time>
      </trkpt>
      <trkpt lat="47.31003" lon="-2.28808">
        <ele>7.1999998092651</ele>
        <time>2021-02-04T09:14:04.000Z</time>
      </trkpt>
      <trkpt lat="47.31007" lon="-2.28809">
        <ele>7.5999999046326</ele>
        <time>2021-02-04T09:14:05.000Z</time>
      </trkpt>
      <trkpt lat="47.3101" lon="-2.2881">
        <ele>8</ele>
        <time>2021-02-04T09:14:06.000Z</time>
      </trkpt>
      <trkpt lat="47.31025" lon="-2.28824">
        <ele>8</ele>
        <time>2021-02-04T09:14:11.000Z</time>
      </trkpt>
      <trkpt lat="47.31045" lon="-2.28841">
        <ele>8</ele>
        <time>2021-02-04T09:14:16.000Z</time>
      </trkpt>
      <trkpt lat="47.31079" lon="-2.28864">
        <ele>8</ele>
        <time>2021-02-04T09:14:23.000Z</time>
      </trkpt>
      <trkpt lat="47.31102" lon="-2.28881">
        <ele>7.5999999046326</ele>
        <time>2021-02-04T09:14:28.000Z</time>
      </trkpt>
      <trkpt lat="47.31107" lon="-2.28885">
        <ele>7.1999998092651</ele>
        <time>2021-02-04T09:14:29.000Z</time>
      </trkpt>
      <trkpt lat="47.31112" lon="-2.2889">
        <ele>6.8000001907349</ele>
        <time>2021-02-04T09:14:30.000Z</time>
      </trkpt>
      <trkpt lat="47.31117" lon="-2.28896">
        <ele>6.4000000953674</ele>
        <time>2021-02-04T09:14:31.000Z</time>
      </trkpt>
      <trkpt lat="47.31121" lon="-2.28901">
        <ele>6</ele>
        <time>2021-02-04T09:14:32.000Z</time>
      </trkpt>
      <trkpt lat="47.31126" lon="-2.28906">
        <ele>6</ele>
        <time>2021-02-04T09:14:33.000Z</time>
      </trkpt>
      <trkpt lat="47.31137" lon="-2.28908">
        <ele>6</ele>
        <time>2021-02-04T09:14:35.000Z</time>
      </trkpt>
      <trkpt lat="47.31148" lon="-2.28903">
        <ele>6</ele>
        <time>2021-02-04T09:14:37.000Z</time>
      </trkpt>
      <trkpt lat="47.31164" lon="-2.28898">
        <ele>6</ele>
        <time>2021-02-04T09:14:40.000Z</time>
      </trkpt>
      <trkpt lat="47.31176" lon="-2.28895">
        <ele>6</ele>
        <time>2021-02-04T09:14:44.000Z</time>
      </trkpt>
      <trkpt lat="47.31178" lon="-2.28894">
        <ele>5.5999999046326</ele>
        <time>2021-02-04T09:14:46.000Z</time>
      </trkpt>
      <trkpt lat="47.31178" lon="-2.28893">
        <ele>4.8000001907349</ele>
        <time>2021-02-04T09:14:47.000Z</time>
      </trkpt>
      <trkpt lat="47.31179" lon="-2.28893">
        <ele>4.4000000953674</ele>
        <time>2021-02-04T09:14:48.000Z</time>
      </trkpt>
      <trkpt lat="47.31181" lon="-2.28892">
        <ele>4</ele>
        <time>2021-02-04T09:14:49.000Z</time>
      </trkpt>
      <trkpt lat="47.31184" lon="-2.2889">
        <ele>4</ele>
        <time>2021-02-04T09:14:51.000Z</time>
      </trkpt>
      <trkpt lat="47.31201" lon="-2.28876">
        <ele>4</ele>
        <time>2021-02-04T09:14:59.000Z</time>
      </trkpt>
      <trkpt lat="47.31217" lon="-2.28862">
        <ele>4</ele>
        <time>2021-02-04T09:15:05.000Z</time>
      </trkpt>
      <trkpt lat="47.31236" lon="-2.28845">
        <ele>4</ele>
        <time>2021-02-04T09:15:11.000Z</time>
      </trkpt>
      <trkpt lat="47.31269" lon="-2.28822">
        <ele>4</ele>
        <time>2021-02-04T09:15:19.000Z</time>
      </trkpt>
      <trkpt lat="47.31298" lon="-2.28801">
        <ele>4</ele>
        <time>2021-02-04T09:15:26.000Z</time>
      </trkpt>
      <trkpt lat="47.31337" lon="-2.28772">
        <ele>4</ele>
        <time>2021-02-04T09:15:35.000Z</time>
      </trkpt>
      <trkpt lat="47.31366" lon="-2.28756">
        <ele>4.4000000953674</ele>
        <time>2021-02-04T09:15:41.000Z</time>
      </trkpt>
      <trkpt lat="47.31371" lon="-2.28754">
        <ele>4.8000001907349</ele>
        <time>2021-02-04T09:15:42.000Z</time>
      </trkpt>
      <trkpt lat="47.31376" lon="-2.28752">
        <ele>5.1999998092651</ele>
        <time>2021-02-04T09:15:43.000Z</time>
      </trkpt>
      <trkpt lat="47.31381" lon="-2.2875">
        <ele>5.5999999046326</ele>
        <time>2021-02-04T09:15:44.000Z</time>
      </trkpt>
      <trkpt lat="47.31387" lon="-2.28749">
        <ele>6</ele>
        <time>2021-02-04T09:15:45.000Z</time>
      </trkpt>
      <trkpt lat="47.31403" lon="-2.28744">
        <ele>6</ele>
        <time>2021-02-04T09:15:48.000Z</time>
      </trkpt>
      <trkpt lat="47.31442" lon="-2.28733">
        <ele>6</ele>
        <time>2021-02-04T09:15:55.000Z</time>
      </trkpt>
      <trkpt lat="47.31487" lon="-2.28717">
        <ele>6</ele>
        <time>2021-02-04T09:16:04.000Z</time>
      </trkpt>
      <trkpt lat="47.31497" lon="-2.28715">
        <ele>6</ele>
        <time>2021-02-04T09:16:06.000Z</time>
      </trkpt>
      <trkpt lat="47.31512" lon="-2.28718">
        <ele>6</ele>
        <time>2021-02-04T09:16:09.000Z</time>
      </trkpt>
      <trkpt lat="47.31522" lon="-2.28725">
        <ele>6</ele>
        <time>2021-02-04T09:16:11.000Z</time>
      </trkpt>
      <trkpt lat="47.31531" lon="-2.28733">
        <ele>5.5999999046326</ele>
        <time>2021-02-04T09:16:13.000Z</time>
      </trkpt>
      <trkpt lat="47.31536" lon="-2.28737">
        <ele>5.1999998092651</ele>
        <time>2021-02-04T09:16:14.000Z</time>
      </trkpt>
      <trkpt lat="47.31541" lon="-2.2874">
        <ele>4.8000001907349</ele>
        <time>2021-02-04T09:16:15.000Z</time>
      </trkpt>
      <trkpt lat="47.31547" lon="-2.28743">
        <ele>4.4000000953674</ele>
        <time>2021-02-04T09:16:16.000Z</time>
      </trkpt>
      <trkpt lat="47.31552" lon="-2.28744">
        <ele>4</ele>
        <time>2021-02-04T09:16:17.000Z</time>
      </trkpt>
      <trkpt lat="47.31558" lon="-2.28744">
        <ele>4</ele>
        <time>2021-02-04T09:16:18.000Z</time>
      </trkpt>
      <trkpt lat="47.31568" lon="-2.28742">
        <ele>4</ele>
        <time>2021-02-04T09:16:20.000Z</time>
      </trkpt>
      <trkpt lat="47.31588" lon="-2.28738">
        <ele>4</ele>
        <time>2021-02-04T09:16:24.000Z</time>
      </trkpt>
      <trkpt lat="47.31593" lon="-2.28737">
        <ele>4</ele>
        <time>2021-02-04T09:16:25.000Z</time>
      </trkpt>
      <trkpt lat="47.31622" lon="-2.28736">
        <ele>4</ele>
        <time>2021-02-04T09:16:30.000Z</time>
      </trkpt>
      <trkpt lat="47.31649" lon="-2.28744">
        <ele>4</ele>
        <time>2021-02-04T09:16:35.000Z</time>
      </trkpt>
      <trkpt lat="47.31655" lon="-2.28747">
        <ele>4</ele>
        <time>2021-02-04T09:16:36.000Z</time>
      </trkpt>
      <trkpt lat="47.31692" lon="-2.28772">
        <ele>4</ele>
        <time>2021-02-04T09:16:43.000Z</time>
      </trkpt>
      <trkpt lat="47.31719" lon="-2.28791">
        <ele>4</ele>
        <time>2021-02-04T09:16:48.000Z</time>
      </trkpt>
      <trkpt lat="47.31765" lon="-2.28815">
        <ele>4</ele>
        <time>2021-02-04T09:16:56.000Z</time>
      </trkpt>
      <trkpt lat="47.31807" lon="-2.28827">
        <ele>4</ele>
        <time>2021-02-04T09:17:03.000Z</time>
      </trkpt>
      <trkpt lat="47.31856" lon="-2.2884">
        <ele>4</ele>
        <time>2021-02-04T09:17:11.000Z</time>
      </trkpt>
      <trkpt lat="47.31898" lon="-2.28841">
        <ele>4</ele>
        <time>2021-02-04T09:17:18.000Z</time>
      </trkpt>
      <trkpt lat="47.31931" lon="-2.28839">
        <ele>4</ele>
        <time>2021-02-04T09:17:24.000Z</time>
      </trkpt>
      <trkpt lat="47.31944" lon="-2.28834">
        <ele>4</ele>
        <time>2021-02-04T09:17:28.000Z</time>
      </trkpt>
      <trkpt lat="47.31947" lon="-2.2883">
        <ele>4</ele>
        <time>2021-02-04T09:17:29.000Z</time>
      </trkpt>
      <trkpt lat="47.31949" lon="-2.28819">
        <ele>4</ele>
        <time>2021-02-04T09:17:31.000Z</time>
      </trkpt>
      <trkpt lat="47.31948" lon="-2.28799">
        <ele>4</ele>
        <time>2021-02-04T09:17:34.000Z</time>
      </trkpt>
      <trkpt lat="47.31947" lon="-2.28785">
        <ele>4</ele>
        <time>2021-02-04T09:17:36.000Z</time>
      </trkpt>
      <trkpt lat="47.31944" lon="-2.28762">
        <ele>4</ele>
        <time>2021-02-04T09:17:39.000Z</time>
      </trkpt>
      <trkpt lat="47.31942" lon="-2.28746">
        <ele>4</ele>
        <time>2021-02-04T09:17:41.000Z</time>
      </trkpt>
      <trkpt lat="47.31929" lon="-2.2868">
        <ele>4</ele>
        <time>2021-02-04T09:17:49.000Z</time>
      </trkpt>
      <trkpt lat="47.31914" lon="-2.28616">
        <ele>4</ele>
        <time>2021-02-04T09:17:57.000Z</time>
      </trkpt>
      <trkpt lat="47.31902" lon="-2.28577">
        <ele>4</ele>
        <time>2021-02-04T09:18:03.000Z</time>
      </trkpt>
      <trkpt lat="47.31901" lon="-2.28571">
        <ele>4</ele>
        <time>2021-02-04T09:18:04.000Z</time>
      </trkpt>
      <trkpt lat="47.319" lon="-2.28551">
        <ele>4.4000000953674</ele>
        <time>2021-02-04T09:18:07.000Z</time>
      </trkpt>
      <trkpt lat="47.31899" lon="-2.28544">
        <ele>4.8000001907349</ele>
        <time>2021-02-04T09:18:08.000Z</time>
      </trkpt>
      <trkpt lat="47.31899" lon="-2.28536">
        <ele>5.1999998092651</ele>
        <time>2021-02-04T09:18:09.000Z</time>
      </trkpt>
      <trkpt lat="47.31899" lon="-2.28529">
        <ele>5.8000001907349</ele>
        <time>2021-02-04T09:18:10.000Z</time>
      </trkpt>
      <trkpt lat="47.31898" lon="-2.28521">
        <ele>6.1999998092651</ele>
        <time>2021-02-04T09:18:11.000Z</time>
      </trkpt>
      <trkpt lat="47.31898" lon="-2.2849">
        <ele>6.1999998092651</ele>
        <time>2021-02-04T09:18:15.000Z</time>
      </trkpt>
      <trkpt lat="47.31899" lon="-2.28434">
        <ele>6.1999998092651</ele>
        <time>2021-02-04T09:18:22.000Z</time>
      </trkpt>
      <trkpt lat="47.31894" lon="-2.28386">
        <ele>6.1999998092651</ele>
        <time>2021-02-04T09:18:28.000Z</time>
      </trkpt>
      <trkpt lat="47.3189" lon="-2.28364">
        <ele>6.5999999046326</ele>
        <time>2021-02-04T09:18:31.000Z</time>
      </trkpt>
      <trkpt lat="47.31888" lon="-2.28357">
        <ele>7</ele>
        <time>2021-02-04T09:18:32.000Z</time>
      </trkpt>
      <trkpt lat="47.31887" lon="-2.2835">
        <ele>7.4000000953674</ele>
        <time>2021-02-04T09:18:33.000Z</time>
      </trkpt>
      <trkpt lat="47.31885" lon="-2.28343">
        <ele>7.8000001907349</ele>
        <time>2021-02-04T09:18:34.000Z</time>
      </trkpt>
      <trkpt lat="47.31884" lon="-2.28336">
        <ele>8.1999998092651</ele>
        <time>2021-02-04T09:18:35.000Z</time>
      </trkpt>
      <trkpt lat="47.31881" lon="-2.28322">
        <ele>8.1999998092651</ele>
        <time>2021-02-04T09:18:37.000Z</time>
      </trkpt>
      <trkpt lat="47.31868" lon="-2.28253">
        <ele>8.1999998092651</ele>
        <time>2021-02-04T09:18:46.000Z</time>
      </trkpt>
      <trkpt lat="47.31861" lon="-2.28189">
        <ele>8.1999998092651</ele>
        <time>2021-02-04T09:18:54.000Z</time>
      </trkpt>
      <trkpt lat="47.31863" lon="-2.28138">
        <ele>8.1999998092651</ele>
        <time>2021-02-04T09:19:00.000Z</time>
      </trkpt>
      <trkpt lat="47.31862" lon="-2.28074">
        <ele>8.1999998092651</ele>
        <time>2021-02-04T09:19:08.000Z</time>
      </trkpt>
      <trkpt lat="47.3186" lon="-2.28015">
        <ele>8.1999998092651</ele>
        <time>2021-02-04T09:19:15.000Z</time>
      </trkpt>
      <trkpt lat="47.31859" lon="-2.27952">
        <ele>8.1999998092651</ele>
        <time>2021-02-04T09:19:22.000Z</time>
      </trkpt>
      <trkpt lat="47.31861" lon="-2.27894">
        <ele>8.1999998092651</ele>
        <time>2021-02-04T09:19:29.000Z</time>
      </trkpt>
      <trkpt lat="47.31866" lon="-2.27839">
        <ele>8.1999998092651</ele>
        <time>2021-02-04T09:19:36.000Z</time>
      </trkpt>
      <trkpt lat="47.31868" lon="-2.27807">
        <ele>8.1999998092651</ele>
        <time>2021-02-04T09:19:40.000Z</time>
      </trkpt>
      <trkpt lat="47.31869" lon="-2.27799">
        <ele>8.1999998092651</ele>
        <time>2021-02-04T09:19:41.000Z</time>
      </trkpt>
      <trkpt lat="47.31868" lon="-2.27742">
        <ele>8.1999998092651</ele>
        <time>2021-02-04T09:19:48.000Z</time>
      </trkpt>
      <trkpt lat="47.31868" lon="-2.27677">
        <ele>8.1999998092651</ele>
        <time>2021-02-04T09:19:56.000Z</time>
      </trkpt>
      <trkpt lat="47.31868" lon="-2.2766">
        <ele>8.1999998092651</ele>
        <time>2021-02-04T09:19:58.000Z</time>
      </trkpt>
      <trkpt lat="47.31867" lon="-2.27627">
        <ele>8.1999998092651</ele>
        <time>2021-02-04T09:20:02.000Z</time>
      </trkpt>
      <trkpt lat="47.31865" lon="-2.2757">
        <ele>8.1999998092651</ele>
        <time>2021-02-04T09:20:09.000Z</time>
      </trkpt>
      <trkpt lat="47.31862" lon="-2.27506">
        <ele>8.1999998092651</ele>
        <time>2021-02-04T09:20:16.000Z</time>
      </trkpt>
      <trkpt lat="47.31859" lon="-2.27435">
        <ele>7.8000001907349</ele>
        <time>2021-02-04T09:20:24.000Z</time>
      </trkpt>
      <trkpt lat="47.31858" lon="-2.27428">
        <ele>7.4000000953674</ele>
        <time>2021-02-04T09:20:25.000Z</time>
      </trkpt>
      <trkpt lat="47.31858" lon="-2.2742">
        <ele>7</ele>
        <time>2021-02-04T09:20:26.000Z</time>
      </trkpt>
      <trkpt lat="47.31857" lon="-2.27412">
        <ele>6.5999999046326</ele>
        <time>2021-02-04T09:20:27.000Z</time>
      </trkpt>
      <trkpt lat="47.31856" lon="-2.27404">
        <ele>6.1999998092651</ele>
        <time>2021-02-04T09:20:28.000Z</time>
      </trkpt>
      <trkpt lat="47.31855" lon="-2.27351">
        <ele>6.1999998092651</ele>
        <time>2021-02-04T09:20:35.000Z</time>
      </trkpt>
      <trkpt lat="47.31854" lon="-2.27299">
        <ele>6.5999999046326</ele>
        <time>2021-02-04T09:20:42.000Z</time>
      </trkpt>
      <trkpt lat="47.31853" lon="-2.27291">
        <ele>7</ele>
        <time>2021-02-04T09:20:43.000Z</time>
      </trkpt>
      <trkpt lat="47.31853" lon="-2.27284">
        <ele>7.4000000953674</ele>
        <time>2021-02-04T09:20:44.000Z</time>
      </trkpt>
      <trkpt lat="47.31852" lon="-2.27277">
        <ele>7.8000001907349</ele>
        <time>2021-02-04T09:20:45.000Z</time>
      </trkpt>
      <trkpt lat="47.31852" lon="-2.27269">
        <ele>8.1999998092651</ele>
        <time>2021-02-04T09:20:46.000Z</time>
      </trkpt>
      <trkpt lat="47.31851" lon="-2.27241">
        <ele>8.1999998092651</ele>
        <time>2021-02-04T09:20:50.000Z</time>
      </trkpt>
      <trkpt lat="47.31849" lon="-2.27184">
        <ele>8.1999998092651</ele>
        <time>2021-02-04T09:20:58.000Z</time>
      </trkpt>
      <trkpt lat="47.31848" lon="-2.27138">
        <ele>8.1999998092651</ele>
        <time>2021-02-04T09:21:05.000Z</time>
      </trkpt>
      <trkpt lat="47.31847" lon="-2.27102">
        <ele>8.1999998092651</ele>
        <time>2021-02-04T09:21:11.000Z</time>
      </trkpt>
      <trkpt lat="47.31844" lon="-2.27088">
        <ele>7.8000001907349</ele>
        <time>2021-02-04T09:21:15.000Z</time>
      </trkpt>
      <trkpt lat="47.31843" lon="-2.27085">
        <ele>7.4000000953674</ele>
        <time>2021-02-04T09:21:16.000Z</time>
      </trkpt>
      <trkpt lat="47.3184" lon="-2.27084">
        <ele>6.8000001907349</ele>
        <time>2021-02-04T09:21:17.000Z</time>
      </trkpt>
      <trkpt lat="47.31835" lon="-2.27085">
        <ele>6.4000000953674</ele>
        <time>2021-02-04T09:21:18.000Z</time>
      </trkpt>
      <trkpt lat="47.3183" lon="-2.27085">
        <ele>6</ele>
        <time>2021-02-04T09:21:19.000Z</time>
      </trkpt>
      <trkpt lat="47.3182" lon="-2.27083">
        <ele>6</ele>
        <time>2021-02-04T09:21:21.000Z</time>
      </trkpt>
      <trkpt lat="47.31803" lon="-2.2708">
        <ele>6</ele>
        <time>2021-02-04T09:21:24.000Z</time>
      </trkpt>
      <trkpt lat="47.31772" lon="-2.2707">
        <ele>5.5999999046326</ele>
        <time>2021-02-04T09:21:30.000Z</time>
      </trkpt>
      <trkpt lat="47.31767" lon="-2.27069">
        <ele>5.1999998092651</ele>
        <time>2021-02-04T09:21:31.000Z</time>
      </trkpt>
      <trkpt lat="47.31762" lon="-2.27067">
        <ele>4.8000001907349</ele>
        <time>2021-02-04T09:21:32.000Z</time>
      </trkpt>
      <trkpt lat="47.31757" lon="-2.27065">
        <ele>4.4000000953674</ele>
        <time>2021-02-04T09:21:33.000Z</time>
      </trkpt>
      <trkpt lat="47.31752" lon="-2.27063">
        <ele>4</ele>
        <time>2021-02-04T09:21:34.000Z</time>
      </trkpt>
      <trkpt lat="47.31723" lon="-2.27054">
        <ele>4</ele>
        <time>2021-02-04T09:21:39.000Z</time>
      </trkpt>
      <trkpt lat="47.31691" lon="-2.27043">
        <ele>4</ele>
        <time>2021-02-04T09:21:44.000Z</time>
      </trkpt>
      <trkpt lat="47.31639" lon="-2.27027">
        <ele>4</ele>
        <time>2021-02-04T09:21:52.000Z</time>
      </trkpt>
      <trkpt lat="47.31599" lon="-2.27015">
        <ele>4</ele>
        <time>2021-02-04T09:21:59.000Z</time>
      </trkpt>
      <trkpt lat="47.31559" lon="-2.27004">
        <ele>4</ele>
        <time>2021-02-04T09:22:06.000Z</time>
      </trkpt>
      <trkpt lat="47.31534" lon="-2.26996">
        <ele>4</ele>
        <time>2021-02-04T09:22:10.000Z</time>
      </trkpt>
      <trkpt lat="47.31515" lon="-2.26992">
        <ele>4</ele>
        <time>2021-02-04T09:22:13.000Z</time>
      </trkpt>
      <trkpt lat="47.31502" lon="-2.2699">
        <ele>4</ele>
        <time>2021-02-04T09:22:15.000Z</time>
      </trkpt>
      <trkpt lat="47.31483" lon="-2.26991">
        <ele>4</ele>
        <time>2021-02-04T09:22:18.000Z</time>
      </trkpt>
      <trkpt lat="47.31472" lon="-2.26995">
        <ele>4</ele>
        <time>2021-02-04T09:22:20.000Z</time>
      </trkpt>
      <trkpt lat="47.31466" lon="-2.26998">
        <ele>4</ele>
        <time>2021-02-04T09:22:21.000Z</time>
      </trkpt>
      <trkpt lat="47.31457" lon="-2.27005">
        <ele>4</ele>
        <time>2021-02-04T09:22:23.000Z</time>
      </trkpt>
      <trkpt lat="47.31423" lon="-2.2703">
        <ele>4</ele>
        <time>2021-02-04T09:22:30.000Z</time>
      </trkpt>
      <trkpt lat="47.31391" lon="-2.27054">
        <ele>4.4000000953674</ele>
        <time>2021-02-04T09:22:37.000Z</time>
      </trkpt>
      <trkpt lat="47.31386" lon="-2.27057">
        <ele>4.8000001907349</ele>
        <time>2021-02-04T09:22:38.000Z</time>
      </trkpt>
      <trkpt lat="47.31381" lon="-2.2706">
        <ele>5.1999998092651</ele>
        <time>2021-02-04T09:22:39.000Z</time>
      </trkpt>
      <trkpt lat="47.31375" lon="-2.27062">
        <ele>5.5999999046326</ele>
        <time>2021-02-04T09:22:40.000Z</time>
      </trkpt>
      <trkpt lat="47.3137" lon="-2.27064">
        <ele>6</ele>
        <time>2021-02-04T09:22:41.000Z</time>
      </trkpt>
      <trkpt lat="47.31355" lon="-2.2707">
        <ele>6</ele>
        <time>2021-02-04T09:22:44.000Z</time>
      </trkpt>
      <trkpt lat="47.31317" lon="-2.27082">
        <ele>6</ele>
        <time>2021-02-04T09:22:51.000Z</time>
      </trkpt>
      <trkpt lat="47.31294" lon="-2.27091">
        <ele>6.4000000953674</ele>
        <time>2021-02-04T09:22:55.000Z</time>
      </trkpt>
      <trkpt lat="47.31288" lon="-2.27094">
        <ele>6.8000001907349</ele>
        <time>2021-02-04T09:22:56.000Z</time>
      </trkpt>
      <trkpt lat="47.31282" lon="-2.27097">
        <ele>7.1999998092651</ele>
        <time>2021-02-04T09:22:57.000Z</time>
      </trkpt>
      <trkpt lat="47.31276" lon="-2.27101">
        <ele>7.5999999046326</ele>
        <time>2021-02-04T09:22:58.000Z</time>
      </trkpt>
      <trkpt lat="47.3127" lon="-2.27104">
        <ele>8</ele>
        <time>2021-02-04T09:22:59.000Z</time>
      </trkpt>
      <trkpt lat="47.31243" lon="-2.27124">
        <ele>8</ele>
        <time>2021-02-04T09:23:04.000Z</time>
      </trkpt>
      <trkpt lat="47.31202" lon="-2.27159">
        <ele>8</ele>
        <time>2021-02-04T09:23:12.000Z</time>
      </trkpt>
      <trkpt lat="47.31172" lon="-2.27192">
        <ele>8</ele>
        <time>2021-02-04T09:23:18.000Z</time>
      </trkpt>
      <trkpt lat="47.31136" lon="-2.27226">
        <ele>8</ele>
        <time>2021-02-04T09:23:25.000Z</time>
      </trkpt>
      <trkpt lat="47.31131" lon="-2.27229">
        <ele>8</ele>
        <time>2021-02-04T09:23:26.000Z</time>
      </trkpt>
      <trkpt lat="47.3109" lon="-2.27245">
        <ele>8</ele>
        <time>2021-02-04T09:23:33.000Z</time>
      </trkpt>
      <trkpt lat="47.31052" lon="-2.27255">
        <ele>8</ele>
        <time>2021-02-04T09:23:39.000Z</time>
      </trkpt>
      <trkpt lat="47.31026" lon="-2.27255">
        <ele>8</ele>
        <time>2021-02-04T09:23:44.000Z</time>
      </trkpt>
      <trkpt lat="47.31014" lon="-2.27241">
        <ele>8</ele>
        <time>2021-02-04T09:23:47.000Z</time>
      </trkpt>
      <trkpt lat="47.31011" lon="-2.27234">
        <ele>8</ele>
        <time>2021-02-04T09:23:48.000Z</time>
      </trkpt>
      <trkpt lat="47.31007" lon="-2.27219">
        <ele>8</ele>
        <time>2021-02-04T09:23:50.000Z</time>
      </trkpt>
      <trkpt lat="47.31003" lon="-2.27203">
        <ele>8</ele>
        <time>2021-02-04T09:23:52.000Z</time>
      </trkpt>
      <trkpt lat="47.31002" lon="-2.27187">
        <ele>8</ele>
        <time>2021-02-04T09:23:54.000Z</time>
      </trkpt>
      <trkpt lat="47.31" lon="-2.27154">
        <ele>8</ele>
        <time>2021-02-04T09:23:58.000Z</time>
      </trkpt>
      <trkpt lat="47.31" lon="-2.27146">
        <ele>8</ele>
        <time>2021-02-04T09:23:59.000Z</time>
      </trkpt>
      <trkpt lat="47.30998" lon="-2.27107">
        <ele>8</ele>
        <time>2021-02-04T09:24:04.000Z</time>
      </trkpt>
      <trkpt lat="47.30995" lon="-2.27051">
        <ele>8</ele>
        <time>2021-02-04T09:24:10.000Z</time>
      </trkpt>
      <trkpt lat="47.30992" lon="-2.2701">
        <ele>7.5999999046326</ele>
        <time>2021-02-04T09:24:14.000Z</time>
      </trkpt>
      <trkpt lat="47.3099" lon="-2.26999">
        <ele>7.1999998092651</ele>
        <time>2021-02-04T09:24:15.000Z</time>
      </trkpt>
      <trkpt lat="47.30988" lon="-2.26988">
        <ele>6.8000001907349</ele>
        <time>2021-02-04T09:24:16.000Z</time>
      </trkpt>
      <trkpt lat="47.30985" lon="-2.26977">
        <ele>6.1999998092651</ele>
        <time>2021-02-04T09:24:17.000Z</time>
      </trkpt>
      <trkpt lat="47.3098" lon="-2.26969">
        <ele>5.8000001907349</ele>
        <time>2021-02-04T09:24:18.000Z</time>
      </trkpt>
      <trkpt lat="47.30974" lon="-2.26962">
        <ele>5.1999998092651</ele>
        <time>2021-02-04T09:24:19.000Z</time>
      </trkpt>
      <trkpt lat="47.30968" lon="-2.26956">
        <ele>4.8000001907349</ele>
        <time>2021-02-04T09:24:20.000Z</time>
      </trkpt>
      <trkpt lat="47.30961" lon="-2.26951">
        <ele>4.1999998092651</ele>
        <time>2021-02-04T09:24:21.000Z</time>
      </trkpt>
      <trkpt lat="47.30954" lon="-2.26947">
        <ele>3.5999999046326</ele>
        <time>2021-02-04T09:24:22.000Z</time>
      </trkpt>
      <trkpt lat="47.30948" lon="-2.26943">
        <ele>3.5999999046326</ele>
        <time>2021-02-04T09:24:23.000Z</time>
      </trkpt>
      <trkpt lat="47.30909" lon="-2.26925">
        <ele>3.5999999046326</ele>
        <time>2021-02-04T09:24:29.000Z</time>
      </trkpt>
      <trkpt lat="47.30885" lon="-2.26917">
        <ele>3.5999999046326</ele>
        <time>2021-02-04T09:24:33.000Z</time>
      </trkpt>
      <trkpt lat="47.30879" lon="-2.26918">
        <ele>3.5999999046326</ele>
        <time>2021-02-04T09:24:34.000Z</time>
      </trkpt>
      <trkpt lat="47.3086" lon="-2.26923">
        <ele>3.5999999046326</ele>
        <time>2021-02-04T09:24:37.000Z</time>
      </trkpt>
      <trkpt lat="47.30846" lon="-2.26929">
        <ele>3.5999999046326</ele>
        <time>2021-02-04T09:24:39.000Z</time>
      </trkpt>
      <trkpt lat="47.30816" lon="-2.26948">
        <ele>3.5999999046326</ele>
        <time>2021-02-04T09:24:44.000Z</time>
      </trkpt>
      <trkpt lat="47.30797" lon="-2.26951">
        <ele>3.5999999046326</ele>
        <time>2021-02-04T09:24:47.000Z</time>
      </trkpt>
      <trkpt lat="47.30791" lon="-2.26951">
        <ele>3.5999999046326</ele>
        <time>2021-02-04T09:24:48.000Z</time>
      </trkpt>
      <trkpt lat="47.30745" lon="-2.26943">
        <ele>3.5999999046326</ele>
        <time>2021-02-04T09:24:56.000Z</time>
      </trkpt>
      <trkpt lat="47.30731" lon="-2.26939">
        <ele>4</ele>
        <time>2021-02-04T09:24:59.000Z</time>
      </trkpt>
      <trkpt lat="47.30726" lon="-2.26937">
        <ele>4.5999999046326</ele>
        <time>2021-02-04T09:25:00.000Z</time>
      </trkpt>
      <trkpt lat="47.30721" lon="-2.26934">
        <ele>5</ele>
        <time>2021-02-04T09:25:01.000Z</time>
      </trkpt>
      <trkpt lat="47.30716" lon="-2.2693">
        <ele>5.4000000953674</ele>
        <time>2021-02-04T09:25:02.000Z</time>
      </trkpt>
      <trkpt lat="47.30711" lon="-2.26926">
        <ele>5.8000001907349</ele>
        <time>2021-02-04T09:25:03.000Z</time>
      </trkpt>
      <trkpt lat="47.30706" lon="-2.26921">
        <ele>5.8000001907349</ele>
        <time>2021-02-04T09:25:04.000Z</time>
      </trkpt>
      <trkpt lat="47.30698" lon="-2.2691">
        <ele>6.5999999046326</ele>
        <time>2021-02-04T09:25:06.000Z</time>
      </trkpt>
      <trkpt lat="47.30694" lon="-2.26904">
        <ele>7</ele>
        <time>2021-02-04T09:25:07.000Z</time>
      </trkpt>
      <trkpt lat="47.3069" lon="-2.26898">
        <ele>7.4000000953674</ele>
        <time>2021-02-04T09:25:08.000Z</time>
      </trkpt>
      <trkpt lat="47.30686" lon="-2.26892">
        <ele>7.8000001907349</ele>
        <time>2021-02-04T09:25:09.000Z</time>
      </trkpt>
      <trkpt lat="47.30672" lon="-2.26862">
        <ele>7.8000001907349</ele>
        <time>2021-02-04T09:25:13.000Z</time>
      </trkpt>
      <trkpt lat="47.30662" lon="-2.26838">
        <ele>8.1999998092651</ele>
        <time>2021-02-04T09:25:16.000Z</time>
      </trkpt>
      <trkpt lat="47.30659" lon="-2.2683">
        <ele>8.6000003814697</ele>
        <time>2021-02-04T09:25:17.000Z</time>
      </trkpt>
      <trkpt lat="47.30656" lon="-2.26822">
        <ele>9</ele>
        <time>2021-02-04T09:25:18.000Z</time>
      </trkpt>
      <trkpt lat="47.30652" lon="-2.26815">
        <ele>9.3999996185303</ele>
        <time>2021-02-04T09:25:19.000Z</time>
      </trkpt>
      <trkpt lat="47.30648" lon="-2.26807">
        <ele>9.8000001907349</ele>
        <time>2021-02-04T09:25:20.000Z</time>
      </trkpt>
      <trkpt lat="47.30635" lon="-2.26776">
        <ele>9.8000001907349</ele>
        <time>2021-02-04T09:25:24.000Z</time>
      </trkpt>
      <trkpt lat="47.30628" lon="-2.26751">
        <ele>10.199999809265</ele>
        <time>2021-02-04T09:25:27.000Z</time>
      </trkpt>
      <trkpt lat="47.30625" lon="-2.26743">
        <ele>10.60000038147</ele>
        <time>2021-02-04T09:25:28.000Z</time>
      </trkpt>
      <trkpt lat="47.30623" lon="-2.26734">
        <ele>11</ele>
        <time>2021-02-04T09:25:29.000Z</time>
      </trkpt>
      <trkpt lat="47.30621" lon="-2.26725">
        <ele>11.800000190735</ele>
        <time>2021-02-04T09:25:30.000Z</time>
      </trkpt>
      <trkpt lat="47.30615" lon="-2.26696">
        <ele>11.800000190735</ele>
        <time>2021-02-04T09:25:33.000Z</time>
      </trkpt>
      <trkpt lat="47.30605" lon="-2.26621">
        <ele>11.800000190735</ele>
        <time>2021-02-04T09:25:41.000Z</time>
      </trkpt>
      <trkpt lat="47.30597" lon="-2.26583">
        <ele>11.800000190735</ele>
        <time>2021-02-04T09:25:45.000Z</time>
      </trkpt>
      <trkpt lat="47.30591" lon="-2.26566">
        <ele>11.800000190735</ele>
        <time>2021-02-04T09:25:47.000Z</time>
      </trkpt>
      <trkpt lat="47.3057" lon="-2.26543">
        <ele>11.800000190735</ele>
        <time>2021-02-04T09:25:51.000Z</time>
      </trkpt>
      <trkpt lat="47.30557" lon="-2.26534">
        <ele>11.800000190735</ele>
        <time>2021-02-04T09:25:53.000Z</time>
      </trkpt>
      <trkpt lat="47.30532" lon="-2.26518">
        <ele>11.800000190735</ele>
        <time>2021-02-04T09:25:57.000Z</time>
      </trkpt>
      <trkpt lat="47.30509" lon="-2.26504">
        <ele>11.39999961853</ele>
        <time>2021-02-04T09:26:01.000Z</time>
      </trkpt>
      <trkpt lat="47.30505" lon="-2.26502">
        <ele>11</ele>
        <time>2021-02-04T09:26:02.000Z</time>
      </trkpt>
      <trkpt lat="47.30502" lon="-2.265">
        <ele>10.60000038147</ele>
        <time>2021-02-04T09:26:03.000Z</time>
      </trkpt>
      <trkpt lat="47.305" lon="-2.26498">
        <ele>10.199999809265</ele>
        <time>2021-02-04T09:26:04.000Z</time>
      </trkpt>
      <trkpt lat="47.30497" lon="-2.26496">
        <ele>9.8000001907349</ele>
        <time>2021-02-04T09:26:05.000Z</time>
      </trkpt>
      <trkpt lat="47.30496" lon="-2.26493">
        <ele>9.8000001907349</ele>
        <time>2021-02-04T09:26:06.000Z</time>
      </trkpt>
      <trkpt lat="47.30495" lon="-2.26489">
        <ele>9.8000001907349</ele>
        <time>2021-02-04T09:26:07.000Z</time>
      </trkpt>
      <trkpt lat="47.30496" lon="-2.26478">
        <ele>9.8000001907349</ele>
        <time>2021-02-04T09:26:11.000Z</time>
      </trkpt>
      <trkpt lat="47.30499" lon="-2.26468">
        <ele>9.8000001907349</ele>
        <time>2021-02-04T09:26:14.000Z</time>
      </trkpt>
      <trkpt lat="47.30504" lon="-2.26458">
        <ele>9.8000001907349</ele>
        <time>2021-02-04T09:26:17.000Z</time>
      </trkpt>
      <trkpt lat="47.30513" lon="-2.26436">
        <ele>9.8000001907349</ele>
        <time>2021-02-04T09:26:23.000Z</time>
      </trkpt>
      <trkpt lat="47.30524" lon="-2.26407">
        <ele>9.8000001907349</ele>
        <time>2021-02-04T09:26:29.000Z</time>
      </trkpt>
      <trkpt lat="47.30536" lon="-2.26376">
        <ele>9.8000001907349</ele>
        <time>2021-02-04T09:26:36.000Z</time>
      </trkpt>
      <trkpt lat="47.30542" lon="-2.26351">
        <ele>9.8000001907349</ele>
        <time>2021-02-04T09:26:41.000Z</time>
      </trkpt>
      <trkpt lat="47.30545" lon="-2.26338">
        <ele>9.8000001907349</ele>
        <time>2021-02-04T09:26:43.000Z</time>
      </trkpt>
      <trkpt lat="47.30554" lon="-2.26305">
        <ele>9.8000001907349</ele>
        <time>2021-02-04T09:26:48.000Z</time>
      </trkpt>
      <trkpt lat="47.30569" lon="-2.2626">
        <ele>9.8000001907349</ele>
        <time>2021-02-04T09:26:56.000Z</time>
      </trkpt>
      <trkpt lat="47.30578" lon="-2.2623">
        <ele>9.8000001907349</ele>
        <time>2021-02-04T09:27:02.000Z</time>
      </trkpt>
      <trkpt lat="47.30588" lon="-2.26196">
        <ele>9.8000001907349</ele>
        <time>2021-02-04T09:27:08.000Z</time>
      </trkpt>
      <trkpt lat="47.306" lon="-2.26166">
        <ele>9.8000001907349</ele>
        <time>2021-02-04T09:27:14.000Z</time>
      </trkpt>
      <trkpt lat="47.30615" lon="-2.2614">
        <ele>9.8000001907349</ele>
        <time>2021-02-04T09:27:20.000Z</time>
      </trkpt>
      <trkpt lat="47.30627" lon="-2.26121">
        <ele>9.8000001907349</ele>
        <time>2021-02-04T09:27:26.000Z</time>
      </trkpt>
      <trkpt lat="47.30637" lon="-2.26106">
        <ele>9.8000001907349</ele>
        <time>2021-02-04T09:27:32.000Z</time>
      </trkpt>
      <trkpt lat="47.30658" lon="-2.26094">
        <ele>9.8000001907349</ele>
        <time>2021-02-04T09:27:38.000Z</time>
      </trkpt>
      <trkpt lat="47.30685" lon="-2.26079">
        <ele>9.8000001907349</ele>
        <time>2021-02-04T09:27:45.000Z</time>
      </trkpt>
      <trkpt lat="47.30715" lon="-2.26065">
        <ele>9.8000001907349</ele>
        <time>2021-02-04T09:27:52.000Z</time>
      </trkpt>
      <trkpt lat="47.30744" lon="-2.26049">
        <ele>9.8000001907349</ele>
        <time>2021-02-04T09:27:59.000Z</time>
      </trkpt>
      <trkpt lat="47.30769" lon="-2.26033">
        <ele>9.8000001907349</ele>
        <time>2021-02-04T09:28:05.000Z</time>
      </trkpt>
      <trkpt lat="47.30781" lon="-2.26024">
        <ele>10.199999809265</ele>
        <time>2021-02-04T09:28:08.000Z</time>
      </trkpt>
      <trkpt lat="47.30786" lon="-2.26021">
        <ele>10.60000038147</ele>
        <time>2021-02-04T09:28:09.000Z</time>
      </trkpt>
      <trkpt lat="47.3079" lon="-2.26018">
        <ele>11</ele>
        <time>2021-02-04T09:28:10.000Z</time>
      </trkpt>
      <trkpt lat="47.30794" lon="-2.26015">
        <ele>11.39999961853</ele>
        <time>2021-02-04T09:28:11.000Z</time>
      </trkpt>
      <trkpt lat="47.30799" lon="-2.26011">
        <ele>11.800000190735</ele>
        <time>2021-02-04T09:28:12.000Z</time>
      </trkpt>
      <trkpt lat="47.30829" lon="-2.25983">
        <ele>11.800000190735</ele>
        <time>2021-02-04T09:28:18.000Z</time>
      </trkpt>
      <trkpt lat="47.30862" lon="-2.25945">
        <ele>11.800000190735</ele>
        <time>2021-02-04T09:28:25.000Z</time>
      </trkpt>
      <trkpt lat="47.30894" lon="-2.25906">
        <ele>11.800000190735</ele>
        <time>2021-02-04T09:28:32.000Z</time>
      </trkpt>
      <trkpt lat="47.3091" lon="-2.25883">
        <ele>11.800000190735</ele>
        <time>2021-02-04T09:28:36.000Z</time>
      </trkpt>
      <trkpt lat="47.30912" lon="-2.25875">
        <ele>11.800000190735</ele>
        <time>2021-02-04T09:28:37.000Z</time>
      </trkpt>
      <trkpt lat="47.30908" lon="-2.25854">
        <ele>11.800000190735</ele>
        <time>2021-02-04T09:28:40.000Z</time>
      </trkpt>
      <trkpt lat="47.30905" lon="-2.25848">
        <ele>11.800000190735</ele>
        <time>2021-02-04T09:28:41.000Z</time>
      </trkpt>
      <trkpt lat="47.30897" lon="-2.25829">
        <ele>11.800000190735</ele>
        <time>2021-02-04T09:28:44.000Z</time>
      </trkpt>
      <trkpt lat="47.30891" lon="-2.25808">
        <ele>11.800000190735</ele>
        <time>2021-02-04T09:28:47.000Z</time>
      </trkpt>
      <trkpt lat="47.3088" lon="-2.25771">
        <ele>11.800000190735</ele>
        <time>2021-02-04T09:28:53.000Z</time>
      </trkpt>
      <trkpt lat="47.30876" lon="-2.25742">
        <ele>11.800000190735</ele>
        <time>2021-02-04T09:28:58.000Z</time>
      </trkpt>
      <trkpt lat="47.30873" lon="-2.2569">
        <ele>11.800000190735</ele>
        <time>2021-02-04T09:29:05.000Z</time>
      </trkpt>
      <trkpt lat="47.30869" lon="-2.25628">
        <ele>11.800000190735</ele>
        <time>2021-02-04T09:29:12.000Z</time>
      </trkpt>
      <trkpt lat="47.30865" lon="-2.25565">
        <ele>11.800000190735</ele>
        <time>2021-02-04T09:29:20.000Z</time>
      </trkpt>
      <trkpt lat="47.30861" lon="-2.25516">
        <ele>11.800000190735</ele>
        <time>2021-02-04T09:29:26.000Z</time>
      </trkpt>
      <trkpt lat="47.30856" lon="-2.25463">
        <ele>11.39999961853</ele>
        <time>2021-02-04T09:29:32.000Z</time>
      </trkpt>
      <trkpt lat="47.30855" lon="-2.25456">
        <ele>11</ele>
        <time>2021-02-04T09:29:33.000Z</time>
      </trkpt>
      <trkpt lat="47.30855" lon="-2.2545">
        <ele>10.39999961853</ele>
        <time>2021-02-04T09:29:34.000Z</time>
      </trkpt>
      <trkpt lat="47.30853" lon="-2.25445">
        <ele>10</ele>
        <time>2021-02-04T09:29:35.000Z</time>
      </trkpt>
      <trkpt lat="47.30853" lon="-2.2544">
        <ele>9.6000003814697</ele>
        <time>2021-02-04T09:29:36.000Z</time>
      </trkpt>
      <trkpt lat="47.30852" lon="-2.25418">
        <ele>9.6000003814697</ele>
        <time>2021-02-04T09:29:41.000Z</time>
      </trkpt>
      <trkpt lat="47.30853" lon="-2.25404">
        <ele>9.6000003814697</ele>
        <time>2021-02-04T09:29:43.000Z</time>
      </trkpt>
      <trkpt lat="47.30854" lon="-2.2539">
        <ele>9.6000003814697</ele>
        <time>2021-02-04T09:29:45.000Z</time>
      </trkpt>
      <trkpt lat="47.30854" lon="-2.25382">
        <ele>9.6000003814697</ele>
        <time>2021-02-04T09:29:46.000Z</time>
      </trkpt>
      <trkpt lat="47.30849" lon="-2.2535">
        <ele>9.6000003814697</ele>
        <time>2021-02-04T09:29:50.000Z</time>
      </trkpt>
      <trkpt lat="47.30845" lon="-2.25325">
        <ele>9.6000003814697</ele>
        <time>2021-02-04T09:29:53.000Z</time>
      </trkpt>
      <trkpt lat="47.30844" lon="-2.253">
        <ele>9.6000003814697</ele>
        <time>2021-02-04T09:29:56.000Z</time>
      </trkpt>
      <trkpt lat="47.30844" lon="-2.25284">
        <ele>9.6000003814697</ele>
        <time>2021-02-04T09:29:58.000Z</time>
      </trkpt>
      <trkpt lat="47.30852" lon="-2.25266">
        <ele>9.6000003814697</ele>
        <time>2021-02-04T09:30:01.000Z</time>
      </trkpt>
      <trkpt lat="47.3086" lon="-2.25257">
        <ele>9.1999998092651</ele>
        <time>2021-02-04T09:30:03.000Z</time>
      </trkpt>
      <trkpt lat="47.30865" lon="-2.25254">
        <ele>8.8000001907349</ele>
        <time>2021-02-04T09:30:04.000Z</time>
      </trkpt>
      <trkpt lat="47.3087" lon="-2.2525">
        <ele>8.3999996185303</ele>
        <time>2021-02-04T09:30:05.000Z</time>
      </trkpt>
      <trkpt lat="47.30875" lon="-2.25247">
        <ele>8</ele>
        <time>2021-02-04T09:30:06.000Z</time>
      </trkpt>
      <trkpt lat="47.3088" lon="-2.25243">
        <ele>7.5999999046326</ele>
        <time>2021-02-04T09:30:07.000Z</time>
      </trkpt>
      <trkpt lat="47.30884" lon="-2.25239">
        <ele>7.5999999046326</ele>
        <time>2021-02-04T09:30:08.000Z</time>
      </trkpt>
      <trkpt lat="47.30899" lon="-2.25226">
        <ele>7.5999999046326</ele>
        <time>2021-02-04T09:30:11.000Z</time>
      </trkpt>
      <trkpt lat="47.30911" lon="-2.25216">
        <ele>7.5999999046326</ele>
        <time>2021-02-04T09:30:14.000Z</time>
      </trkpt>
      <trkpt lat="47.30914" lon="-2.25211">
        <ele>7.5999999046326</ele>
        <time>2021-02-04T09:30:15.000Z</time>
      </trkpt>
      <trkpt lat="47.30911" lon="-2.25193">
        <ele>7.5999999046326</ele>
        <time>2021-02-04T09:30:18.000Z</time>
      </trkpt>
      <trkpt lat="47.309" lon="-2.25173">
        <ele>7.5999999046326</ele>
        <time>2021-02-04T09:30:21.000Z</time>
      </trkpt>
      <trkpt lat="47.30891" lon="-2.25127">
        <ele>7.5999999046326</ele>
        <time>2021-02-04T09:30:26.000Z</time>
      </trkpt>
      <trkpt lat="47.3089" lon="-2.25117">
        <ele>7.1999998092651</ele>
        <time>2021-02-04T09:30:27.000Z</time>
      </trkpt>
      <trkpt lat="47.30888" lon="-2.25107">
        <ele>6.8000001907349</ele>
        <time>2021-02-04T09:30:28.000Z</time>
      </trkpt>
      <trkpt lat="47.30887" lon="-2.25097">
        <ele>6.1999998092651</ele>
        <time>2021-02-04T09:30:29.000Z</time>
      </trkpt>
      <trkpt lat="47.30885" lon="-2.25086">
        <ele>5.8000001907349</ele>
        <time>2021-02-04T09:30:30.000Z</time>
      </trkpt>
      <trkpt lat="47.30884" lon="-2.25075">
        <ele>5.4000000953674</ele>
        <time>2021-02-04T09:30:31.000Z</time>
      </trkpt>
      <trkpt lat="47.30883" lon="-2.25064">
        <ele>5.4000000953674</ele>
        <time>2021-02-04T09:30:32.000Z</time>
      </trkpt>
      <trkpt lat="47.30874" lon="-2.25004">
        <ele>5.4000000953674</ele>
        <time>2021-02-04T09:30:38.000Z</time>
      </trkpt>
      <trkpt lat="47.30872" lon="-2.24985">
        <ele>5</ele>
        <time>2021-02-04T09:30:40.000Z</time>
      </trkpt>
      <trkpt lat="47.30869" lon="-2.24976">
        <ele>4.5999999046326</ele>
        <time>2021-02-04T09:30:41.000Z</time>
      </trkpt>
      <trkpt lat="47.30866" lon="-2.24968">
        <ele>4.1999998092651</ele>
        <time>2021-02-04T09:30:42.000Z</time>
      </trkpt>
      <trkpt lat="47.30862" lon="-2.24959">
        <ele>3.7999999523163</ele>
        <time>2021-02-04T09:30:43.000Z</time>
      </trkpt>
      <trkpt lat="47.30858" lon="-2.24952">
        <ele>3.4000000953674</ele>
        <time>2021-02-04T09:30:44.000Z</time>
      </trkpt>
      <trkpt lat="47.30846" lon="-2.2494">
        <ele>3.4000000953674</ele>
        <time>2021-02-04T09:30:46.000Z</time>
      </trkpt>
      <trkpt lat="47.30832" lon="-2.24932">
        <ele>3.4000000953674</ele>
        <time>2021-02-04T09:30:48.000Z</time>
      </trkpt>
      <trkpt lat="47.30819" lon="-2.24925">
        <ele>3.4000000953674</ele>
        <time>2021-02-04T09:30:50.000Z</time>
      </trkpt>
      <trkpt lat="47.30765" lon="-2.24901">
        <ele>3.4000000953674</ele>
        <time>2021-02-04T09:30:58.000Z</time>
      </trkpt>
      <trkpt lat="47.30724" lon="-2.2487">
        <ele>3.4000000953674</ele>
        <time>2021-02-04T09:31:05.000Z</time>
      </trkpt>
      <trkpt lat="47.30707" lon="-2.24837">
        <ele>3.4000000953674</ele>
        <time>2021-02-04T09:31:10.000Z</time>
      </trkpt>
      <trkpt lat="47.30692" lon="-2.24811">
        <ele>3.4000000953674</ele>
        <time>2021-02-04T09:31:14.000Z</time>
      </trkpt>
      <trkpt lat="47.30682" lon="-2.24799">
        <ele>3.4000000953674</ele>
        <time>2021-02-04T09:31:16.000Z</time>
      </trkpt>
      <trkpt lat="47.30654" lon="-2.24757">
        <ele>3.4000000953674</ele>
        <time>2021-02-04T09:31:23.000Z</time>
      </trkpt>
      <trkpt lat="47.30638" lon="-2.24709">
        <ele>3.4000000953674</ele>
        <time>2021-02-04T09:31:29.000Z</time>
      </trkpt>
      <trkpt lat="47.30615" lon="-2.24635">
        <ele>3.4000000953674</ele>
        <time>2021-02-04T09:31:38.000Z</time>
      </trkpt>
      <trkpt lat="47.30613" lon="-2.24627">
        <ele>3.4000000953674</ele>
        <time>2021-02-04T09:31:39.000Z</time>
      </trkpt>
      <trkpt lat="47.30613" lon="-2.24595">
        <ele>3.4000000953674</ele>
        <time>2021-02-04T09:31:43.000Z</time>
      </trkpt>
      <trkpt lat="47.30614" lon="-2.24587">
        <ele>3.4000000953674</ele>
        <time>2021-02-04T09:31:44.000Z</time>
      </trkpt>
      <trkpt lat="47.3062" lon="-2.24539">
        <ele>3.4000000953674</ele>
        <time>2021-02-04T09:31:50.000Z</time>
      </trkpt>
      <trkpt lat="47.30622" lon="-2.24515">
        <ele>3.7999999523163</ele>
        <time>2021-02-04T09:31:53.000Z</time>
      </trkpt>
      <trkpt lat="47.30623" lon="-2.24508">
        <ele>4.1999998092651</ele>
        <time>2021-02-04T09:31:54.000Z</time>
      </trkpt>
      <trkpt lat="47.30624" lon="-2.245">
        <ele>4.5999999046326</ele>
        <time>2021-02-04T09:31:55.000Z</time>
      </trkpt>
      <trkpt lat="47.30625" lon="-2.24493">
        <ele>5</ele>
        <time>2021-02-04T09:31:56.000Z</time>
      </trkpt>
      <trkpt lat="47.30626" lon="-2.24486">
        <ele>5.4000000953674</ele>
        <time>2021-02-04T09:31:57.000Z</time>
      </trkpt>
      <trkpt lat="47.30629" lon="-2.24463">
        <ele>6</ele>
        <time>2021-02-04T09:32:00.000Z</time>
      </trkpt>
      <trkpt lat="47.30631" lon="-2.24457">
        <ele>6.4000000953674</ele>
        <time>2021-02-04T09:32:01.000Z</time>
      </trkpt>
      <trkpt lat="47.30631" lon="-2.2445">
        <ele>6.8000001907349</ele>
        <time>2021-02-04T09:32:02.000Z</time>
      </trkpt>
      <trkpt lat="47.30632" lon="-2.24444">
        <ele>7.4000000953674</ele>
        <time>2021-02-04T09:32:03.000Z</time>
      </trkpt>
      <trkpt lat="47.30633" lon="-2.24437">
        <ele>7.8000001907349</ele>
        <time>2021-02-04T09:32:04.000Z</time>
      </trkpt>
      <trkpt lat="47.30634" lon="-2.24429">
        <ele>8.1999998092651</ele>
        <time>2021-02-04T09:32:05.000Z</time>
      </trkpt>
      <trkpt lat="47.30635" lon="-2.24422">
        <ele>8.6000003814697</ele>
        <time>2021-02-04T09:32:06.000Z</time>
      </trkpt>
      <trkpt lat="47.30636" lon="-2.24414">
        <ele>9</ele>
        <time>2021-02-04T09:32:07.000Z</time>
      </trkpt>
      <trkpt lat="47.30637" lon="-2.24407">
        <ele>9.3999996185303</ele>
        <time>2021-02-04T09:32:08.000Z</time>
      </trkpt>
      <trkpt lat="47.30639" lon="-2.244">
        <ele>9.8000001907349</ele>
        <time>2021-02-04T09:32:09.000Z</time>
      </trkpt>
      <trkpt lat="47.30642" lon="-2.24377">
        <ele>10.199999809265</ele>
        <time>2021-02-04T09:32:12.000Z</time>
      </trkpt>
      <trkpt lat="47.30643" lon="-2.24369">
        <ele>10.60000038147</ele>
        <time>2021-02-04T09:32:13.000Z</time>
      </trkpt>
      <trkpt lat="47.30644" lon="-2.24362">
        <ele>11.199999809265</ele>
        <time>2021-02-04T09:32:14.000Z</time>
      </trkpt>
      <trkpt lat="47.30645" lon="-2.24354">
        <ele>11.60000038147</ele>
        <time>2021-02-04T09:32:15.000Z</time>
      </trkpt>
      <trkpt lat="47.30646" lon="-2.24347">
        <ele>12</ele>
        <time>2021-02-04T09:32:16.000Z</time>
      </trkpt>
      <trkpt lat="47.30647" lon="-2.24339">
        <ele>12</ele>
        <time>2021-02-04T09:32:17.000Z</time>
      </trkpt>
      <trkpt lat="47.30657" lon="-2.24275">
        <ele>12</ele>
        <time>2021-02-04T09:32:25.000Z</time>
      </trkpt>
      <trkpt lat="47.30666" lon="-2.24231">
        <ele>11.60000038147</ele>
        <time>2021-02-04T09:32:29.000Z</time>
      </trkpt>
      <trkpt lat="47.30669" lon="-2.2422">
        <ele>10.60000038147</ele>
        <time>2021-02-04T09:32:30.000Z</time>
      </trkpt>
      <trkpt lat="47.30671" lon="-2.24209">
        <ele>10.199999809265</ele>
        <time>2021-02-04T09:32:31.000Z</time>
      </trkpt>
      <trkpt lat="47.30673" lon="-2.24196">
        <ele>9.8000001907349</ele>
        <time>2021-02-04T09:32:32.000Z</time>
      </trkpt>
      <trkpt lat="47.30674" lon="-2.24184">
        <ele>9.1999998092651</ele>
        <time>2021-02-04T09:32:33.000Z</time>
      </trkpt>
      <trkpt lat="47.30673" lon="-2.24171">
        <ele>8.8000001907349</ele>
        <time>2021-02-04T09:32:34.000Z</time>
      </trkpt>
      <trkpt lat="47.30671" lon="-2.24159">
        <ele>8.3999996185303</ele>
        <time>2021-02-04T09:32:35.000Z</time>
      </trkpt>
      <trkpt lat="47.30668" lon="-2.24148">
        <ele>8</ele>
        <time>2021-02-04T09:32:36.000Z</time>
      </trkpt>
      <trkpt lat="47.30664" lon="-2.24137">
        <ele>7.4000000953674</ele>
        <time>2021-02-04T09:32:37.000Z</time>
      </trkpt>
      <trkpt lat="47.3065" lon="-2.24095">
        <ele>7.4000000953674</ele>
        <time>2021-02-04T09:32:41.000Z</time>
      </trkpt>
      <trkpt lat="47.30648" lon="-2.24085">
        <ele>7.4000000953674</ele>
        <time>2021-02-04T09:32:42.000Z</time>
      </trkpt>
      <trkpt lat="47.30644" lon="-2.24062">
        <ele>7</ele>
        <time>2021-02-04T09:32:44.000Z</time>
      </trkpt>
      <trkpt lat="47.3064" lon="-2.24052">
        <ele>6.5999999046326</ele>
        <time>2021-02-04T09:32:45.000Z</time>
      </trkpt>
      <trkpt lat="47.30637" lon="-2.24042">
        <ele>6.1999998092651</ele>
        <time>2021-02-04T09:32:46.000Z</time>
      </trkpt>
      <trkpt lat="47.30631" lon="-2.24033">
        <ele>5.5999999046326</ele>
        <time>2021-02-04T09:32:47.000Z</time>
      </trkpt>
      <trkpt lat="47.30625" lon="-2.24025">
        <ele>5.1999998092651</ele>
        <time>2021-02-04T09:32:48.000Z</time>
      </trkpt>
      <trkpt lat="47.30618" lon="-2.24018">
        <ele>5.1999998092651</ele>
        <time>2021-02-04T09:32:49.000Z</time>
      </trkpt>
      <trkpt lat="47.30612" lon="-2.2401">
        <ele>5.1999998092651</ele>
        <time>2021-02-04T09:32:50.000Z</time>
      </trkpt>
      <trkpt lat="47.3058" lon="-2.23978">
        <ele>5.1999998092651</ele>
        <time>2021-02-04T09:32:55.000Z</time>
      </trkpt>
      <trkpt lat="47.3057" lon="-2.23963">
        <ele>5.1999998092651</ele>
        <time>2021-02-04T09:32:57.000Z</time>
      </trkpt>
      <trkpt lat="47.30559" lon="-2.2394">
        <ele>4.8000001907349</ele>
        <time>2021-02-04T09:33:00.000Z</time>
      </trkpt>
      <trkpt lat="47.30557" lon="-2.23932">
        <ele>4.4000000953674</ele>
        <time>2021-02-04T09:33:01.000Z</time>
      </trkpt>
      <trkpt lat="47.30555" lon="-2.23924">
        <ele>4</ele>
        <time>2021-02-04T09:33:02.000Z</time>
      </trkpt>
      <trkpt lat="47.30554" lon="-2.23915">
        <ele>3.5999999046326</ele>
        <time>2021-02-04T09:33:03.000Z</time>
      </trkpt>
      <trkpt lat="47.30555" lon="-2.23906">
        <ele>3.2000000476837</ele>
        <time>2021-02-04T09:33:04.000Z</time>
      </trkpt>
      <trkpt lat="47.30561" lon="-2.23879">
        <ele>3.2000000476837</ele>
        <time>2021-02-04T09:33:07.000Z</time>
      </trkpt>
      <trkpt lat="47.30563" lon="-2.2387">
        <ele>3.2000000476837</ele>
        <time>2021-02-04T09:33:08.000Z</time>
      </trkpt>
      <trkpt lat="47.30577" lon="-2.238">
        <ele>3.2000000476837</ele>
        <time>2021-02-04T09:33:16.000Z</time>
      </trkpt>
      <trkpt lat="47.30592" lon="-2.2373">
        <ele>3.2000000476837</ele>
        <time>2021-02-04T09:33:24.000Z</time>
      </trkpt>
      <trkpt lat="47.30606" lon="-2.23658">
        <ele>3.2000000476837</ele>
        <time>2021-02-04T09:33:32.000Z</time>
      </trkpt>
      <trkpt lat="47.30619" lon="-2.23586">
        <ele>3.2000000476837</ele>
        <time>2021-02-04T09:33:40.000Z</time>
      </trkpt>
      <trkpt lat="47.30632" lon="-2.23525">
        <ele>3.2000000476837</ele>
        <time>2021-02-04T09:33:47.000Z</time>
      </trkpt>
      <trkpt lat="47.30648" lon="-2.23453">
        <ele>3.2000000476837</ele>
        <time>2021-02-04T09:33:55.000Z</time>
      </trkpt>
      <trkpt lat="47.30662" lon="-2.23387">
        <ele>3.2000000476837</ele>
        <time>2021-02-04T09:34:02.000Z</time>
      </trkpt>
      <trkpt lat="47.30676" lon="-2.23312">
        <ele>3.2000000476837</ele>
        <time>2021-02-04T09:34:10.000Z</time>
      </trkpt>
      <trkpt lat="47.3069" lon="-2.2324">
        <ele>3.2000000476837</ele>
        <time>2021-02-04T09:34:18.000Z</time>
      </trkpt>
      <trkpt lat="47.30707" lon="-2.23156">
        <ele>3.2000000476837</ele>
        <time>2021-02-04T09:34:27.000Z</time>
      </trkpt>
      <trkpt lat="47.30722" lon="-2.23079">
        <ele>3.2000000476837</ele>
        <time>2021-02-04T09:34:35.000Z</time>
      </trkpt>
      <trkpt lat="47.30739" lon="-2.22995">
        <ele>3.2000000476837</ele>
        <time>2021-02-04T09:34:44.000Z</time>
      </trkpt>
      <trkpt lat="47.30752" lon="-2.2293">
        <ele>3.2000000476837</ele>
        <time>2021-02-04T09:34:52.000Z</time>
      </trkpt>
      <trkpt lat="47.30764" lon="-2.22874">
        <ele>3.2000000476837</ele>
        <time>2021-02-04T09:34:59.000Z</time>
      </trkpt>
      <trkpt lat="47.30778" lon="-2.22802">
        <ele>3.2000000476837</ele>
        <time>2021-02-04T09:35:08.000Z</time>
      </trkpt>
      <trkpt lat="47.30794" lon="-2.22733">
        <ele>3.2000000476837</ele>
        <time>2021-02-04T09:35:17.000Z</time>
      </trkpt>
      <trkpt lat="47.30814" lon="-2.22691">
        <ele>3.2000000476837</ele>
        <time>2021-02-04T09:35:23.000Z</time>
      </trkpt>
      <trkpt lat="47.30842" lon="-2.22658">
        <ele>3.2000000476837</ele>
        <time>2021-02-04T09:35:29.000Z</time>
      </trkpt>
      <trkpt lat="47.30871" lon="-2.22638">
        <ele>3.2000000476837</ele>
        <time>2021-02-04T09:35:34.000Z</time>
      </trkpt>
      <trkpt lat="47.30928" lon="-2.22609">
        <ele>3.2000000476837</ele>
        <time>2021-02-04T09:35:43.000Z</time>
      </trkpt>
      <trkpt lat="47.3098" lon="-2.22582">
        <ele>3.2000000476837</ele>
        <time>2021-02-04T09:35:51.000Z</time>
      </trkpt>
      <trkpt lat="47.31027" lon="-2.22559">
        <ele>3.2000000476837</ele>
        <time>2021-02-04T09:35:58.000Z</time>
      </trkpt>
      <trkpt lat="47.31066" lon="-2.22534">
        <ele>3.2000000476837</ele>
        <time>2021-02-04T09:36:04.000Z</time>
      </trkpt>
      <trkpt lat="47.31106" lon="-2.22495">
        <ele>3.2000000476837</ele>
        <time>2021-02-04T09:36:11.000Z</time>
      </trkpt>
      <trkpt lat="47.31143" lon="-2.22458">
        <ele>3.2000000476837</ele>
        <time>2021-02-04T09:36:17.000Z</time>
      </trkpt>
      <trkpt lat="47.31174" lon="-2.22425">
        <ele>3.2000000476837</ele>
        <time>2021-02-04T09:36:23.000Z</time>
      </trkpt>
      <trkpt lat="47.31206" lon="-2.22394">
        <ele>3.2000000476837</ele>
        <time>2021-02-04T09:36:30.000Z</time>
      </trkpt>
      <trkpt lat="47.31234" lon="-2.22376">
        <ele>3.2000000476837</ele>
        <time>2021-02-04T09:36:36.000Z</time>
      </trkpt>
      <trkpt lat="47.31263" lon="-2.22364">
        <ele>3.2000000476837</ele>
        <time>2021-02-04T09:36:42.000Z</time>
      </trkpt>
      <trkpt lat="47.31291" lon="-2.22362">
        <ele>2.7999999523163</ele>
        <time>2021-02-04T09:36:47.000Z</time>
      </trkpt>
      <trkpt lat="47.31297" lon="-2.22362">
        <ele>2.4000000953674</ele>
        <time>2021-02-04T09:36:48.000Z</time>
      </trkpt>
      <trkpt lat="47.31302" lon="-2.22361">
        <ele>2</ele>
        <time>2021-02-04T09:36:49.000Z</time>
      </trkpt>
      <trkpt lat="47.31308" lon="-2.2236">
        <ele>1.6000000238419</ele>
        <time>2021-02-04T09:36:50.000Z</time>
      </trkpt>
      <trkpt lat="47.31314" lon="-2.22359">
        <ele>1.2000000476837</ele>
        <time>2021-02-04T09:36:51.000Z</time>
      </trkpt>
      <trkpt lat="47.31356" lon="-2.22355">
        <ele>1.2000000476837</ele>
        <time>2021-02-04T09:36:58.000Z</time>
      </trkpt>
      <trkpt lat="47.31406" lon="-2.22348">
        <ele>1.2000000476837</ele>
        <time>2021-02-04T09:37:06.000Z</time>
      </trkpt>
      <trkpt lat="47.31457" lon="-2.22344">
        <ele>1.2000000476837</ele>
        <time>2021-02-04T09:37:14.000Z</time>
      </trkpt>
      <trkpt lat="47.31489" lon="-2.2234">
        <ele>1.2000000476837</ele>
        <time>2021-02-04T09:37:19.000Z</time>
      </trkpt>
      <trkpt lat="47.31501" lon="-2.22339">
        <ele>1.2000000476837</ele>
        <time>2021-02-04T09:37:21.000Z</time>
      </trkpt>
      <trkpt lat="47.31533" lon="-2.22331">
        <ele>1.2000000476837</ele>
        <time>2021-02-04T09:37:27.000Z</time>
      </trkpt>
      <trkpt lat="47.31538" lon="-2.22331">
        <ele>1.2000000476837</ele>
        <time>2021-02-04T09:37:28.000Z</time>
      </trkpt>
      <trkpt lat="47.31552" lon="-2.22336">
        <ele>1.2000000476837</ele>
        <time>2021-02-04T09:37:31.000Z</time>
      </trkpt>
      <trkpt lat="47.31584" lon="-2.22341">
        <ele>1.2000000476837</ele>
        <time>2021-02-04T09:37:37.000Z</time>
      </trkpt>
      <trkpt lat="47.31617" lon="-2.22344">
        <ele>1.2000000476837</ele>
        <time>2021-02-04T09:37:43.000Z</time>
      </trkpt>
      <trkpt lat="47.31642" lon="-2.22347">
        <ele>1.2000000476837</ele>
        <time>2021-02-04T09:37:48.000Z</time>
      </trkpt>
      <trkpt lat="47.31651" lon="-2.22349">
        <ele>1.2000000476837</ele>
        <time>2021-02-04T09:37:50.000Z</time>
      </trkpt>
      <trkpt lat="47.31661" lon="-2.2235">
        <ele>1.2000000476837</ele>
        <time>2021-02-04T09:37:52.000Z</time>
      </trkpt>
      <trkpt lat="47.31676" lon="-2.22351">
        <ele>1.2000000476837</ele>
        <time>2021-02-04T09:37:55.000Z</time>
      </trkpt>
      <trkpt lat="47.31711" lon="-2.22355">
        <ele>1.2000000476837</ele>
        <time>2021-02-04T09:38:02.000Z</time>
      </trkpt>
      <trkpt lat="47.31734" lon="-2.22358">
        <ele>1.2000000476837</ele>
        <time>2021-02-04T09:38:08.000Z</time>
      </trkpt>
      <trkpt lat="47.31742" lon="-2.22361">
        <ele>1.2000000476837</ele>
        <time>2021-02-04T09:38:11.000Z</time>
      </trkpt>
      <trkpt lat="47.31743" lon="-2.22358">
        <ele>1.2000000476837</ele>
        <time>2021-02-04T09:38:12.000Z</time>
      </trkpt>
      <trkpt lat="47.31752" lon="-2.22356">
        <ele>1.2000000476837</ele>
        <time>2021-02-04T09:38:17.000Z</time>
      </trkpt>
      <trkpt lat="47.31754" lon="-2.22355">
        <ele>1.2000000476837</ele>
        <time>2021-02-04T09:38:18.000Z</time>
      </trkpt>
      <trkpt lat="47.31765" lon="-2.22357">
        <ele>1.2000000476837</ele>
        <time>2021-02-04T09:38:23.000Z</time>
      </trkpt>
      <trkpt lat="47.31781" lon="-2.22356">
        <ele>1.2000000476837</ele>
        <time>2021-02-04T09:38:28.000Z</time>
      </trkpt>
      <trkpt lat="47.31805" lon="-2.22356">
        <ele>1.2000000476837</ele>
        <time>2021-02-04T09:38:34.000Z</time>
      </trkpt>
      <trkpt lat="47.31819" lon="-2.22359">
        <ele>1.2000000476837</ele>
        <time>2021-02-04T09:38:38.000Z</time>
      </trkpt>
      <trkpt lat="47.31824" lon="-2.22358">
        <ele>1.2000000476837</ele>
        <time>2021-02-04T09:38:39.000Z</time>
      </trkpt>
      <trkpt lat="47.31844" lon="-2.22359">
        <ele>1.2000000476837</ele>
        <time>2021-02-04T09:38:43.000Z</time>
      </trkpt>
      <trkpt lat="47.31884" lon="-2.22367">
        <ele>1.2000000476837</ele>
        <time>2021-02-04T09:38:51.000Z</time>
      </trkpt>
      <trkpt lat="47.31917" lon="-2.22377">
        <ele>1.2000000476837</ele>
        <time>2021-02-04T09:38:57.000Z</time>
      </trkpt>
      <trkpt lat="47.31922" lon="-2.22376">
        <ele>1.2000000476837</ele>
        <time>2021-02-04T09:38:58.000Z</time>
      </trkpt>
      <trkpt lat="47.31939" lon="-2.22376">
        <ele>1.2000000476837</ele>
        <time>2021-02-04T09:39:01.000Z</time>
      </trkpt>
      <trkpt lat="47.31945" lon="-2.22375">
        <ele>1.2000000476837</ele>
        <time>2021-02-04T09:39:02.000Z</time>
      </trkpt>
      <trkpt lat="47.31975" lon="-2.22373">
        <ele>1.2000000476837</ele>
        <time>2021-02-04T09:39:07.000Z</time>
      </trkpt>
      <trkpt lat="47.31981" lon="-2.22377">
        <ele>1.2000000476837</ele>
        <time>2021-02-04T09:39:08.000Z</time>
      </trkpt>
      <trkpt lat="47.31996" lon="-2.22388">
        <ele>1.2000000476837</ele>
        <time>2021-02-04T09:39:11.000Z</time>
      </trkpt>
      <trkpt lat="47.32006" lon="-2.22397">
        <ele>1.2000000476837</ele>
        <time>2021-02-04T09:39:13.000Z</time>
      </trkpt>
      <trkpt lat="47.32012" lon="-2.22401">
        <ele>1.2000000476837</ele>
        <time>2021-02-04T09:39:14.000Z</time>
      </trkpt>
      <trkpt lat="47.32047" lon="-2.22422">
        <ele>1.2000000476837</ele>
        <time>2021-02-04T09:39:21.000Z</time>
      </trkpt>
      <trkpt lat="47.32063" lon="-2.22427">
        <ele>1.2000000476837</ele>
        <time>2021-02-04T09:39:24.000Z</time>
      </trkpt>
      <trkpt lat="47.32079" lon="-2.22432">
        <ele>1.2000000476837</ele>
        <time>2021-02-04T09:39:27.000Z</time>
      </trkpt>
      <trkpt lat="47.32095" lon="-2.22435">
        <ele>1.2000000476837</ele>
        <time>2021-02-04T09:39:30.000Z</time>
      </trkpt>
      <trkpt lat="47.32113" lon="-2.22439">
        <ele>1.2000000476837</ele>
        <time>2021-02-04T09:39:33.000Z</time>
      </trkpt>
      <trkpt lat="47.32119" lon="-2.22442">
        <ele>1.2000000476837</ele>
        <time>2021-02-04T09:39:34.000Z</time>
      </trkpt>
      <trkpt lat="47.32135" lon="-2.22457">
        <ele>1.2000000476837</ele>
        <time>2021-02-04T09:39:37.000Z</time>
      </trkpt>
      <trkpt lat="47.3214" lon="-2.22462">
        <ele>1.2000000476837</ele>
        <time>2021-02-04T09:39:38.000Z</time>
      </trkpt>
      <trkpt lat="47.32164" lon="-2.22487">
        <ele>1.2000000476837</ele>
        <time>2021-02-04T09:39:43.000Z</time>
      </trkpt>
      <trkpt lat="47.32199" lon="-2.22518">
        <ele>1.2000000476837</ele>
        <time>2021-02-04T09:39:50.000Z</time>
      </trkpt>
      <trkpt lat="47.32232" lon="-2.22545">
        <ele>1.2000000476837</ele>
        <time>2021-02-04T09:39:57.000Z</time>
      </trkpt>
      <trkpt lat="47.32237" lon="-2.22548">
        <ele>1.2000000476837</ele>
        <time>2021-02-04T09:39:58.000Z</time>
      </trkpt>
      <trkpt lat="47.32255" lon="-2.22559">
        <ele>1.2000000476837</ele>
        <time>2021-02-04T09:40:02.000Z</time>
      </trkpt>
      <trkpt lat="47.32272" lon="-2.22566">
        <ele>1.2000000476837</ele>
        <time>2021-02-04T09:40:06.000Z</time>
      </trkpt>
      <trkpt lat="47.32276" lon="-2.22568">
        <ele>1.2000000476837</ele>
        <time>2021-02-04T09:40:07.000Z</time>
      </trkpt>
      <trkpt lat="47.32285" lon="-2.22577">
        <ele>1.2000000476837</ele>
        <time>2021-02-04T09:40:10.000Z</time>
      </trkpt>
      <trkpt lat="47.32289" lon="-2.22597">
        <ele>1.2000000476837</ele>
        <time>2021-02-04T09:40:14.000Z</time>
      </trkpt>
      <trkpt lat="47.32296" lon="-2.22609">
        <ele>1.2000000476837</ele>
        <time>2021-02-04T09:40:18.000Z</time>
      </trkpt>
      <trkpt lat="47.32298" lon="-2.2261">
        <ele>1.2000000476837</ele>
        <time>2021-02-04T09:40:19.000Z</time>
      </trkpt>
      <trkpt lat="47.32312" lon="-2.22609">
        <ele>1.2000000476837</ele>
        <time>2021-02-04T09:40:25.000Z</time>
      </trkpt>
      <trkpt lat="47.32312" lon="-2.22607">
        <ele>1.2000000476837</ele>
        <time>2021-02-04T09:40:26.000Z</time>
      </trkpt>
      <trkpt lat="47.32315" lon="-2.22605">
        <ele>1.2000000476837</ele>
        <time>2021-02-04T09:40:30.000Z</time>
      </trkpt>
      <trkpt lat="47.3231" lon="-2.22591">
        <ele>1.2000000476837</ele>
        <time>2021-02-04T09:51:43.000Z</time>
      </trkpt>
      <trkpt lat="47.32311" lon="-2.22591">
        <ele>1.2000000476837</ele>
        <time>2021-02-04T09:51:44.000Z</time>
      </trkpt>
      <trkpt lat="47.32312" lon="-2.22592">
        <ele>1.2000000476837</ele>
        <time>2021-02-04T09:51:45.000Z</time>
      </trkpt>
      <trkpt lat="47.32313" lon="-2.22599">
        <ele>1.2000000476837</ele>
        <time>2021-02-04T09:51:51.000Z</time>
      </trkpt>
      <trkpt lat="47.32305" lon="-2.22608">
        <ele>1.2000000476837</ele>
        <time>2021-02-04T09:54:00.000Z</time>
      </trkpt>
      <trkpt lat="47.32302" lon="-2.22608">
        <ele>1.2000000476837</ele>
        <time>2021-02-04T09:54:02.000Z</time>
      </trkpt>
      <trkpt lat="47.32297" lon="-2.22605">
        <ele>1.2000000476837</ele>
        <time>2021-02-04T09:54:05.000Z</time>
      </trkpt>
      <trkpt lat="47.32292" lon="-2.22598">
        <ele>1.2000000476837</ele>
        <time>2021-02-04T09:54:09.000Z</time>
      </trkpt>
      <trkpt lat="47.32291" lon="-2.22577">
        <ele>1.2000000476837</ele>
        <time>2021-02-04T09:54:14.000Z</time>
      </trkpt>
      <trkpt lat="47.32301" lon="-2.22561">
        <ele>1.2000000476837</ele>
        <time>2021-02-04T09:54:18.000Z</time>
      </trkpt>
      <trkpt lat="47.32303" lon="-2.22556">
        <ele>1.2000000476837</ele>
        <time>2021-02-04T09:54:19.000Z</time>
      </trkpt>
      <trkpt lat="47.32313" lon="-2.22534">
        <ele>1.2000000476837</ele>
        <time>2021-02-04T09:54:23.000Z</time>
      </trkpt>
      <trkpt lat="47.32336" lon="-2.22495">
        <ele>1.2000000476837</ele>
        <time>2021-02-04T09:54:31.000Z</time>
      </trkpt>
      <trkpt lat="47.32344" lon="-2.22477">
        <ele>1.2000000476837</ele>
        <time>2021-02-04T09:54:35.000Z</time>
      </trkpt>
      <trkpt lat="47.32348" lon="-2.22465">
        <ele>1.2000000476837</ele>
        <time>2021-02-04T09:54:37.000Z</time>
      </trkpt>
      <trkpt lat="47.32354" lon="-2.22441">
        <ele>1.2000000476837</ele>
        <time>2021-02-04T09:54:41.000Z</time>
      </trkpt>
      <trkpt lat="47.32362" lon="-2.22401">
        <ele>1.2000000476837</ele>
        <time>2021-02-04T09:54:47.000Z</time>
      </trkpt>
      <trkpt lat="47.32363" lon="-2.22394">
        <ele>1.2000000476837</ele>
        <time>2021-02-04T09:54:48.000Z</time>
      </trkpt>
      <trkpt lat="47.32364" lon="-2.22368">
        <ele>1.2000000476837</ele>
        <time>2021-02-04T09:54:52.000Z</time>
      </trkpt>
      <trkpt lat="47.32364" lon="-2.22355">
        <ele>1.2000000476837</ele>
        <time>2021-02-04T09:54:54.000Z</time>
      </trkpt>
      <trkpt lat="47.32366" lon="-2.22336">
        <ele>1.2000000476837</ele>
        <time>2021-02-04T09:54:57.000Z</time>
      </trkpt>
      <trkpt lat="47.32367" lon="-2.2233">
        <ele>1.2000000476837</ele>
        <time>2021-02-04T09:54:58.000Z</time>
      </trkpt>
      <trkpt lat="47.32368" lon="-2.22316">
        <ele>1.2000000476837</ele>
        <time>2021-02-04T09:55:00.000Z</time>
      </trkpt>
      <trkpt lat="47.3237" lon="-2.22298">
        <ele>1.2000000476837</ele>
        <time>2021-02-04T09:55:03.000Z</time>
      </trkpt>
      <trkpt lat="47.32373" lon="-2.22292">
        <ele>1.2000000476837</ele>
        <time>2021-02-04T09:55:04.000Z</time>
      </trkpt>
      <trkpt lat="47.32382" lon="-2.22276">
        <ele>1.2000000476837</ele>
        <time>2021-02-04T09:55:07.000Z</time>
      </trkpt>
      <trkpt lat="47.32391" lon="-2.22258">
        <ele>1.2000000476837</ele>
        <time>2021-02-04T09:55:10.000Z</time>
      </trkpt>
      <trkpt lat="47.32393" lon="-2.22251">
        <ele>1.2000000476837</ele>
        <time>2021-02-04T09:55:11.000Z</time>
      </trkpt>
      <trkpt lat="47.32395" lon="-2.22228">
        <ele>1.2000000476837</ele>
        <time>2021-02-04T09:55:14.000Z</time>
      </trkpt>
      <trkpt lat="47.32388" lon="-2.22192">
        <ele>1.2000000476837</ele>
        <time>2021-02-04T09:55:19.000Z</time>
      </trkpt>
      <trkpt lat="47.32383" lon="-2.22172">
        <ele>1.2000000476837</ele>
        <time>2021-02-04T09:55:22.000Z</time>
      </trkpt>
      <trkpt lat="47.32381" lon="-2.22151">
        <ele>1.2000000476837</ele>
        <time>2021-02-04T09:55:25.000Z</time>
      </trkpt>
      <trkpt lat="47.3238" lon="-2.22138">
        <ele>1.2000000476837</ele>
        <time>2021-02-04T09:55:27.000Z</time>
      </trkpt>
      <trkpt lat="47.32379" lon="-2.22116">
        <ele>1.2000000476837</ele>
        <time>2021-02-04T09:55:30.000Z</time>
      </trkpt>
      <trkpt lat="47.32381" lon="-2.22061">
        <ele>1.2000000476837</ele>
        <time>2021-02-04T09:55:37.000Z</time>
      </trkpt>
      <trkpt lat="47.32381" lon="-2.22037">
        <ele>1.2000000476837</ele>
        <time>2021-02-04T09:55:40.000Z</time>
      </trkpt>
      <trkpt lat="47.3238" lon="-2.22021">
        <ele>1.2000000476837</ele>
        <time>2021-02-04T09:55:42.000Z</time>
      </trkpt>
      <trkpt lat="47.3238" lon="-2.22014">
        <ele>1.2000000476837</ele>
        <time>2021-02-04T09:55:43.000Z</time>
      </trkpt>
      <trkpt lat="47.32379" lon="-2.22006">
        <ele>1.2000000476837</ele>
        <time>2021-02-04T09:55:44.000Z</time>
      </trkpt>
      <trkpt lat="47.32376" lon="-2.21976">
        <ele>1.2000000476837</ele>
        <time>2021-02-04T09:55:48.000Z</time>
      </trkpt>
      <trkpt lat="47.32372" lon="-2.2194">
        <ele>1.2000000476837</ele>
        <time>2021-02-04T09:55:53.000Z</time>
      </trkpt>
      <trkpt lat="47.32371" lon="-2.21934">
        <ele>1.2000000476837</ele>
        <time>2021-02-04T09:55:54.000Z</time>
      </trkpt>
      <trkpt lat="47.32366" lon="-2.21922">
        <ele>1.2000000476837</ele>
        <time>2021-02-04T09:55:56.000Z</time>
      </trkpt>
      <trkpt lat="47.32359" lon="-2.21912">
        <ele>1.2000000476837</ele>
        <time>2021-02-04T09:55:58.000Z</time>
      </trkpt>
      <trkpt lat="47.32338" lon="-2.21905">
        <ele>1.2000000476837</ele>
        <time>2021-02-04T09:56:02.000Z</time>
      </trkpt>
      <trkpt lat="47.32322" lon="-2.21908">
        <ele>1.2000000476837</ele>
        <time>2021-02-04T09:56:05.000Z</time>
      </trkpt>
      <trkpt lat="47.32317" lon="-2.21908">
        <ele>1.2000000476837</ele>
        <time>2021-02-04T09:56:06.000Z</time>
      </trkpt>
      <trkpt lat="47.32292" lon="-2.21909">
        <ele>1.2000000476837</ele>
        <time>2021-02-04T09:56:11.000Z</time>
      </trkpt>
      <trkpt lat="47.32287" lon="-2.2191">
        <ele>1.2000000476837</ele>
        <time>2021-02-04T09:56:12.000Z</time>
      </trkpt>
      <trkpt lat="47.32259" lon="-2.21917">
        <ele>1.2000000476837</ele>
        <time>2021-02-04T09:56:18.000Z</time>
      </trkpt>
      <trkpt lat="47.32226" lon="-2.21922">
        <ele>1.2000000476837</ele>
        <time>2021-02-04T09:56:25.000Z</time>
      </trkpt>
      <trkpt lat="47.32191" lon="-2.21927">
        <ele>1.2000000476837</ele>
        <time>2021-02-04T09:56:32.000Z</time>
      </trkpt>
      <trkpt lat="47.32153" lon="-2.21947">
        <ele>1.2000000476837</ele>
        <time>2021-02-04T09:56:39.000Z</time>
      </trkpt>
      <trkpt lat="47.32134" lon="-2.21966">
        <ele>1.2000000476837</ele>
        <time>2021-02-04T09:56:43.000Z</time>
      </trkpt>
      <trkpt lat="47.3213" lon="-2.21972">
        <ele>1.2000000476837</ele>
        <time>2021-02-04T09:56:44.000Z</time>
      </trkpt>
      <trkpt lat="47.32097" lon="-2.22019">
        <ele>1.2000000476837</ele>
        <time>2021-02-04T09:56:52.000Z</time>
      </trkpt>
      <trkpt lat="47.32065" lon="-2.22057">
        <ele>1.2000000476837</ele>
        <time>2021-02-04T09:56:59.000Z</time>
      </trkpt>
      <trkpt lat="47.32028" lon="-2.22081">
        <ele>1.2000000476837</ele>
        <time>2021-02-04T09:57:06.000Z</time>
      </trkpt>
      <trkpt lat="47.31995" lon="-2.22097">
        <ele>1.2000000476837</ele>
        <time>2021-02-04T09:57:12.000Z</time>
      </trkpt>
      <trkpt lat="47.31958" lon="-2.22119">
        <ele>1.2000000476837</ele>
        <time>2021-02-04T09:57:19.000Z</time>
      </trkpt>
      <trkpt lat="47.31918" lon="-2.22149">
        <ele>1.2000000476837</ele>
        <time>2021-02-04T09:57:27.000Z</time>
      </trkpt>
      <trkpt lat="47.31889" lon="-2.22174">
        <ele>1.2000000476837</ele>
        <time>2021-02-04T09:57:33.000Z</time>
      </trkpt>
      <trkpt lat="47.31884" lon="-2.22176">
        <ele>1.2000000476837</ele>
        <time>2021-02-04T09:57:34.000Z</time>
      </trkpt>
      <trkpt lat="47.31869" lon="-2.22183">
        <ele>1.2000000476837</ele>
        <time>2021-02-04T09:57:37.000Z</time>
      </trkpt>
      <trkpt lat="47.3186" lon="-2.22186">
        <ele>1.2000000476837</ele>
        <time>2021-02-04T09:57:39.000Z</time>
      </trkpt>
      <trkpt lat="47.31854" lon="-2.22186">
        <ele>1.2000000476837</ele>
        <time>2021-02-04T09:57:40.000Z</time>
      </trkpt>
      <trkpt lat="47.31848" lon="-2.22186">
        <ele>1.6000000238419</ele>
        <time>2021-02-04T09:57:41.000Z</time>
      </trkpt>
      <trkpt lat="47.31843" lon="-2.22186">
        <ele>2</ele>
        <time>2021-02-04T09:57:42.000Z</time>
      </trkpt>
      <trkpt lat="47.31837" lon="-2.22185">
        <ele>2.4000000953674</ele>
        <time>2021-02-04T09:57:43.000Z</time>
      </trkpt>
      <trkpt lat="47.31832" lon="-2.22185">
        <ele>2.7999999523163</ele>
        <time>2021-02-04T09:57:44.000Z</time>
      </trkpt>
      <trkpt lat="47.31827" lon="-2.22184">
        <ele>3.2000000476837</ele>
        <time>2021-02-04T09:57:45.000Z</time>
      </trkpt>
      <trkpt lat="47.31816" lon="-2.22183">
        <ele>3.2000000476837</ele>
        <time>2021-02-04T09:57:47.000Z</time>
      </trkpt>
      <trkpt lat="47.31768" lon="-2.22181">
        <ele>3.2000000476837</ele>
        <time>2021-02-04T09:57:56.000Z</time>
      </trkpt>
      <trkpt lat="47.31763" lon="-2.22178">
        <ele>3.2000000476837</ele>
        <time>2021-02-04T09:57:57.000Z</time>
      </trkpt>
      <trkpt lat="47.31753" lon="-2.2216">
        <ele>3.2000000476837</ele>
        <time>2021-02-04T09:58:00.000Z</time>
      </trkpt>
      <trkpt lat="47.31749" lon="-2.22144">
        <ele>3.2000000476837</ele>
        <time>2021-02-04T09:58:02.000Z</time>
      </trkpt>
      <trkpt lat="47.31741" lon="-2.22114">
        <ele>3.2000000476837</ele>
        <time>2021-02-04T09:58:06.000Z</time>
      </trkpt>
      <trkpt lat="47.31728" lon="-2.2206">
        <ele>3.2000000476837</ele>
        <time>2021-02-04T09:58:13.000Z</time>
      </trkpt>
      <trkpt lat="47.31723" lon="-2.22038">
        <ele>3.2000000476837</ele>
        <time>2021-02-04T09:58:16.000Z</time>
      </trkpt>
      <trkpt lat="47.31717" lon="-2.22016">
        <ele>3.2000000476837</ele>
        <time>2021-02-04T09:58:19.000Z</time>
      </trkpt>
      <trkpt lat="47.31702" lon="-2.21953">
        <ele>3.2000000476837</ele>
        <time>2021-02-04T09:58:28.000Z</time>
      </trkpt>
      <trkpt lat="47.31696" lon="-2.2191">
        <ele>3.2000000476837</ele>
        <time>2021-02-04T09:58:34.000Z</time>
      </trkpt>
      <trkpt lat="47.3169" lon="-2.21847">
        <ele>3.2000000476837</ele>
        <time>2021-02-04T09:58:42.000Z</time>
      </trkpt>
      <trkpt lat="47.31688" lon="-2.21774">
        <ele>3.2000000476837</ele>
        <time>2021-02-04T09:58:51.000Z</time>
      </trkpt>
      <trkpt lat="47.31685" lon="-2.21725">
        <ele>3.2000000476837</ele>
        <time>2021-02-04T09:58:57.000Z</time>
      </trkpt>
      <trkpt lat="47.31682" lon="-2.21693">
        <ele>3.2000000476837</ele>
        <time>2021-02-04T09:59:01.000Z</time>
      </trkpt>
      <trkpt lat="47.3168" lon="-2.21659">
        <ele>3.2000000476837</ele>
        <time>2021-02-04T09:59:05.000Z</time>
      </trkpt>
      <trkpt lat="47.31679" lon="-2.21602">
        <ele>3.2000000476837</ele>
        <time>2021-02-04T09:59:12.000Z</time>
      </trkpt>
      <trkpt lat="47.31684" lon="-2.21547">
        <ele>3.2000000476837</ele>
        <time>2021-02-04T09:59:19.000Z</time>
      </trkpt>
      <trkpt lat="47.31691" lon="-2.21476">
        <ele>3.2000000476837</ele>
        <time>2021-02-04T09:59:28.000Z</time>
      </trkpt>
      <trkpt lat="47.31704" lon="-2.21409">
        <ele>3.2000000476837</ele>
        <time>2021-02-04T09:59:37.000Z</time>
      </trkpt>
      <trkpt lat="47.31715" lon="-2.2138">
        <ele>3.2000000476837</ele>
        <time>2021-02-04T09:59:41.000Z</time>
      </trkpt>
      <trkpt lat="47.31725" lon="-2.21359">
        <ele>3.2000000476837</ele>
        <time>2021-02-04T09:59:44.000Z</time>
      </trkpt>
      <trkpt lat="47.31747" lon="-2.21321">
        <ele>3.2000000476837</ele>
        <time>2021-02-04T09:59:50.000Z</time>
      </trkpt>
      <trkpt lat="47.31759" lon="-2.21303">
        <ele>3.2000000476837</ele>
        <time>2021-02-04T09:59:53.000Z</time>
      </trkpt>
      <trkpt lat="47.31766" lon="-2.21279">
        <ele>3.2000000476837</ele>
        <time>2021-02-04T09:59:56.000Z</time>
      </trkpt>
      <trkpt lat="47.31769" lon="-2.21246">
        <ele>3.2000000476837</ele>
        <time>2021-02-04T10:00:00.000Z</time>
      </trkpt>
      <trkpt lat="47.31769" lon="-2.21237">
        <ele>3.2000000476837</ele>
        <time>2021-02-04T10:00:01.000Z</time>
      </trkpt>
      <trkpt lat="47.31767" lon="-2.21177">
        <ele>3.2000000476837</ele>
        <time>2021-02-04T10:00:08.000Z</time>
      </trkpt>
      <trkpt lat="47.31757" lon="-2.21128">
        <ele>3.2000000476837</ele>
        <time>2021-02-04T10:00:14.000Z</time>
      </trkpt>
      <trkpt lat="47.31739" lon="-2.2108">
        <ele>3.2000000476837</ele>
        <time>2021-02-04T10:00:20.000Z</time>
      </trkpt>
      <trkpt lat="47.31723" lon="-2.21034">
        <ele>3.2000000476837</ele>
        <time>2021-02-04T10:00:26.000Z</time>
      </trkpt>
      <trkpt lat="47.31717" lon="-2.20993">
        <ele>3.2000000476837</ele>
        <time>2021-02-04T10:00:31.000Z</time>
      </trkpt>
      <trkpt lat="47.31716" lon="-2.20984">
        <ele>3.2000000476837</ele>
        <time>2021-02-04T10:00:32.000Z</time>
      </trkpt>
      <trkpt lat="47.31721" lon="-2.20951">
        <ele>3.2000000476837</ele>
        <time>2021-02-04T10:00:36.000Z</time>
      </trkpt>
      <trkpt lat="47.31733" lon="-2.2091">
        <ele>3.2000000476837</ele>
        <time>2021-02-04T10:00:42.000Z</time>
      </trkpt>
      <trkpt lat="47.31734" lon="-2.20904">
        <ele>3.2000000476837</ele>
        <time>2021-02-04T10:00:43.000Z</time>
      </trkpt>
      <trkpt lat="47.3173" lon="-2.20885">
        <ele>3.2000000476837</ele>
        <time>2021-02-04T10:00:46.000Z</time>
      </trkpt>
      <trkpt lat="47.31724" lon="-2.20875">
        <ele>3.2000000476837</ele>
        <time>2021-02-04T10:00:48.000Z</time>
      </trkpt>
      <trkpt lat="47.3172" lon="-2.2087">
        <ele>3.2000000476837</ele>
        <time>2021-02-04T10:00:49.000Z</time>
      </trkpt>
      <trkpt lat="47.3171" lon="-2.20861">
        <ele>3.2000000476837</ele>
        <time>2021-02-04T10:00:51.000Z</time>
      </trkpt>
      <trkpt lat="47.31684" lon="-2.20852">
        <ele>3.2000000476837</ele>
        <time>2021-02-04T10:00:56.000Z</time>
      </trkpt>
      <trkpt lat="47.31638" lon="-2.20846">
        <ele>3.2000000476837</ele>
        <time>2021-02-04T10:01:04.000Z</time>
      </trkpt>
      <trkpt lat="47.31596" lon="-2.20843">
        <ele>3.2000000476837</ele>
        <time>2021-02-04T10:01:11.000Z</time>
      </trkpt>
      <trkpt lat="47.31543" lon="-2.20844">
        <ele>3.2000000476837</ele>
        <time>2021-02-04T10:01:20.000Z</time>
      </trkpt>
      <trkpt lat="47.31502" lon="-2.20856">
        <ele>3.2000000476837</ele>
        <time>2021-02-04T10:01:27.000Z</time>
      </trkpt>
      <trkpt lat="47.3147" lon="-2.20874">
        <ele>3.2000000476837</ele>
        <time>2021-02-04T10:01:33.000Z</time>
      </trkpt>
      <trkpt lat="47.31431" lon="-2.20895">
        <ele>3.2000000476837</ele>
        <time>2021-02-04T10:01:40.000Z</time>
      </trkpt>
      <trkpt lat="47.31393" lon="-2.20915">
        <ele>3.2000000476837</ele>
        <time>2021-02-04T10:01:47.000Z</time>
      </trkpt>
      <trkpt lat="47.31346" lon="-2.20942">
        <ele>3.2000000476837</ele>
        <time>2021-02-04T10:01:56.000Z</time>
      </trkpt>
      <trkpt lat="47.31302" lon="-2.20966">
        <ele>3.2000000476837</ele>
        <time>2021-02-04T10:02:04.000Z</time>
      </trkpt>
      <trkpt lat="47.31254" lon="-2.20993">
        <ele>3.2000000476837</ele>
        <time>2021-02-04T10:02:13.000Z</time>
      </trkpt>
      <trkpt lat="47.3121" lon="-2.21018">
        <ele>3.2000000476837</ele>
        <time>2021-02-04T10:02:21.000Z</time>
      </trkpt>
      <trkpt lat="47.31167" lon="-2.2104">
        <ele>3.2000000476837</ele>
        <time>2021-02-04T10:02:29.000Z</time>
      </trkpt>
      <trkpt lat="47.31144" lon="-2.21046">
        <ele>3.2000000476837</ele>
        <time>2021-02-04T10:02:33.000Z</time>
      </trkpt>
      <trkpt lat="47.31128" lon="-2.21049">
        <ele>3.2000000476837</ele>
        <time>2021-02-04T10:02:36.000Z</time>
      </trkpt>
      <trkpt lat="47.31088" lon="-2.21047">
        <ele>3.2000000476837</ele>
        <time>2021-02-04T10:02:43.000Z</time>
      </trkpt>
      <trkpt lat="47.31047" lon="-2.21041">
        <ele>3.2000000476837</ele>
        <time>2021-02-04T10:02:50.000Z</time>
      </trkpt>
      <trkpt lat="47.31007" lon="-2.21035">
        <ele>3.2000000476837</ele>
        <time>2021-02-04T10:02:57.000Z</time>
      </trkpt>
      <trkpt lat="47.30962" lon="-2.2103">
        <ele>3.2000000476837</ele>
        <time>2021-02-04T10:03:05.000Z</time>
      </trkpt>
      <trkpt lat="47.30922" lon="-2.21018">
        <ele>3.2000000476837</ele>
        <time>2021-02-04T10:03:12.000Z</time>
      </trkpt>
      <trkpt lat="47.30917" lon="-2.21015">
        <ele>3.2000000476837</ele>
        <time>2021-02-04T10:03:13.000Z</time>
      </trkpt>
      <trkpt lat="47.30896" lon="-2.20996">
        <ele>3.2000000476837</ele>
        <time>2021-02-04T10:03:17.000Z</time>
      </trkpt>
      <trkpt lat="47.30892" lon="-2.20991">
        <ele>3.2000000476837</ele>
        <time>2021-02-04T10:03:18.000Z</time>
      </trkpt>
      <trkpt lat="47.30875" lon="-2.20966">
        <ele>3.2000000476837</ele>
        <time>2021-02-04T10:03:22.000Z</time>
      </trkpt>
      <trkpt lat="47.30843" lon="-2.20911">
        <ele>3.2000000476837</ele>
        <time>2021-02-04T10:03:30.000Z</time>
      </trkpt>
      <trkpt lat="47.30816" lon="-2.20863">
        <ele>3.2000000476837</ele>
        <time>2021-02-04T10:03:37.000Z</time>
      </trkpt>
      <trkpt lat="47.30787" lon="-2.20813">
        <ele>3.2000000476837</ele>
        <time>2021-02-04T10:03:45.000Z</time>
      </trkpt>
      <trkpt lat="47.3076" lon="-2.20774">
        <ele>3.2000000476837</ele>
        <time>2021-02-04T10:03:52.000Z</time>
      </trkpt>
      <trkpt lat="47.30754" lon="-2.20771">
        <ele>3.2000000476837</ele>
        <time>2021-02-04T10:03:53.000Z</time>
      </trkpt>
      <trkpt lat="47.30733" lon="-2.20772">
        <ele>3.2000000476837</ele>
        <time>2021-02-04T10:03:57.000Z</time>
      </trkpt>
      <trkpt lat="47.30714" lon="-2.20794">
        <ele>3.2000000476837</ele>
        <time>2021-02-04T10:04:01.000Z</time>
      </trkpt>
      <trkpt lat="47.30707" lon="-2.20809">
        <ele>3.2000000476837</ele>
        <time>2021-02-04T10:04:03.000Z</time>
      </trkpt>
      <trkpt lat="47.30694" lon="-2.20839">
        <ele>3.2000000476837</ele>
        <time>2021-02-04T10:04:07.000Z</time>
      </trkpt>
      <trkpt lat="47.30666" lon="-2.20884">
        <ele>3.2000000476837</ele>
        <time>2021-02-04T10:04:14.000Z</time>
      </trkpt>
      <trkpt lat="47.30642" lon="-2.2092">
        <ele>3.2000000476837</ele>
        <time>2021-02-04T10:04:20.000Z</time>
      </trkpt>
      <trkpt lat="47.30616" lon="-2.2095">
        <ele>3.2000000476837</ele>
        <time>2021-02-04T10:04:26.000Z</time>
      </trkpt>
      <trkpt lat="47.30576" lon="-2.20994">
        <ele>3.2000000476837</ele>
        <time>2021-02-04T10:04:35.000Z</time>
      </trkpt>
      <trkpt lat="47.30539" lon="-2.21039">
        <ele>3.2000000476837</ele>
        <time>2021-02-04T10:04:43.000Z</time>
      </trkpt>
      <trkpt lat="47.30499" lon="-2.21089">
        <ele>3.2000000476837</ele>
        <time>2021-02-04T10:04:52.000Z</time>
      </trkpt>
      <trkpt lat="47.30475" lon="-2.21126">
        <ele>3.2000000476837</ele>
        <time>2021-02-04T10:04:59.000Z</time>
      </trkpt>
      <trkpt lat="47.30445" lon="-2.21169">
        <ele>3.2000000476837</ele>
        <time>2021-02-04T10:05:06.000Z</time>
      </trkpt>
      <trkpt lat="47.3041" lon="-2.21224">
        <ele>3.2000000476837</ele>
        <time>2021-02-04T10:05:14.000Z</time>
      </trkpt>
      <trkpt lat="47.30372" lon="-2.21283">
        <ele>3.2000000476837</ele>
        <time>2021-02-04T10:05:22.000Z</time>
      </trkpt>
      <trkpt lat="47.30367" lon="-2.21289">
        <ele>3.2000000476837</ele>
        <time>2021-02-04T10:05:23.000Z</time>
      </trkpt>
      <trkpt lat="47.30322" lon="-2.21347">
        <ele>3.2000000476837</ele>
        <time>2021-02-04T10:05:32.000Z</time>
      </trkpt>
      <trkpt lat="47.30282" lon="-2.21398">
        <ele>3.2000000476837</ele>
        <time>2021-02-04T10:05:40.000Z</time>
      </trkpt>
      <trkpt lat="47.30253" lon="-2.21429">
        <ele>3.2000000476837</ele>
        <time>2021-02-04T10:05:46.000Z</time>
      </trkpt>
      <trkpt lat="47.30212" lon="-2.21472">
        <ele>3.2000000476837</ele>
        <time>2021-02-04T10:05:54.000Z</time>
      </trkpt>
      <trkpt lat="47.30169" lon="-2.21511">
        <ele>3.2000000476837</ele>
        <time>2021-02-04T10:06:02.000Z</time>
      </trkpt>
      <trkpt lat="47.3013" lon="-2.21542">
        <ele>3.2000000476837</ele>
        <time>2021-02-04T10:06:09.000Z</time>
      </trkpt>
      <trkpt lat="47.30084" lon="-2.21574">
        <ele>3.2000000476837</ele>
        <time>2021-02-04T10:06:17.000Z</time>
      </trkpt>
      <trkpt lat="47.30032" lon="-2.21608">
        <ele>3.2000000476837</ele>
        <time>2021-02-04T10:06:26.000Z</time>
      </trkpt>
      <trkpt lat="47.30026" lon="-2.21612">
        <ele>3.2000000476837</ele>
        <time>2021-02-04T10:06:27.000Z</time>
      </trkpt>
      <trkpt lat="47.29984" lon="-2.21637">
        <ele>3.2000000476837</ele>
        <time>2021-02-04T10:06:34.000Z</time>
      </trkpt>
      <trkpt lat="47.29931" lon="-2.21669">
        <ele>3.2000000476837</ele>
        <time>2021-02-04T10:06:43.000Z</time>
      </trkpt>
      <trkpt lat="47.2988" lon="-2.21706">
        <ele>3.2000000476837</ele>
        <time>2021-02-04T10:06:52.000Z</time>
      </trkpt>
      <trkpt lat="47.29874" lon="-2.21711">
        <ele>3.2000000476837</ele>
        <time>2021-02-04T10:06:53.000Z</time>
      </trkpt>
      <trkpt lat="47.29865" lon="-2.21723">
        <ele>3.2000000476837</ele>
        <time>2021-02-04T10:06:55.000Z</time>
      </trkpt>
      <trkpt lat="47.29852" lon="-2.21745">
        <ele>3.2000000476837</ele>
        <time>2021-02-04T10:06:58.000Z</time>
      </trkpt>
      <trkpt lat="47.29843" lon="-2.21781">
        <ele>3.2000000476837</ele>
        <time>2021-02-04T10:07:02.000Z</time>
      </trkpt>
      <trkpt lat="47.29843" lon="-2.21829">
        <ele>3.2000000476837</ele>
        <time>2021-02-04T10:07:07.000Z</time>
      </trkpt>
      <trkpt lat="47.29854" lon="-2.21887">
        <ele>3.2000000476837</ele>
        <time>2021-02-04T10:07:13.000Z</time>
      </trkpt>
      <trkpt lat="47.29871" lon="-2.2196">
        <ele>3.2000000476837</ele>
        <time>2021-02-04T10:07:21.000Z</time>
      </trkpt>
      <trkpt lat="47.29872" lon="-2.21979">
        <ele>3.2000000476837</ele>
        <time>2021-02-04T10:07:23.000Z</time>
      </trkpt>
      <trkpt lat="47.29869" lon="-2.21997">
        <ele>3.2000000476837</ele>
        <time>2021-02-04T10:07:25.000Z</time>
      </trkpt>
      <trkpt lat="47.29856" lon="-2.22014">
        <ele>3.2000000476837</ele>
        <time>2021-02-04T10:07:28.000Z</time>
      </trkpt>
      <trkpt lat="47.29839" lon="-2.22019">
        <ele>3.2000000476837</ele>
        <time>2021-02-04T10:07:31.000Z</time>
      </trkpt>
      <trkpt lat="47.29834" lon="-2.22019">
        <ele>3.2000000476837</ele>
        <time>2021-02-04T10:07:32.000Z</time>
      </trkpt>
      <trkpt lat="47.29822" lon="-2.22022">
        <ele>3.2000000476837</ele>
        <time>2021-02-04T10:07:34.000Z</time>
      </trkpt>
      <trkpt lat="47.29812" lon="-2.2203">
        <ele>3.2000000476837</ele>
        <time>2021-02-04T10:07:36.000Z</time>
      </trkpt>
      <trkpt lat="47.29799" lon="-2.22047">
        <ele>3.2000000476837</ele>
        <time>2021-02-04T10:07:39.000Z</time>
      </trkpt>
      <trkpt lat="47.29792" lon="-2.22063">
        <ele>3.2000000476837</ele>
        <time>2021-02-04T10:07:41.000Z</time>
      </trkpt>
      <trkpt lat="47.29787" lon="-2.22078">
        <ele>3.2000000476837</ele>
        <time>2021-02-04T10:07:43.000Z</time>
      </trkpt>
      <trkpt lat="47.29784" lon="-2.22101">
        <ele>3.2000000476837</ele>
        <time>2021-02-04T10:07:46.000Z</time>
      </trkpt>
      <trkpt lat="47.29778" lon="-2.22157">
        <ele>3.2000000476837</ele>
        <time>2021-02-04T10:07:54.000Z</time>
      </trkpt>
      <trkpt lat="47.29774" lon="-2.22217">
        <ele>3.2000000476837</ele>
        <time>2021-02-04T10:08:03.000Z</time>
      </trkpt>
      <trkpt lat="47.29768" lon="-2.2228">
        <ele>3.2000000476837</ele>
        <time>2021-02-04T10:08:12.000Z</time>
      </trkpt>
      <trkpt lat="47.29767" lon="-2.22297">
        <ele>3.2000000476837</ele>
        <time>2021-02-04T10:08:14.000Z</time>
      </trkpt>
      <trkpt lat="47.29764" lon="-2.22341">
        <ele>3.2000000476837</ele>
        <time>2021-02-04T10:08:19.000Z</time>
      </trkpt>
      <trkpt lat="47.29758" lon="-2.22416">
        <ele>3.2000000476837</ele>
        <time>2021-02-04T10:08:27.000Z</time>
      </trkpt>
      <trkpt lat="47.29752" lon="-2.22495">
        <ele>3.2000000476837</ele>
        <time>2021-02-04T10:08:35.000Z</time>
      </trkpt>
      <trkpt lat="47.29746" lon="-2.22563">
        <ele>3.2000000476837</ele>
        <time>2021-02-04T10:08:42.000Z</time>
      </trkpt>
      <trkpt lat="47.29739" lon="-2.22646">
        <ele>3.2000000476837</ele>
        <time>2021-02-04T10:08:51.000Z</time>
      </trkpt>
      <trkpt lat="47.29738" lon="-2.22655">
        <ele>3.2000000476837</ele>
        <time>2021-02-04T10:08:52.000Z</time>
      </trkpt>
      <trkpt lat="47.29731" lon="-2.22742">
        <ele>3.2000000476837</ele>
        <time>2021-02-04T10:09:01.000Z</time>
      </trkpt>
      <trkpt lat="47.29724" lon="-2.22821">
        <ele>3.2000000476837</ele>
        <time>2021-02-04T10:09:09.000Z</time>
      </trkpt>
      <trkpt lat="47.29718" lon="-2.22901">
        <ele>3.2000000476837</ele>
        <time>2021-02-04T10:09:17.000Z</time>
      </trkpt>
      <trkpt lat="47.29711" lon="-2.22986">
        <ele>3.2000000476837</ele>
        <time>2021-02-04T10:09:25.000Z</time>
      </trkpt>
      <trkpt lat="47.29705" lon="-2.23065">
        <ele>3.2000000476837</ele>
        <time>2021-02-04T10:09:32.000Z</time>
      </trkpt>
      <trkpt lat="47.29698" lon="-2.23145">
        <ele>3.2000000476837</ele>
        <time>2021-02-04T10:09:39.000Z</time>
      </trkpt>
      <trkpt lat="47.29696" lon="-2.23179">
        <ele>3.2000000476837</ele>
        <time>2021-02-04T10:09:42.000Z</time>
      </trkpt>
      <trkpt lat="47.29687" lon="-2.23265">
        <ele>3.2000000476837</ele>
        <time>2021-02-04T10:09:50.000Z</time>
      </trkpt>
      <trkpt lat="47.29686" lon="-2.23275">
        <ele>3.2000000476837</ele>
        <time>2021-02-04T10:09:51.000Z</time>
      </trkpt>
      <trkpt lat="47.29678" lon="-2.23364">
        <ele>3.2000000476837</ele>
        <time>2021-02-04T10:09:59.000Z</time>
      </trkpt>
      <trkpt lat="47.29673" lon="-2.23437">
        <ele>3.2000000476837</ele>
        <time>2021-02-04T10:10:06.000Z</time>
      </trkpt>
      <trkpt lat="47.29666" lon="-2.23521">
        <ele>3.2000000476837</ele>
        <time>2021-02-04T10:10:14.000Z</time>
      </trkpt>
      <trkpt lat="47.29664" lon="-2.23542">
        <ele>3.2000000476837</ele>
        <time>2021-02-04T10:10:16.000Z</time>
      </trkpt>
      <trkpt lat="47.29658" lon="-2.23609">
        <ele>3.2000000476837</ele>
        <time>2021-02-04T10:10:23.000Z</time>
      </trkpt>
      <trkpt lat="47.29654" lon="-2.23645">
        <ele>3.2000000476837</ele>
        <time>2021-02-04T10:10:28.000Z</time>
      </trkpt>
      <trkpt lat="47.29649" lon="-2.23658">
        <ele>3.2000000476837</ele>
        <time>2021-02-04T10:10:30.000Z</time>
      </trkpt>
      <trkpt lat="47.29644" lon="-2.23661">
        <ele>3.2000000476837</ele>
        <time>2021-02-04T10:10:31.000Z</time>
      </trkpt>
      <trkpt lat="47.29629" lon="-2.23661">
        <ele>3.2000000476837</ele>
        <time>2021-02-04T10:10:34.000Z</time>
      </trkpt>
      <trkpt lat="47.29624" lon="-2.2366">
        <ele>3.2000000476837</ele>
        <time>2021-02-04T10:10:35.000Z</time>
      </trkpt>
      <trkpt lat="47.29592" lon="-2.23654">
        <ele>3.2000000476837</ele>
        <time>2021-02-04T10:10:41.000Z</time>
      </trkpt>
      <trkpt lat="47.29586" lon="-2.23653">
        <ele>3.5999999046326</ele>
        <time>2021-02-04T10:10:42.000Z</time>
      </trkpt>
      <trkpt lat="47.2958" lon="-2.23653">
        <ele>4.1999998092651</ele>
        <time>2021-02-04T10:10:43.000Z</time>
      </trkpt>
      <trkpt lat="47.29574" lon="-2.23651">
        <ele>5</ele>
        <time>2021-02-04T10:10:44.000Z</time>
      </trkpt>
      <trkpt lat="47.29568" lon="-2.2365">
        <ele>5.4000000953674</ele>
        <time>2021-02-04T10:10:45.000Z</time>
      </trkpt>
      <trkpt lat="47.29557" lon="-2.23649">
        <ele>5.4000000953674</ele>
        <time>2021-02-04T10:10:47.000Z</time>
      </trkpt>
      <trkpt lat="47.29545" lon="-2.23647">
        <ele>5.8000001907349</ele>
        <time>2021-02-04T10:10:49.000Z</time>
      </trkpt>
      <trkpt lat="47.29538" lon="-2.23647">
        <ele>6.1999998092651</ele>
        <time>2021-02-04T10:10:50.000Z</time>
      </trkpt>
      <trkpt lat="47.29532" lon="-2.23647">
        <ele>6.5999999046326</ele>
        <time>2021-02-04T10:10:51.000Z</time>
      </trkpt>
      <trkpt lat="47.29527" lon="-2.23648">
        <ele>7</ele>
        <time>2021-02-04T10:10:52.000Z</time>
      </trkpt>
      <trkpt lat="47.29521" lon="-2.23649">
        <ele>7.4000000953674</ele>
        <time>2021-02-04T10:10:53.000Z</time>
      </trkpt>
      <trkpt lat="47.29515" lon="-2.23651">
        <ele>7.4000000953674</ele>
        <time>2021-02-04T10:10:54.000Z</time>
      </trkpt>
      <trkpt lat="47.29488" lon="-2.23664">
        <ele>7.4000000953674</ele>
        <time>2021-02-04T10:10:59.000Z</time>
      </trkpt>
      <trkpt lat="47.29483" lon="-2.23667">
        <ele>7.8000001907349</ele>
        <time>2021-02-04T10:11:00.000Z</time>
      </trkpt>
      <trkpt lat="47.29479" lon="-2.23669">
        <ele>8.1999998092651</ele>
        <time>2021-02-04T10:11:01.000Z</time>
      </trkpt>
      <trkpt lat="47.29475" lon="-2.23671">
        <ele>8.6000003814697</ele>
        <time>2021-02-04T10:11:02.000Z</time>
      </trkpt>
      <trkpt lat="47.29471" lon="-2.23674">
        <ele>9.1999998092651</ele>
        <time>2021-02-04T10:11:03.000Z</time>
      </trkpt>
      <trkpt lat="47.29467" lon="-2.23676">
        <ele>9.6000003814697</ele>
        <time>2021-02-04T10:11:04.000Z</time>
      </trkpt>
      <trkpt lat="47.2944" lon="-2.23693">
        <ele>9.6000003814697</ele>
        <time>2021-02-04T10:11:10.000Z</time>
      </trkpt>
      <trkpt lat="47.29435" lon="-2.23695">
        <ele>9.6000003814697</ele>
        <time>2021-02-04T10:11:11.000Z</time>
      </trkpt>
      <trkpt lat="47.29411" lon="-2.23702">
        <ele>9.6000003814697</ele>
        <time>2021-02-04T10:11:15.000Z</time>
      </trkpt>
      <trkpt lat="47.29404" lon="-2.23704">
        <ele>9.1999998092651</ele>
        <time>2021-02-04T10:11:16.000Z</time>
      </trkpt>
      <trkpt lat="47.29397" lon="-2.23706">
        <ele>8.8000001907349</ele>
        <time>2021-02-04T10:11:17.000Z</time>
      </trkpt>
      <trkpt lat="47.2939" lon="-2.2371">
        <ele>8.3999996185303</ele>
        <time>2021-02-04T10:11:18.000Z</time>
      </trkpt>
      <trkpt lat="47.29384" lon="-2.23716">
        <ele>8</ele>
        <time>2021-02-04T10:11:19.000Z</time>
      </trkpt>
      <trkpt lat="47.29379" lon="-2.23724">
        <ele>7.5999999046326</ele>
        <time>2021-02-04T10:11:20.000Z</time>
      </trkpt>
      <trkpt lat="47.29373" lon="-2.23743">
        <ele>7.1999998092651</ele>
        <time>2021-02-04T10:11:22.000Z</time>
      </trkpt>
      <trkpt lat="47.29371" lon="-2.23753">
        <ele>6.8000001907349</ele>
        <time>2021-02-04T10:11:23.000Z</time>
      </trkpt>
      <trkpt lat="47.2937" lon="-2.23763">
        <ele>6.4000000953674</ele>
        <time>2021-02-04T10:11:24.000Z</time>
      </trkpt>
      <trkpt lat="47.29369" lon="-2.23772">
        <ele>5.8000001907349</ele>
        <time>2021-02-04T10:11:25.000Z</time>
      </trkpt>
      <trkpt lat="47.29369" lon="-2.23781">
        <ele>5.4000000953674</ele>
        <time>2021-02-04T10:11:26.000Z</time>
      </trkpt>
      <trkpt lat="47.29367" lon="-2.23789">
        <ele>5.4000000953674</ele>
        <time>2021-02-04T10:11:27.000Z</time>
      </trkpt>
      <trkpt lat="47.29354" lon="-2.23798">
        <ele>5.4000000953674</ele>
        <time>2021-02-04T10:11:30.000Z</time>
      </trkpt>
      <trkpt lat="47.29341" lon="-2.23788">
        <ele>5.4000000953674</ele>
        <time>2021-02-04T10:11:33.000Z</time>
      </trkpt>
      <trkpt lat="47.29333" lon="-2.23781">
        <ele>5</ele>
        <time>2021-02-04T10:11:35.000Z</time>
      </trkpt>
      <trkpt lat="47.29328" lon="-2.23779">
        <ele>4.5999999046326</ele>
        <time>2021-02-04T10:11:36.000Z</time>
      </trkpt>
      <trkpt lat="47.29324" lon="-2.23777">
        <ele>4.1999998092651</ele>
        <time>2021-02-04T10:11:37.000Z</time>
      </trkpt>
      <trkpt lat="47.2932" lon="-2.23777">
        <ele>3.7999999523163</ele>
        <time>2021-02-04T10:11:38.000Z</time>
      </trkpt>
      <trkpt lat="47.29317" lon="-2.23777">
        <ele>3.4000000953674</ele>
        <time>2021-02-04T10:11:39.000Z</time>
      </trkpt>
      <trkpt lat="47.29312" lon="-2.23775">
        <ele>3.4000000953674</ele>
        <time>2021-02-04T10:11:42.000Z</time>
      </trkpt>
      <trkpt lat="47.29307" lon="-2.2377">
        <ele>3.4000000953674</ele>
        <time>2021-02-04T10:11:45.000Z</time>
      </trkpt>
      <trkpt lat="47.29308" lon="-2.2376">
        <ele>3.4000000953674</ele>
        <time>2021-02-04T10:11:47.000Z</time>
      </trkpt>
      <trkpt lat="47.29307" lon="-2.23749">
        <ele>3.4000000953674</ele>
        <time>2021-02-04T10:11:49.000Z</time>
      </trkpt>
      <trkpt lat="47.29307" lon="-2.23727">
        <ele>3.4000000953674</ele>
        <time>2021-02-04T10:11:52.000Z</time>
      </trkpt>
      <trkpt lat="47.29308" lon="-2.23684">
        <ele>3.4000000953674</ele>
        <time>2021-02-04T10:11:57.000Z</time>
      </trkpt>
      <trkpt lat="47.29308" lon="-2.23641">
        <ele>3.4000000953674</ele>
        <time>2021-02-04T10:12:03.000Z</time>
      </trkpt>
      <trkpt lat="47.29308" lon="-2.23584">
        <ele>3.4000000953674</ele>
        <time>2021-02-04T10:12:11.000Z</time>
      </trkpt>
      <trkpt lat="47.29303" lon="-2.23529">
        <ele>3.4000000953674</ele>
        <time>2021-02-04T10:12:18.000Z</time>
      </trkpt>
      <trkpt lat="47.29295" lon="-2.23489">
        <ele>3.4000000953674</ele>
        <time>2021-02-04T10:12:24.000Z</time>
      </trkpt>
      <trkpt lat="47.29286" lon="-2.23447">
        <ele>3.4000000953674</ele>
        <time>2021-02-04T10:12:30.000Z</time>
      </trkpt>
      <trkpt lat="47.29274" lon="-2.23391">
        <ele>3.4000000953674</ele>
        <time>2021-02-04T10:12:37.000Z</time>
      </trkpt>
      <trkpt lat="47.29261" lon="-2.23326">
        <ele>3.4000000953674</ele>
        <time>2021-02-04T10:12:45.000Z</time>
      </trkpt>
      <trkpt lat="47.29247" lon="-2.23291">
        <ele>3.4000000953674</ele>
        <time>2021-02-04T10:12:50.000Z</time>
      </trkpt>
      <trkpt lat="47.29222" lon="-2.23257">
        <ele>3.4000000953674</ele>
        <time>2021-02-04T10:12:56.000Z</time>
      </trkpt>
      <trkpt lat="47.29204" lon="-2.23233">
        <ele>3.4000000953674</ele>
        <time>2021-02-04T10:13:01.000Z</time>
      </trkpt>
      <trkpt lat="47.29198" lon="-2.23224">
        <ele>3.4000000953674</ele>
        <time>2021-02-04T10:13:03.000Z</time>
      </trkpt>
      <trkpt lat="47.29183" lon="-2.23202">
        <ele>3.4000000953674</ele>
        <time>2021-02-04T10:13:08.000Z</time>
      </trkpt>
      <trkpt lat="47.29182" lon="-2.23196">
        <ele>3.4000000953674</ele>
        <time>2021-02-04T10:13:09.000Z</time>
      </trkpt>
      <trkpt lat="47.29178" lon="-2.23177">
        <ele>3.4000000953674</ele>
        <time>2021-02-04T10:13:12.000Z</time>
      </trkpt>
      <trkpt lat="47.29172" lon="-2.23165">
        <ele>3.4000000953674</ele>
        <time>2021-02-04T10:13:14.000Z</time>
      </trkpt>
      <trkpt lat="47.29165" lon="-2.23156">
        <ele>3.4000000953674</ele>
        <time>2021-02-04T10:13:16.000Z</time>
      </trkpt>
      <trkpt lat="47.29154" lon="-2.23143">
        <ele>3.4000000953674</ele>
        <time>2021-02-04T10:13:19.000Z</time>
      </trkpt>
      <trkpt lat="47.29124" lon="-2.23107">
        <ele>3.4000000953674</ele>
        <time>2021-02-04T10:13:26.000Z</time>
      </trkpt>
      <trkpt lat="47.29096" lon="-2.23075">
        <ele>3.4000000953674</ele>
        <time>2021-02-04T10:13:33.000Z</time>
      </trkpt>
      <trkpt lat="47.29071" lon="-2.23043">
        <ele>3.4000000953674</ele>
        <time>2021-02-04T10:13:40.000Z</time>
      </trkpt>
      <trkpt lat="47.29047" lon="-2.23014">
        <ele>3.4000000953674</ele>
        <time>2021-02-04T10:13:47.000Z</time>
      </trkpt>
      <trkpt lat="47.2903" lon="-2.23">
        <ele>3.4000000953674</ele>
        <time>2021-02-04T10:13:53.000Z</time>
      </trkpt>
      <trkpt lat="47.2902" lon="-2.22993">
        <ele>3.4000000953674</ele>
        <time>2021-02-04T10:13:56.000Z</time>
      </trkpt>
      <trkpt lat="47.29019" lon="-2.22988">
        <ele>3.4000000953674</ele>
        <time>2021-02-04T10:13:57.000Z</time>
      </trkpt>
      <trkpt lat="47.29002" lon="-2.22976">
        <ele>3.4000000953674</ele>
        <time>2021-02-04T10:14:01.000Z</time>
      </trkpt>
      <trkpt lat="47.28977" lon="-2.22965">
        <ele>3.4000000953674</ele>
        <time>2021-02-04T10:14:06.000Z</time>
      </trkpt>
      <trkpt lat="47.28923" lon="-2.22933">
        <ele>3.4000000953674</ele>
        <time>2021-02-04T10:14:16.000Z</time>
      </trkpt>
      <trkpt lat="47.28876" lon="-2.22905">
        <ele>3.4000000953674</ele>
        <time>2021-02-04T10:14:25.000Z</time>
      </trkpt>
      <trkpt lat="47.28837" lon="-2.22883">
        <ele>3.4000000953674</ele>
        <time>2021-02-04T10:14:33.000Z</time>
      </trkpt>
      <trkpt lat="47.28794" lon="-2.22867">
        <ele>3.4000000953674</ele>
        <time>2021-02-04T10:14:41.000Z</time>
      </trkpt>
      <trkpt lat="47.28763" lon="-2.22872">
        <ele>3.4000000953674</ele>
        <time>2021-02-04T10:14:47.000Z</time>
      </trkpt>
      <trkpt lat="47.28721" lon="-2.22888">
        <ele>3.4000000953674</ele>
        <time>2021-02-04T10:14:55.000Z</time>
      </trkpt>
      <trkpt lat="47.287" lon="-2.22902">
        <ele>3.4000000953674</ele>
        <time>2021-02-04T10:15:01.000Z</time>
      </trkpt>
      <trkpt lat="47.28694" lon="-2.22905">
        <ele>3.4000000953674</ele>
        <time>2021-02-04T10:15:06.000Z</time>
      </trkpt>
      <trkpt lat="47.28687" lon="-2.22912">
        <ele>3.4000000953674</ele>
        <time>2021-02-04T10:15:12.000Z</time>
      </trkpt>
      <trkpt lat="47.28688" lon="-2.22919">
        <ele>3.4000000953674</ele>
        <time>2021-02-04T10:15:17.000Z</time>
      </trkpt>
      <trkpt lat="47.28689" lon="-2.22922">
        <ele>3.4000000953674</ele>
        <time>2021-02-04T10:15:18.000Z</time>
      </trkpt>
      <trkpt lat="47.28694" lon="-2.22943">
        <ele>3.4000000953674</ele>
        <time>2021-02-04T10:15:22.000Z</time>
      </trkpt>
      <trkpt lat="47.28692" lon="-2.22967">
        <ele>3.4000000953674</ele>
        <time>2021-02-04T10:15:27.000Z</time>
      </trkpt>
      <trkpt lat="47.28692" lon="-2.22997">
        <ele>3.4000000953674</ele>
        <time>2021-02-04T10:15:32.000Z</time>
      </trkpt>
      <trkpt lat="47.28686" lon="-2.23025">
        <ele>3.4000000953674</ele>
        <time>2021-02-04T10:15:37.000Z</time>
      </trkpt>
      <trkpt lat="47.28676" lon="-2.23044">
        <ele>3.4000000953674</ele>
        <time>2021-02-04T10:15:43.000Z</time>
      </trkpt>
      <trkpt lat="47.28663" lon="-2.23067">
        <ele>3.4000000953674</ele>
        <time>2021-02-04T10:15:48.000Z</time>
      </trkpt>
      <trkpt lat="47.2864" lon="-2.23091">
        <ele>3.4000000953674</ele>
        <time>2021-02-04T10:15:53.000Z</time>
      </trkpt>
      <trkpt lat="47.28628" lon="-2.23108">
        <ele>3.4000000953674</ele>
        <time>2021-02-04T10:15:56.000Z</time>
      </trkpt>
      <trkpt lat="47.28622" lon="-2.23123">
        <ele>3.4000000953674</ele>
        <time>2021-02-04T10:15:58.000Z</time>
      </trkpt>
      <trkpt lat="47.28609" lon="-2.23172">
        <ele>3.4000000953674</ele>
        <time>2021-02-04T10:16:05.000Z</time>
      </trkpt>
      <trkpt lat="47.28602" lon="-2.23204">
        <ele>3.4000000953674</ele>
        <time>2021-02-04T10:16:11.000Z</time>
      </trkpt>
      <trkpt lat="47.28592" lon="-2.23248">
        <ele>3.4000000953674</ele>
        <time>2021-02-04T10:16:18.000Z</time>
      </trkpt>
      <trkpt lat="47.28588" lon="-2.23278">
        <ele>3.4000000953674</ele>
        <time>2021-02-04T10:16:23.000Z</time>
      </trkpt>
      <trkpt lat="47.28587" lon="-2.23323">
        <ele>3.4000000953674</ele>
        <time>2021-02-04T10:16:30.000Z</time>
      </trkpt>
      <trkpt lat="47.28584" lon="-2.23363">
        <ele>3.4000000953674</ele>
        <time>2021-02-04T10:16:36.000Z</time>
      </trkpt>
      <trkpt lat="47.28581" lon="-2.23387">
        <ele>3.4000000953674</ele>
        <time>2021-02-04T10:16:40.000Z</time>
      </trkpt>
      <trkpt lat="47.28579" lon="-2.234">
        <ele>3.4000000953674</ele>
        <time>2021-02-04T10:16:42.000Z</time>
      </trkpt>
      <trkpt lat="47.28577" lon="-2.23419">
        <ele>3.4000000953674</ele>
        <time>2021-02-04T10:16:46.000Z</time>
      </trkpt>
      <trkpt lat="47.28577" lon="-2.23438">
        <ele>3.4000000953674</ele>
        <time>2021-02-04T10:16:52.000Z</time>
      </trkpt>
      <trkpt lat="47.28574" lon="-2.23446">
        <ele>3.4000000953674</ele>
        <time>2021-02-04T10:16:55.000Z</time>
      </trkpt>
      <trkpt lat="47.28565" lon="-2.23458">
        <ele>3.4000000953674</ele>
        <time>2021-02-04T10:17:00.000Z</time>
      </trkpt>
      <trkpt lat="47.28566" lon="-2.23469">
        <ele>3.4000000953674</ele>
        <time>2021-02-04T10:17:03.000Z</time>
      </trkpt>
      <trkpt lat="47.28567" lon="-2.23514">
        <ele>3.4000000953674</ele>
        <time>2021-02-04T10:17:10.000Z</time>
      </trkpt>
      <trkpt lat="47.28569" lon="-2.23532">
        <ele>3.4000000953674</ele>
        <time>2021-02-04T10:17:13.000Z</time>
      </trkpt>
      <trkpt lat="47.28573" lon="-2.23546">
        <ele>3.4000000953674</ele>
        <time>2021-02-04T10:17:15.000Z</time>
      </trkpt>
      <trkpt lat="47.28576" lon="-2.23552">
        <ele>3.4000000953674</ele>
        <time>2021-02-04T10:17:16.000Z</time>
      </trkpt>
      <trkpt lat="47.28585" lon="-2.23568">
        <ele>3.4000000953674</ele>
        <time>2021-02-04T10:17:19.000Z</time>
      </trkpt>
      <trkpt lat="47.28594" lon="-2.23576">
        <ele>3.4000000953674</ele>
        <time>2021-02-04T10:17:21.000Z</time>
      </trkpt>
      <trkpt lat="47.28605" lon="-2.23574">
        <ele>3.4000000953674</ele>
        <time>2021-02-04T10:17:23.000Z</time>
      </trkpt>
      <trkpt lat="47.2862" lon="-2.2357">
        <ele>3.4000000953674</ele>
        <time>2021-02-04T10:17:28.000Z</time>
      </trkpt>
      <trkpt lat="47.28628" lon="-2.2357">
        <ele>3.4000000953674</ele>
        <time>2021-02-04T10:17:33.000Z</time>
      </trkpt>
      <trkpt lat="47.28639" lon="-2.23571">
        <ele>3.4000000953674</ele>
        <time>2021-02-04T10:17:39.000Z</time>
      </trkpt>
      <trkpt lat="47.2865" lon="-2.2358">
        <ele>3.4000000953674</ele>
        <time>2021-02-04T10:17:45.000Z</time>
      </trkpt>
      <trkpt lat="47.28652" lon="-2.23583">
        <ele>3.4000000953674</ele>
        <time>2021-02-04T10:17:47.000Z</time>
      </trkpt>
      <trkpt lat="47.28656" lon="-2.23585">
        <ele>3.4000000953674</ele>
        <time>2021-02-04T10:17:50.000Z</time>
      </trkpt>
      <trkpt lat="47.28661" lon="-2.23592">
        <ele>3.4000000953674</ele>
        <time>2021-02-04T10:17:56.000Z</time>
      </trkpt>
      <trkpt lat="47.28661" lon="-2.23594">
        <ele>3.4000000953674</ele>
        <time>2021-02-04T10:17:58.000Z</time>
      </trkpt>
      <trkpt lat="47.28664" lon="-2.23595">
        <ele>3.4000000953674</ele>
        <time>2021-02-04T10:18:46.000Z</time>
      </trkpt>
      <trkpt lat="47.28666" lon="-2.23597">
        <ele>3.4000000953674</ele>
        <time>2021-02-04T10:18:47.000Z</time>
      </trkpt>
      <trkpt lat="47.28672" lon="-2.23606">
        <ele>3.4000000953674</ele>
        <time>2021-02-04T10:18:51.000Z</time>
      </trkpt>
      <trkpt lat="47.28676" lon="-2.23615">
        <ele>3.4000000953674</ele>
        <time>2021-02-04T10:18:53.000Z</time>
      </trkpt>
      <trkpt lat="47.28691" lon="-2.23642">
        <ele>3.4000000953674</ele>
        <time>2021-02-04T10:18:58.000Z</time>
      </trkpt>
      <trkpt lat="47.28707" lon="-2.23672">
        <ele>3.4000000953674</ele>
        <time>2021-02-04T10:19:03.000Z</time>
      </trkpt>
      <trkpt lat="47.28731" lon="-2.23712">
        <ele>3.4000000953674</ele>
        <time>2021-02-04T10:19:10.000Z</time>
      </trkpt>
      <trkpt lat="47.28738" lon="-2.23724">
        <ele>3.4000000953674</ele>
        <time>2021-02-04T10:19:12.000Z</time>
      </trkpt>
      <trkpt lat="47.28749" lon="-2.23742">
        <ele>3.4000000953674</ele>
        <time>2021-02-04T10:19:15.000Z</time>
      </trkpt>
      <trkpt lat="47.28763" lon="-2.23766">
        <ele>3.4000000953674</ele>
        <time>2021-02-04T10:19:19.000Z</time>
      </trkpt>
      <trkpt lat="47.28766" lon="-2.23773">
        <ele>3.4000000953674</ele>
        <time>2021-02-04T10:19:20.000Z</time>
      </trkpt>
      <trkpt lat="47.28786" lon="-2.2381">
        <ele>3.4000000953674</ele>
        <time>2021-02-04T10:19:25.000Z</time>
      </trkpt>
      <trkpt lat="47.28798" lon="-2.23831">
        <ele>3.7999999523163</ele>
        <time>2021-02-04T10:19:28.000Z</time>
      </trkpt>
      <trkpt lat="47.28801" lon="-2.23839">
        <ele>4.1999998092651</ele>
        <time>2021-02-04T10:19:29.000Z</time>
      </trkpt>
      <trkpt lat="47.28804" lon="-2.23847">
        <ele>4.5999999046326</ele>
        <time>2021-02-04T10:19:30.000Z</time>
      </trkpt>
      <trkpt lat="47.28807" lon="-2.23855">
        <ele>5</ele>
        <time>2021-02-04T10:19:31.000Z</time>
      </trkpt>
      <trkpt lat="47.28809" lon="-2.23863">
        <ele>5.4000000953674</ele>
        <time>2021-02-04T10:19:32.000Z</time>
      </trkpt>
      <trkpt lat="47.2881" lon="-2.23882">
        <ele>5.4000000953674</ele>
        <time>2021-02-04T10:19:34.000Z</time>
      </trkpt>
      <trkpt lat="47.28809" lon="-2.23891">
        <ele>5.4000000953674</ele>
        <time>2021-02-04T10:19:35.000Z</time>
      </trkpt>
      <trkpt lat="47.28806" lon="-2.23917">
        <ele>5.4000000953674</ele>
        <time>2021-02-04T10:19:38.000Z</time>
      </trkpt>
      <trkpt lat="47.28804" lon="-2.23934">
        <ele>5.4000000953674</ele>
        <time>2021-02-04T10:19:40.000Z</time>
      </trkpt>
      <trkpt lat="47.28797" lon="-2.23991">
        <ele>5.4000000953674</ele>
        <time>2021-02-04T10:19:46.000Z</time>
      </trkpt>
      <trkpt lat="47.2879" lon="-2.24046">
        <ele>5.4000000953674</ele>
        <time>2021-02-04T10:19:52.000Z</time>
      </trkpt>
      <trkpt lat="47.28787" lon="-2.24094">
        <ele>5.4000000953674</ele>
        <time>2021-02-04T10:19:57.000Z</time>
      </trkpt>
      <trkpt lat="47.28786" lon="-2.24148">
        <ele>5.4000000953674</ele>
        <time>2021-02-04T10:20:03.000Z</time>
      </trkpt>
      <trkpt lat="47.28787" lon="-2.24182">
        <ele>5.4000000953674</ele>
        <time>2021-02-04T10:20:07.000Z</time>
      </trkpt>
      <trkpt lat="47.28786" lon="-2.24231">
        <ele>5.4000000953674</ele>
        <time>2021-02-04T10:20:13.000Z</time>
      </trkpt>
      <trkpt lat="47.28784" lon="-2.24252">
        <ele>5.4000000953674</ele>
        <time>2021-02-04T10:20:17.000Z</time>
      </trkpt>
      <trkpt lat="47.28768" lon="-2.24258">
        <ele>5.4000000953674</ele>
        <time>2021-02-04T10:20:21.000Z</time>
      </trkpt>
      <trkpt lat="47.28747" lon="-2.24259">
        <ele>5.4000000953674</ele>
        <time>2021-02-04T10:20:27.000Z</time>
      </trkpt>
      <trkpt lat="47.28729" lon="-2.24258">
        <ele>5.4000000953674</ele>
        <time>2021-02-04T10:20:32.000Z</time>
      </trkpt>
      <trkpt lat="47.287" lon="-2.2426">
        <ele>5.4000000953674</ele>
        <time>2021-02-04T10:20:38.000Z</time>
      </trkpt>
      <trkpt lat="47.28697" lon="-2.24263">
        <ele>5.4000000953674</ele>
        <time>2021-02-04T10:20:39.000Z</time>
      </trkpt>
      <trkpt lat="47.28688" lon="-2.24275">
        <ele>5.4000000953674</ele>
        <time>2021-02-04T10:20:42.000Z</time>
      </trkpt>
      <trkpt lat="47.28686" lon="-2.24281">
        <ele>5.4000000953674</ele>
        <time>2021-02-04T10:20:43.000Z</time>
      </trkpt>
      <trkpt lat="47.2868" lon="-2.24308">
        <ele>5.4000000953674</ele>
        <time>2021-02-04T10:20:47.000Z</time>
      </trkpt>
      <trkpt lat="47.28679" lon="-2.24316">
        <ele>5.8000001907349</ele>
        <time>2021-02-04T10:20:48.000Z</time>
      </trkpt>
      <trkpt lat="47.28677" lon="-2.24324">
        <ele>6.1999998092651</ele>
        <time>2021-02-04T10:20:49.000Z</time>
      </trkpt>
      <trkpt lat="47.28675" lon="-2.24332">
        <ele>6.5999999046326</ele>
        <time>2021-02-04T10:20:50.000Z</time>
      </trkpt>
      <trkpt lat="47.28673" lon="-2.2434">
        <ele>7</ele>
        <time>2021-02-04T10:20:51.000Z</time>
      </trkpt>
      <trkpt lat="47.28671" lon="-2.24348">
        <ele>7.4000000953674</ele>
        <time>2021-02-04T10:20:52.000Z</time>
      </trkpt>
      <trkpt lat="47.28665" lon="-2.24373">
        <ele>7.4000000953674</ele>
        <time>2021-02-04T10:20:55.000Z</time>
      </trkpt>
      <trkpt lat="47.28652" lon="-2.24422">
        <ele>7.4000000953674</ele>
        <time>2021-02-04T10:21:01.000Z</time>
      </trkpt>
      <trkpt lat="47.28635" lon="-2.24484">
        <ele>7.4000000953674</ele>
        <time>2021-02-04T10:21:09.000Z</time>
      </trkpt>
      <trkpt lat="47.28621" lon="-2.24531">
        <ele>7.4000000953674</ele>
        <time>2021-02-04T10:21:16.000Z</time>
      </trkpt>
      <trkpt lat="47.28614" lon="-2.2455">
        <ele>7.4000000953674</ele>
        <time>2021-02-04T10:21:20.000Z</time>
      </trkpt>
      <trkpt lat="47.28607" lon="-2.24581">
        <ele>7.4000000953674</ele>
        <time>2021-02-04T10:21:28.000Z</time>
      </trkpt>
      <trkpt lat="47.28602" lon="-2.24601">
        <ele>7</ele>
        <time>2021-02-04T10:21:34.000Z</time>
      </trkpt>
      <trkpt lat="47.286" lon="-2.24603">
        <ele>6.5999999046326</ele>
        <time>2021-02-04T10:21:35.000Z</time>
      </trkpt>
      <trkpt lat="47.28598" lon="-2.24606">
        <ele>6.1999998092651</ele>
        <time>2021-02-04T10:21:36.000Z</time>
      </trkpt>
      <trkpt lat="47.28595" lon="-2.24608">
        <ele>5.8000001907349</ele>
        <time>2021-02-04T10:21:37.000Z</time>
      </trkpt>
      <trkpt lat="47.28593" lon="-2.2461">
        <ele>5.4000000953674</ele>
        <time>2021-02-04T10:21:38.000Z</time>
      </trkpt>
      <trkpt lat="47.2859" lon="-2.24612">
        <ele>5.4000000953674</ele>
        <time>2021-02-04T10:21:39.000Z</time>
      </trkpt>
      <trkpt lat="47.28584" lon="-2.24621">
        <ele>5.4000000953674</ele>
        <time>2021-02-04T10:21:44.000Z</time>
      </trkpt>
      <trkpt lat="47.28577" lon="-2.2463">
        <ele>5.4000000953674</ele>
        <time>2021-02-04T10:21:48.000Z</time>
      </trkpt>
      <trkpt lat="47.28562" lon="-2.24644">
        <ele>5.4000000953674</ele>
        <time>2021-02-04T10:21:52.000Z</time>
      </trkpt>
      <trkpt lat="47.28535" lon="-2.24663">
        <ele>5.4000000953674</ele>
        <time>2021-02-04T10:21:58.000Z</time>
      </trkpt>
      <trkpt lat="47.28531" lon="-2.24667">
        <ele>5.4000000953674</ele>
        <time>2021-02-04T10:21:59.000Z</time>
      </trkpt>
      <trkpt lat="47.28514" lon="-2.24681">
        <ele>5.4000000953674</ele>
        <time>2021-02-04T10:22:03.000Z</time>
      </trkpt>
      <trkpt lat="47.2851" lon="-2.24685">
        <ele>5.4000000953674</ele>
        <time>2021-02-04T10:22:04.000Z</time>
      </trkpt>
      <trkpt lat="47.28482" lon="-2.24706">
        <ele>5.4000000953674</ele>
        <time>2021-02-04T10:22:10.000Z</time>
      </trkpt>
      <trkpt lat="47.28441" lon="-2.24737">
        <ele>5.4000000953674</ele>
        <time>2021-02-04T10:22:19.000Z</time>
      </trkpt>
      <trkpt lat="47.28429" lon="-2.24745">
        <ele>5.4000000953674</ele>
        <time>2021-02-04T10:22:22.000Z</time>
      </trkpt>
      <trkpt lat="47.28417" lon="-2.24754">
        <ele>5.4000000953674</ele>
        <time>2021-02-04T10:22:25.000Z</time>
      </trkpt>
      <trkpt lat="47.28414" lon="-2.24757">
        <ele>5.4000000953674</ele>
        <time>2021-02-04T10:22:26.000Z</time>
      </trkpt>
      <trkpt lat="47.28404" lon="-2.24763">
        <ele>5.4000000953674</ele>
        <time>2021-02-04T10:22:29.000Z</time>
      </trkpt>
      <trkpt lat="47.28398" lon="-2.24768">
        <ele>5.4000000953674</ele>
        <time>2021-02-04T10:22:33.000Z</time>
      </trkpt>
      <trkpt lat="47.28386" lon="-2.24777">
        <ele>5.4000000953674</ele>
        <time>2021-02-04T10:22:41.000Z</time>
      </trkpt>
      <trkpt lat="47.28385" lon="-2.24794">
        <ele>5.4000000953674</ele>
        <time>2021-02-04T10:22:45.000Z</time>
      </trkpt>
      <trkpt lat="47.28389" lon="-2.24836">
        <ele>5.4000000953674</ele>
        <time>2021-02-04T10:22:53.000Z</time>
      </trkpt>
      <trkpt lat="47.28391" lon="-2.24863">
        <ele>5.4000000953674</ele>
        <time>2021-02-04T10:22:57.000Z</time>
      </trkpt>
      <trkpt lat="47.28391" lon="-2.24877">
        <ele>5.4000000953674</ele>
        <time>2021-02-04T10:22:59.000Z</time>
      </trkpt>
      <trkpt lat="47.28395" lon="-2.24932">
        <ele>5.4000000953674</ele>
        <time>2021-02-04T10:23:06.000Z</time>
      </trkpt>
      <trkpt lat="47.28399" lon="-2.24983">
        <ele>5.8000001907349</ele>
        <time>2021-02-04T10:23:12.000Z</time>
      </trkpt>
      <trkpt lat="47.284" lon="-2.24992">
        <ele>6.4000000953674</ele>
        <time>2021-02-04T10:23:13.000Z</time>
      </trkpt>
      <trkpt lat="47.28401" lon="-2.24999">
        <ele>6.8000001907349</ele>
        <time>2021-02-04T10:23:14.000Z</time>
      </trkpt>
      <trkpt lat="47.28401" lon="-2.25007">
        <ele>7.1999998092651</ele>
        <time>2021-02-04T10:23:15.000Z</time>
      </trkpt>
      <trkpt lat="47.28402" lon="-2.25014">
        <ele>7.5999999046326</ele>
        <time>2021-02-04T10:23:16.000Z</time>
      </trkpt>
      <trkpt lat="47.28403" lon="-2.25028">
        <ele>8.1999998092651</ele>
        <time>2021-02-04T10:23:18.000Z</time>
      </trkpt>
      <trkpt lat="47.28403" lon="-2.25035">
        <ele>8.6000003814697</ele>
        <time>2021-02-04T10:23:19.000Z</time>
      </trkpt>
      <trkpt lat="47.28404" lon="-2.25043">
        <ele>9</ele>
        <time>2021-02-04T10:23:20.000Z</time>
      </trkpt>
      <trkpt lat="47.28405" lon="-2.2505">
        <ele>9.3999996185303</ele>
        <time>2021-02-04T10:23:21.000Z</time>
      </trkpt>
      <trkpt lat="47.28406" lon="-2.25057">
        <ele>9.8000001907349</ele>
        <time>2021-02-04T10:23:22.000Z</time>
      </trkpt>
      <trkpt lat="47.28407" lon="-2.2507">
        <ele>10.39999961853</ele>
        <time>2021-02-04T10:23:24.000Z</time>
      </trkpt>
      <trkpt lat="47.28407" lon="-2.25075">
        <ele>10.800000190735</ele>
        <time>2021-02-04T10:23:25.000Z</time>
      </trkpt>
      <trkpt lat="47.28408" lon="-2.25078">
        <ele>11.199999809265</ele>
        <time>2021-02-04T10:23:26.000Z</time>
      </trkpt>
      <trkpt lat="47.28409" lon="-2.25081">
        <ele>11.800000190735</ele>
        <time>2021-02-04T10:23:27.000Z</time>
      </trkpt>
      <trkpt lat="47.28411" lon="-2.25083">
        <ele>12.199999809265</ele>
        <time>2021-02-04T10:23:28.000Z</time>
      </trkpt>
      <trkpt lat="47.28413" lon="-2.25085">
        <ele>12.199999809265</ele>
        <time>2021-02-04T10:23:29.000Z</time>
      </trkpt>
      <trkpt lat="47.2842" lon="-2.25083">
        <ele>12.199999809265</ele>
        <time>2021-02-04T10:23:32.000Z</time>
      </trkpt>
      <trkpt lat="47.28422" lon="-2.25083">
        <ele>12.60000038147</ele>
        <time>2021-02-04T10:23:33.000Z</time>
      </trkpt>
      <trkpt lat="47.28425" lon="-2.25082">
        <ele>13</ele>
        <time>2021-02-04T10:23:34.000Z</time>
      </trkpt>
      <trkpt lat="47.28428" lon="-2.25083">
        <ele>13.39999961853</ele>
        <time>2021-02-04T10:23:35.000Z</time>
      </trkpt>
      <trkpt lat="47.28432" lon="-2.25086">
        <ele>13.800000190735</ele>
        <time>2021-02-04T10:23:36.000Z</time>
      </trkpt>
      <trkpt lat="47.28435" lon="-2.25089">
        <ele>14.199999809265</ele>
        <time>2021-02-04T10:23:37.000Z</time>
      </trkpt>
      <trkpt lat="47.28436" lon="-2.25102">
        <ele>14.199999809265</ele>
        <time>2021-02-04T10:23:40.000Z</time>
      </trkpt>
      <trkpt lat="47.28434" lon="-2.25124">
        <ele>14.60000038147</ele>
        <time>2021-02-04T10:23:45.000Z</time>
      </trkpt>
      <trkpt lat="47.28433" lon="-2.25128">
        <ele>15.199999809265</ele>
        <time>2021-02-04T10:23:46.000Z</time>
      </trkpt>
      <trkpt lat="47.28432" lon="-2.25133">
        <ele>15.60000038147</ele>
        <time>2021-02-04T10:23:47.000Z</time>
      </trkpt>
      <trkpt lat="47.28431" lon="-2.25138">
        <ele>16</ele>
        <time>2021-02-04T10:23:48.000Z</time>
      </trkpt>
      <trkpt lat="47.2843" lon="-2.25142">
        <ele>16.39999961853</ele>
        <time>2021-02-04T10:23:49.000Z</time>
      </trkpt>
      <trkpt lat="47.28426" lon="-2.25161">
        <ele>16.799999237061</ele>
        <time>2021-02-04T10:23:53.000Z</time>
      </trkpt>
      <trkpt lat="47.28425" lon="-2.25166">
        <ele>17.60000038147</ele>
        <time>2021-02-04T10:23:54.000Z</time>
      </trkpt>
      <trkpt lat="47.28424" lon="-2.25171">
        <ele>18</ele>
        <time>2021-02-04T10:23:55.000Z</time>
      </trkpt>
      <trkpt lat="47.28423" lon="-2.25176">
        <ele>18.39999961853</ele>
        <time>2021-02-04T10:23:56.000Z</time>
      </trkpt>
      <trkpt lat="47.28421" lon="-2.25198">
        <ele>19</ele>
        <time>2021-02-04T10:24:00.000Z</time>
      </trkpt>
      <trkpt lat="47.28421" lon="-2.25203">
        <ele>19.39999961853</ele>
        <time>2021-02-04T10:24:01.000Z</time>
      </trkpt>
      <trkpt lat="47.2842" lon="-2.25208">
        <ele>19.799999237061</ele>
        <time>2021-02-04T10:24:02.000Z</time>
      </trkpt>
      <trkpt lat="47.28419" lon="-2.25213">
        <ele>20.39999961853</ele>
        <time>2021-02-04T10:24:03.000Z</time>
      </trkpt>
      <trkpt lat="47.28419" lon="-2.25218">
        <ele>20.799999237061</ele>
        <time>2021-02-04T10:24:04.000Z</time>
      </trkpt>
      <trkpt lat="47.28417" lon="-2.25227">
        <ele>20.799999237061</ele>
        <time>2021-02-04T10:24:06.000Z</time>
      </trkpt>
      <trkpt lat="47.28417" lon="-2.25232">
        <ele>21.200000762939</ele>
        <time>2021-02-04T10:24:07.000Z</time>
      </trkpt>
      <trkpt lat="47.28416" lon="-2.25237">
        <ele>21.60000038147</ele>
        <time>2021-02-04T10:24:08.000Z</time>
      </trkpt>
      <trkpt lat="47.28415" lon="-2.25241">
        <ele>22</ele>
        <time>2021-02-04T10:24:09.000Z</time>
      </trkpt>
      <trkpt lat="47.28414" lon="-2.25246">
        <ele>22.60000038147</ele>
        <time>2021-02-04T10:24:10.000Z</time>
      </trkpt>
      <trkpt lat="47.28413" lon="-2.25251">
        <ele>23</ele>
        <time>2021-02-04T10:24:11.000Z</time>
      </trkpt>
      <trkpt lat="47.28412" lon="-2.25255">
        <ele>23</ele>
        <time>2021-02-04T10:24:12.000Z</time>
      </trkpt>
      <trkpt lat="47.284" lon="-2.2528">
        <ele>23</ele>
        <time>2021-02-04T10:24:17.000Z</time>
      </trkpt>
      <trkpt lat="47.2839" lon="-2.25298">
        <ele>23.39999961853</ele>
        <time>2021-02-04T10:24:21.000Z</time>
      </trkpt>
      <trkpt lat="47.28387" lon="-2.25303">
        <ele>23.799999237061</ele>
        <time>2021-02-04T10:24:22.000Z</time>
      </trkpt>
      <trkpt lat="47.28384" lon="-2.25307">
        <ele>24.200000762939</ele>
        <time>2021-02-04T10:24:23.000Z</time>
      </trkpt>
      <trkpt lat="47.28381" lon="-2.25311">
        <ele>24.60000038147</ele>
        <time>2021-02-04T10:24:24.000Z</time>
      </trkpt>
      <trkpt lat="47.28379" lon="-2.25314">
        <ele>25</ele>
        <time>2021-02-04T10:24:25.000Z</time>
      </trkpt>
      <trkpt lat="47.28373" lon="-2.25316">
        <ele>25</ele>
        <time>2021-02-04T10:24:27.000Z</time>
      </trkpt>
      <trkpt lat="47.28364" lon="-2.25318">
        <ele>25.39999961853</ele>
        <time>2021-02-04T10:24:30.000Z</time>
      </trkpt>
      <trkpt lat="47.28362" lon="-2.25321">
        <ele>25.799999237061</ele>
        <time>2021-02-04T10:24:31.000Z</time>
      </trkpt>
      <trkpt lat="47.2836" lon="-2.25323">
        <ele>26.200000762939</ele>
        <time>2021-02-04T10:24:32.000Z</time>
      </trkpt>
      <trkpt lat="47.28358" lon="-2.25326">
        <ele>26.60000038147</ele>
        <time>2021-02-04T10:24:33.000Z</time>
      </trkpt>
      <trkpt lat="47.28356" lon="-2.25328">
        <ele>27</ele>
        <time>2021-02-04T10:24:34.000Z</time>
      </trkpt>
      <trkpt lat="47.28345" lon="-2.25337">
        <ele>27</ele>
        <time>2021-02-04T10:24:38.000Z</time>
      </trkpt>
      <trkpt lat="47.28332" lon="-2.2535">
        <ele>27</ele>
        <time>2021-02-04T10:24:43.000Z</time>
      </trkpt>
      <trkpt lat="47.28314" lon="-2.25356">
        <ele>27</ele>
        <time>2021-02-04T10:24:49.000Z</time>
      </trkpt>
      <trkpt lat="47.28295" lon="-2.25363">
        <ele>27</ele>
        <time>2021-02-04T10:24:53.000Z</time>
      </trkpt>
      <trkpt lat="47.28285" lon="-2.25363">
        <ele>27</ele>
        <time>2021-02-04T10:24:55.000Z</time>
      </trkpt>
      <trkpt lat="47.2827" lon="-2.25365">
        <ele>26.60000038147</ele>
        <time>2021-02-04T10:24:59.000Z</time>
      </trkpt>
      <trkpt lat="47.28265" lon="-2.25366">
        <ele>26.200000762939</ele>
        <time>2021-02-04T10:25:00.000Z</time>
      </trkpt>
      <trkpt lat="47.28261" lon="-2.25369">
        <ele>25.799999237061</ele>
        <time>2021-02-04T10:25:01.000Z</time>
      </trkpt>
      <trkpt lat="47.28257" lon="-2.25372">
        <ele>25.39999961853</ele>
        <time>2021-02-04T10:25:02.000Z</time>
      </trkpt>
      <trkpt lat="47.28254" lon="-2.25375">
        <ele>25</ele>
        <time>2021-02-04T10:25:03.000Z</time>
      </trkpt>
      <trkpt lat="47.2825" lon="-2.25378">
        <ele>25</ele>
        <time>2021-02-04T10:25:04.000Z</time>
      </trkpt>
      <trkpt lat="47.28235" lon="-2.25389">
        <ele>24</ele>
        <time>2021-02-04T10:25:08.000Z</time>
      </trkpt>
      <trkpt lat="47.2823" lon="-2.25392">
        <ele>23.60000038147</ele>
        <time>2021-02-04T10:25:09.000Z</time>
      </trkpt>
      <trkpt lat="47.28225" lon="-2.25395">
        <ele>23.200000762939</ele>
        <time>2021-02-04T10:25:10.000Z</time>
      </trkpt>
      <trkpt lat="47.2822" lon="-2.25397">
        <ele>22.799999237061</ele>
        <time>2021-02-04T10:25:11.000Z</time>
      </trkpt>
      <trkpt lat="47.28202" lon="-2.25409">
        <ele>22.39999961853</ele>
        <time>2021-02-04T10:25:15.000Z</time>
      </trkpt>
      <trkpt lat="47.28199" lon="-2.25412">
        <ele>22</ele>
        <time>2021-02-04T10:25:16.000Z</time>
      </trkpt>
      <trkpt lat="47.28194" lon="-2.25414">
        <ele>21.60000038147</ele>
        <time>2021-02-04T10:25:17.000Z</time>
      </trkpt>
      <trkpt lat="47.28191" lon="-2.25417">
        <ele>21</ele>
        <time>2021-02-04T10:25:18.000Z</time>
      </trkpt>
      <trkpt lat="47.28187" lon="-2.25419">
        <ele>20.60000038147</ele>
        <time>2021-02-04T10:25:19.000Z</time>
      </trkpt>
      <trkpt lat="47.28177" lon="-2.25427">
        <ele>20.60000038147</ele>
        <time>2021-02-04T10:25:22.000Z</time>
      </trkpt>
      <trkpt lat="47.28173" lon="-2.25431">
        <ele>20.200000762939</ele>
        <time>2021-02-04T10:25:23.000Z</time>
      </trkpt>
      <trkpt lat="47.2817" lon="-2.25434">
        <ele>19.799999237061</ele>
        <time>2021-02-04T10:25:24.000Z</time>
      </trkpt>
      <trkpt lat="47.28166" lon="-2.25436">
        <ele>19.200000762939</ele>
        <time>2021-02-04T10:25:25.000Z</time>
      </trkpt>
      <trkpt lat="47.28164" lon="-2.25437">
        <ele>18.799999237061</ele>
        <time>2021-02-04T10:25:26.000Z</time>
      </trkpt>
      <trkpt lat="47.28162" lon="-2.25438">
        <ele>18.39999961853</ele>
        <time>2021-02-04T10:25:27.000Z</time>
      </trkpt>
      <trkpt lat="47.28157" lon="-2.2544">
        <ele>18.39999961853</ele>
        <time>2021-02-04T10:25:29.000Z</time>
      </trkpt>
      <trkpt lat="47.28152" lon="-2.25443">
        <ele>18.39999961853</ele>
        <time>2021-02-04T10:25:31.000Z</time>
      </trkpt>
      <trkpt lat="47.28135" lon="-2.25457">
        <ele>18.39999961853</ele>
        <time>2021-02-04T10:25:37.000Z</time>
      </trkpt>
      <trkpt lat="47.28125" lon="-2.25462">
        <ele>18</ele>
        <time>2021-02-04T10:25:41.000Z</time>
      </trkpt>
      <trkpt lat="47.28123" lon="-2.25463">
        <ele>17.39999961853</ele>
        <time>2021-02-04T10:25:42.000Z</time>
      </trkpt>
      <trkpt lat="47.28121" lon="-2.25464">
        <ele>17</ele>
        <time>2021-02-04T10:25:43.000Z</time>
      </trkpt>
      <trkpt lat="47.28119" lon="-2.25464">
        <ele>16.60000038147</ele>
        <time>2021-02-04T10:25:44.000Z</time>
      </trkpt>
      <trkpt lat="47.28117" lon="-2.25465">
        <ele>16</ele>
        <time>2021-02-04T10:25:45.000Z</time>
      </trkpt>
      <trkpt lat="47.28107" lon="-2.25473">
        <ele>16</ele>
        <time>2021-02-04T10:25:49.000Z</time>
      </trkpt>
      <trkpt lat="47.28098" lon="-2.2548">
        <ele>16</ele>
        <time>2021-02-04T10:25:52.000Z</time>
      </trkpt>
      <trkpt lat="47.28097" lon="-2.25485">
        <ele>16</ele>
        <time>2021-02-04T10:25:53.000Z</time>
      </trkpt>
      <trkpt lat="47.28099" lon="-2.25506">
        <ele>16</ele>
        <time>2021-02-04T10:25:57.000Z</time>
      </trkpt>
      <trkpt lat="47.281" lon="-2.25513">
        <ele>16</ele>
        <time>2021-02-04T10:25:58.000Z</time>
      </trkpt>
      <trkpt lat="47.28101" lon="-2.25552">
        <ele>16</ele>
        <time>2021-02-04T10:26:04.000Z</time>
      </trkpt>
      <trkpt lat="47.281" lon="-2.25601">
        <ele>16</ele>
        <time>2021-02-04T10:26:11.000Z</time>
      </trkpt>
      <trkpt lat="47.28101" lon="-2.25627">
        <ele>15.60000038147</ele>
        <time>2021-02-04T10:26:15.000Z</time>
      </trkpt>
      <trkpt lat="47.28102" lon="-2.25634">
        <ele>15.199999809265</ele>
        <time>2021-02-04T10:26:16.000Z</time>
      </trkpt>
      <trkpt lat="47.28102" lon="-2.25641">
        <ele>14.800000190735</ele>
        <time>2021-02-04T10:26:17.000Z</time>
      </trkpt>
      <trkpt lat="47.28101" lon="-2.25648">
        <ele>14.39999961853</ele>
        <time>2021-02-04T10:26:18.000Z</time>
      </trkpt>
      <trkpt lat="47.28101" lon="-2.25654">
        <ele>14</ele>
        <time>2021-02-04T10:26:19.000Z</time>
      </trkpt>
      <trkpt lat="47.28103" lon="-2.25695">
        <ele>14</ele>
        <time>2021-02-04T10:26:25.000Z</time>
      </trkpt>
      <trkpt lat="47.28104" lon="-2.25734">
        <ele>14</ele>
        <time>2021-02-04T10:26:31.000Z</time>
      </trkpt>
      <trkpt lat="47.28103" lon="-2.2577">
        <ele>14</ele>
        <time>2021-02-04T10:26:37.000Z</time>
      </trkpt>
      <trkpt lat="47.28102" lon="-2.25776">
        <ele>14</ele>
        <time>2021-02-04T10:26:38.000Z</time>
      </trkpt>
      <trkpt lat="47.28095" lon="-2.25798">
        <ele>14</ele>
        <time>2021-02-04T10:26:42.000Z</time>
      </trkpt>
      <trkpt lat="47.28091" lon="-2.25803">
        <ele>14</ele>
        <time>2021-02-04T10:26:43.000Z</time>
      </trkpt>
      <trkpt lat="47.2807" lon="-2.25827">
        <ele>14</ele>
        <time>2021-02-04T10:26:48.000Z</time>
      </trkpt>
      <trkpt lat="47.28046" lon="-2.25858">
        <ele>14</ele>
        <time>2021-02-04T10:26:54.000Z</time>
      </trkpt>
      <trkpt lat="47.28028" lon="-2.25881">
        <ele>14</ele>
        <time>2021-02-04T10:26:59.000Z</time>
      </trkpt>
      <trkpt lat="47.28025" lon="-2.25887">
        <ele>14</ele>
        <time>2021-02-04T10:27:00.000Z</time>
      </trkpt>
      <trkpt lat="47.28004" lon="-2.25917">
        <ele>14</ele>
        <time>2021-02-04T10:27:06.000Z</time>
      </trkpt>
      <trkpt lat="47.28001" lon="-2.25923">
        <ele>14</ele>
        <time>2021-02-04T10:27:07.000Z</time>
      </trkpt>
      <trkpt lat="47.27984" lon="-2.25959">
        <ele>14</ele>
        <time>2021-02-04T10:27:13.000Z</time>
      </trkpt>
      <trkpt lat="47.27974" lon="-2.25989">
        <ele>14</ele>
        <time>2021-02-04T10:27:18.000Z</time>
      </trkpt>
      <trkpt lat="47.27968" lon="-2.26016">
        <ele>14</ele>
        <time>2021-02-04T10:27:22.000Z</time>
      </trkpt>
      <trkpt lat="47.27966" lon="-2.2603">
        <ele>14</ele>
        <time>2021-02-04T10:27:24.000Z</time>
      </trkpt>
      <trkpt lat="47.27957" lon="-2.26088">
        <ele>14</ele>
        <time>2021-02-04T10:27:32.000Z</time>
      </trkpt>
      <trkpt lat="47.27953" lon="-2.26119">
        <ele>14</ele>
        <time>2021-02-04T10:27:37.000Z</time>
      </trkpt>
      <trkpt lat="47.27953" lon="-2.26132">
        <ele>14</ele>
        <time>2021-02-04T10:27:39.000Z</time>
      </trkpt>
      <trkpt lat="47.27953" lon="-2.26159">
        <ele>14</ele>
        <time>2021-02-04T10:27:43.000Z</time>
      </trkpt>
      <trkpt lat="47.27951" lon="-2.26174">
        <ele>14</ele>
        <time>2021-02-04T10:27:45.000Z</time>
      </trkpt>
      <trkpt lat="47.27947" lon="-2.26196">
        <ele>14</ele>
        <time>2021-02-04T10:27:48.000Z</time>
      </trkpt>
      <trkpt lat="47.27942" lon="-2.26209">
        <ele>14</ele>
        <time>2021-02-04T10:27:50.000Z</time>
      </trkpt>
      <trkpt lat="47.27927" lon="-2.26251">
        <ele>14</ele>
        <time>2021-02-04T10:27:56.000Z</time>
      </trkpt>
      <trkpt lat="47.27909" lon="-2.26277">
        <ele>14</ele>
        <time>2021-02-04T10:28:01.000Z</time>
      </trkpt>
      <trkpt lat="47.27906" lon="-2.26282">
        <ele>14</ele>
        <time>2021-02-04T10:28:02.000Z</time>
      </trkpt>
      <trkpt lat="47.27891" lon="-2.26304">
        <ele>14</ele>
        <time>2021-02-04T10:28:06.000Z</time>
      </trkpt>
      <trkpt lat="47.2787" lon="-2.26342">
        <ele>14</ele>
        <time>2021-02-04T10:28:12.000Z</time>
      </trkpt>
      <trkpt lat="47.27853" lon="-2.26372">
        <ele>14</ele>
        <time>2021-02-04T10:28:17.000Z</time>
      </trkpt>
      <trkpt lat="47.27843" lon="-2.2639">
        <ele>14</ele>
        <time>2021-02-04T10:28:20.000Z</time>
      </trkpt>
      <trkpt lat="47.2784" lon="-2.26395">
        <ele>14</ele>
        <time>2021-02-04T10:28:21.000Z</time>
      </trkpt>
      <trkpt lat="47.27815" lon="-2.26436">
        <ele>14</ele>
        <time>2021-02-04T10:28:29.000Z</time>
      </trkpt>
      <trkpt lat="47.27806" lon="-2.2645">
        <ele>14</ele>
        <time>2021-02-04T10:28:32.000Z</time>
      </trkpt>
      <trkpt lat="47.27793" lon="-2.26462">
        <ele>14</ele>
        <time>2021-02-04T10:28:35.000Z</time>
      </trkpt>
      <trkpt lat="47.2779" lon="-2.26467">
        <ele>14</ele>
        <time>2021-02-04T10:28:36.000Z</time>
      </trkpt>
      <trkpt lat="47.2778" lon="-2.26484">
        <ele>14</ele>
        <time>2021-02-04T10:28:39.000Z</time>
      </trkpt>
      <trkpt lat="47.27777" lon="-2.26489">
        <ele>14</ele>
        <time>2021-02-04T10:28:40.000Z</time>
      </trkpt>
      <trkpt lat="47.27766" lon="-2.265">
        <ele>14</ele>
        <time>2021-02-04T10:28:43.000Z</time>
      </trkpt>
      <trkpt lat="47.27746" lon="-2.26515">
        <ele>14</ele>
        <time>2021-02-04T10:28:49.000Z</time>
      </trkpt>
      <trkpt lat="47.27729" lon="-2.26509">
        <ele>14</ele>
        <time>2021-02-04T10:28:55.000Z</time>
      </trkpt>
      <trkpt lat="47.27721" lon="-2.26486">
        <ele>14</ele>
        <time>2021-02-04T10:29:00.000Z</time>
      </trkpt>
      <trkpt lat="47.27708" lon="-2.26455">
        <ele>14</ele>
        <time>2021-02-04T10:29:06.000Z</time>
      </trkpt>
      <trkpt lat="47.27695" lon="-2.26421">
        <ele>14</ele>
        <time>2021-02-04T10:29:12.000Z</time>
      </trkpt>
      <trkpt lat="47.27692" lon="-2.26416">
        <ele>14</ele>
        <time>2021-02-04T10:29:13.000Z</time>
      </trkpt>
      <trkpt lat="47.27676" lon="-2.2637">
        <ele>14</ele>
        <time>2021-02-04T10:29:20.000Z</time>
      </trkpt>
      <trkpt lat="47.27673" lon="-2.26364">
        <ele>14</ele>
        <time>2021-02-04T10:29:21.000Z</time>
      </trkpt>
      <trkpt lat="47.27667" lon="-2.26348">
        <ele>14</ele>
        <time>2021-02-04T10:29:25.000Z</time>
      </trkpt>
      <trkpt lat="47.27665" lon="-2.26344">
        <ele>14</ele>
        <time>2021-02-04T10:29:29.000Z</time>
      </trkpt>
      <trkpt lat="47.27656" lon="-2.26333">
        <ele>14</ele>
        <time>2021-02-04T10:29:38.000Z</time>
      </trkpt>
      <trkpt lat="47.27655" lon="-2.26331">
        <ele>14</ele>
        <time>2021-02-04T10:29:39.000Z</time>
      </trkpt>
      <trkpt lat="47.27637" lon="-2.26312">
        <ele>14</ele>
        <time>2021-02-04T10:29:45.000Z</time>
      </trkpt>
      <trkpt lat="47.27621" lon="-2.26299">
        <ele>14</ele>
        <time>2021-02-04T10:29:49.000Z</time>
      </trkpt>
      <trkpt lat="47.27616" lon="-2.26297">
        <ele>14</ele>
        <time>2021-02-04T10:29:50.000Z</time>
      </trkpt>
      <trkpt lat="47.27586" lon="-2.26294">
        <ele>14</ele>
        <time>2021-02-04T10:29:55.000Z</time>
      </trkpt>
      <trkpt lat="47.27555" lon="-2.26295">
        <ele>14</ele>
        <time>2021-02-04T10:30:00.000Z</time>
      </trkpt>
      <trkpt lat="47.27549" lon="-2.26295">
        <ele>14</ele>
        <time>2021-02-04T10:30:01.000Z</time>
      </trkpt>
      <trkpt lat="47.27505" lon="-2.26294">
        <ele>14</ele>
        <time>2021-02-04T10:30:08.000Z</time>
      </trkpt>
      <trkpt lat="47.2748" lon="-2.26285">
        <ele>14.39999961853</ele>
        <time>2021-02-04T10:30:12.000Z</time>
      </trkpt>
      <trkpt lat="47.27473" lon="-2.26281">
        <ele>14.800000190735</ele>
        <time>2021-02-04T10:30:13.000Z</time>
      </trkpt>
      <trkpt lat="47.27467" lon="-2.26277">
        <ele>15.199999809265</ele>
        <time>2021-02-04T10:30:14.000Z</time>
      </trkpt>
      <trkpt lat="47.27462" lon="-2.26273">
        <ele>15.60000038147</ele>
        <time>2021-02-04T10:30:15.000Z</time>
      </trkpt>
      <trkpt lat="47.27457" lon="-2.2627">
        <ele>16</ele>
        <time>2021-02-04T10:30:16.000Z</time>
      </trkpt>
      <trkpt lat="47.2744" lon="-2.26252">
        <ele>16</ele>
        <time>2021-02-04T10:30:20.000Z</time>
      </trkpt>
      <trkpt lat="47.27419" lon="-2.26226">
        <ele>16.39999961853</ele>
        <time>2021-02-04T10:30:26.000Z</time>
      </trkpt>
      <trkpt lat="47.27416" lon="-2.26221">
        <ele>16.799999237061</ele>
        <time>2021-02-04T10:30:27.000Z</time>
      </trkpt>
      <trkpt lat="47.27413" lon="-2.26215">
        <ele>17.799999237061</ele>
        <time>2021-02-04T10:30:28.000Z</time>
      </trkpt>
      <trkpt lat="47.27409" lon="-2.2621">
        <ele>18.200000762939</ele>
        <time>2021-02-04T10:30:29.000Z</time>
      </trkpt>
      <trkpt lat="47.27384" lon="-2.26171">
        <ele>18.200000762939</ele>
        <time>2021-02-04T10:30:36.000Z</time>
      </trkpt>
      <trkpt lat="47.27358" lon="-2.26134">
        <ele>18.200000762939</ele>
        <time>2021-02-04T10:30:43.000Z</time>
      </trkpt>
      <trkpt lat="47.27343" lon="-2.26129">
        <ele>18.200000762939</ele>
        <time>2021-02-04T10:30:46.000Z</time>
      </trkpt>
      <trkpt lat="47.27332" lon="-2.26133">
        <ele>18.60000038147</ele>
        <time>2021-02-04T10:30:48.000Z</time>
      </trkpt>
      <trkpt lat="47.27327" lon="-2.26135">
        <ele>19</ele>
        <time>2021-02-04T10:30:49.000Z</time>
      </trkpt>
      <trkpt lat="47.2732" lon="-2.26137">
        <ele>19.39999961853</ele>
        <time>2021-02-04T10:30:50.000Z</time>
      </trkpt>
      <trkpt lat="47.27315" lon="-2.2614">
        <ele>19.799999237061</ele>
        <time>2021-02-04T10:30:51.000Z</time>
      </trkpt>
      <trkpt lat="47.27309" lon="-2.26142">
        <ele>20.200000762939</ele>
        <time>2021-02-04T10:30:52.000Z</time>
      </trkpt>
      <trkpt lat="47.27271" lon="-2.26155">
        <ele>20.200000762939</ele>
        <time>2021-02-04T10:30:58.000Z</time>
      </trkpt>
      <trkpt lat="47.27245" lon="-2.26168">
        <ele>20.200000762939</ele>
        <time>2021-02-04T10:31:03.000Z</time>
      </trkpt>
      <trkpt lat="47.27211" lon="-2.2619">
        <ele>20.200000762939</ele>
        <time>2021-02-04T10:31:10.000Z</time>
      </trkpt>
      <trkpt lat="47.27181" lon="-2.26218">
        <ele>20.200000762939</ele>
        <time>2021-02-04T10:31:16.000Z</time>
      </trkpt>
      <trkpt lat="47.27152" lon="-2.26252">
        <ele>20.200000762939</ele>
        <time>2021-02-04T10:31:22.000Z</time>
      </trkpt>
      <trkpt lat="47.27148" lon="-2.26258">
        <ele>20.60000038147</ele>
        <time>2021-02-04T10:31:23.000Z</time>
      </trkpt>
      <trkpt lat="47.27143" lon="-2.26264">
        <ele>21</ele>
        <time>2021-02-04T10:31:24.000Z</time>
      </trkpt>
      <trkpt lat="47.27139" lon="-2.2627">
        <ele>21.39999961853</ele>
        <time>2021-02-04T10:31:25.000Z</time>
      </trkpt>
      <trkpt lat="47.27135" lon="-2.26276">
        <ele>21.799999237061</ele>
        <time>2021-02-04T10:31:26.000Z</time>
      </trkpt>
      <trkpt lat="47.27131" lon="-2.26282">
        <ele>22.200000762939</ele>
        <time>2021-02-04T10:31:27.000Z</time>
      </trkpt>
      <trkpt lat="47.27118" lon="-2.263">
        <ele>22.200000762939</ele>
        <time>2021-02-04T10:31:30.000Z</time>
      </trkpt>
      <trkpt lat="47.27085" lon="-2.26345">
        <ele>22.200000762939</ele>
        <time>2021-02-04T10:31:38.000Z</time>
      </trkpt>
      <trkpt lat="47.27078" lon="-2.26356">
        <ele>22.60000038147</ele>
        <time>2021-02-04T10:31:40.000Z</time>
      </trkpt>
      <trkpt lat="47.27074" lon="-2.26361">
        <ele>23.39999961853</ele>
        <time>2021-02-04T10:31:41.000Z</time>
      </trkpt>
      <trkpt lat="47.2707" lon="-2.26367">
        <ele>23.799999237061</ele>
        <time>2021-02-04T10:31:42.000Z</time>
      </trkpt>
      <trkpt lat="47.27066" lon="-2.26373">
        <ele>24.200000762939</ele>
        <time>2021-02-04T10:31:43.000Z</time>
      </trkpt>
      <trkpt lat="47.27057" lon="-2.26385">
        <ele>24.200000762939</ele>
        <time>2021-02-04T10:31:45.000Z</time>
      </trkpt>
      <trkpt lat="47.2703" lon="-2.26426">
        <ele>24.200000762939</ele>
        <time>2021-02-04T10:31:52.000Z</time>
      </trkpt>
      <trkpt lat="47.2702" lon="-2.26442">
        <ele>24.200000762939</ele>
        <time>2021-02-04T10:31:55.000Z</time>
      </trkpt>
      <trkpt lat="47.27015" lon="-2.26448">
        <ele>24.200000762939</ele>
        <time>2021-02-04T10:31:56.000Z</time>
      </trkpt>
      <trkpt lat="47.26985" lon="-2.26489">
        <ele>24.200000762939</ele>
        <time>2021-02-04T10:32:03.000Z</time>
      </trkpt>
      <trkpt lat="47.26979" lon="-2.26494">
        <ele>24.200000762939</ele>
        <time>2021-02-04T10:32:04.000Z</time>
      </trkpt>
      <trkpt lat="47.26957" lon="-2.26511">
        <ele>24.200000762939</ele>
        <time>2021-02-04T10:32:08.000Z</time>
      </trkpt>
      <trkpt lat="47.26911" lon="-2.26534">
        <ele>24.200000762939</ele>
        <time>2021-02-04T10:32:16.000Z</time>
      </trkpt>
      <trkpt lat="47.26879" lon="-2.26546">
        <ele>24.200000762939</ele>
        <time>2021-02-04T10:32:22.000Z</time>
      </trkpt>
      <trkpt lat="47.26869" lon="-2.26553">
        <ele>24.200000762939</ele>
        <time>2021-02-04T10:32:25.000Z</time>
      </trkpt>
      <trkpt lat="47.26868" lon="-2.26557">
        <ele>24.200000762939</ele>
        <time>2021-02-04T10:32:26.000Z</time>
      </trkpt>
      <trkpt lat="47.26872" lon="-2.26576">
        <ele>24.200000762939</ele>
        <time>2021-02-04T10:32:30.000Z</time>
      </trkpt>
      <trkpt lat="47.26879" lon="-2.26595">
        <ele>24.200000762939</ele>
        <time>2021-02-04T10:32:33.000Z</time>
      </trkpt>
      <trkpt lat="47.26886" lon="-2.26615">
        <ele>24.200000762939</ele>
        <time>2021-02-04T10:32:36.000Z</time>
      </trkpt>
      <trkpt lat="47.26905" lon="-2.26668">
        <ele>24.200000762939</ele>
        <time>2021-02-04T10:32:44.000Z</time>
      </trkpt>
      <trkpt lat="47.26919" lon="-2.26706">
        <ele>24.200000762939</ele>
        <time>2021-02-04T10:32:50.000Z</time>
      </trkpt>
      <trkpt lat="47.26933" lon="-2.26756">
        <ele>24.200000762939</ele>
        <time>2021-02-04T10:32:56.000Z</time>
      </trkpt>
      <trkpt lat="47.26938" lon="-2.26776">
        <ele>23.799999237061</ele>
        <time>2021-02-04T10:32:58.000Z</time>
      </trkpt>
      <trkpt lat="47.26941" lon="-2.26787">
        <ele>23.39999961853</ele>
        <time>2021-02-04T10:32:59.000Z</time>
      </trkpt>
      <trkpt lat="47.26945" lon="-2.26797">
        <ele>23</ele>
        <time>2021-02-04T10:33:00.000Z</time>
      </trkpt>
      <trkpt lat="47.26948" lon="-2.26806">
        <ele>22.60000038147</ele>
        <time>2021-02-04T10:33:01.000Z</time>
      </trkpt>
      <trkpt lat="47.26952" lon="-2.26816">
        <ele>22.200000762939</ele>
        <time>2021-02-04T10:33:02.000Z</time>
      </trkpt>
      <trkpt lat="47.26966" lon="-2.26861">
        <ele>22.200000762939</ele>
        <time>2021-02-04T10:33:07.000Z</time>
      </trkpt>
      <trkpt lat="47.26973" lon="-2.26917">
        <ele>22.200000762939</ele>
        <time>2021-02-04T10:33:13.000Z</time>
      </trkpt>
      <trkpt lat="47.26972" lon="-2.26925">
        <ele>22.200000762939</ele>
        <time>2021-02-04T10:33:14.000Z</time>
      </trkpt>
      <trkpt lat="47.2697" lon="-2.26947">
        <ele>22.200000762939</ele>
        <time>2021-02-04T10:33:17.000Z</time>
      </trkpt>
      <trkpt lat="47.26966" lon="-2.26966">
        <ele>22.200000762939</ele>
        <time>2021-02-04T10:33:21.000Z</time>
      </trkpt>
      <trkpt lat="47.26962" lon="-2.26983">
        <ele>22.200000762939</ele>
        <time>2021-02-04T10:33:26.000Z</time>
      </trkpt>
      <trkpt lat="47.2695" lon="-2.26998">
        <ele>22.200000762939</ele>
        <time>2021-02-04T10:33:31.000Z</time>
      </trkpt>
      <trkpt lat="47.26933" lon="-2.2702">
        <ele>22.200000762939</ele>
        <time>2021-02-04T10:33:38.000Z</time>
      </trkpt>
      <trkpt lat="47.26919" lon="-2.27041">
        <ele>22.200000762939</ele>
        <time>2021-02-04T10:33:44.000Z</time>
      </trkpt>
      <trkpt lat="47.26915" lon="-2.27049">
        <ele>22.60000038147</ele>
        <time>2021-02-04T10:33:46.000Z</time>
      </trkpt>
      <trkpt lat="47.26913" lon="-2.27052">
        <ele>23</ele>
        <time>2021-02-04T10:33:47.000Z</time>
      </trkpt>
      <trkpt lat="47.26911" lon="-2.27055">
        <ele>23.39999961853</ele>
        <time>2021-02-04T10:33:48.000Z</time>
      </trkpt>
      <trkpt lat="47.26909" lon="-2.27058">
        <ele>23.799999237061</ele>
        <time>2021-02-04T10:33:49.000Z</time>
      </trkpt>
      <trkpt lat="47.26906" lon="-2.27061">
        <ele>24.200000762939</ele>
        <time>2021-02-04T10:33:50.000Z</time>
      </trkpt>
      <trkpt lat="47.26904" lon="-2.27064">
        <ele>24.200000762939</ele>
        <time>2021-02-04T10:33:51.000Z</time>
      </trkpt>
      <trkpt lat="47.26892" lon="-2.27079">
        <ele>24.60000038147</ele>
        <time>2021-02-04T10:33:56.000Z</time>
      </trkpt>
      <trkpt lat="47.26889" lon="-2.27083">
        <ele>25</ele>
        <time>2021-02-04T10:33:57.000Z</time>
      </trkpt>
      <trkpt lat="47.26886" lon="-2.27086">
        <ele>25.39999961853</ele>
        <time>2021-02-04T10:33:58.000Z</time>
      </trkpt>
      <trkpt lat="47.26883" lon="-2.27091">
        <ele>25.799999237061</ele>
        <time>2021-02-04T10:33:59.000Z</time>
      </trkpt>
      <trkpt lat="47.2688" lon="-2.27094">
        <ele>26.200000762939</ele>
        <time>2021-02-04T10:34:00.000Z</time>
      </trkpt>
      <trkpt lat="47.26873" lon="-2.27101">
        <ele>26.60000038147</ele>
        <time>2021-02-04T10:34:02.000Z</time>
      </trkpt>
      <trkpt lat="47.26869" lon="-2.27104">
        <ele>27</ele>
        <time>2021-02-04T10:34:03.000Z</time>
      </trkpt>
      <trkpt lat="47.26865" lon="-2.27108">
        <ele>27.39999961853</ele>
        <time>2021-02-04T10:34:04.000Z</time>
      </trkpt>
      <trkpt lat="47.26861" lon="-2.2711">
        <ele>27.799999237061</ele>
        <time>2021-02-04T10:34:05.000Z</time>
      </trkpt>
      <trkpt lat="47.26857" lon="-2.27113">
        <ele>28.200000762939</ele>
        <time>2021-02-04T10:34:06.000Z</time>
      </trkpt>
      <trkpt lat="47.26847" lon="-2.27119">
        <ele>28.200000762939</ele>
        <time>2021-02-04T10:34:08.000Z</time>
      </trkpt>
      <trkpt lat="47.26819" lon="-2.27129">
        <ele>28.200000762939</ele>
        <time>2021-02-04T10:34:14.000Z</time>
      </trkpt>
      <trkpt lat="47.26795" lon="-2.27136">
        <ele>28.60000038147</ele>
        <time>2021-02-04T10:34:19.000Z</time>
      </trkpt>
      <trkpt lat="47.2679" lon="-2.27138">
        <ele>29</ele>
        <time>2021-02-04T10:34:20.000Z</time>
      </trkpt>
      <trkpt lat="47.26785" lon="-2.2714">
        <ele>29.39999961853</ele>
        <time>2021-02-04T10:34:21.000Z</time>
      </trkpt>
      <trkpt lat="47.26779" lon="-2.27142">
        <ele>29.799999237061</ele>
        <time>2021-02-04T10:34:22.000Z</time>
      </trkpt>
      <trkpt lat="47.26774" lon="-2.27144">
        <ele>30.200000762939</ele>
        <time>2021-02-04T10:34:23.000Z</time>
      </trkpt>
      <trkpt lat="47.2677" lon="-2.27147">
        <ele>30.200000762939</ele>
        <time>2021-02-04T10:34:24.000Z</time>
      </trkpt>
      <trkpt lat="47.26762" lon="-2.27154">
        <ele>30.200000762939</ele>
        <time>2021-02-04T10:34:26.000Z</time>
      </trkpt>
      <trkpt lat="47.26755" lon="-2.2716">
        <ele>30.200000762939</ele>
        <time>2021-02-04T10:34:28.000Z</time>
      </trkpt>
      <trkpt lat="47.26741" lon="-2.27174">
        <ele>30.200000762939</ele>
        <time>2021-02-04T10:34:32.000Z</time>
      </trkpt>
      <trkpt lat="47.26737" lon="-2.27178">
        <ele>30.200000762939</ele>
        <time>2021-02-04T10:34:33.000Z</time>
      </trkpt>
      <trkpt lat="47.26734" lon="-2.27181">
        <ele>31</ele>
        <time>2021-02-04T10:34:34.000Z</time>
      </trkpt>
      <trkpt lat="47.26731" lon="-2.27184">
        <ele>31.39999961853</ele>
        <time>2021-02-04T10:34:35.000Z</time>
      </trkpt>
      <trkpt lat="47.26728" lon="-2.27187">
        <ele>31.799999237061</ele>
        <time>2021-02-04T10:34:36.000Z</time>
      </trkpt>
      <trkpt lat="47.26726" lon="-2.27191">
        <ele>32.200000762939</ele>
        <time>2021-02-04T10:34:37.000Z</time>
      </trkpt>
      <trkpt lat="47.2672" lon="-2.27207">
        <ele>32.200000762939</ele>
        <time>2021-02-04T10:34:42.000Z</time>
      </trkpt>
      <trkpt lat="47.26725" lon="-2.2723">
        <ele>32.200000762939</ele>
        <time>2021-02-04T10:34:49.000Z</time>
      </trkpt>
      <trkpt lat="47.26726" lon="-2.27248">
        <ele>32.200000762939</ele>
        <time>2021-02-04T10:34:56.000Z</time>
      </trkpt>
      <trkpt lat="47.2673" lon="-2.27272">
        <ele>32.200000762939</ele>
        <time>2021-02-04T10:35:02.000Z</time>
      </trkpt>
      <trkpt lat="47.26736" lon="-2.27307">
        <ele>32.200000762939</ele>
        <time>2021-02-04T10:35:09.000Z</time>
      </trkpt>
      <trkpt lat="47.26743" lon="-2.27356">
        <ele>32.200000762939</ele>
        <time>2021-02-04T10:35:17.000Z</time>
      </trkpt>
      <trkpt lat="47.26751" lon="-2.27403">
        <ele>32.200000762939</ele>
        <time>2021-02-04T10:35:24.000Z</time>
      </trkpt>
      <trkpt lat="47.26756" lon="-2.27444">
        <ele>32.200000762939</ele>
        <time>2021-02-04T10:35:31.000Z</time>
      </trkpt>
      <trkpt lat="47.26755" lon="-2.27487">
        <ele>32.200000762939</ele>
        <time>2021-02-04T10:35:39.000Z</time>
      </trkpt>
      <trkpt lat="47.26756" lon="-2.27515">
        <ele>32.200000762939</ele>
        <time>2021-02-04T10:35:44.000Z</time>
      </trkpt>
      <trkpt lat="47.26757" lon="-2.27569">
        <ele>32.200000762939</ele>
        <time>2021-02-04T10:35:51.000Z</time>
      </trkpt>
      <trkpt lat="47.26759" lon="-2.27597">
        <ele>31.799999237061</ele>
        <time>2021-02-04T10:35:54.000Z</time>
      </trkpt>
      <trkpt lat="47.26761" lon="-2.27606">
        <ele>31.39999961853</ele>
        <time>2021-02-04T10:35:55.000Z</time>
      </trkpt>
      <trkpt lat="47.26762" lon="-2.27616">
        <ele>31</ele>
        <time>2021-02-04T10:35:56.000Z</time>
      </trkpt>
      <trkpt lat="47.26764" lon="-2.27625">
        <ele>30.60000038147</ele>
        <time>2021-02-04T10:35:57.000Z</time>
      </trkpt>
      <trkpt lat="47.26766" lon="-2.27634">
        <ele>30.200000762939</ele>
        <time>2021-02-04T10:35:58.000Z</time>
      </trkpt>
      <trkpt lat="47.26777" lon="-2.27693">
        <ele>30.200000762939</ele>
        <time>2021-02-04T10:36:05.000Z</time>
      </trkpt>
      <trkpt lat="47.26787" lon="-2.27758">
        <ele>30.200000762939</ele>
        <time>2021-02-04T10:36:13.000Z</time>
      </trkpt>
      <trkpt lat="47.26789" lon="-2.27771">
        <ele>30.200000762939</ele>
        <time>2021-02-04T10:36:15.000Z</time>
      </trkpt>
      <trkpt lat="47.26791" lon="-2.27793">
        <ele>30.200000762939</ele>
        <time>2021-02-04T10:36:17.000Z</time>
      </trkpt>
      <trkpt lat="47.26791" lon="-2.27793">
        <ele>30.200000762939</ele>
        <time>2021-02-04T10:36:19.000Z</time>
      </trkpt>
      <trkpt lat="47.26791" lon="-2.278">
        <ele>30.200000762939</ele>
        <time>2021-02-04T10:36:21.000Z</time>
      </trkpt>
      <trkpt lat="47.26788" lon="-2.27805">
        <ele>30.200000762939</ele>
        <time>2021-02-04T10:36:23.000Z</time>
      </trkpt>
      <trkpt lat="47.26784" lon="-2.2781">
        <ele>30.200000762939</ele>
        <time>2021-02-04T10:36:25.000Z</time>
      </trkpt>
      <trkpt lat="47.26772" lon="-2.27818">
        <ele>30.200000762939</ele>
        <time>2021-02-04T10:36:29.000Z</time>
      </trkpt>
      <trkpt lat="47.26754" lon="-2.27817">
        <ele>30.200000762939</ele>
        <time>2021-02-04T10:36:33.000Z</time>
      </trkpt>
      <trkpt lat="47.26727" lon="-2.27818">
        <ele>30.200000762939</ele>
        <time>2021-02-04T10:36:38.000Z</time>
      </trkpt>
      <trkpt lat="47.26722" lon="-2.2782">
        <ele>30.60000038147</ele>
        <time>2021-02-04T10:36:39.000Z</time>
      </trkpt>
      <trkpt lat="47.26717" lon="-2.27821">
        <ele>31</ele>
        <time>2021-02-04T10:36:40.000Z</time>
      </trkpt>
      <trkpt lat="47.26712" lon="-2.27823">
        <ele>31.39999961853</ele>
        <time>2021-02-04T10:36:41.000Z</time>
      </trkpt>
      <trkpt lat="47.26707" lon="-2.27825">
        <ele>32</ele>
        <time>2021-02-04T10:36:42.000Z</time>
      </trkpt>
      <trkpt lat="47.26702" lon="-2.27827">
        <ele>32.400001525879</ele>
        <time>2021-02-04T10:36:43.000Z</time>
      </trkpt>
      <trkpt lat="47.26679" lon="-2.27837">
        <ele>32.400001525879</ele>
        <time>2021-02-04T10:36:48.000Z</time>
      </trkpt>
      <trkpt lat="47.26645" lon="-2.27855">
        <ele>32.400001525879</ele>
        <time>2021-02-04T10:36:56.000Z</time>
      </trkpt>
      <trkpt lat="47.26617" lon="-2.27871">
        <ele>32.400001525879</ele>
        <time>2021-02-04T10:37:03.000Z</time>
      </trkpt>
      <trkpt lat="47.26583" lon="-2.27882">
        <ele>32.400001525879</ele>
        <time>2021-02-04T10:37:11.000Z</time>
      </trkpt>
      <trkpt lat="47.2657" lon="-2.27884">
        <ele>32.799999237061</ele>
        <time>2021-02-04T10:37:14.000Z</time>
      </trkpt>
      <trkpt lat="47.26566" lon="-2.27884">
        <ele>33.200000762939</ele>
        <time>2021-02-04T10:37:15.000Z</time>
      </trkpt>
      <trkpt lat="47.26561" lon="-2.27884">
        <ele>33.599998474121</ele>
        <time>2021-02-04T10:37:16.000Z</time>
      </trkpt>
      <trkpt lat="47.26557" lon="-2.27884">
        <ele>34</ele>
        <time>2021-02-04T10:37:17.000Z</time>
      </trkpt>
      <trkpt lat="47.26552" lon="-2.27883">
        <ele>34.400001525879</ele>
        <time>2021-02-04T10:37:18.000Z</time>
      </trkpt>
      <trkpt lat="47.26523" lon="-2.27886">
        <ele>34.400001525879</ele>
        <time>2021-02-04T10:37:24.000Z</time>
      </trkpt>
      <trkpt lat="47.26518" lon="-2.27886">
        <ele>34.799999237061</ele>
        <time>2021-02-04T10:37:25.000Z</time>
      </trkpt>
      <trkpt lat="47.26512" lon="-2.27887">
        <ele>35.599998474121</ele>
        <time>2021-02-04T10:37:26.000Z</time>
      </trkpt>
      <trkpt lat="47.26507" lon="-2.27888">
        <ele>36</ele>
        <time>2021-02-04T10:37:27.000Z</time>
      </trkpt>
      <trkpt lat="47.26502" lon="-2.27888">
        <ele>36.400001525879</ele>
        <time>2021-02-04T10:37:28.000Z</time>
      </trkpt>
      <trkpt lat="47.26487" lon="-2.27888">
        <ele>36.400001525879</ele>
        <time>2021-02-04T10:37:31.000Z</time>
      </trkpt>
      <trkpt lat="47.26446" lon="-2.27898">
        <ele>36.400001525879</ele>
        <time>2021-02-04T10:37:39.000Z</time>
      </trkpt>
      <trkpt lat="47.26405" lon="-2.27908">
        <ele>36.400001525879</ele>
        <time>2021-02-04T10:37:47.000Z</time>
      </trkpt>
      <trkpt lat="47.26366" lon="-2.27924">
        <ele>36.400001525879</ele>
        <time>2021-02-04T10:37:55.000Z</time>
      </trkpt>
      <trkpt lat="47.26333" lon="-2.27944">
        <ele>36.400001525879</ele>
        <time>2021-02-04T10:38:02.000Z</time>
      </trkpt>
      <trkpt lat="47.26299" lon="-2.27966">
        <ele>36.400001525879</ele>
        <time>2021-02-04T10:38:10.000Z</time>
      </trkpt>
      <trkpt lat="47.26294" lon="-2.27973">
        <ele>36.400001525879</ele>
        <time>2021-02-04T10:38:12.000Z</time>
      </trkpt>
      <trkpt lat="47.26292" lon="-2.27983">
        <ele>36.400001525879</ele>
        <time>2021-02-04T10:38:14.000Z</time>
      </trkpt>
      <trkpt lat="47.26298" lon="-2.28001">
        <ele>36.400001525879</ele>
        <time>2021-02-04T10:38:17.000Z</time>
      </trkpt>
      <trkpt lat="47.26314" lon="-2.28039">
        <ele>36.400001525879</ele>
        <time>2021-02-04T10:38:23.000Z</time>
      </trkpt>
      <trkpt lat="47.26324" lon="-2.28071">
        <ele>36.799999237061</ele>
        <time>2021-02-04T10:38:28.000Z</time>
      </trkpt>
      <trkpt lat="47.26326" lon="-2.28078">
        <ele>37.400001525879</ele>
        <time>2021-02-04T10:38:29.000Z</time>
      </trkpt>
      <trkpt lat="47.26327" lon="-2.28085">
        <ele>37.799999237061</ele>
        <time>2021-02-04T10:38:30.000Z</time>
      </trkpt>
      <trkpt lat="47.26328" lon="-2.28092">
        <ele>38.200000762939</ele>
        <time>2021-02-04T10:38:31.000Z</time>
      </trkpt>
      <trkpt lat="47.2633" lon="-2.28099">
        <ele>38.599998474121</ele>
        <time>2021-02-04T10:38:32.000Z</time>
      </trkpt>
      <trkpt lat="47.26338" lon="-2.28149">
        <ele>38.599998474121</ele>
        <time>2021-02-04T10:38:39.000Z</time>
      </trkpt>
      <trkpt lat="47.26345" lon="-2.28187">
        <ele>38.599998474121</ele>
        <time>2021-02-04T10:38:45.000Z</time>
      </trkpt>
      <trkpt lat="47.2635" lon="-2.28212">
        <ele>39</ele>
        <time>2021-02-04T10:38:49.000Z</time>
      </trkpt>
      <trkpt lat="47.26352" lon="-2.28218">
        <ele>39.400001525879</ele>
        <time>2021-02-04T10:38:50.000Z</time>
      </trkpt>
      <trkpt lat="47.26353" lon="-2.28225">
        <ele>39.799999237061</ele>
        <time>2021-02-04T10:38:51.000Z</time>
      </trkpt>
      <trkpt lat="47.26354" lon="-2.28231">
        <ele>40.200000762939</ele>
        <time>2021-02-04T10:38:52.000Z</time>
      </trkpt>
      <trkpt lat="47.26356" lon="-2.28237">
        <ele>40.799999237061</ele>
        <time>2021-02-04T10:38:53.000Z</time>
      </trkpt>
      <trkpt lat="47.26366" lon="-2.28275">
        <ele>40.799999237061</ele>
        <time>2021-02-04T10:38:59.000Z</time>
      </trkpt>
      <trkpt lat="47.26382" lon="-2.28321">
        <ele>40.799999237061</ele>
        <time>2021-02-04T10:39:06.000Z</time>
      </trkpt>
      <trkpt lat="47.26406" lon="-2.28374">
        <ele>40.799999237061</ele>
        <time>2021-02-04T10:39:14.000Z</time>
      </trkpt>
      <trkpt lat="47.26427" lon="-2.28419">
        <ele>40.799999237061</ele>
        <time>2021-02-04T10:39:21.000Z</time>
      </trkpt>
      <trkpt lat="47.26446" lon="-2.28462">
        <ele>40.799999237061</ele>
        <time>2021-02-04T10:39:27.000Z</time>
      </trkpt>
      <trkpt lat="47.26477" lon="-2.28526">
        <ele>40.400001525879</ele>
        <time>2021-02-04T10:39:36.000Z</time>
      </trkpt>
      <trkpt lat="47.26481" lon="-2.28533">
        <ele>40</ele>
        <time>2021-02-04T10:39:37.000Z</time>
      </trkpt>
      <trkpt lat="47.26485" lon="-2.2854">
        <ele>39.599998474121</ele>
        <time>2021-02-04T10:39:38.000Z</time>
      </trkpt>
      <trkpt lat="47.26488" lon="-2.28547">
        <ele>39.200000762939</ele>
        <time>2021-02-04T10:39:39.000Z</time>
      </trkpt>
      <trkpt lat="47.26491" lon="-2.28554">
        <ele>38.599998474121</ele>
        <time>2021-02-04T10:39:40.000Z</time>
      </trkpt>
      <trkpt lat="47.26497" lon="-2.28566">
        <ele>38.599998474121</ele>
        <time>2021-02-04T10:39:42.000Z</time>
      </trkpt>
      <trkpt lat="47.26502" lon="-2.28578">
        <ele>38.599998474121</ele>
        <time>2021-02-04T10:39:44.000Z</time>
      </trkpt>
      <trkpt lat="47.26505" lon="-2.28596">
        <ele>38.599998474121</ele>
        <time>2021-02-04T10:39:47.000Z</time>
      </trkpt>
      <trkpt lat="47.26497" lon="-2.28606">
        <ele>38.599998474121</ele>
        <time>2021-02-04T10:39:50.000Z</time>
      </trkpt>
      <trkpt lat="47.2648" lon="-2.28603">
        <ele>38.599998474121</ele>
        <time>2021-02-04T10:39:54.000Z</time>
      </trkpt>
      <trkpt lat="47.26443" lon="-2.28588">
        <ele>38.599998474121</ele>
        <time>2021-02-04T10:40:03.000Z</time>
      </trkpt>
      <trkpt lat="47.26412" lon="-2.28574">
        <ele>38.599998474121</ele>
        <time>2021-02-04T10:40:10.000Z</time>
      </trkpt>
      <trkpt lat="47.26407" lon="-2.28571">
        <ele>38.599998474121</ele>
        <time>2021-02-04T10:40:11.000Z</time>
      </trkpt>
      <trkpt lat="47.26389" lon="-2.28555">
        <ele>38.599998474121</ele>
        <time>2021-02-04T10:40:16.000Z</time>
      </trkpt>
      <trkpt lat="47.26357" lon="-2.28534">
        <ele>38.599998474121</ele>
        <time>2021-02-04T10:40:24.000Z</time>
      </trkpt>
      <trkpt lat="47.26334" lon="-2.28516">
        <ele>38.599998474121</ele>
        <time>2021-02-04T10:40:30.000Z</time>
      </trkpt>
      <trkpt lat="47.26306" lon="-2.28491">
        <ele>38.599998474121</ele>
        <time>2021-02-04T10:40:36.000Z</time>
      </trkpt>
      <trkpt lat="47.26285" lon="-2.2848">
        <ele>39.200000762939</ele>
        <time>2021-02-04T10:40:40.000Z</time>
      </trkpt>
      <trkpt lat="47.2628" lon="-2.28477">
        <ele>39.599998474121</ele>
        <time>2021-02-04T10:40:41.000Z</time>
      </trkpt>
      <trkpt lat="47.26275" lon="-2.28474">
        <ele>40</ele>
        <time>2021-02-04T10:40:42.000Z</time>
      </trkpt>
      <trkpt lat="47.2627" lon="-2.28471">
        <ele>40.400001525879</ele>
        <time>2021-02-04T10:40:43.000Z</time>
      </trkpt>
      <trkpt lat="47.26266" lon="-2.28467">
        <ele>40.799999237061</ele>
        <time>2021-02-04T10:40:44.000Z</time>
      </trkpt>
      <trkpt lat="47.26261" lon="-2.28465">
        <ele>40.799999237061</ele>
        <time>2021-02-04T10:40:45.000Z</time>
      </trkpt>
      <trkpt lat="47.26238" lon="-2.28449">
        <ele>40.799999237061</ele>
        <time>2021-02-04T10:40:50.000Z</time>
      </trkpt>
      <trkpt lat="47.26212" lon="-2.28431">
        <ele>40.799999237061</ele>
        <time>2021-02-04T10:40:56.000Z</time>
      </trkpt>
      <trkpt lat="47.26184" lon="-2.28406">
        <ele>40.799999237061</ele>
        <time>2021-02-04T10:41:03.000Z</time>
      </trkpt>
      <trkpt lat="47.26154" lon="-2.28372">
        <ele>40.799999237061</ele>
        <time>2021-02-04T10:41:10.000Z</time>
      </trkpt>
      <trkpt lat="47.2611" lon="-2.28329">
        <ele>40.799999237061</ele>
        <time>2021-02-04T10:41:19.000Z</time>
      </trkpt>
      <trkpt lat="47.26084" lon="-2.28303">
        <ele>41.200000762939</ele>
        <time>2021-02-04T10:41:25.000Z</time>
      </trkpt>
      <trkpt lat="47.26079" lon="-2.28299">
        <ele>41.599998474121</ele>
        <time>2021-02-04T10:41:26.000Z</time>
      </trkpt>
      <trkpt lat="47.26075" lon="-2.28295">
        <ele>42</ele>
        <time>2021-02-04T10:41:27.000Z</time>
      </trkpt>
      <trkpt lat="47.2607" lon="-2.28292">
        <ele>42.400001525879</ele>
        <time>2021-02-04T10:41:28.000Z</time>
      </trkpt>
      <trkpt lat="47.26067" lon="-2.28288">
        <ele>42.799999237061</ele>
        <time>2021-02-04T10:41:29.000Z</time>
      </trkpt>
      <trkpt lat="47.2605" lon="-2.28274">
        <ele>42.799999237061</ele>
        <time>2021-02-04T10:41:33.000Z</time>
      </trkpt>
      <trkpt lat="47.26029" lon="-2.28258">
        <ele>42.799999237061</ele>
        <time>2021-02-04T10:41:39.000Z</time>
      </trkpt>
      <trkpt lat="47.26009" lon="-2.28246">
        <ele>42.799999237061</ele>
        <time>2021-02-04T10:41:45.000Z</time>
      </trkpt>
      <trkpt lat="47.2599" lon="-2.28243">
        <ele>42.799999237061</ele>
        <time>2021-02-04T10:41:51.000Z</time>
      </trkpt>
      <trkpt lat="47.25974" lon="-2.28242">
        <ele>42.799999237061</ele>
        <time>2021-02-04T10:41:57.000Z</time>
      </trkpt>
      <trkpt lat="47.25958" lon="-2.28246">
        <ele>42.799999237061</ele>
        <time>2021-02-04T10:42:02.000Z</time>
      </trkpt>
      <trkpt lat="47.2595" lon="-2.28258">
        <ele>42.799999237061</ele>
        <time>2021-02-04T10:42:06.000Z</time>
      </trkpt>
      <trkpt lat="47.25945" lon="-2.28266">
        <ele>42.799999237061</ele>
        <time>2021-02-04T10:42:11.000Z</time>
      </trkpt>
      <trkpt lat="47.25934" lon="-2.28271">
        <ele>42.799999237061</ele>
        <time>2021-02-04T10:42:16.000Z</time>
      </trkpt>
      <trkpt lat="47.25933" lon="-2.28274">
        <ele>42.799999237061</ele>
        <time>2021-02-04T10:42:17.000Z</time>
      </trkpt>
      <trkpt lat="47.25932" lon="-2.28285">
        <ele>42.799999237061</ele>
        <time>2021-02-04T10:42:20.000Z</time>
      </trkpt>
      <trkpt lat="47.25935" lon="-2.28311">
        <ele>42.799999237061</ele>
        <time>2021-02-04T10:42:24.000Z</time>
      </trkpt>
      <trkpt lat="47.25937" lon="-2.28358">
        <ele>42.799999237061</ele>
        <time>2021-02-04T10:42:30.000Z</time>
      </trkpt>
      <trkpt lat="47.25936" lon="-2.2842">
        <ele>42.799999237061</ele>
        <time>2021-02-04T10:42:38.000Z</time>
      </trkpt>
      <trkpt lat="47.25935" lon="-2.28465">
        <ele>42.799999237061</ele>
        <time>2021-02-04T10:42:44.000Z</time>
      </trkpt>
      <trkpt lat="47.25935" lon="-2.28472">
        <ele>42.799999237061</ele>
        <time>2021-02-04T10:42:45.000Z</time>
      </trkpt>
      <trkpt lat="47.25934" lon="-2.28515">
        <ele>42.799999237061</ele>
        <time>2021-02-04T10:42:50.000Z</time>
      </trkpt>
      <trkpt lat="47.25932" lon="-2.2857">
        <ele>42.799999237061</ele>
        <time>2021-02-04T10:42:56.000Z</time>
      </trkpt>
      <trkpt lat="47.25933" lon="-2.2863">
        <ele>42.799999237061</ele>
        <time>2021-02-04T10:43:02.000Z</time>
      </trkpt>
      <trkpt lat="47.2593" lon="-2.28676">
        <ele>42.799999237061</ele>
        <time>2021-02-04T10:43:06.000Z</time>
      </trkpt>
      <trkpt lat="47.25928" lon="-2.28749">
        <ele>42.799999237061</ele>
        <time>2021-02-04T10:43:13.000Z</time>
      </trkpt>
      <trkpt lat="47.25929" lon="-2.28773">
        <ele>42.799999237061</ele>
        <time>2021-02-04T10:43:16.000Z</time>
      </trkpt>
      <trkpt lat="47.25929" lon="-2.28787">
        <ele>42.799999237061</ele>
        <time>2021-02-04T10:43:18.000Z</time>
      </trkpt>
      <trkpt lat="47.25926" lon="-2.28818">
        <ele>42.799999237061</ele>
        <time>2021-02-04T10:43:23.000Z</time>
      </trkpt>
      <trkpt lat="47.25922" lon="-2.28823">
        <ele>42.799999237061</ele>
        <time>2021-02-04T10:43:24.000Z</time>
      </trkpt>
      <trkpt lat="47.259" lon="-2.28849">
        <ele>42.799999237061</ele>
        <time>2021-02-04T10:43:29.000Z</time>
      </trkpt>
      <trkpt lat="47.25889" lon="-2.28858">
        <ele>42.799999237061</ele>
        <time>2021-02-04T10:43:31.000Z</time>
      </trkpt>
      <trkpt lat="47.2587" lon="-2.28865">
        <ele>42.799999237061</ele>
        <time>2021-02-04T10:43:34.000Z</time>
      </trkpt>
      <trkpt lat="47.25857" lon="-2.28868">
        <ele>42.400001525879</ele>
        <time>2021-02-04T10:43:36.000Z</time>
      </trkpt>
      <trkpt lat="47.25851" lon="-2.28869">
        <ele>42</ele>
        <time>2021-02-04T10:43:37.000Z</time>
      </trkpt>
      <trkpt lat="47.25844" lon="-2.28871">
        <ele>41.599998474121</ele>
        <time>2021-02-04T10:43:38.000Z</time>
      </trkpt>
      <trkpt lat="47.25838" lon="-2.28872">
        <ele>41.200000762939</ele>
        <time>2021-02-04T10:43:39.000Z</time>
      </trkpt>
      <trkpt lat="47.25832" lon="-2.28873">
        <ele>40.799999237061</ele>
        <time>2021-02-04T10:43:40.000Z</time>
      </trkpt>
      <trkpt lat="47.2582" lon="-2.28876">
        <ele>40.799999237061</ele>
        <time>2021-02-04T10:43:42.000Z</time>
      </trkpt>
      <trkpt lat="47.25781" lon="-2.28887">
        <ele>40.799999237061</ele>
        <time>2021-02-04T10:43:49.000Z</time>
      </trkpt>
      <trkpt lat="47.25757" lon="-2.28892">
        <ele>40.799999237061</ele>
        <time>2021-02-04T10:43:53.000Z</time>
      </trkpt>
      <trkpt lat="47.25751" lon="-2.28894">
        <ele>40.799999237061</ele>
        <time>2021-02-04T10:43:54.000Z</time>
      </trkpt>
      <trkpt lat="47.25734" lon="-2.28902">
        <ele>40.400001525879</ele>
        <time>2021-02-04T10:43:57.000Z</time>
      </trkpt>
      <trkpt lat="47.25729" lon="-2.28904">
        <ele>39.799999237061</ele>
        <time>2021-02-04T10:43:58.000Z</time>
      </trkpt>
      <trkpt lat="47.25725" lon="-2.28906">
        <ele>39.400001525879</ele>
        <time>2021-02-04T10:43:59.000Z</time>
      </trkpt>
      <trkpt lat="47.25721" lon="-2.28909">
        <ele>39</ele>
        <time>2021-02-04T10:44:00.000Z</time>
      </trkpt>
      <trkpt lat="47.25718" lon="-2.28913">
        <ele>38.599998474121</ele>
        <time>2021-02-04T10:44:01.000Z</time>
      </trkpt>
      <trkpt lat="47.25712" lon="-2.28929">
        <ele>38.599998474121</ele>
        <time>2021-02-04T10:44:04.000Z</time>
      </trkpt>
      <trkpt lat="47.25711" lon="-2.28937">
        <ele>38.599998474121</ele>
        <time>2021-02-04T10:44:05.000Z</time>
      </trkpt>
      <trkpt lat="47.25709" lon="-2.28963">
        <ele>38.599998474121</ele>
        <time>2021-02-04T10:44:08.000Z</time>
      </trkpt>
      <trkpt lat="47.25707" lon="-2.2897">
        <ele>38.599998474121</ele>
        <time>2021-02-04T10:44:09.000Z</time>
      </trkpt>
      <trkpt lat="47.257" lon="-2.28982">
        <ele>38.599998474121</ele>
        <time>2021-02-04T10:44:11.000Z</time>
      </trkpt>
      <trkpt lat="47.25694" lon="-2.28985">
        <ele>38.599998474121</ele>
        <time>2021-02-04T10:44:12.000Z</time>
      </trkpt>
      <trkpt lat="47.25688" lon="-2.28987">
        <ele>38.200000762939</ele>
        <time>2021-02-04T10:44:13.000Z</time>
      </trkpt>
      <trkpt lat="47.25682" lon="-2.28989">
        <ele>37.799999237061</ele>
        <time>2021-02-04T10:44:14.000Z</time>
      </trkpt>
      <trkpt lat="47.25677" lon="-2.28992">
        <ele>37.200000762939</ele>
        <time>2021-02-04T10:44:15.000Z</time>
      </trkpt>
      <trkpt lat="47.25672" lon="-2.28994">
        <ele>36.799999237061</ele>
        <time>2021-02-04T10:44:16.000Z</time>
      </trkpt>
      <trkpt lat="47.25666" lon="-2.28995">
        <ele>36.400001525879</ele>
        <time>2021-02-04T10:44:17.000Z</time>
      </trkpt>
      <trkpt lat="47.2566" lon="-2.28996">
        <ele>36.400001525879</ele>
        <time>2021-02-04T10:44:18.000Z</time>
      </trkpt>
      <trkpt lat="47.25654" lon="-2.28996">
        <ele>36.400001525879</ele>
        <time>2021-02-04T10:44:19.000Z</time>
      </trkpt>
      <trkpt lat="47.25647" lon="-2.28992">
        <ele>36.400001525879</ele>
        <time>2021-02-04T10:44:20.000Z</time>
      </trkpt>
      <trkpt lat="47.25634" lon="-2.28985">
        <ele>36.400001525879</ele>
        <time>2021-02-04T10:44:22.000Z</time>
      </trkpt>
      <trkpt lat="47.25628" lon="-2.28982">
        <ele>36</ele>
        <time>2021-02-04T10:44:23.000Z</time>
      </trkpt>
      <trkpt lat="47.25622" lon="-2.28979">
        <ele>35.400001525879</ele>
        <time>2021-02-04T10:44:24.000Z</time>
      </trkpt>
      <trkpt lat="47.25616" lon="-2.28977">
        <ele>35</ele>
        <time>2021-02-04T10:44:25.000Z</time>
      </trkpt>
      <trkpt lat="47.2561" lon="-2.28975">
        <ele>34.599998474121</ele>
        <time>2021-02-04T10:44:26.000Z</time>
      </trkpt>
      <trkpt lat="47.25605" lon="-2.28974">
        <ele>34.200000762939</ele>
        <time>2021-02-04T10:44:27.000Z</time>
      </trkpt>
      <trkpt lat="47.25593" lon="-2.28977">
        <ele>34.200000762939</ele>
        <time>2021-02-04T10:44:29.000Z</time>
      </trkpt>
      <trkpt lat="47.25583" lon="-2.28984">
        <ele>34.200000762939</ele>
        <time>2021-02-04T10:44:31.000Z</time>
      </trkpt>
      <trkpt lat="47.25572" lon="-2.28992">
        <ele>34.200000762939</ele>
        <time>2021-02-04T10:44:33.000Z</time>
      </trkpt>
      <trkpt lat="47.25556" lon="-2.29001">
        <ele>34.200000762939</ele>
        <time>2021-02-04T10:44:36.000Z</time>
      </trkpt>
      <trkpt lat="47.2555" lon="-2.29006">
        <ele>34.200000762939</ele>
        <time>2021-02-04T10:44:37.000Z</time>
      </trkpt>
      <trkpt lat="47.25539" lon="-2.29023">
        <ele>34.200000762939</ele>
        <time>2021-02-04T10:44:40.000Z</time>
      </trkpt>
      <trkpt lat="47.25538" lon="-2.2905">
        <ele>34.200000762939</ele>
        <time>2021-02-04T10:44:43.000Z</time>
      </trkpt>
      <trkpt lat="47.25539" lon="-2.29059">
        <ele>34.200000762939</ele>
        <time>2021-02-04T10:44:44.000Z</time>
      </trkpt>
      <trkpt lat="47.25542" lon="-2.29078">
        <ele>34.200000762939</ele>
        <time>2021-02-04T10:44:46.000Z</time>
      </trkpt>
      <trkpt lat="47.2554" lon="-2.29096">
        <ele>34.200000762939</ele>
        <time>2021-02-04T10:44:48.000Z</time>
      </trkpt>
      <trkpt lat="47.25526" lon="-2.29114">
        <ele>34.200000762939</ele>
        <time>2021-02-04T10:44:51.000Z</time>
      </trkpt>
      <trkpt lat="47.25507" lon="-2.29121">
        <ele>34.200000762939</ele>
        <time>2021-02-04T10:44:54.000Z</time>
      </trkpt>
      <trkpt lat="47.25496" lon="-2.29124">
        <ele>34.200000762939</ele>
        <time>2021-02-04T10:44:56.000Z</time>
      </trkpt>
      <trkpt lat="47.25471" lon="-2.29137">
        <ele>34.599998474121</ele>
        <time>2021-02-04T10:45:01.000Z</time>
      </trkpt>
      <trkpt lat="47.25466" lon="-2.2914">
        <ele>35</ele>
        <time>2021-02-04T10:45:02.000Z</time>
      </trkpt>
      <trkpt lat="47.25461" lon="-2.29144">
        <ele>35.400001525879</ele>
        <time>2021-02-04T10:45:03.000Z</time>
      </trkpt>
      <trkpt lat="47.25457" lon="-2.29147">
        <ele>36</ele>
        <time>2021-02-04T10:45:04.000Z</time>
      </trkpt>
      <trkpt lat="47.25452" lon="-2.29151">
        <ele>36.400001525879</ele>
        <time>2021-02-04T10:45:05.000Z</time>
      </trkpt>
      <trkpt lat="47.25439" lon="-2.29165">
        <ele>36.400001525879</ele>
        <time>2021-02-04T10:45:08.000Z</time>
      </trkpt>
      <trkpt lat="47.2543" lon="-2.29175">
        <ele>36.400001525879</ele>
        <time>2021-02-04T10:45:10.000Z</time>
      </trkpt>
      <trkpt lat="47.25425" lon="-2.2919">
        <ele>36.400001525879</ele>
        <time>2021-02-04T10:45:12.000Z</time>
      </trkpt>
      <trkpt lat="47.25422" lon="-2.29219">
        <ele>36.400001525879</ele>
        <time>2021-02-04T10:45:15.000Z</time>
      </trkpt>
      <trkpt lat="47.25422" lon="-2.29228">
        <ele>36.400001525879</ele>
        <time>2021-02-04T10:45:16.000Z</time>
      </trkpt>
      <trkpt lat="47.25423" lon="-2.29291">
        <ele>36.400001525879</ele>
        <time>2021-02-04T10:45:23.000Z</time>
      </trkpt>
      <trkpt lat="47.25424" lon="-2.29349">
        <ele>36.400001525879</ele>
        <time>2021-02-04T10:45:30.000Z</time>
      </trkpt>
      <trkpt lat="47.25425" lon="-2.29407">
        <ele>36.400001525879</ele>
        <time>2021-02-04T10:45:37.000Z</time>
      </trkpt>
      <trkpt lat="47.25428" lon="-2.29488">
        <ele>36.400001525879</ele>
        <time>2021-02-04T10:45:46.000Z</time>
      </trkpt>
      <trkpt lat="47.25433" lon="-2.29546">
        <ele>36.400001525879</ele>
        <time>2021-02-04T10:45:52.000Z</time>
      </trkpt>
      <trkpt lat="47.25451" lon="-2.29599">
        <ele>36.400001525879</ele>
        <time>2021-02-04T10:45:58.000Z</time>
      </trkpt>
      <trkpt lat="47.25468" lon="-2.2966">
        <ele>36.400001525879</ele>
        <time>2021-02-04T10:46:05.000Z</time>
      </trkpt>
      <trkpt lat="47.25479" lon="-2.29718">
        <ele>36</ele>
        <time>2021-02-04T10:46:12.000Z</time>
      </trkpt>
      <trkpt lat="47.2548" lon="-2.29725">
        <ele>35.400001525879</ele>
        <time>2021-02-04T10:46:13.000Z</time>
      </trkpt>
      <trkpt lat="47.25481" lon="-2.29732">
        <ele>35</ele>
        <time>2021-02-04T10:46:14.000Z</time>
      </trkpt>
      <trkpt lat="47.25481" lon="-2.29738">
        <ele>34.599998474121</ele>
        <time>2021-02-04T10:46:15.000Z</time>
      </trkpt>
      <trkpt lat="47.25481" lon="-2.29744">
        <ele>34</ele>
        <time>2021-02-04T10:46:16.000Z</time>
      </trkpt>
      <trkpt lat="47.25478" lon="-2.29748">
        <ele>34</ele>
        <time>2021-02-04T10:46:17.000Z</time>
      </trkpt>
      <trkpt lat="47.25464" lon="-2.29755">
        <ele>34</ele>
        <time>2021-02-04T10:46:20.000Z</time>
      </trkpt>
      <trkpt lat="47.25458" lon="-2.29756">
        <ele>34</ele>
        <time>2021-02-04T10:46:21.000Z</time>
      </trkpt>
      <trkpt lat="47.25441" lon="-2.29758">
        <ele>34</ele>
        <time>2021-02-04T10:46:24.000Z</time>
      </trkpt>
      <trkpt lat="47.25436" lon="-2.29758">
        <ele>34</ele>
        <time>2021-02-04T10:46:25.000Z</time>
      </trkpt>
      <trkpt lat="47.2543" lon="-2.29758">
        <ele>34</ele>
        <time>2021-02-04T10:46:26.000Z</time>
      </trkpt>
      <trkpt lat="47.25399" lon="-2.2976">
        <ele>34</ele>
        <time>2021-02-04T10:46:32.000Z</time>
      </trkpt>
      <trkpt lat="47.25355" lon="-2.2976">
        <ele>34</ele>
        <time>2021-02-04T10:46:40.000Z</time>
      </trkpt>
      <trkpt lat="47.25332" lon="-2.29757">
        <ele>34.400001525879</ele>
        <time>2021-02-04T10:46:44.000Z</time>
      </trkpt>
      <trkpt lat="47.25326" lon="-2.29755">
        <ele>34.799999237061</ele>
        <time>2021-02-04T10:46:45.000Z</time>
      </trkpt>
      <trkpt lat="47.25321" lon="-2.29754">
        <ele>35.400001525879</ele>
        <time>2021-02-04T10:46:46.000Z</time>
      </trkpt>
      <trkpt lat="47.25315" lon="-2.29752">
        <ele>35.799999237061</ele>
        <time>2021-02-04T10:46:47.000Z</time>
      </trkpt>
      <trkpt lat="47.25309" lon="-2.29751">
        <ele>36.200000762939</ele>
        <time>2021-02-04T10:46:48.000Z</time>
      </trkpt>
      <trkpt lat="47.25273" lon="-2.29744">
        <ele>36.200000762939</ele>
        <time>2021-02-04T10:46:54.000Z</time>
      </trkpt>
      <trkpt lat="47.25231" lon="-2.2975">
        <ele>36.200000762939</ele>
        <time>2021-02-04T10:47:01.000Z</time>
      </trkpt>
      <trkpt lat="47.25196" lon="-2.29753">
        <ele>36.200000762939</ele>
        <time>2021-02-04T10:47:07.000Z</time>
      </trkpt>
      <trkpt lat="47.2519" lon="-2.29751">
        <ele>36.200000762939</ele>
        <time>2021-02-04T10:47:08.000Z</time>
      </trkpt>
      <trkpt lat="47.25153" lon="-2.29737">
        <ele>36.200000762939</ele>
        <time>2021-02-04T10:47:14.000Z</time>
      </trkpt>
      <trkpt lat="47.25119" lon="-2.29721">
        <ele>36.200000762939</ele>
        <time>2021-02-04T10:47:20.000Z</time>
      </trkpt>
      <trkpt lat="47.25081" lon="-2.29713">
        <ele>36.200000762939</ele>
        <time>2021-02-04T10:47:27.000Z</time>
      </trkpt>
      <trkpt lat="47.25041" lon="-2.29716">
        <ele>36.200000762939</ele>
        <time>2021-02-04T10:47:34.000Z</time>
      </trkpt>
      <trkpt lat="47.25036" lon="-2.29717">
        <ele>36.599998474121</ele>
        <time>2021-02-04T10:47:35.000Z</time>
      </trkpt>
      <trkpt lat="47.2503" lon="-2.29718">
        <ele>37</ele>
        <time>2021-02-04T10:47:36.000Z</time>
      </trkpt>
      <trkpt lat="47.25025" lon="-2.2972">
        <ele>37.400001525879</ele>
        <time>2021-02-04T10:47:37.000Z</time>
      </trkpt>
      <trkpt lat="47.25019" lon="-2.29721">
        <ele>38.200000762939</ele>
        <time>2021-02-04T10:47:38.000Z</time>
      </trkpt>
      <trkpt lat="47.25002" lon="-2.29725">
        <ele>38.200000762939</ele>
        <time>2021-02-04T10:47:41.000Z</time>
      </trkpt>
      <trkpt lat="47.24956" lon="-2.29736">
        <ele>38.200000762939</ele>
        <time>2021-02-04T10:47:49.000Z</time>
      </trkpt>
      <trkpt lat="47.24911" lon="-2.29754">
        <ele>38.200000762939</ele>
        <time>2021-02-04T10:47:57.000Z</time>
      </trkpt>
      <trkpt lat="47.24881" lon="-2.2977">
        <ele>38.200000762939</ele>
        <time>2021-02-04T10:48:03.000Z</time>
      </trkpt>
      <trkpt lat="47.24877" lon="-2.29774">
        <ele>38.200000762939</ele>
        <time>2021-02-04T10:48:04.000Z</time>
      </trkpt>
      <trkpt lat="47.24866" lon="-2.29794">
        <ele>38.200000762939</ele>
        <time>2021-02-04T10:48:07.000Z</time>
      </trkpt>
      <trkpt lat="47.24858" lon="-2.29828">
        <ele>38.200000762939</ele>
        <time>2021-02-04T10:48:12.000Z</time>
      </trkpt>
      <trkpt lat="47.24841" lon="-2.29842">
        <ele>38.200000762939</ele>
        <time>2021-02-04T10:48:16.000Z</time>
      </trkpt>
      <trkpt lat="47.2483" lon="-2.29846">
        <ele>38.200000762939</ele>
        <time>2021-02-04T10:48:18.000Z</time>
      </trkpt>
      <trkpt lat="47.24807" lon="-2.29851">
        <ele>38.200000762939</ele>
        <time>2021-02-04T10:48:22.000Z</time>
      </trkpt>
      <trkpt lat="47.24795" lon="-2.29856">
        <ele>38.200000762939</ele>
        <time>2021-02-04T10:48:24.000Z</time>
      </trkpt>
      <trkpt lat="47.24773" lon="-2.29872">
        <ele>38.200000762939</ele>
        <time>2021-02-04T10:48:28.000Z</time>
      </trkpt>
      <trkpt lat="47.24747" lon="-2.29895">
        <ele>38.200000762939</ele>
        <time>2021-02-04T10:48:34.000Z</time>
      </trkpt>
      <trkpt lat="47.24744" lon="-2.29918">
        <ele>38.200000762939</ele>
        <time>2021-02-04T10:48:37.000Z</time>
      </trkpt>
      <trkpt lat="47.24744" lon="-2.29927">
        <ele>38.200000762939</ele>
        <time>2021-02-04T10:48:38.000Z</time>
      </trkpt>
      <trkpt lat="47.24742" lon="-2.2998">
        <ele>38.200000762939</ele>
        <time>2021-02-04T10:48:44.000Z</time>
      </trkpt>
      <trkpt lat="47.24728" lon="-2.30011">
        <ele>38.200000762939</ele>
        <time>2021-02-04T10:48:48.000Z</time>
      </trkpt>
      <trkpt lat="47.247" lon="-2.3004">
        <ele>38.200000762939</ele>
        <time>2021-02-04T10:48:53.000Z</time>
      </trkpt>
      <trkpt lat="47.24683" lon="-2.30053">
        <ele>38.200000762939</ele>
        <time>2021-02-04T10:48:56.000Z</time>
      </trkpt>
      <trkpt lat="47.24672" lon="-2.30062">
        <ele>37.799999237061</ele>
        <time>2021-02-04T10:48:58.000Z</time>
      </trkpt>
      <trkpt lat="47.24667" lon="-2.30066">
        <ele>37.400001525879</ele>
        <time>2021-02-04T10:48:59.000Z</time>
      </trkpt>
      <trkpt lat="47.24662" lon="-2.30069">
        <ele>36.799999237061</ele>
        <time>2021-02-04T10:49:00.000Z</time>
      </trkpt>
      <trkpt lat="47.24658" lon="-2.30073">
        <ele>36.400001525879</ele>
        <time>2021-02-04T10:49:01.000Z</time>
      </trkpt>
      <trkpt lat="47.24655" lon="-2.30076">
        <ele>36</ele>
        <time>2021-02-04T10:49:02.000Z</time>
      </trkpt>
      <trkpt lat="47.24644" lon="-2.30087">
        <ele>35.599998474121</ele>
        <time>2021-02-04T10:49:06.000Z</time>
      </trkpt>
      <trkpt lat="47.2464" lon="-2.3009">
        <ele>35.200000762939</ele>
        <time>2021-02-04T10:49:07.000Z</time>
      </trkpt>
      <trkpt lat="47.24636" lon="-2.30094">
        <ele>34.599998474121</ele>
        <time>2021-02-04T10:49:08.000Z</time>
      </trkpt>
      <trkpt lat="47.24632" lon="-2.30098">
        <ele>34.200000762939</ele>
        <time>2021-02-04T10:49:09.000Z</time>
      </trkpt>
      <trkpt lat="47.24628" lon="-2.30102">
        <ele>33.799999237061</ele>
        <time>2021-02-04T10:49:10.000Z</time>
      </trkpt>
      <trkpt lat="47.24611" lon="-2.30118">
        <ele>33.799999237061</ele>
        <time>2021-02-04T10:49:14.000Z</time>
      </trkpt>
      <trkpt lat="47.24602" lon="-2.30127">
        <ele>33.799999237061</ele>
        <time>2021-02-04T10:49:16.000Z</time>
      </trkpt>
      <trkpt lat="47.24586" lon="-2.3015">
        <ele>33.799999237061</ele>
        <time>2021-02-04T10:49:20.000Z</time>
      </trkpt>
      <trkpt lat="47.24567" lon="-2.30181">
        <ele>33.799999237061</ele>
        <time>2021-02-04T10:49:25.000Z</time>
      </trkpt>
      <trkpt lat="47.24558" lon="-2.30193">
        <ele>33.799999237061</ele>
        <time>2021-02-04T10:49:27.000Z</time>
      </trkpt>
      <trkpt lat="47.24526" lon="-2.30229">
        <ele>33.799999237061</ele>
        <time>2021-02-04T10:49:34.000Z</time>
      </trkpt>
      <trkpt lat="47.24503" lon="-2.30248">
        <ele>33.400001525879</ele>
        <time>2021-02-04T10:49:39.000Z</time>
      </trkpt>
      <trkpt lat="47.24498" lon="-2.30249">
        <ele>33</ele>
        <time>2021-02-04T10:49:40.000Z</time>
      </trkpt>
      <trkpt lat="47.24493" lon="-2.30248">
        <ele>32.200000762939</ele>
        <time>2021-02-04T10:49:41.000Z</time>
      </trkpt>
      <trkpt lat="47.24488" lon="-2.30245">
        <ele>31.799999237061</ele>
        <time>2021-02-04T10:49:42.000Z</time>
      </trkpt>
      <trkpt lat="47.24485" lon="-2.3024">
        <ele>31.799999237061</ele>
        <time>2021-02-04T10:49:43.000Z</time>
      </trkpt>
      <trkpt lat="47.24479" lon="-2.30227">
        <ele>31.799999237061</ele>
        <time>2021-02-04T10:49:45.000Z</time>
      </trkpt>
      <trkpt lat="47.2447" lon="-2.30207">
        <ele>31.799999237061</ele>
        <time>2021-02-04T10:49:48.000Z</time>
      </trkpt>
      <trkpt lat="47.24464" lon="-2.30196">
        <ele>31.799999237061</ele>
        <time>2021-02-04T10:49:50.000Z</time>
      </trkpt>
      <trkpt lat="47.24458" lon="-2.30188">
        <ele>31.799999237061</ele>
        <time>2021-02-04T10:49:52.000Z</time>
      </trkpt>
      <trkpt lat="47.24443" lon="-2.30172">
        <ele>31.799999237061</ele>
        <time>2021-02-04T10:49:56.000Z</time>
      </trkpt>
      <trkpt lat="47.2444" lon="-2.30167">
        <ele>31.799999237061</ele>
        <time>2021-02-04T10:49:57.000Z</time>
      </trkpt>
      <trkpt lat="47.24428" lon="-2.30149">
        <ele>31.799999237061</ele>
        <time>2021-02-04T10:50:01.000Z</time>
      </trkpt>
      <trkpt lat="47.24424" lon="-2.30147">
        <ele>31.799999237061</ele>
        <time>2021-02-04T10:50:02.000Z</time>
      </trkpt>
      <trkpt lat="47.24409" lon="-2.30139">
        <ele>31.799999237061</ele>
        <time>2021-02-04T10:50:05.000Z</time>
      </trkpt>
      <trkpt lat="47.244" lon="-2.3013">
        <ele>31.799999237061</ele>
        <time>2021-02-04T10:50:07.000Z</time>
      </trkpt>
      <trkpt lat="47.24387" lon="-2.30103">
        <ele>31.799999237061</ele>
        <time>2021-02-04T10:50:11.000Z</time>
      </trkpt>
      <trkpt lat="47.24378" lon="-2.30089">
        <ele>31.799999237061</ele>
        <time>2021-02-04T10:50:14.000Z</time>
      </trkpt>
      <trkpt lat="47.24365" lon="-2.30094">
        <ele>31.799999237061</ele>
        <time>2021-02-04T10:50:17.000Z</time>
      </trkpt>
      <trkpt lat="47.24356" lon="-2.30104">
        <ele>31.799999237061</ele>
        <time>2021-02-04T10:50:19.000Z</time>
      </trkpt>
      <trkpt lat="47.24337" lon="-2.30124">
        <ele>31.799999237061</ele>
        <time>2021-02-04T10:50:23.000Z</time>
      </trkpt>
      <trkpt lat="47.24321" lon="-2.30129">
        <ele>31.799999237061</ele>
        <time>2021-02-04T10:50:26.000Z</time>
      </trkpt>
      <trkpt lat="47.24307" lon="-2.3012">
        <ele>31.799999237061</ele>
        <time>2021-02-04T10:50:29.000Z</time>
      </trkpt>
      <trkpt lat="47.24303" lon="-2.30118">
        <ele>31.799999237061</ele>
        <time>2021-02-04T10:50:30.000Z</time>
      </trkpt>
      <trkpt lat="47.24294" lon="-2.30117">
        <ele>31.799999237061</ele>
        <time>2021-02-04T10:50:32.000Z</time>
      </trkpt>
      <trkpt lat="47.24274" lon="-2.3013">
        <ele>31.799999237061</ele>
        <time>2021-02-04T10:50:36.000Z</time>
      </trkpt>
      <trkpt lat="47.24265" lon="-2.3014">
        <ele>31.799999237061</ele>
        <time>2021-02-04T10:50:38.000Z</time>
      </trkpt>
      <trkpt lat="47.24261" lon="-2.30145">
        <ele>31.39999961853</ele>
        <time>2021-02-04T10:50:39.000Z</time>
      </trkpt>
      <trkpt lat="47.24256" lon="-2.3015">
        <ele>31</ele>
        <time>2021-02-04T10:50:40.000Z</time>
      </trkpt>
      <trkpt lat="47.24252" lon="-2.30156">
        <ele>30.60000038147</ele>
        <time>2021-02-04T10:50:41.000Z</time>
      </trkpt>
      <trkpt lat="47.24247" lon="-2.30162">
        <ele>30.200000762939</ele>
        <time>2021-02-04T10:50:42.000Z</time>
      </trkpt>
      <trkpt lat="47.24243" lon="-2.30168">
        <ele>29.799999237061</ele>
        <time>2021-02-04T10:50:43.000Z</time>
      </trkpt>
      <trkpt lat="47.24232" lon="-2.30193">
        <ele>29.39999961853</ele>
        <time>2021-02-04T10:50:46.000Z</time>
      </trkpt>
      <trkpt lat="47.24229" lon="-2.30201">
        <ele>29</ele>
        <time>2021-02-04T10:50:47.000Z</time>
      </trkpt>
      <trkpt lat="47.24225" lon="-2.30208">
        <ele>28.60000038147</ele>
        <time>2021-02-04T10:50:48.000Z</time>
      </trkpt>
      <trkpt lat="47.24221" lon="-2.30214">
        <ele>28.200000762939</ele>
        <time>2021-02-04T10:50:49.000Z</time>
      </trkpt>
      <trkpt lat="47.24216" lon="-2.30218">
        <ele>27.799999237061</ele>
        <time>2021-02-04T10:50:50.000Z</time>
      </trkpt>
      <trkpt lat="47.24205" lon="-2.30223">
        <ele>27.799999237061</ele>
        <time>2021-02-04T10:50:52.000Z</time>
      </trkpt>
      <trkpt lat="47.242" lon="-2.30226">
        <ele>27.200000762939</ele>
        <time>2021-02-04T10:50:53.000Z</time>
      </trkpt>
      <trkpt lat="47.24195" lon="-2.30229">
        <ele>26.799999237061</ele>
        <time>2021-02-04T10:50:54.000Z</time>
      </trkpt>
      <trkpt lat="47.2419" lon="-2.30233">
        <ele>25.799999237061</ele>
        <time>2021-02-04T10:50:55.000Z</time>
      </trkpt>
      <trkpt lat="47.24186" lon="-2.30238">
        <ele>25.200000762939</ele>
        <time>2021-02-04T10:50:56.000Z</time>
      </trkpt>
      <trkpt lat="47.24181" lon="-2.30241">
        <ele>24.799999237061</ele>
        <time>2021-02-04T10:50:57.000Z</time>
      </trkpt>
      <trkpt lat="47.24176" lon="-2.30243">
        <ele>24.200000762939</ele>
        <time>2021-02-04T10:50:58.000Z</time>
      </trkpt>
      <trkpt lat="47.24171" lon="-2.30244">
        <ele>23.60000038147</ele>
        <time>2021-02-04T10:50:59.000Z</time>
      </trkpt>
      <trkpt lat="47.24166" lon="-2.30246">
        <ele>23.200000762939</ele>
        <time>2021-02-04T10:51:00.000Z</time>
      </trkpt>
      <trkpt lat="47.2416" lon="-2.30249">
        <ele>23.200000762939</ele>
        <time>2021-02-04T10:51:02.000Z</time>
      </trkpt>
      <trkpt lat="47.24152" lon="-2.30253">
        <ele>23.200000762939</ele>
        <time>2021-02-04T10:51:05.000Z</time>
      </trkpt>
      <trkpt lat="47.24147" lon="-2.30256">
        <ele>23.200000762939</ele>
        <time>2021-02-04T10:51:07.000Z</time>
      </trkpt>
      <trkpt lat="47.24141" lon="-2.30258">
        <ele>23.60000038147</ele>
        <time>2021-02-04T10:51:09.000Z</time>
      </trkpt>
      <trkpt lat="47.24137" lon="-2.3026">
        <ele>24</ele>
        <time>2021-02-04T10:51:10.000Z</time>
      </trkpt>
      <trkpt lat="47.24134" lon="-2.30261">
        <ele>24.39999961853</ele>
        <time>2021-02-04T10:51:11.000Z</time>
      </trkpt>
      <trkpt lat="47.2413" lon="-2.30263">
        <ele>25</ele>
        <time>2021-02-04T10:51:12.000Z</time>
      </trkpt>
      <trkpt lat="47.24126" lon="-2.30264">
        <ele>25.39999961853</ele>
        <time>2021-02-04T10:51:13.000Z</time>
      </trkpt>
      <trkpt lat="47.24122" lon="-2.30266">
        <ele>25.799999237061</ele>
        <time>2021-02-04T10:51:14.000Z</time>
      </trkpt>
      <trkpt lat="47.24117" lon="-2.30269">
        <ele>26.200000762939</ele>
        <time>2021-02-04T10:51:15.000Z</time>
      </trkpt>
      <trkpt lat="47.24114" lon="-2.30271">
        <ele>26.60000038147</ele>
        <time>2021-02-04T10:51:16.000Z</time>
      </trkpt>
      <trkpt lat="47.24109" lon="-2.30272">
        <ele>27.200000762939</ele>
        <time>2021-02-04T10:51:17.000Z</time>
      </trkpt>
      <trkpt lat="47.24105" lon="-2.30274">
        <ele>27.60000038147</ele>
        <time>2021-02-04T10:51:18.000Z</time>
      </trkpt>
      <trkpt lat="47.24096" lon="-2.30278">
        <ele>27.60000038147</ele>
        <time>2021-02-04T10:51:20.000Z</time>
      </trkpt>
      <trkpt lat="47.24077" lon="-2.30286">
        <ele>27.60000038147</ele>
        <time>2021-02-04T10:51:25.000Z</time>
      </trkpt>
      <trkpt lat="47.2406" lon="-2.30292">
        <ele>27.60000038147</ele>
        <time>2021-02-04T10:51:31.000Z</time>
      </trkpt>
      <trkpt lat="47.24046" lon="-2.30296">
        <ele>27.60000038147</ele>
        <time>2021-02-04T10:51:35.000Z</time>
      </trkpt>
      <trkpt lat="47.24038" lon="-2.30296">
        <ele>27.60000038147</ele>
        <time>2021-02-04T10:51:37.000Z</time>
      </trkpt>
      <trkpt lat="47.24031" lon="-2.3029">
        <ele>27.60000038147</ele>
        <time>2021-02-04T10:51:39.000Z</time>
      </trkpt>
      <trkpt lat="47.2403" lon="-2.30273">
        <ele>27.60000038147</ele>
        <time>2021-02-04T10:51:42.000Z</time>
      </trkpt>
      <trkpt lat="47.2403" lon="-2.30268">
        <ele>27.60000038147</ele>
        <time>2021-02-04T10:51:43.000Z</time>
      </trkpt>
      <trkpt lat="47.24034" lon="-2.30237">
        <ele>27.60000038147</ele>
        <time>2021-02-04T10:51:49.000Z</time>
      </trkpt>
      <trkpt lat="47.24036" lon="-2.30217">
        <ele>28</ele>
        <time>2021-02-04T10:51:53.000Z</time>
      </trkpt>
      <trkpt lat="47.24036" lon="-2.30212">
        <ele>28.39999961853</ele>
        <time>2021-02-04T10:51:54.000Z</time>
      </trkpt>
      <trkpt lat="47.24036" lon="-2.30208">
        <ele>28.799999237061</ele>
        <time>2021-02-04T10:51:55.000Z</time>
      </trkpt>
      <trkpt lat="47.24036" lon="-2.30205">
        <ele>29.200000762939</ele>
        <time>2021-02-04T10:51:56.000Z</time>
      </trkpt>
      <trkpt lat="47.24036" lon="-2.30202">
        <ele>29.60000038147</ele>
        <time>2021-02-04T10:51:57.000Z</time>
      </trkpt>
      <trkpt lat="47.24036" lon="-2.30201">
        <ele>29.60000038147</ele>
        <time>2021-02-04T10:51:58.000Z</time>
      </trkpt>
      <trkpt lat="47.24035" lon="-2.30195">
        <ele>29.60000038147</ele>
        <time>2021-02-04T10:52:00.000Z</time>
      </trkpt>
      <trkpt lat="47.24036" lon="-2.30192">
        <ele>29.60000038147</ele>
        <time>2021-02-04T10:52:01.000Z</time>
      </trkpt>
      <trkpt lat="47.2404" lon="-2.30188">
        <ele>29.60000038147</ele>
        <time>2021-02-04T10:52:03.000Z</time>
      </trkpt>
      <trkpt lat="47.24058" lon="-2.30175">
        <ele>29.60000038147</ele>
        <time>2021-02-04T10:52:09.000Z</time>
      </trkpt>
      <trkpt lat="47.2408" lon="-2.30161">
        <ele>29.60000038147</ele>
        <time>2021-02-04T10:52:15.000Z</time>
      </trkpt>
      <trkpt lat="47.24094" lon="-2.30161">
        <ele>29.60000038147</ele>
        <time>2021-02-04T10:52:19.000Z</time>
      </trkpt>
      <trkpt lat="47.24111" lon="-2.30162">
        <ele>29.60000038147</ele>
        <time>2021-02-04T10:52:23.000Z</time>
      </trkpt>
      <trkpt lat="47.24123" lon="-2.30163">
        <ele>29.60000038147</ele>
        <time>2021-02-04T10:52:28.000Z</time>
      </trkpt>
      <trkpt lat="47.24124" lon="-2.30162">
        <ele>29.60000038147</ele>
        <time>2021-02-04T10:52:29.000Z</time>
      </trkpt>
      <trkpt lat="47.24126" lon="-2.30159">
        <ele>29.200000762939</ele>
        <time>2021-02-04T10:52:30.000Z</time>
      </trkpt>
      <trkpt lat="47.24127" lon="-2.30156">
        <ele>28.799999237061</ele>
        <time>2021-02-04T10:52:31.000Z</time>
      </trkpt>
      <trkpt lat="47.24128" lon="-2.30152">
        <ele>28.39999961853</ele>
        <time>2021-02-04T10:52:32.000Z</time>
      </trkpt>
      <trkpt lat="47.24129" lon="-2.30147">
        <ele>27.799999237061</ele>
        <time>2021-02-04T10:52:33.000Z</time>
      </trkpt>
      <trkpt lat="47.2413" lon="-2.30142">
        <ele>27.39999961853</ele>
        <time>2021-02-04T10:52:34.000Z</time>
      </trkpt>
      <trkpt lat="47.24131" lon="-2.30131">
        <ele>27.39999961853</ele>
        <time>2021-02-04T10:52:36.000Z</time>
      </trkpt>
      <trkpt lat="47.24137" lon="-2.30105">
        <ele>27.39999961853</ele>
        <time>2021-02-04T10:52:41.000Z</time>
      </trkpt>
      <trkpt lat="47.24142" lon="-2.30071">
        <ele>27.39999961853</ele>
        <time>2021-02-04T10:52:49.000Z</time>
      </trkpt>
      <trkpt lat="47.24144" lon="-2.30064">
        <ele>27.799999237061</ele>
        <time>2021-02-04T10:52:51.000Z</time>
      </trkpt>
      <trkpt lat="47.24145" lon="-2.30062">
        <ele>28.200000762939</ele>
        <time>2021-02-04T10:52:52.000Z</time>
      </trkpt>
      <trkpt lat="47.24147" lon="-2.30059">
        <ele>28.799999237061</ele>
        <time>2021-02-04T10:52:53.000Z</time>
      </trkpt>
      <trkpt lat="47.24148" lon="-2.30057">
        <ele>29.200000762939</ele>
        <time>2021-02-04T10:52:54.000Z</time>
      </trkpt>
      <trkpt lat="47.24151" lon="-2.30055">
        <ele>29.60000038147</ele>
        <time>2021-02-04T10:52:55.000Z</time>
      </trkpt>
      <trkpt lat="47.24152" lon="-2.30054">
        <ele>29.60000038147</ele>
        <time>2021-02-04T10:52:56.000Z</time>
      </trkpt>
      <trkpt lat="47.24173" lon="-2.3004">
        <ele>31.60000038147</ele>
        <time>2021-02-04T10:53:20.000Z</time>
      </trkpt>
      <trkpt lat="47.24176" lon="-2.30035">
        <ele>31.60000038147</ele>
        <time>2021-02-04T10:53:22.000Z</time>
      </trkpt>
      <trkpt lat="47.24177" lon="-2.30016">
        <ele>31.60000038147</ele>
        <time>2021-02-04T10:53:28.000Z</time>
      </trkpt>
      <trkpt lat="47.24171" lon="-2.3">
        <ele>31.60000038147</ele>
        <time>2021-02-04T10:53:34.000Z</time>
      </trkpt>
      <trkpt lat="47.24163" lon="-2.29986">
        <ele>32</ele>
        <time>2021-02-04T10:53:38.000Z</time>
      </trkpt>
      <trkpt lat="47.24161" lon="-2.29982">
        <ele>32.400001525879</ele>
        <time>2021-02-04T10:53:39.000Z</time>
      </trkpt>
      <trkpt lat="47.2416" lon="-2.29977">
        <ele>33</ele>
        <time>2021-02-04T10:53:40.000Z</time>
      </trkpt>
      <trkpt lat="47.24159" lon="-2.29972">
        <ele>33.400001525879</ele>
        <time>2021-02-04T10:53:41.000Z</time>
      </trkpt>
      <trkpt lat="47.24158" lon="-2.29966">
        <ele>33.799999237061</ele>
        <time>2021-02-04T10:53:42.000Z</time>
      </trkpt>
      <trkpt lat="47.24155" lon="-2.29955">
        <ele>33.799999237061</ele>
        <time>2021-02-04T10:53:44.000Z</time>
      </trkpt>
      <trkpt lat="47.24155" lon="-2.29943">
        <ele>33.799999237061</ele>
        <time>2021-02-04T10:53:46.000Z</time>
      </trkpt>
      <trkpt lat="47.24167" lon="-2.29925">
        <ele>33.799999237061</ele>
        <time>2021-02-04T10:53:51.000Z</time>
      </trkpt>
      <trkpt lat="47.24171" lon="-2.29916">
        <ele>33.799999237061</ele>
        <time>2021-02-04T10:53:56.000Z</time>
      </trkpt>
      <trkpt lat="47.24172" lon="-2.29908">
        <ele>33.799999237061</ele>
        <time>2021-02-04T10:54:16.000Z</time>
      </trkpt>
      <trkpt lat="47.24173" lon="-2.29905">
        <ele>33.799999237061</ele>
        <time>2021-02-04T10:54:17.000Z</time>
      </trkpt>
      <trkpt lat="47.24175" lon="-2.29895">
        <ele>33.799999237061</ele>
        <time>2021-02-04T10:54:20.000Z</time>
      </trkpt>
      <trkpt lat="47.24176" lon="-2.2989">
        <ele>33.799999237061</ele>
        <time>2021-02-04T10:54:22.000Z</time>
      </trkpt>
      <trkpt lat="47.24173" lon="-2.29869">
        <ele>33.799999237061</ele>
        <time>2021-02-04T10:54:28.000Z</time>
      </trkpt>
      <trkpt lat="47.24167" lon="-2.29868">
        <ele>33.799999237061</ele>
        <time>2021-02-04T10:54:31.000Z</time>
      </trkpt>
      <trkpt lat="47.24161" lon="-2.29865">
        <ele>33.799999237061</ele>
        <time>2021-02-04T10:54:34.000Z</time>
      </trkpt>
      <trkpt lat="47.2416" lon="-2.29862">
        <ele>33.799999237061</ele>
        <time>2021-02-04T10:54:35.000Z</time>
      </trkpt>
      <trkpt lat="47.24156" lon="-2.29844">
        <ele>33.799999237061</ele>
        <time>2021-02-04T10:54:39.000Z</time>
      </trkpt>
      <trkpt lat="47.24153" lon="-2.29843">
        <ele>33.799999237061</ele>
        <time>2021-02-04T10:54:40.000Z</time>
      </trkpt>
      <trkpt lat="47.24134" lon="-2.29847">
        <ele>33.799999237061</ele>
        <time>2021-02-04T10:54:45.000Z</time>
      </trkpt>
      <trkpt lat="47.24109" lon="-2.29848">
        <ele>33.799999237061</ele>
        <time>2021-02-04T10:54:50.000Z</time>
      </trkpt>
      <trkpt lat="47.24085" lon="-2.29846">
        <ele>33.799999237061</ele>
        <time>2021-02-04T10:54:56.000Z</time>
      </trkpt>
      <trkpt lat="47.2408" lon="-2.29855">
        <ele>33.799999237061</ele>
        <time>2021-02-04T10:55:00.000Z</time>
      </trkpt>
      <trkpt lat="47.24082" lon="-2.29868">
        <ele>33.799999237061</ele>
        <time>2021-02-04T10:55:03.000Z</time>
      </trkpt>
      <trkpt lat="47.24081" lon="-2.29878">
        <ele>33.799999237061</ele>
        <time>2021-02-04T10:55:05.000Z</time>
      </trkpt>
      <trkpt lat="47.24075" lon="-2.2991">
        <ele>33.799999237061</ele>
        <time>2021-02-04T10:55:10.000Z</time>
      </trkpt>
      <trkpt lat="47.24076" lon="-2.29937">
        <ele>33.799999237061</ele>
        <time>2021-02-04T10:55:15.000Z</time>
      </trkpt>
      <trkpt lat="47.24083" lon="-2.29952">
        <ele>33.799999237061</ele>
        <time>2021-02-04T10:55:20.000Z</time>
      </trkpt>
      <trkpt lat="47.24086" lon="-2.29965">
        <ele>33.799999237061</ele>
        <time>2021-02-04T10:55:24.000Z</time>
      </trkpt>
      <trkpt lat="47.24088" lon="-2.29971">
        <ele>33.799999237061</ele>
        <time>2021-02-04T10:55:26.000Z</time>
      </trkpt>
      <trkpt lat="47.24103" lon="-2.29979">
        <ele>33.799999237061</ele>
        <time>2021-02-04T10:55:31.000Z</time>
      </trkpt>
      <trkpt lat="47.24123" lon="-2.29984">
        <ele>33.799999237061</ele>
        <time>2021-02-04T10:55:36.000Z</time>
      </trkpt>
      <trkpt lat="47.24134" lon="-2.29999">
        <ele>33.799999237061</ele>
        <time>2021-02-04T10:55:40.000Z</time>
      </trkpt>
      <trkpt lat="47.24135" lon="-2.30008">
        <ele>33.799999237061</ele>
        <time>2021-02-04T10:55:42.000Z</time>
      </trkpt>
      <trkpt lat="47.24137" lon="-2.30022">
        <ele>33.799999237061</ele>
        <time>2021-02-04T10:55:45.000Z</time>
      </trkpt>
      <trkpt lat="47.24142" lon="-2.30052">
        <ele>33.799999237061</ele>
        <time>2021-02-04T10:55:50.000Z</time>
      </trkpt>
      <trkpt lat="47.24143" lon="-2.30058">
        <ele>32.799999237061</ele>
        <time>2021-02-04T10:55:51.000Z</time>
      </trkpt>
      <trkpt lat="47.24145" lon="-2.30063">
        <ele>32.200000762939</ele>
        <time>2021-02-04T10:55:52.000Z</time>
      </trkpt>
      <trkpt lat="47.24147" lon="-2.30068">
        <ele>31.799999237061</ele>
        <time>2021-02-04T10:55:53.000Z</time>
      </trkpt>
      <trkpt lat="47.24148" lon="-2.30075">
        <ele>31.200000762939</ele>
        <time>2021-02-04T10:55:54.000Z</time>
      </trkpt>
      <trkpt lat="47.24149" lon="-2.30082">
        <ele>31.200000762939</ele>
        <time>2021-02-04T10:55:55.000Z</time>
      </trkpt>
      <trkpt lat="47.2415" lon="-2.30093">
        <ele>30.799999237061</ele>
        <time>2021-02-04T10:55:57.000Z</time>
      </trkpt>
      <trkpt lat="47.2415" lon="-2.30098">
        <ele>30.39999961853</ele>
        <time>2021-02-04T10:55:58.000Z</time>
      </trkpt>
      <trkpt lat="47.2415" lon="-2.30102">
        <ele>30</ele>
        <time>2021-02-04T10:55:59.000Z</time>
      </trkpt>
      <trkpt lat="47.24149" lon="-2.30108">
        <ele>29.39999961853</ele>
        <time>2021-02-04T10:56:00.000Z</time>
      </trkpt>
      <trkpt lat="47.24148" lon="-2.30113">
        <ele>29</ele>
        <time>2021-02-04T10:56:01.000Z</time>
      </trkpt>
      <trkpt lat="47.24139" lon="-2.30135">
        <ele>29</ele>
        <time>2021-02-04T10:56:05.000Z</time>
      </trkpt>
      <trkpt lat="47.24134" lon="-2.30141">
        <ele>29</ele>
        <time>2021-02-04T10:56:07.000Z</time>
      </trkpt>
      <trkpt lat="47.24131" lon="-2.30145">
        <ele>29</ele>
        <time>2021-02-04T10:56:09.000Z</time>
      </trkpt>
      <trkpt lat="47.2413" lon="-2.30148">
        <ele>29</ele>
        <time>2021-02-04T10:56:11.000Z</time>
      </trkpt>
      <trkpt lat="47.24135" lon="-2.30158">
        <ele>27.799999237061</ele>
        <time>2021-02-04T10:56:21.000Z</time>
      </trkpt>
      <trkpt lat="47.24136" lon="-2.3016">
        <ele>27.39999961853</ele>
        <time>2021-02-04T10:56:22.000Z</time>
      </trkpt>
      <trkpt lat="47.24137" lon="-2.30162">
        <ele>27</ele>
        <time>2021-02-04T10:56:23.000Z</time>
      </trkpt>
      <trkpt lat="47.24144" lon="-2.3018">
        <ele>27</ele>
        <time>2021-02-04T10:56:27.000Z</time>
      </trkpt>
      <trkpt lat="47.24148" lon="-2.30192">
        <ele>26.60000038147</ele>
        <time>2021-02-04T10:56:29.000Z</time>
      </trkpt>
      <trkpt lat="47.24149" lon="-2.30201">
        <ele>26</ele>
        <time>2021-02-04T10:56:30.000Z</time>
      </trkpt>
      <trkpt lat="47.2415" lon="-2.3021">
        <ele>25.60000038147</ele>
        <time>2021-02-04T10:56:31.000Z</time>
      </trkpt>
      <trkpt lat="47.24152" lon="-2.30217">
        <ele>25.200000762939</ele>
        <time>2021-02-04T10:56:32.000Z</time>
      </trkpt>
      <trkpt lat="47.24153" lon="-2.30224">
        <ele>24.799999237061</ele>
        <time>2021-02-04T10:56:33.000Z</time>
      </trkpt>
      <trkpt lat="47.24157" lon="-2.30232">
        <ele>24.799999237061</ele>
        <time>2021-02-04T10:56:34.000Z</time>
      </trkpt>
      <trkpt lat="47.24166" lon="-2.30242">
        <ele>24.799999237061</ele>
        <time>2021-02-04T10:56:36.000Z</time>
      </trkpt>
      <trkpt lat="47.24176" lon="-2.30242">
        <ele>24.39999961853</ele>
        <time>2021-02-04T10:56:38.000Z</time>
      </trkpt>
      <trkpt lat="47.24181" lon="-2.30238">
        <ele>24</ele>
        <time>2021-02-04T10:56:39.000Z</time>
      </trkpt>
      <trkpt lat="47.24184" lon="-2.30239">
        <ele>23.200000762939</ele>
        <time>2021-02-04T10:56:40.000Z</time>
      </trkpt>
      <trkpt lat="47.24186" lon="-2.30243">
        <ele>22.799999237061</ele>
        <time>2021-02-04T10:56:41.000Z</time>
      </trkpt>
      <trkpt lat="47.24189" lon="-2.30255">
        <ele>22.799999237061</ele>
        <time>2021-02-04T10:56:44.000Z</time>
      </trkpt>
      <trkpt lat="47.24191" lon="-2.30265">
        <ele>22.799999237061</ele>
        <time>2021-02-04T10:56:46.000Z</time>
      </trkpt>
      <trkpt lat="47.24195" lon="-2.30281">
        <ele>22.799999237061</ele>
        <time>2021-02-04T10:56:51.000Z</time>
      </trkpt>
      <trkpt lat="47.24197" lon="-2.30294">
        <ele>22.799999237061</ele>
        <time>2021-02-04T10:56:57.000Z</time>
      </trkpt>
      <trkpt lat="47.24201" lon="-2.30315">
        <ele>22.799999237061</ele>
        <time>2021-02-04T10:57:03.000Z</time>
      </trkpt>
      <trkpt lat="47.24208" lon="-2.30328">
        <ele>22.799999237061</ele>
        <time>2021-02-04T10:57:08.000Z</time>
      </trkpt>
      <trkpt lat="47.24216" lon="-2.30329">
        <ele>22.799999237061</ele>
        <time>2021-02-04T10:57:12.000Z</time>
      </trkpt>
      <trkpt lat="47.2422" lon="-2.30327">
        <ele>23.200000762939</ele>
        <time>2021-02-04T10:57:14.000Z</time>
      </trkpt>
      <trkpt lat="47.24222" lon="-2.30326">
        <ele>23.60000038147</ele>
        <time>2021-02-04T10:57:15.000Z</time>
      </trkpt>
      <trkpt lat="47.24224" lon="-2.30324">
        <ele>24</ele>
        <time>2021-02-04T10:57:16.000Z</time>
      </trkpt>
      <trkpt lat="47.24226" lon="-2.30322">
        <ele>24.60000038147</ele>
        <time>2021-02-04T10:57:17.000Z</time>
      </trkpt>
      <trkpt lat="47.24228" lon="-2.3032">
        <ele>25</ele>
        <time>2021-02-04T10:57:18.000Z</time>
      </trkpt>
      <trkpt lat="47.2423" lon="-2.3032">
        <ele>25</ele>
        <time>2021-02-04T10:57:19.000Z</time>
      </trkpt>
      <trkpt lat="47.24232" lon="-2.3032">
        <ele>25.39999961853</ele>
        <time>2021-02-04T10:57:20.000Z</time>
      </trkpt>
      <trkpt lat="47.24234" lon="-2.30321">
        <ele>25.799999237061</ele>
        <time>2021-02-04T10:57:21.000Z</time>
      </trkpt>
      <trkpt lat="47.24237" lon="-2.30324">
        <ele>26.200000762939</ele>
        <time>2021-02-04T10:57:22.000Z</time>
      </trkpt>
      <trkpt lat="47.2424" lon="-2.30327">
        <ele>26.60000038147</ele>
        <time>2021-02-04T10:57:23.000Z</time>
      </trkpt>
      <trkpt lat="47.24242" lon="-2.30331">
        <ele>27.200000762939</ele>
        <time>2021-02-04T10:57:24.000Z</time>
      </trkpt>
      <trkpt lat="47.24248" lon="-2.30344">
        <ele>27.200000762939</ele>
        <time>2021-02-04T10:57:27.000Z</time>
      </trkpt>
      <trkpt lat="47.24252" lon="-2.30351">
        <ele>27.200000762939</ele>
        <time>2021-02-04T10:57:29.000Z</time>
      </trkpt>
      <trkpt lat="47.24262" lon="-2.30368">
        <ele>27.200000762939</ele>
        <time>2021-02-04T10:57:34.000Z</time>
      </trkpt>
      <trkpt lat="47.24277" lon="-2.30395">
        <ele>27.200000762939</ele>
        <time>2021-02-04T10:57:41.000Z</time>
      </trkpt>
      <trkpt lat="47.24293" lon="-2.30412">
        <ele>27.200000762939</ele>
        <time>2021-02-04T10:57:47.000Z</time>
      </trkpt>
      <trkpt lat="47.2431" lon="-2.30421">
        <ele>27.200000762939</ele>
        <time>2021-02-04T10:57:54.000Z</time>
      </trkpt>
      <trkpt lat="47.24324" lon="-2.30435">
        <ele>27.200000762939</ele>
        <time>2021-02-04T10:57:59.000Z</time>
      </trkpt>
      <trkpt lat="47.24333" lon="-2.30439">
        <ele>27.200000762939</ele>
        <time>2021-02-04T10:58:04.000Z</time>
      </trkpt>
      <trkpt lat="47.24346" lon="-2.30445">
        <ele>27.200000762939</ele>
        <time>2021-02-04T10:58:10.000Z</time>
      </trkpt>
      <trkpt lat="47.24362" lon="-2.30447">
        <ele>27.200000762939</ele>
        <time>2021-02-04T10:58:16.000Z</time>
      </trkpt>
      <trkpt lat="47.24374" lon="-2.30443">
        <ele>27.200000762939</ele>
        <time>2021-02-04T10:58:21.000Z</time>
      </trkpt>
      <trkpt lat="47.24376" lon="-2.30446">
        <ele>27.200000762939</ele>
        <time>2021-02-04T10:58:22.000Z</time>
      </trkpt>
      <trkpt lat="47.24378" lon="-2.30468">
        <ele>27.200000762939</ele>
        <time>2021-02-04T10:58:27.000Z</time>
      </trkpt>
      <trkpt lat="47.24375" lon="-2.30479">
        <ele>27.200000762939</ele>
        <time>2021-02-04T10:58:29.000Z</time>
      </trkpt>
      <trkpt lat="47.24372" lon="-2.30493">
        <ele>26.60000038147</ele>
        <time>2021-02-04T10:58:31.000Z</time>
      </trkpt>
      <trkpt lat="47.2437" lon="-2.30498">
        <ele>26.200000762939</ele>
        <time>2021-02-04T10:58:32.000Z</time>
      </trkpt>
      <trkpt lat="47.24367" lon="-2.30504">
        <ele>25.799999237061</ele>
        <time>2021-02-04T10:58:33.000Z</time>
      </trkpt>
      <trkpt lat="47.24367" lon="-2.30509">
        <ele>25.39999961853</ele>
        <time>2021-02-04T10:58:34.000Z</time>
      </trkpt>
      <trkpt lat="47.24367" lon="-2.30515">
        <ele>25</ele>
        <time>2021-02-04T10:58:35.000Z</time>
      </trkpt>
      <trkpt lat="47.24369" lon="-2.30527">
        <ele>24.39999961853</ele>
        <time>2021-02-04T10:58:37.000Z</time>
      </trkpt>
      <trkpt lat="47.2437" lon="-2.30535">
        <ele>24</ele>
        <time>2021-02-04T10:58:38.000Z</time>
      </trkpt>
      <trkpt lat="47.24371" lon="-2.30542">
        <ele>23.39999961853</ele>
        <time>2021-02-04T10:58:39.000Z</time>
      </trkpt>
      <trkpt lat="47.24373" lon="-2.30549">
        <ele>23</ele>
        <time>2021-02-04T10:58:40.000Z</time>
      </trkpt>
      <trkpt lat="47.24375" lon="-2.30555">
        <ele>22.39999961853</ele>
        <time>2021-02-04T10:58:41.000Z</time>
      </trkpt>
      <trkpt lat="47.24376" lon="-2.3056">
        <ele>22</ele>
        <time>2021-02-04T10:58:42.000Z</time>
      </trkpt>
      <trkpt lat="47.24378" lon="-2.30563">
        <ele>21.60000038147</ele>
        <time>2021-02-04T10:58:43.000Z</time>
      </trkpt>
      <trkpt lat="47.24381" lon="-2.30566">
        <ele>20.60000038147</ele>
        <time>2021-02-04T10:58:44.000Z</time>
      </trkpt>
      <trkpt lat="47.24383" lon="-2.30568">
        <ele>20.200000762939</ele>
        <time>2021-02-04T10:58:45.000Z</time>
      </trkpt>
      <trkpt lat="47.24399" lon="-2.30574">
        <ele>20.200000762939</ele>
        <time>2021-02-04T10:58:49.000Z</time>
      </trkpt>
      <trkpt lat="47.24423" lon="-2.30567">
        <ele>20.200000762939</ele>
        <time>2021-02-04T10:58:53.000Z</time>
      </trkpt>
      <trkpt lat="47.24429" lon="-2.30565">
        <ele>20.200000762939</ele>
        <time>2021-02-04T10:58:54.000Z</time>
      </trkpt>
      <trkpt lat="47.24435" lon="-2.30562">
        <ele>20.799999237061</ele>
        <time>2021-02-04T10:58:55.000Z</time>
      </trkpt>
      <trkpt lat="47.2444" lon="-2.30558">
        <ele>21.200000762939</ele>
        <time>2021-02-04T10:58:56.000Z</time>
      </trkpt>
      <trkpt lat="47.24445" lon="-2.30555">
        <ele>21.60000038147</ele>
        <time>2021-02-04T10:58:57.000Z</time>
      </trkpt>
      <trkpt lat="47.24449" lon="-2.30551">
        <ele>22.200000762939</ele>
        <time>2021-02-04T10:58:58.000Z</time>
      </trkpt>
      <trkpt lat="47.24454" lon="-2.30548">
        <ele>22.60000038147</ele>
        <time>2021-02-04T10:58:59.000Z</time>
      </trkpt>
      <trkpt lat="47.24457" lon="-2.30546">
        <ele>22.60000038147</ele>
        <time>2021-02-04T10:59:00.000Z</time>
      </trkpt>
      <trkpt lat="47.2446" lon="-2.30545">
        <ele>22.60000038147</ele>
        <time>2021-02-04T10:59:01.000Z</time>
      </trkpt>
      <trkpt lat="47.24464" lon="-2.30549">
        <ele>22.60000038147</ele>
        <time>2021-02-04T10:59:03.000Z</time>
      </trkpt>
      <trkpt lat="47.24465" lon="-2.30552">
        <ele>23</ele>
        <time>2021-02-04T10:59:04.000Z</time>
      </trkpt>
      <trkpt lat="47.24464" lon="-2.30556">
        <ele>23.39999961853</ele>
        <time>2021-02-04T10:59:05.000Z</time>
      </trkpt>
      <trkpt lat="47.24464" lon="-2.3056">
        <ele>23.799999237061</ele>
        <time>2021-02-04T10:59:06.000Z</time>
      </trkpt>
      <trkpt lat="47.24463" lon="-2.30564">
        <ele>24.200000762939</ele>
        <time>2021-02-04T10:59:07.000Z</time>
      </trkpt>
      <trkpt lat="47.24463" lon="-2.30568">
        <ele>24.60000038147</ele>
        <time>2021-02-04T10:59:08.000Z</time>
      </trkpt>
      <trkpt lat="47.24464" lon="-2.30586">
        <ele>24.60000038147</ele>
        <time>2021-02-04T10:59:11.000Z</time>
      </trkpt>
      <trkpt lat="47.24465" lon="-2.30599">
        <ele>25</ele>
        <time>2021-02-04T10:59:13.000Z</time>
      </trkpt>
      <trkpt lat="47.24465" lon="-2.30605">
        <ele>25.39999961853</ele>
        <time>2021-02-04T10:59:14.000Z</time>
      </trkpt>
      <trkpt lat="47.24464" lon="-2.3061">
        <ele>25.799999237061</ele>
        <time>2021-02-04T10:59:15.000Z</time>
      </trkpt>
      <trkpt lat="47.24464" lon="-2.30616">
        <ele>26.200000762939</ele>
        <time>2021-02-04T10:59:16.000Z</time>
      </trkpt>
      <trkpt lat="47.24463" lon="-2.30621">
        <ele>26.799999237061</ele>
        <time>2021-02-04T10:59:17.000Z</time>
      </trkpt>
      <trkpt lat="47.2446" lon="-2.30638">
        <ele>26.799999237061</ele>
        <time>2021-02-04T10:59:21.000Z</time>
      </trkpt>
      <trkpt lat="47.24455" lon="-2.30658">
        <ele>26.799999237061</ele>
        <time>2021-02-04T10:59:27.000Z</time>
      </trkpt>
      <trkpt lat="47.2445" lon="-2.30683">
        <ele>26.799999237061</ele>
        <time>2021-02-04T10:59:33.000Z</time>
      </trkpt>
      <trkpt lat="47.24448" lon="-2.30702">
        <ele>27.200000762939</ele>
        <time>2021-02-04T10:59:36.000Z</time>
      </trkpt>
      <trkpt lat="47.24448" lon="-2.30708">
        <ele>27.60000038147</ele>
        <time>2021-02-04T10:59:37.000Z</time>
      </trkpt>
      <trkpt lat="47.24447" lon="-2.30714">
        <ele>28</ele>
        <time>2021-02-04T10:59:38.000Z</time>
      </trkpt>
      <trkpt lat="47.24446" lon="-2.3072">
        <ele>28.39999961853</ele>
        <time>2021-02-04T10:59:39.000Z</time>
      </trkpt>
      <trkpt lat="47.24446" lon="-2.30727">
        <ele>28.799999237061</ele>
        <time>2021-02-04T10:59:40.000Z</time>
      </trkpt>
      <trkpt lat="47.24446" lon="-2.30764">
        <ele>28.799999237061</ele>
        <time>2021-02-04T10:59:45.000Z</time>
      </trkpt>
      <trkpt lat="47.24444" lon="-2.30828">
        <ele>28.799999237061</ele>
        <time>2021-02-04T10:59:53.000Z</time>
      </trkpt>
      <trkpt lat="47.24442" lon="-2.30884">
        <ele>28.39999961853</ele>
        <time>2021-02-04T10:59:59.000Z</time>
      </trkpt>
      <trkpt lat="47.24442" lon="-2.30893">
        <ele>28</ele>
        <time>2021-02-04T11:00:00.000Z</time>
      </trkpt>
      <trkpt lat="47.24441" lon="-2.30902">
        <ele>27.60000038147</ele>
        <time>2021-02-04T11:00:01.000Z</time>
      </trkpt>
      <trkpt lat="47.2444" lon="-2.30912">
        <ele>27</ele>
        <time>2021-02-04T11:00:02.000Z</time>
      </trkpt>
      <trkpt lat="47.24438" lon="-2.3092">
        <ele>26.60000038147</ele>
        <time>2021-02-04T11:00:03.000Z</time>
      </trkpt>
      <trkpt lat="47.2443" lon="-2.30936">
        <ele>26.60000038147</ele>
        <time>2021-02-04T11:00:05.000Z</time>
      </trkpt>
      <trkpt lat="47.24419" lon="-2.30947">
        <ele>26.60000038147</ele>
        <time>2021-02-04T11:00:07.000Z</time>
      </trkpt>
      <trkpt lat="47.24411" lon="-2.30962">
        <ele>26.60000038147</ele>
        <time>2021-02-04T11:00:09.000Z</time>
      </trkpt>
      <trkpt lat="47.24409" lon="-2.30971">
        <ele>26.200000762939</ele>
        <time>2021-02-04T11:00:10.000Z</time>
      </trkpt>
      <trkpt lat="47.24407" lon="-2.30982">
        <ele>25.799999237061</ele>
        <time>2021-02-04T11:00:11.000Z</time>
      </trkpt>
      <trkpt lat="47.24406" lon="-2.30992">
        <ele>25.39999961853</ele>
        <time>2021-02-04T11:00:12.000Z</time>
      </trkpt>
      <trkpt lat="47.24406" lon="-2.31001">
        <ele>25</ele>
        <time>2021-02-04T11:00:13.000Z</time>
      </trkpt>
      <trkpt lat="47.24405" lon="-2.31009">
        <ele>24.60000038147</ele>
        <time>2021-02-04T11:00:14.000Z</time>
      </trkpt>
      <trkpt lat="47.24405" lon="-2.31024">
        <ele>24.60000038147</ele>
        <time>2021-02-04T11:00:16.000Z</time>
      </trkpt>
      <trkpt lat="47.24408" lon="-2.31057">
        <ele>24.60000038147</ele>
        <time>2021-02-04T11:00:21.000Z</time>
      </trkpt>
      <trkpt lat="47.24409" lon="-2.31103">
        <ele>24.60000038147</ele>
        <time>2021-02-04T11:00:28.000Z</time>
      </trkpt>
      <trkpt lat="47.2441" lon="-2.3115">
        <ele>24</ele>
        <time>2021-02-04T11:00:34.000Z</time>
      </trkpt>
      <trkpt lat="47.24411" lon="-2.31156">
        <ele>23.60000038147</ele>
        <time>2021-02-04T11:00:35.000Z</time>
      </trkpt>
      <trkpt lat="47.24411" lon="-2.31161">
        <ele>23</ele>
        <time>2021-02-04T11:00:36.000Z</time>
      </trkpt>
      <trkpt lat="47.24411" lon="-2.31164">
        <ele>22.60000038147</ele>
        <time>2021-02-04T11:00:37.000Z</time>
      </trkpt>
      <trkpt lat="47.2441" lon="-2.31167">
        <ele>22</ele>
        <time>2021-02-04T11:00:38.000Z</time>
      </trkpt>
      <trkpt lat="47.2441" lon="-2.31171">
        <ele>21.39999961853</ele>
        <time>2021-02-04T11:00:39.000Z</time>
      </trkpt>
      <trkpt lat="47.2441" lon="-2.31174">
        <ele>21</ele>
        <time>2021-02-04T11:00:40.000Z</time>
      </trkpt>
      <trkpt lat="47.2441" lon="-2.31178">
        <ele>20.39999961853</ele>
        <time>2021-02-04T11:00:41.000Z</time>
      </trkpt>
      <trkpt lat="47.2441" lon="-2.31182">
        <ele>19.799999237061</ele>
        <time>2021-02-04T11:00:42.000Z</time>
      </trkpt>
      <trkpt lat="47.24411" lon="-2.31189">
        <ele>19.39999961853</ele>
        <time>2021-02-04T11:00:44.000Z</time>
      </trkpt>
      <trkpt lat="47.24412" lon="-2.31191">
        <ele>19</ele>
        <time>2021-02-04T11:00:45.000Z</time>
      </trkpt>
      <trkpt lat="47.24414" lon="-2.31194">
        <ele>18.60000038147</ele>
        <time>2021-02-04T11:00:46.000Z</time>
      </trkpt>
      <trkpt lat="47.24415" lon="-2.31198">
        <ele>18.200000762939</ele>
        <time>2021-02-04T11:00:47.000Z</time>
      </trkpt>
      <trkpt lat="47.24417" lon="-2.31204">
        <ele>17.799999237061</ele>
        <time>2021-02-04T11:00:48.000Z</time>
      </trkpt>
      <trkpt lat="47.24419" lon="-2.31208">
        <ele>17.799999237061</ele>
        <time>2021-02-04T11:00:49.000Z</time>
      </trkpt>
      <trkpt lat="47.24422" lon="-2.31214">
        <ele>17.200000762939</ele>
        <time>2021-02-04T11:00:50.000Z</time>
      </trkpt>
      <trkpt lat="47.24425" lon="-2.31219">
        <ele>16.799999237061</ele>
        <time>2021-02-04T11:00:51.000Z</time>
      </trkpt>
      <trkpt lat="47.24427" lon="-2.31223">
        <ele>16.200000762939</ele>
        <time>2021-02-04T11:00:52.000Z</time>
      </trkpt>
      <trkpt lat="47.2443" lon="-2.31226">
        <ele>15.800000190735</ele>
        <time>2021-02-04T11:00:53.000Z</time>
      </trkpt>
      <trkpt lat="47.24433" lon="-2.31226">
        <ele>15.199999809265</ele>
        <time>2021-02-04T11:00:54.000Z</time>
      </trkpt>
      <trkpt lat="47.24436" lon="-2.31226">
        <ele>15.199999809265</ele>
        <time>2021-02-04T11:00:55.000Z</time>
      </trkpt>
      <trkpt lat="47.24447" lon="-2.31229">
        <ele>15.199999809265</ele>
        <time>2021-02-04T11:01:00.000Z</time>
      </trkpt>
      <trkpt lat="47.24456" lon="-2.31246">
        <ele>15.60000038147</ele>
        <time>2021-02-04T11:01:04.000Z</time>
      </trkpt>
      <trkpt lat="47.24458" lon="-2.31251">
        <ele>16</ele>
        <time>2021-02-04T11:01:05.000Z</time>
      </trkpt>
      <trkpt lat="47.2446" lon="-2.31257">
        <ele>16.39999961853</ele>
        <time>2021-02-04T11:01:06.000Z</time>
      </trkpt>
      <trkpt lat="47.24463" lon="-2.31263">
        <ele>16.799999237061</ele>
        <time>2021-02-04T11:01:07.000Z</time>
      </trkpt>
      <trkpt lat="47.24465" lon="-2.31268">
        <ele>17.39999961853</ele>
        <time>2021-02-04T11:01:08.000Z</time>
      </trkpt>
      <trkpt lat="47.2447" lon="-2.3128">
        <ele>17.39999961853</ele>
        <time>2021-02-04T11:01:10.000Z</time>
      </trkpt>
      <trkpt lat="47.24478" lon="-2.31296">
        <ele>17.39999961853</ele>
        <time>2021-02-04T11:01:13.000Z</time>
      </trkpt>
      <trkpt lat="47.24489" lon="-2.3132">
        <ele>17.39999961853</ele>
        <time>2021-02-04T11:01:19.000Z</time>
      </trkpt>
      <trkpt lat="47.2449" lon="-2.31322">
        <ele>17.799999237061</ele>
        <time>2021-02-04T11:01:21.000Z</time>
      </trkpt>
      <trkpt lat="47.24492" lon="-2.31325">
        <ele>18.200000762939</ele>
        <time>2021-02-04T11:01:22.000Z</time>
      </trkpt>
      <trkpt lat="47.24493" lon="-2.31327">
        <ele>18.60000038147</ele>
        <time>2021-02-04T11:01:23.000Z</time>
      </trkpt>
      <trkpt lat="47.24495" lon="-2.3133">
        <ele>19</ele>
        <time>2021-02-04T11:01:24.000Z</time>
      </trkpt>
      <trkpt lat="47.24496" lon="-2.31334">
        <ele>19.39999961853</ele>
        <time>2021-02-04T11:01:25.000Z</time>
      </trkpt>
      <trkpt lat="47.24498" lon="-2.31338">
        <ele>19.39999961853</ele>
        <time>2021-02-04T11:01:26.000Z</time>
      </trkpt>
      <trkpt lat="47.24508" lon="-2.31357">
        <ele>19.799999237061</ele>
        <time>2021-02-04T11:01:31.000Z</time>
      </trkpt>
      <trkpt lat="47.24511" lon="-2.3136">
        <ele>20.200000762939</ele>
        <time>2021-02-04T11:01:32.000Z</time>
      </trkpt>
      <trkpt lat="47.24515" lon="-2.31364">
        <ele>20.60000038147</ele>
        <time>2021-02-04T11:01:33.000Z</time>
      </trkpt>
      <trkpt lat="47.24518" lon="-2.31367">
        <ele>21.200000762939</ele>
        <time>2021-02-04T11:01:34.000Z</time>
      </trkpt>
      <trkpt lat="47.24521" lon="-2.3137">
        <ele>21.60000038147</ele>
        <time>2021-02-04T11:01:35.000Z</time>
      </trkpt>
      <trkpt lat="47.24531" lon="-2.31382">
        <ele>22.39999961853</ele>
        <time>2021-02-04T11:01:38.000Z</time>
      </trkpt>
      <trkpt lat="47.24535" lon="-2.31384">
        <ele>22.799999237061</ele>
        <time>2021-02-04T11:01:39.000Z</time>
      </trkpt>
      <trkpt lat="47.24538" lon="-2.31387">
        <ele>23.200000762939</ele>
        <time>2021-02-04T11:01:40.000Z</time>
      </trkpt>
      <trkpt lat="47.24542" lon="-2.31389">
        <ele>23.60000038147</ele>
        <time>2021-02-04T11:01:41.000Z</time>
      </trkpt>
      <trkpt lat="47.24555" lon="-2.3139">
        <ele>23.60000038147</ele>
        <time>2021-02-04T11:01:44.000Z</time>
      </trkpt>
      <trkpt lat="47.24577" lon="-2.31391">
        <ele>23.60000038147</ele>
        <time>2021-02-04T11:01:50.000Z</time>
      </trkpt>
      <trkpt lat="47.24584" lon="-2.31412">
        <ele>23.60000038147</ele>
        <time>2021-02-04T11:01:54.000Z</time>
      </trkpt>
      <trkpt lat="47.24584" lon="-2.31419">
        <ele>23.60000038147</ele>
        <time>2021-02-04T11:01:55.000Z</time>
      </trkpt>
      <trkpt lat="47.24591" lon="-2.31476">
        <ele>23.60000038147</ele>
        <time>2021-02-04T11:02:04.000Z</time>
      </trkpt>
      <trkpt lat="47.24596" lon="-2.31527">
        <ele>23.60000038147</ele>
        <time>2021-02-04T11:02:12.000Z</time>
      </trkpt>
      <trkpt lat="47.24597" lon="-2.31541">
        <ele>23.60000038147</ele>
        <time>2021-02-04T11:02:14.000Z</time>
      </trkpt>
      <trkpt lat="47.24603" lon="-2.31562">
        <ele>23.60000038147</ele>
        <time>2021-02-04T11:02:17.000Z</time>
      </trkpt>
      <trkpt lat="47.24605" lon="-2.3157">
        <ele>23.60000038147</ele>
        <time>2021-02-04T11:02:18.000Z</time>
      </trkpt>
      <trkpt lat="47.24608" lon="-2.31576">
        <ele>23.60000038147</ele>
        <time>2021-02-04T11:02:19.000Z</time>
      </trkpt>
      <trkpt lat="47.24618" lon="-2.31594">
        <ele>23.60000038147</ele>
        <time>2021-02-04T11:02:22.000Z</time>
      </trkpt>
      <trkpt lat="47.2463" lon="-2.31615">
        <ele>23.60000038147</ele>
        <time>2021-02-04T11:02:26.000Z</time>
      </trkpt>
      <trkpt lat="47.2464" lon="-2.31631">
        <ele>23.60000038147</ele>
        <time>2021-02-04T11:02:29.000Z</time>
      </trkpt>
      <trkpt lat="47.24665" lon="-2.31667">
        <ele>23.60000038147</ele>
        <time>2021-02-04T11:02:36.000Z</time>
      </trkpt>
      <trkpt lat="47.24693" lon="-2.31714">
        <ele>23.60000038147</ele>
        <time>2021-02-04T11:02:44.000Z</time>
      </trkpt>
      <trkpt lat="47.24722" lon="-2.31754">
        <ele>23.60000038147</ele>
        <time>2021-02-04T11:02:52.000Z</time>
      </trkpt>
      <trkpt lat="47.24748" lon="-2.31792">
        <ele>23.60000038147</ele>
        <time>2021-02-04T11:03:00.000Z</time>
      </trkpt>
      <trkpt lat="47.24779" lon="-2.31841">
        <ele>23.60000038147</ele>
        <time>2021-02-04T11:03:09.000Z</time>
      </trkpt>
      <trkpt lat="47.24799" lon="-2.31867">
        <ele>23.60000038147</ele>
        <time>2021-02-04T11:03:14.000Z</time>
      </trkpt>
      <trkpt lat="47.24804" lon="-2.31869">
        <ele>23.60000038147</ele>
        <time>2021-02-04T11:03:15.000Z</time>
      </trkpt>
      <trkpt lat="47.24815" lon="-2.31861">
        <ele>23.60000038147</ele>
        <time>2021-02-04T11:03:17.000Z</time>
      </trkpt>
      <trkpt lat="47.24821" lon="-2.31856">
        <ele>23.60000038147</ele>
        <time>2021-02-04T11:03:18.000Z</time>
      </trkpt>
      <trkpt lat="47.24826" lon="-2.31851">
        <ele>23.60000038147</ele>
        <time>2021-02-04T11:03:19.000Z</time>
      </trkpt>
      <trkpt lat="47.2485" lon="-2.31828">
        <ele>24</ele>
        <time>2021-02-04T11:03:24.000Z</time>
      </trkpt>
      <trkpt lat="47.24855" lon="-2.31823">
        <ele>24.39999961853</ele>
        <time>2021-02-04T11:03:25.000Z</time>
      </trkpt>
      <trkpt lat="47.2486" lon="-2.31819">
        <ele>25</ele>
        <time>2021-02-04T11:03:26.000Z</time>
      </trkpt>
      <trkpt lat="47.24864" lon="-2.31814">
        <ele>25.39999961853</ele>
        <time>2021-02-04T11:03:27.000Z</time>
      </trkpt>
      <trkpt lat="47.24869" lon="-2.31808">
        <ele>25.799999237061</ele>
        <time>2021-02-04T11:03:28.000Z</time>
      </trkpt>
      <trkpt lat="47.24873" lon="-2.31803">
        <ele>25.799999237061</ele>
        <time>2021-02-04T11:03:29.000Z</time>
      </trkpt>
      <trkpt lat="47.24904" lon="-2.31773">
        <ele>25.799999237061</ele>
        <time>2021-02-04T11:03:35.000Z</time>
      </trkpt>
      <trkpt lat="47.24939" lon="-2.31741">
        <ele>25.799999237061</ele>
        <time>2021-02-04T11:03:42.000Z</time>
      </trkpt>
      <trkpt lat="47.2496" lon="-2.31725">
        <ele>26.200000762939</ele>
        <time>2021-02-04T11:03:46.000Z</time>
      </trkpt>
      <trkpt lat="47.24965" lon="-2.31721">
        <ele>26.60000038147</ele>
        <time>2021-02-04T11:03:47.000Z</time>
      </trkpt>
      <trkpt lat="47.24969" lon="-2.31716">
        <ele>27</ele>
        <time>2021-02-04T11:03:48.000Z</time>
      </trkpt>
      <trkpt lat="47.24974" lon="-2.31711">
        <ele>27.39999961853</ele>
        <time>2021-02-04T11:03:49.000Z</time>
      </trkpt>
      <trkpt lat="47.24978" lon="-2.31706">
        <ele>27.799999237061</ele>
        <time>2021-02-04T11:03:50.000Z</time>
      </trkpt>
      <trkpt lat="47.25002" lon="-2.31683">
        <ele>27.799999237061</ele>
        <time>2021-02-04T11:03:55.000Z</time>
      </trkpt>
      <trkpt lat="47.25035" lon="-2.31648">
        <ele>27.799999237061</ele>
        <time>2021-02-04T11:04:02.000Z</time>
      </trkpt>
      <trkpt lat="47.2507" lon="-2.31614">
        <ele>27.799999237061</ele>
        <time>2021-02-04T11:04:09.000Z</time>
      </trkpt>
      <trkpt lat="47.25088" lon="-2.31596">
        <ele>27.799999237061</ele>
        <time>2021-02-04T11:04:14.000Z</time>
      </trkpt>
      <trkpt lat="47.25106" lon="-2.31577">
        <ele>27.799999237061</ele>
        <time>2021-02-04T11:04:20.000Z</time>
      </trkpt>
      <trkpt lat="47.25129" lon="-2.31559">
        <ele>27.799999237061</ele>
        <time>2021-02-04T11:04:25.000Z</time>
      </trkpt>
      <trkpt lat="47.25164" lon="-2.31523">
        <ele>27.799999237061</ele>
        <time>2021-02-04T11:04:33.000Z</time>
      </trkpt>
      <trkpt lat="47.2519" lon="-2.31488">
        <ele>27.799999237061</ele>
        <time>2021-02-04T11:04:40.000Z</time>
      </trkpt>
      <trkpt lat="47.25193" lon="-2.31483">
        <ele>27.799999237061</ele>
        <time>2021-02-04T11:04:41.000Z</time>
      </trkpt>
      <trkpt lat="47.25199" lon="-2.31473">
        <ele>27.799999237061</ele>
        <time>2021-02-04T11:04:43.000Z</time>
      </trkpt>
      <trkpt lat="47.25207" lon="-2.31467">
        <ele>27.799999237061</ele>
        <time>2021-02-04T11:04:45.000Z</time>
      </trkpt>
      <trkpt lat="47.25217" lon="-2.31463">
        <ele>27.799999237061</ele>
        <time>2021-02-04T11:04:47.000Z</time>
      </trkpt>
      <trkpt lat="47.25227" lon="-2.31457">
        <ele>27.799999237061</ele>
        <time>2021-02-04T11:04:49.000Z</time>
      </trkpt>
      <trkpt lat="47.25232" lon="-2.31454">
        <ele>27.799999237061</ele>
        <time>2021-02-04T11:04:50.000Z</time>
      </trkpt>
      <trkpt lat="47.25264" lon="-2.31435">
        <ele>27.39999961853</ele>
        <time>2021-02-04T11:04:56.000Z</time>
      </trkpt>
      <trkpt lat="47.25269" lon="-2.31432">
        <ele>27</ele>
        <time>2021-02-04T11:04:57.000Z</time>
      </trkpt>
      <trkpt lat="47.25274" lon="-2.3143">
        <ele>26.60000038147</ele>
        <time>2021-02-04T11:04:58.000Z</time>
      </trkpt>
      <trkpt lat="47.25279" lon="-2.31428">
        <ele>26</ele>
        <time>2021-02-04T11:04:59.000Z</time>
      </trkpt>
      <trkpt lat="47.25284" lon="-2.31427">
        <ele>25.60000038147</ele>
        <time>2021-02-04T11:05:00.000Z</time>
      </trkpt>
      <trkpt lat="47.25293" lon="-2.31424">
        <ele>25.60000038147</ele>
        <time>2021-02-04T11:05:02.000Z</time>
      </trkpt>
      <trkpt lat="47.25318" lon="-2.31412">
        <ele>25.60000038147</ele>
        <time>2021-02-04T11:05:08.000Z</time>
      </trkpt>
      <trkpt lat="47.25322" lon="-2.31408">
        <ele>25.60000038147</ele>
        <time>2021-02-04T11:05:09.000Z</time>
      </trkpt>
      <trkpt lat="47.25336" lon="-2.31412">
        <ele>25.60000038147</ele>
        <time>2021-02-04T11:05:13.000Z</time>
      </trkpt>
      <trkpt lat="47.25336" lon="-2.3143">
        <ele>25.60000038147</ele>
        <time>2021-02-04T11:05:16.000Z</time>
      </trkpt>
      <trkpt lat="47.25334" lon="-2.31437">
        <ele>25.60000038147</ele>
        <time>2021-02-04T11:05:17.000Z</time>
      </trkpt>
      <trkpt lat="47.25331" lon="-2.3146">
        <ele>25.60000038147</ele>
        <time>2021-02-04T11:05:20.000Z</time>
      </trkpt>
      <trkpt lat="47.25332" lon="-2.31468">
        <ele>25.60000038147</ele>
        <time>2021-02-04T11:05:21.000Z</time>
      </trkpt>
      <trkpt lat="47.25338" lon="-2.3152">
        <ele>25.60000038147</ele>
        <time>2021-02-04T11:05:27.000Z</time>
      </trkpt>
      <trkpt lat="47.25351" lon="-2.31561">
        <ele>25.60000038147</ele>
        <time>2021-02-04T11:05:32.000Z</time>
      </trkpt>
      <trkpt lat="47.25355" lon="-2.31569">
        <ele>25.60000038147</ele>
        <time>2021-02-04T11:05:33.000Z</time>
      </trkpt>
      <trkpt lat="47.25359" lon="-2.31576">
        <ele>25.200000762939</ele>
        <time>2021-02-04T11:05:34.000Z</time>
      </trkpt>
      <trkpt lat="47.25363" lon="-2.31584">
        <ele>24.799999237061</ele>
        <time>2021-02-04T11:05:35.000Z</time>
      </trkpt>
      <trkpt lat="47.25367" lon="-2.31591">
        <ele>24.39999961853</ele>
        <time>2021-02-04T11:05:36.000Z</time>
      </trkpt>
      <trkpt lat="47.25371" lon="-2.31598">
        <ele>24</ele>
        <time>2021-02-04T11:05:37.000Z</time>
      </trkpt>
      <trkpt lat="47.25375" lon="-2.31605">
        <ele>23.60000038147</ele>
        <time>2021-02-04T11:05:38.000Z</time>
      </trkpt>
      <trkpt lat="47.25379" lon="-2.31613">
        <ele>23.60000038147</ele>
        <time>2021-02-04T11:05:39.000Z</time>
      </trkpt>
      <trkpt lat="47.25403" lon="-2.31659">
        <ele>23.60000038147</ele>
        <time>2021-02-04T11:05:45.000Z</time>
      </trkpt>
      <trkpt lat="47.2543" lon="-2.31726">
        <ele>23.200000762939</ele>
        <time>2021-02-04T11:05:53.000Z</time>
      </trkpt>
      <trkpt lat="47.25433" lon="-2.31735">
        <ele>22.799999237061</ele>
        <time>2021-02-04T11:05:54.000Z</time>
      </trkpt>
      <trkpt lat="47.25438" lon="-2.31753">
        <ele>22</ele>
        <time>2021-02-04T11:05:55.000Z</time>
      </trkpt>
      <trkpt lat="47.25441" lon="-2.31762">
        <ele>21.39999961853</ele>
        <time>2021-02-04T11:05:57.000Z</time>
      </trkpt>
      <trkpt lat="47.25449" lon="-2.31789">
        <ele>21.39999961853</ele>
        <time>2021-02-04T11:06:00.000Z</time>
      </trkpt>
      <trkpt lat="47.25457" lon="-2.31824">
        <ele>21.39999961853</ele>
        <time>2021-02-04T11:06:04.000Z</time>
      </trkpt>
      <trkpt lat="47.25462" lon="-2.31829">
        <ele>21.39999961853</ele>
        <time>2021-02-04T11:06:05.000Z</time>
      </trkpt>
      <trkpt lat="47.25477" lon="-2.31835">
        <ele>21.39999961853</ele>
        <time>2021-02-04T11:06:08.000Z</time>
      </trkpt>
      <trkpt lat="47.25492" lon="-2.3183">
        <ele>21.39999961853</ele>
        <time>2021-02-04T11:06:11.000Z</time>
      </trkpt>
      <trkpt lat="47.25496" lon="-2.31828">
        <ele>21.39999961853</ele>
        <time>2021-02-04T11:06:12.000Z</time>
      </trkpt>
      <trkpt lat="47.2551" lon="-2.31829">
        <ele>21.39999961853</ele>
        <time>2021-02-04T11:06:16.000Z</time>
      </trkpt>
      <trkpt lat="47.25519" lon="-2.31836">
        <ele>21.39999961853</ele>
        <time>2021-02-04T11:06:22.000Z</time>
      </trkpt>
      <trkpt lat="47.2552" lon="-2.31837">
        <ele>21.39999961853</ele>
        <time>2021-02-04T11:06:24.000Z</time>
      </trkpt>
      <trkpt lat="47.25524" lon="-2.31835">
        <ele>21.39999961853</ele>
        <time>2021-02-04T11:10:43.000Z</time>
      </trkpt>
      <trkpt lat="47.25525" lon="-2.31834">
        <ele>21.39999961853</ele>
        <time>2021-02-04T11:10:44.000Z</time>
      </trkpt>
      <trkpt lat="47.25525" lon="-2.31824">
        <ele>21.39999961853</ele>
        <time>2021-02-04T11:10:48.000Z</time>
      </trkpt>
      <trkpt lat="47.25527" lon="-2.31812">
        <ele>21.39999961853</ele>
        <time>2021-02-04T11:10:53.000Z</time>
      </trkpt>
      <trkpt lat="47.25533" lon="-2.3181">
        <ele>21.39999961853</ele>
        <time>2021-02-04T11:10:56.000Z</time>
      </trkpt>
      <trkpt lat="47.25535" lon="-2.31808">
        <ele>21.39999961853</ele>
        <time>2021-02-04T11:10:57.000Z</time>
      </trkpt>
      <trkpt lat="47.25538" lon="-2.31807">
        <ele>21.39999961853</ele>
        <time>2021-02-04T11:10:58.000Z</time>
      </trkpt>
      <trkpt lat="47.25547" lon="-2.31804">
        <ele>21</ele>
        <time>2021-02-04T11:11:01.000Z</time>
      </trkpt>
      <trkpt lat="47.25549" lon="-2.31803">
        <ele>20.60000038147</ele>
        <time>2021-02-04T11:11:02.000Z</time>
      </trkpt>
      <trkpt lat="47.25552" lon="-2.31802">
        <ele>20.200000762939</ele>
        <time>2021-02-04T11:11:03.000Z</time>
      </trkpt>
      <trkpt lat="47.25553" lon="-2.31801">
        <ele>19.799999237061</ele>
        <time>2021-02-04T11:11:04.000Z</time>
      </trkpt>
      <trkpt lat="47.25555" lon="-2.31797">
        <ele>19.39999961853</ele>
        <time>2021-02-04T11:11:05.000Z</time>
      </trkpt>
      <trkpt lat="47.25561" lon="-2.31791">
        <ele>19.39999961853</ele>
        <time>2021-02-04T11:11:07.000Z</time>
      </trkpt>
      <trkpt lat="47.25571" lon="-2.3177">
        <ele>19.39999961853</ele>
        <time>2021-02-04T11:11:11.000Z</time>
      </trkpt>
      <trkpt lat="47.25579" lon="-2.3176">
        <ele>19.39999961853</ele>
        <time>2021-02-04T11:11:13.000Z</time>
      </trkpt>
      <trkpt lat="47.25583" lon="-2.31754">
        <ele>19.39999961853</ele>
        <time>2021-02-04T11:11:14.000Z</time>
      </trkpt>
      <trkpt lat="47.25586" lon="-2.31746">
        <ele>19.39999961853</ele>
        <time>2021-02-04T11:11:15.000Z</time>
      </trkpt>
      <trkpt lat="47.25593" lon="-2.31724">
        <ele>19.39999961853</ele>
        <time>2021-02-04T11:11:18.000Z</time>
      </trkpt>
      <trkpt lat="47.25597" lon="-2.31718">
        <ele>19.39999961853</ele>
        <time>2021-02-04T11:11:19.000Z</time>
      </trkpt>
      <trkpt lat="47.25612" lon="-2.31709">
        <ele>19.39999961853</ele>
        <time>2021-02-04T11:11:22.000Z</time>
      </trkpt>
      <trkpt lat="47.25623" lon="-2.31707">
        <ele>19</ele>
        <time>2021-02-04T11:11:24.000Z</time>
      </trkpt>
      <trkpt lat="47.25629" lon="-2.31704">
        <ele>18.39999961853</ele>
        <time>2021-02-04T11:11:25.000Z</time>
      </trkpt>
      <trkpt lat="47.25635" lon="-2.31702">
        <ele>18</ele>
        <time>2021-02-04T11:11:26.000Z</time>
      </trkpt>
      <trkpt lat="47.25642" lon="-2.31697">
        <ele>17.60000038147</ele>
        <time>2021-02-04T11:11:27.000Z</time>
      </trkpt>
      <trkpt lat="47.25648" lon="-2.31691">
        <ele>17.200000762939</ele>
        <time>2021-02-04T11:11:28.000Z</time>
      </trkpt>
      <trkpt lat="47.25658" lon="-2.31672">
        <ele>16.39999961853</ele>
        <time>2021-02-04T11:11:31.000Z</time>
      </trkpt>
      <trkpt lat="47.2566" lon="-2.31665">
        <ele>16</ele>
        <time>2021-02-04T11:11:32.000Z</time>
      </trkpt>
      <trkpt lat="47.25665" lon="-2.31661">
        <ele>15.60000038147</ele>
        <time>2021-02-04T11:11:33.000Z</time>
      </trkpt>
      <trkpt lat="47.25669" lon="-2.3166">
        <ele>15.199999809265</ele>
        <time>2021-02-04T11:11:34.000Z</time>
      </trkpt>
      <trkpt lat="47.25685" lon="-2.31671">
        <ele>15.199999809265</ele>
        <time>2021-02-04T11:11:37.000Z</time>
      </trkpt>
      <trkpt lat="47.2569" lon="-2.31674">
        <ele>15.199999809265</ele>
        <time>2021-02-04T11:11:38.000Z</time>
      </trkpt>
      <trkpt lat="47.25696" lon="-2.31676">
        <ele>15.199999809265</ele>
        <time>2021-02-04T11:11:39.000Z</time>
      </trkpt>
      <trkpt lat="47.25702" lon="-2.31679">
        <ele>14.800000190735</ele>
        <time>2021-02-04T11:11:40.000Z</time>
      </trkpt>
      <trkpt lat="47.25708" lon="-2.31683">
        <ele>14.39999961853</ele>
        <time>2021-02-04T11:11:41.000Z</time>
      </trkpt>
      <trkpt lat="47.25714" lon="-2.31687">
        <ele>14</ele>
        <time>2021-02-04T11:11:42.000Z</time>
      </trkpt>
      <trkpt lat="47.2572" lon="-2.31691">
        <ele>13.39999961853</ele>
        <time>2021-02-04T11:11:43.000Z</time>
      </trkpt>
      <trkpt lat="47.25727" lon="-2.31696">
        <ele>13</ele>
        <time>2021-02-04T11:11:44.000Z</time>
      </trkpt>
      <trkpt lat="47.25733" lon="-2.31696">
        <ele>13</ele>
        <time>2021-02-04T11:11:45.000Z</time>
      </trkpt>
      <trkpt lat="47.25739" lon="-2.31692">
        <ele>13</ele>
        <time>2021-02-04T11:11:46.000Z</time>
      </trkpt>
      <trkpt lat="47.25755" lon="-2.31679">
        <ele>13</ele>
        <time>2021-02-04T11:11:49.000Z</time>
      </trkpt>
      <trkpt lat="47.2576" lon="-2.31675">
        <ele>13</ele>
        <time>2021-02-04T11:11:50.000Z</time>
      </trkpt>
      <trkpt lat="47.25789" lon="-2.31651">
        <ele>13</ele>
        <time>2021-02-04T11:11:56.000Z</time>
      </trkpt>
      <trkpt lat="47.25825" lon="-2.31621">
        <ele>13</ele>
        <time>2021-02-04T11:12:04.000Z</time>
      </trkpt>
      <trkpt lat="47.2585" lon="-2.31596">
        <ele>13</ele>
        <time>2021-02-04T11:12:10.000Z</time>
      </trkpt>
      <trkpt lat="47.25882" lon="-2.31564">
        <ele>13</ele>
        <time>2021-02-04T11:12:16.000Z</time>
      </trkpt>
      <trkpt lat="47.25897" lon="-2.31529">
        <ele>13</ele>
        <time>2021-02-04T11:12:20.000Z</time>
      </trkpt>
      <trkpt lat="47.25903" lon="-2.31516">
        <ele>13</ele>
        <time>2021-02-04T11:12:22.000Z</time>
      </trkpt>
      <trkpt lat="47.25907" lon="-2.31513">
        <ele>12.60000038147</ele>
        <time>2021-02-04T11:12:23.000Z</time>
      </trkpt>
      <trkpt lat="47.2591" lon="-2.31511">
        <ele>12.199999809265</ele>
        <time>2021-02-04T11:12:24.000Z</time>
      </trkpt>
      <trkpt lat="47.25912" lon="-2.31508">
        <ele>11.800000190735</ele>
        <time>2021-02-04T11:12:25.000Z</time>
      </trkpt>
      <trkpt lat="47.25913" lon="-2.31506">
        <ele>11.39999961853</ele>
        <time>2021-02-04T11:12:26.000Z</time>
      </trkpt>
      <trkpt lat="47.25912" lon="-2.31504">
        <ele>11</ele>
        <time>2021-02-04T11:12:27.000Z</time>
      </trkpt>
      <trkpt lat="47.25912" lon="-2.31499">
        <ele>11</ele>
        <time>2021-02-04T11:12:30.000Z</time>
      </trkpt>
      <trkpt lat="47.25915" lon="-2.31491">
        <ele>11</ele>
        <time>2021-02-04T11:12:32.000Z</time>
      </trkpt>
      <trkpt lat="47.2592" lon="-2.3148">
        <ele>11</ele>
        <time>2021-02-04T11:12:34.000Z</time>
      </trkpt>
      <trkpt lat="47.25927" lon="-2.3146">
        <ele>11</ele>
        <time>2021-02-04T11:12:37.000Z</time>
      </trkpt>
      <trkpt lat="47.25934" lon="-2.31456">
        <ele>11</ele>
        <time>2021-02-04T11:12:39.000Z</time>
      </trkpt>
      <trkpt lat="47.25947" lon="-2.31463">
        <ele>11</ele>
        <time>2021-02-04T11:12:42.000Z</time>
      </trkpt>
      <trkpt lat="47.25961" lon="-2.31477">
        <ele>11</ele>
        <time>2021-02-04T11:12:45.000Z</time>
      </trkpt>
      <trkpt lat="47.25968" lon="-2.31486">
        <ele>10.60000038147</ele>
        <time>2021-02-04T11:12:47.000Z</time>
      </trkpt>
      <trkpt lat="47.25971" lon="-2.31491">
        <ele>10.199999809265</ele>
        <time>2021-02-04T11:12:48.000Z</time>
      </trkpt>
      <trkpt lat="47.25973" lon="-2.31496">
        <ele>9.8000001907349</ele>
        <time>2021-02-04T11:12:49.000Z</time>
      </trkpt>
      <trkpt lat="47.25976" lon="-2.31502">
        <ele>9.3999996185303</ele>
        <time>2021-02-04T11:12:50.000Z</time>
      </trkpt>
      <trkpt lat="47.25978" lon="-2.31508">
        <ele>9</ele>
        <time>2021-02-04T11:12:51.000Z</time>
      </trkpt>
      <trkpt lat="47.2598" lon="-2.31513">
        <ele>9</ele>
        <time>2021-02-04T11:12:52.000Z</time>
      </trkpt>
      <trkpt lat="47.25995" lon="-2.31541">
        <ele>9</ele>
        <time>2021-02-04T11:12:58.000Z</time>
      </trkpt>
      <trkpt lat="47.26015" lon="-2.31564">
        <ele>9</ele>
        <time>2021-02-04T11:13:05.000Z</time>
      </trkpt>
      <trkpt lat="47.26023" lon="-2.31554">
        <ele>9</ele>
        <time>2021-02-04T11:13:08.000Z</time>
      </trkpt>
      <trkpt lat="47.26027" lon="-2.31544">
        <ele>9</ele>
        <time>2021-02-04T11:13:10.000Z</time>
      </trkpt>
      <trkpt lat="47.26032" lon="-2.31528">
        <ele>9</ele>
        <time>2021-02-04T11:13:13.000Z</time>
      </trkpt>
      <trkpt lat="47.2604" lon="-2.31513">
        <ele>9</ele>
        <time>2021-02-04T11:13:17.000Z</time>
      </trkpt>
      <trkpt lat="47.26043" lon="-2.31515">
        <ele>9</ele>
        <time>2021-02-04T11:13:18.000Z</time>
      </trkpt>
      <trkpt lat="47.26054" lon="-2.31529">
        <ele>9</ele>
        <time>2021-02-04T11:13:21.000Z</time>
      </trkpt>
      <trkpt lat="47.26075" lon="-2.31569">
        <ele>8.6000003814697</ele>
        <time>2021-02-04T11:13:28.000Z</time>
      </trkpt>
      <trkpt lat="47.26077" lon="-2.31574">
        <ele>8.1999998092651</ele>
        <time>2021-02-04T11:13:29.000Z</time>
      </trkpt>
      <trkpt lat="47.2608" lon="-2.31577">
        <ele>7.8000001907349</ele>
        <time>2021-02-04T11:13:30.000Z</time>
      </trkpt>
      <trkpt lat="47.26083" lon="-2.31578">
        <ele>7.1999998092651</ele>
        <time>2021-02-04T11:13:31.000Z</time>
      </trkpt>
      <trkpt lat="47.26086" lon="-2.31579">
        <ele>6.8000001907349</ele>
        <time>2021-02-04T11:13:32.000Z</time>
      </trkpt>
      <trkpt lat="47.26094" lon="-2.3159">
        <ele>6.8000001907349</ele>
        <time>2021-02-04T11:13:35.000Z</time>
      </trkpt>
      <trkpt lat="47.26097" lon="-2.31596">
        <ele>6.8000001907349</ele>
        <time>2021-02-04T11:13:36.000Z</time>
      </trkpt>
      <trkpt lat="47.26108" lon="-2.31611">
        <ele>6.8000001907349</ele>
        <time>2021-02-04T11:13:39.000Z</time>
      </trkpt>
      <trkpt lat="47.26118" lon="-2.31615">
        <ele>6.8000001907349</ele>
        <time>2021-02-04T11:13:41.000Z</time>
      </trkpt>
      <trkpt lat="47.26138" lon="-2.31611">
        <ele>6.8000001907349</ele>
        <time>2021-02-04T11:13:45.000Z</time>
      </trkpt>
      <trkpt lat="47.26174" lon="-2.31598">
        <ele>6.8000001907349</ele>
        <time>2021-02-04T11:13:52.000Z</time>
      </trkpt>
      <trkpt lat="47.26214" lon="-2.31589">
        <ele>6.8000001907349</ele>
        <time>2021-02-04T11:14:00.000Z</time>
      </trkpt>
      <trkpt lat="47.26227" lon="-2.31595">
        <ele>6.8000001907349</ele>
        <time>2021-02-04T11:14:03.000Z</time>
      </trkpt>
      <trkpt lat="47.26235" lon="-2.31601">
        <ele>6.8000001907349</ele>
        <time>2021-02-04T11:14:05.000Z</time>
      </trkpt>
      <trkpt lat="47.26249" lon="-2.31615">
        <ele>6.8000001907349</ele>
        <time>2021-02-04T11:14:09.000Z</time>
      </trkpt>
      <trkpt lat="47.26255" lon="-2.31624">
        <ele>6.8000001907349</ele>
        <time>2021-02-04T11:14:11.000Z</time>
      </trkpt>
      <trkpt lat="47.26257" lon="-2.31629">
        <ele>6.8000001907349</ele>
        <time>2021-02-04T11:14:12.000Z</time>
      </trkpt>
      <trkpt lat="47.26263" lon="-2.31643">
        <ele>6.8000001907349</ele>
        <time>2021-02-04T11:14:15.000Z</time>
      </trkpt>
      <trkpt lat="47.26279" lon="-2.31671">
        <ele>6.8000001907349</ele>
        <time>2021-02-04T11:14:21.000Z</time>
      </trkpt>
      <trkpt lat="47.26299" lon="-2.31708">
        <ele>6.8000001907349</ele>
        <time>2021-02-04T11:14:27.000Z</time>
      </trkpt>
      <trkpt lat="47.26312" lon="-2.31707">
        <ele>6.8000001907349</ele>
        <time>2021-02-04T11:14:30.000Z</time>
      </trkpt>
      <trkpt lat="47.2633" lon="-2.31698">
        <ele>6.8000001907349</ele>
        <time>2021-02-04T11:14:35.000Z</time>
      </trkpt>
      <trkpt lat="47.26332" lon="-2.3169">
        <ele>6.8000001907349</ele>
        <time>2021-02-04T11:14:38.000Z</time>
      </trkpt>
      <trkpt lat="47.26333" lon="-2.31686">
        <ele>6.8000001907349</ele>
        <time>2021-02-04T11:14:39.000Z</time>
      </trkpt>
      <trkpt lat="47.26339" lon="-2.31685">
        <ele>6.8000001907349</ele>
        <time>2021-02-04T11:14:42.000Z</time>
      </trkpt>
      <trkpt lat="47.26344" lon="-2.31682">
        <ele>6.8000001907349</ele>
        <time>2021-02-04T11:14:44.000Z</time>
      </trkpt>
      <trkpt lat="47.26352" lon="-2.31677">
        <ele>7.1999998092651</ele>
        <time>2021-02-04T11:14:47.000Z</time>
      </trkpt>
      <trkpt lat="47.26356" lon="-2.31676">
        <ele>8.1999998092651</ele>
        <time>2021-02-04T11:14:48.000Z</time>
      </trkpt>
      <trkpt lat="47.2636" lon="-2.31674">
        <ele>8.6000003814697</ele>
        <time>2021-02-04T11:14:49.000Z</time>
      </trkpt>
      <trkpt lat="47.26364" lon="-2.31673">
        <ele>9</ele>
        <time>2021-02-04T11:14:50.000Z</time>
      </trkpt>
      <trkpt lat="47.26375" lon="-2.31669">
        <ele>9</ele>
        <time>2021-02-04T11:14:53.000Z</time>
      </trkpt>
      <trkpt lat="47.26397" lon="-2.31657">
        <ele>9</ele>
        <time>2021-02-04T11:15:00.000Z</time>
      </trkpt>
      <trkpt lat="47.26411" lon="-2.31646">
        <ele>9</ele>
        <time>2021-02-04T11:15:06.000Z</time>
      </trkpt>
      <trkpt lat="47.26411" lon="-2.31632">
        <ele>9</ele>
        <time>2021-02-04T11:15:09.000Z</time>
      </trkpt>
      <trkpt lat="47.26411" lon="-2.31626">
        <ele>9</ele>
        <time>2021-02-04T11:15:10.000Z</time>
      </trkpt>
      <trkpt lat="47.26412" lon="-2.31621">
        <ele>9.3999996185303</ele>
        <time>2021-02-04T11:15:11.000Z</time>
      </trkpt>
      <trkpt lat="47.26412" lon="-2.31616">
        <ele>9.8000001907349</ele>
        <time>2021-02-04T11:15:12.000Z</time>
      </trkpt>
      <trkpt lat="47.26412" lon="-2.3161">
        <ele>10.60000038147</ele>
        <time>2021-02-04T11:15:13.000Z</time>
      </trkpt>
      <trkpt lat="47.26412" lon="-2.31605">
        <ele>11.199999809265</ele>
        <time>2021-02-04T11:15:14.000Z</time>
      </trkpt>
      <trkpt lat="47.26412" lon="-2.31595">
        <ele>11.199999809265</ele>
        <time>2021-02-04T11:15:16.000Z</time>
      </trkpt>
      <trkpt lat="47.26412" lon="-2.31571">
        <ele>11.199999809265</ele>
        <time>2021-02-04T11:15:21.000Z</time>
      </trkpt>
      <trkpt lat="47.26413" lon="-2.31554">
        <ele>11.199999809265</ele>
        <time>2021-02-04T11:15:25.000Z</time>
      </trkpt>
      <trkpt lat="47.26415" lon="-2.31551">
        <ele>11.199999809265</ele>
        <time>2021-02-04T11:15:26.000Z</time>
      </trkpt>
      <trkpt lat="47.2642" lon="-2.31553">
        <ele>11.199999809265</ele>
        <time>2021-02-04T11:15:29.000Z</time>
      </trkpt>
      <trkpt lat="47.2642" lon="-2.31553">
        <ele>11.199999809265</ele>
        <time>2021-02-04T11:15:31.000Z</time>
      </trkpt>
    </trkseg>
  </trk>
</gpx>